<?xml version="1.0" encoding="UTF-8" standalone="no" ?>
<gpx xmlns="http://www.topografix.com/GPX/1/1" xmlns:xsi="http://www.w3.org/2001/XMLSchema-instance" xsi:schemaLocation="http://www.topografix.com/GPX/1/1 http://www.topografix.com/GPX/1/1/gpx.xsd" version="1.1" creator="VisuGPX - https://www.visugpx.com">
  <metadata>
    <name>Mons Mont des Louquiers</name>
    <desc><![CDATA[Trace AlpineQuest 20/03/2016 09:26:00]]></desc>
  </metadata>
  <trk>
    <name><![CDATA[Rando calendrier Mons ASCVTT]]></name>
    <trkseg>
      <trkpt lat="43.68948" lon="6.71366">
        <ele>863</ele>
        <time>2016-03-20T08:26:00Z</time>
      </trkpt>
      <trkpt lat="43.6895" lon="6.71374">
        <ele>856</ele>
        <time>2016-03-20T08:26:36Z</time>
      </trkpt>
      <trkpt lat="43.68952" lon="6.71372">
        <ele>854</ele>
        <time>2016-03-20T08:28:04Z</time>
      </trkpt>
      <trkpt lat="43.68958" lon="6.71367">
        <ele>856</ele>
        <time>2016-03-20T08:28:12Z</time>
      </trkpt>
      <trkpt lat="43.68961" lon="6.71358">
        <ele>856</ele>
        <time>2016-03-20T08:28:18Z</time>
      </trkpt>
      <trkpt lat="43.68968" lon="6.71352">
        <ele>856</ele>
        <time>2016-03-20T08:28:24Z</time>
      </trkpt>
      <trkpt lat="43.68978" lon="6.71361">
        <ele>855</ele>
        <time>2016-03-20T08:28:30Z</time>
      </trkpt>
      <trkpt lat="43.68989" lon="6.71367">
        <ele>855</ele>
        <time>2016-03-20T08:28:36Z</time>
      </trkpt>
      <trkpt lat="43.68998" lon="6.71371">
        <ele>857</ele>
        <time>2016-03-20T08:28:42Z</time>
      </trkpt>
      <trkpt lat="43.69012" lon="6.71372">
        <ele>858</ele>
        <time>2016-03-20T08:28:48Z</time>
      </trkpt>
      <trkpt lat="43.6902" lon="6.71373">
        <ele>859</ele>
        <time>2016-03-20T08:28:52Z</time>
      </trkpt>
      <trkpt lat="43.6903" lon="6.71372">
        <ele>860</ele>
        <time>2016-03-20T08:28:56Z</time>
      </trkpt>
      <trkpt lat="43.69043" lon="6.71371">
        <ele>859</ele>
        <time>2016-03-20T08:29:01Z</time>
      </trkpt>
      <trkpt lat="43.69057" lon="6.71374">
        <ele>855</ele>
        <time>2016-03-20T08:29:06Z</time>
      </trkpt>
      <trkpt lat="43.69067" lon="6.71367">
        <ele>858</ele>
        <time>2016-03-20T08:29:11Z</time>
      </trkpt>
      <trkpt lat="43.69072" lon="6.71351">
        <ele>858</ele>
        <time>2016-03-20T08:29:16Z</time>
      </trkpt>
      <trkpt lat="43.69075" lon="6.71346">
        <ele>859</ele>
        <time>2016-03-20T08:29:18Z</time>
      </trkpt>
      <trkpt lat="43.69078" lon="6.71337">
        <ele>862</ele>
        <time>2016-03-20T08:29:22Z</time>
      </trkpt>
      <trkpt lat="43.69085" lon="6.71331">
        <ele>865</ele>
        <time>2016-03-20T08:29:27Z</time>
      </trkpt>
      <trkpt lat="43.69099" lon="6.71338">
        <ele>861</ele>
        <time>2016-03-20T08:29:32Z</time>
      </trkpt>
      <trkpt lat="43.69112" lon="6.71344">
        <ele>858</ele>
        <time>2016-03-20T08:29:37Z</time>
      </trkpt>
      <trkpt lat="43.69126" lon="6.71351">
        <ele>856</ele>
        <time>2016-03-20T08:29:42Z</time>
      </trkpt>
      <trkpt lat="43.69141" lon="6.71359">
        <ele>856</ele>
        <time>2016-03-20T08:29:47Z</time>
      </trkpt>
      <trkpt lat="43.69154" lon="6.71369">
        <ele>852</ele>
        <time>2016-03-20T08:29:52Z</time>
      </trkpt>
      <trkpt lat="43.69168" lon="6.71379">
        <ele>852</ele>
        <time>2016-03-20T08:29:57Z</time>
      </trkpt>
      <trkpt lat="43.69183" lon="6.71391">
        <ele>850</ele>
        <time>2016-03-20T08:30:02Z</time>
      </trkpt>
      <trkpt lat="43.69197" lon="6.71405">
        <ele>847</ele>
        <time>2016-03-20T08:30:07Z</time>
      </trkpt>
      <trkpt lat="43.69212" lon="6.71419">
        <ele>848</ele>
        <time>2016-03-20T08:30:12Z</time>
      </trkpt>
      <trkpt lat="43.69227" lon="6.71437">
        <ele>847</ele>
        <time>2016-03-20T08:30:17Z</time>
      </trkpt>
      <trkpt lat="43.69228" lon="6.7144">
        <ele>848</ele>
        <time>2016-03-20T08:30:18Z</time>
      </trkpt>
      <trkpt lat="43.69241" lon="6.71453">
        <ele>848</ele>
        <time>2016-03-20T08:30:23Z</time>
      </trkpt>
      <trkpt lat="43.69261" lon="6.71458">
        <ele>848</ele>
        <time>2016-03-20T08:30:28Z</time>
      </trkpt>
      <trkpt lat="43.69281" lon="6.71464">
        <ele>847</ele>
        <time>2016-03-20T08:30:33Z</time>
      </trkpt>
      <trkpt lat="43.69302" lon="6.71471">
        <ele>846</ele>
        <time>2016-03-20T08:30:38Z</time>
      </trkpt>
      <trkpt lat="43.6932" lon="6.71478">
        <ele>848</ele>
        <time>2016-03-20T08:30:43Z</time>
      </trkpt>
      <trkpt lat="43.69334" lon="6.71487">
        <ele>847</ele>
        <time>2016-03-20T08:30:48Z</time>
      </trkpt>
      <trkpt lat="43.69337" lon="6.71489">
        <ele>847</ele>
        <time>2016-03-20T08:30:49Z</time>
      </trkpt>
      <trkpt lat="43.69354" lon="6.71496">
        <ele>850</ele>
        <time>2016-03-20T08:30:54Z</time>
      </trkpt>
      <trkpt lat="43.6937" lon="6.71499">
        <ele>850</ele>
        <time>2016-03-20T08:30:59Z</time>
      </trkpt>
      <trkpt lat="43.69375" lon="6.71501">
        <ele>852</ele>
        <time>2016-03-20T08:31:01Z</time>
      </trkpt>
      <trkpt lat="43.69387" lon="6.71505">
        <ele>852</ele>
        <time>2016-03-20T08:31:06Z</time>
      </trkpt>
      <trkpt lat="43.69396" lon="6.71503">
        <ele>854</ele>
        <time>2016-03-20T08:31:09Z</time>
      </trkpt>
      <trkpt lat="43.69408" lon="6.71492">
        <ele>859</ele>
        <time>2016-03-20T08:31:14Z</time>
      </trkpt>
      <trkpt lat="43.69413" lon="6.71471">
        <ele>859</ele>
        <time>2016-03-20T08:31:20Z</time>
      </trkpt>
      <trkpt lat="43.69411" lon="6.71454">
        <ele>860</ele>
        <time>2016-03-20T08:31:25Z</time>
      </trkpt>
      <trkpt lat="43.69404" lon="6.71441">
        <ele>860</ele>
        <time>2016-03-20T08:31:30Z</time>
      </trkpt>
      <trkpt lat="43.69392" lon="6.71432">
        <ele>860</ele>
        <time>2016-03-20T08:31:35Z</time>
      </trkpt>
      <trkpt lat="43.69384" lon="6.7142">
        <ele>861</ele>
        <time>2016-03-20T08:31:40Z</time>
      </trkpt>
      <trkpt lat="43.69372" lon="6.71408">
        <ele>861</ele>
        <time>2016-03-20T08:31:46Z</time>
      </trkpt>
      <trkpt lat="43.6936" lon="6.71398">
        <ele>860</ele>
        <time>2016-03-20T08:31:51Z</time>
      </trkpt>
      <trkpt lat="43.69351" lon="6.71384">
        <ele>859</ele>
        <time>2016-03-20T08:31:57Z</time>
      </trkpt>
      <trkpt lat="43.69344" lon="6.71368">
        <ele>860</ele>
        <time>2016-03-20T08:32:03Z</time>
      </trkpt>
      <trkpt lat="43.69343" lon="6.71361">
        <ele>860</ele>
        <time>2016-03-20T08:32:05Z</time>
      </trkpt>
      <trkpt lat="43.69342" lon="6.71355">
        <ele>861</ele>
        <time>2016-03-20T08:32:07Z</time>
      </trkpt>
      <trkpt lat="43.69341" lon="6.71348">
        <ele>862</ele>
        <time>2016-03-20T08:32:09Z</time>
      </trkpt>
      <trkpt lat="43.69337" lon="6.71329">
        <ele>864</ele>
        <time>2016-03-20T08:32:15Z</time>
      </trkpt>
      <trkpt lat="43.69335" lon="6.71309">
        <ele>866</ele>
        <time>2016-03-20T08:32:21Z</time>
      </trkpt>
      <trkpt lat="43.69331" lon="6.71289">
        <ele>869</ele>
        <time>2016-03-20T08:32:27Z</time>
      </trkpt>
      <trkpt lat="43.69325" lon="6.71275">
        <ele>869</ele>
        <time>2016-03-20T08:32:32Z</time>
      </trkpt>
      <trkpt lat="43.69315" lon="6.71261">
        <ele>870</ele>
        <time>2016-03-20T08:32:38Z</time>
      </trkpt>
      <trkpt lat="43.69304" lon="6.71245">
        <ele>872</ele>
        <time>2016-03-20T08:32:44Z</time>
      </trkpt>
      <trkpt lat="43.69293" lon="6.71233">
        <ele>873</ele>
        <time>2016-03-20T08:32:50Z</time>
      </trkpt>
      <trkpt lat="43.69284" lon="6.71221">
        <ele>875</ele>
        <time>2016-03-20T08:32:56Z</time>
      </trkpt>
      <trkpt lat="43.69273" lon="6.71214">
        <ele>875</ele>
        <time>2016-03-20T08:33:01Z</time>
      </trkpt>
      <trkpt lat="43.69271" lon="6.71211">
        <ele>875</ele>
        <time>2016-03-20T08:33:02Z</time>
      </trkpt>
      <trkpt lat="43.6926" lon="6.71198">
        <ele>875</ele>
        <time>2016-03-20T08:33:07Z</time>
      </trkpt>
      <trkpt lat="43.69247" lon="6.71186">
        <ele>875</ele>
        <time>2016-03-20T08:33:13Z</time>
      </trkpt>
      <trkpt lat="43.69237" lon="6.71176">
        <ele>876</ele>
        <time>2016-03-20T08:33:18Z</time>
      </trkpt>
      <trkpt lat="43.69226" lon="6.71164">
        <ele>877</ele>
        <time>2016-03-20T08:33:24Z</time>
      </trkpt>
      <trkpt lat="43.69214" lon="6.7115">
        <ele>877</ele>
        <time>2016-03-20T08:33:30Z</time>
      </trkpt>
      <trkpt lat="43.69206" lon="6.71136">
        <ele>878</ele>
        <time>2016-03-20T08:33:36Z</time>
      </trkpt>
      <trkpt lat="43.692" lon="6.71117">
        <ele>879</ele>
        <time>2016-03-20T08:33:42Z</time>
      </trkpt>
      <trkpt lat="43.69193" lon="6.71101">
        <ele>881</ele>
        <time>2016-03-20T08:33:48Z</time>
      </trkpt>
      <trkpt lat="43.69185" lon="6.71085">
        <ele>883</ele>
        <time>2016-03-20T08:33:54Z</time>
      </trkpt>
      <trkpt lat="43.69177" lon="6.71068">
        <ele>884</ele>
        <time>2016-03-20T08:34:00Z</time>
      </trkpt>
      <trkpt lat="43.69167" lon="6.71057">
        <ele>882</ele>
        <time>2016-03-20T08:34:05Z</time>
      </trkpt>
      <trkpt lat="43.69154" lon="6.71044">
        <ele>884</ele>
        <time>2016-03-20T08:34:11Z</time>
      </trkpt>
      <trkpt lat="43.69149" lon="6.7104">
        <ele>885</ele>
        <time>2016-03-20T08:34:13Z</time>
      </trkpt>
      <trkpt lat="43.69136" lon="6.71025">
        <ele>884</ele>
        <time>2016-03-20T08:34:19Z</time>
      </trkpt>
      <trkpt lat="43.69124" lon="6.71014">
        <ele>885</ele>
        <time>2016-03-20T08:34:24Z</time>
      </trkpt>
      <trkpt lat="43.69112" lon="6.71005">
        <ele>887</ele>
        <time>2016-03-20T08:34:29Z</time>
      </trkpt>
      <trkpt lat="43.6911" lon="6.70992">
        <ele>888</ele>
        <time>2016-03-20T08:34:32Z</time>
      </trkpt>
      <trkpt lat="43.691" lon="6.70979">
        <ele>888</ele>
        <time>2016-03-20T08:34:37Z</time>
      </trkpt>
      <trkpt lat="43.69095" lon="6.70975">
        <ele>889</ele>
        <time>2016-03-20T08:34:39Z</time>
      </trkpt>
      <trkpt lat="43.69081" lon="6.70964">
        <ele>891</ele>
        <time>2016-03-20T08:34:45Z</time>
      </trkpt>
      <trkpt lat="43.69071" lon="6.70955">
        <ele>892</ele>
        <time>2016-03-20T08:34:50Z</time>
      </trkpt>
      <trkpt lat="43.69062" lon="6.70942">
        <ele>892</ele>
        <time>2016-03-20T08:34:55Z</time>
      </trkpt>
      <trkpt lat="43.69047" lon="6.70936">
        <ele>892</ele>
        <time>2016-03-20T08:35:00Z</time>
      </trkpt>
      <trkpt lat="43.69034" lon="6.7092">
        <ele>891</ele>
        <time>2016-03-20T08:35:06Z</time>
      </trkpt>
      <trkpt lat="43.69027" lon="6.70915">
        <ele>893</ele>
        <time>2016-03-20T08:35:09Z</time>
      </trkpt>
      <trkpt lat="43.69017" lon="6.709">
        <ele>892</ele>
        <time>2016-03-20T08:35:14Z</time>
      </trkpt>
      <trkpt lat="43.69008" lon="6.70889">
        <ele>892</ele>
        <time>2016-03-20T08:35:18Z</time>
      </trkpt>
      <trkpt lat="43.68998" lon="6.70877">
        <ele>892</ele>
        <time>2016-03-20T08:35:23Z</time>
      </trkpt>
      <trkpt lat="43.68994" lon="6.70872">
        <ele>892</ele>
        <time>2016-03-20T08:35:25Z</time>
      </trkpt>
      <trkpt lat="43.68983" lon="6.70858">
        <ele>892</ele>
        <time>2016-03-20T08:35:30Z</time>
      </trkpt>
      <trkpt lat="43.68972" lon="6.70844">
        <ele>891</ele>
        <time>2016-03-20T08:35:35Z</time>
      </trkpt>
      <trkpt lat="43.68962" lon="6.70825">
        <ele>892</ele>
        <time>2016-03-20T08:35:41Z</time>
      </trkpt>
      <trkpt lat="43.68958" lon="6.70807">
        <ele>892</ele>
        <time>2016-03-20T08:35:46Z</time>
      </trkpt>
      <trkpt lat="43.68956" lon="6.70787">
        <ele>893</ele>
        <time>2016-03-20T08:35:51Z</time>
      </trkpt>
      <trkpt lat="43.68963" lon="6.70767">
        <ele>894</ele>
        <time>2016-03-20T08:35:56Z</time>
      </trkpt>
      <trkpt lat="43.68972" lon="6.70752">
        <ele>893</ele>
        <time>2016-03-20T08:36:01Z</time>
      </trkpt>
      <trkpt lat="43.68985" lon="6.70742">
        <ele>893</ele>
        <time>2016-03-20T08:36:06Z</time>
      </trkpt>
      <trkpt lat="43.68999" lon="6.70735">
        <ele>894</ele>
        <time>2016-03-20T08:36:11Z</time>
      </trkpt>
      <trkpt lat="43.69014" lon="6.70731">
        <ele>895</ele>
        <time>2016-03-20T08:36:16Z</time>
      </trkpt>
      <trkpt lat="43.69028" lon="6.70725">
        <ele>896</ele>
        <time>2016-03-20T08:36:21Z</time>
      </trkpt>
      <trkpt lat="43.69044" lon="6.70723">
        <ele>898</ele>
        <time>2016-03-20T08:36:26Z</time>
      </trkpt>
      <trkpt lat="43.69061" lon="6.70725">
        <ele>897</ele>
        <time>2016-03-20T08:36:31Z</time>
      </trkpt>
      <trkpt lat="43.69076" lon="6.70733">
        <ele>897</ele>
        <time>2016-03-20T08:36:36Z</time>
      </trkpt>
      <trkpt lat="43.69091" lon="6.70742">
        <ele>896</ele>
        <time>2016-03-20T08:36:41Z</time>
      </trkpt>
      <trkpt lat="43.69107" lon="6.70751">
        <ele>899</ele>
        <time>2016-03-20T08:36:46Z</time>
      </trkpt>
      <trkpt lat="43.69122" lon="6.70762">
        <ele>897</ele>
        <time>2016-03-20T08:36:51Z</time>
      </trkpt>
      <trkpt lat="43.69136" lon="6.70775">
        <ele>897</ele>
        <time>2016-03-20T08:36:56Z</time>
      </trkpt>
      <trkpt lat="43.69148" lon="6.70789">
        <ele>897</ele>
        <time>2016-03-20T08:37:01Z</time>
      </trkpt>
      <trkpt lat="43.69158" lon="6.70806">
        <ele>896</ele>
        <time>2016-03-20T08:37:06Z</time>
      </trkpt>
      <trkpt lat="43.69168" lon="6.70823">
        <ele>898</ele>
        <time>2016-03-20T08:37:11Z</time>
      </trkpt>
      <trkpt lat="43.69179" lon="6.70839">
        <ele>899</ele>
        <time>2016-03-20T08:37:16Z</time>
      </trkpt>
      <trkpt lat="43.69189" lon="6.70855">
        <ele>898</ele>
        <time>2016-03-20T08:37:21Z</time>
      </trkpt>
      <trkpt lat="43.69201" lon="6.70872">
        <ele>892</ele>
        <time>2016-03-20T08:37:26Z</time>
      </trkpt>
      <trkpt lat="43.69216" lon="6.70881">
        <ele>893</ele>
        <time>2016-03-20T08:37:31Z</time>
      </trkpt>
      <trkpt lat="43.69233" lon="6.70882">
        <ele>894</ele>
        <time>2016-03-20T08:37:36Z</time>
      </trkpt>
      <trkpt lat="43.69248" lon="6.70877">
        <ele>895</ele>
        <time>2016-03-20T08:37:41Z</time>
      </trkpt>
      <trkpt lat="43.69265" lon="6.7087">
        <ele>895</ele>
        <time>2016-03-20T08:37:46Z</time>
      </trkpt>
      <trkpt lat="43.69279" lon="6.70861">
        <ele>893</ele>
        <time>2016-03-20T08:37:51Z</time>
      </trkpt>
      <trkpt lat="43.69292" lon="6.70853">
        <ele>894</ele>
        <time>2016-03-20T08:37:56Z</time>
      </trkpt>
      <trkpt lat="43.69305" lon="6.7085">
        <ele>893</ele>
        <time>2016-03-20T08:38:01Z</time>
      </trkpt>
      <trkpt lat="43.69309" lon="6.7086">
        <ele>891</ele>
        <time>2016-03-20T08:38:06Z</time>
      </trkpt>
      <trkpt lat="43.69312" lon="6.70871">
        <ele>893</ele>
        <time>2016-03-20T08:38:12Z</time>
      </trkpt>
      <trkpt lat="43.69313" lon="6.7088">
        <ele>893</ele>
        <time>2016-03-20T08:38:17Z</time>
      </trkpt>
      <trkpt lat="43.69316" lon="6.70892">
        <ele>894</ele>
        <time>2016-03-20T08:38:23Z</time>
      </trkpt>
      <trkpt lat="43.69318" lon="6.70901">
        <ele>896</ele>
        <time>2016-03-20T08:38:28Z</time>
      </trkpt>
      <trkpt lat="43.69321" lon="6.70913">
        <ele>899</ele>
        <time>2016-03-20T08:38:35Z</time>
      </trkpt>
      <trkpt lat="43.69324" lon="6.70923">
        <ele>901</ele>
        <time>2016-03-20T08:38:40Z</time>
      </trkpt>
      <trkpt lat="43.69327" lon="6.70931">
        <ele>903</ele>
        <time>2016-03-20T08:38:45Z</time>
      </trkpt>
      <trkpt lat="43.6933" lon="6.70941">
        <ele>904</ele>
        <time>2016-03-20T08:38:50Z</time>
      </trkpt>
      <trkpt lat="43.69334" lon="6.70952">
        <ele>904</ele>
        <time>2016-03-20T08:38:56Z</time>
      </trkpt>
      <trkpt lat="43.69339" lon="6.70961">
        <ele>905</ele>
        <time>2016-03-20T08:39:02Z</time>
      </trkpt>
      <trkpt lat="43.69346" lon="6.70966">
        <ele>907</ele>
        <time>2016-03-20T08:39:08Z</time>
      </trkpt>
      <trkpt lat="43.69351" lon="6.70972">
        <ele>906</ele>
        <time>2016-03-20T08:39:14Z</time>
      </trkpt>
      <trkpt lat="43.69356" lon="6.70982">
        <ele>904</ele>
        <time>2016-03-20T08:39:20Z</time>
      </trkpt>
      <trkpt lat="43.6936" lon="6.7099">
        <ele>908</ele>
        <time>2016-03-20T08:39:26Z</time>
      </trkpt>
      <trkpt lat="43.69364" lon="6.70996">
        <ele>909</ele>
        <time>2016-03-20T08:39:31Z</time>
      </trkpt>
      <trkpt lat="43.69369" lon="6.71002">
        <ele>910</ele>
        <time>2016-03-20T08:39:37Z</time>
      </trkpt>
      <trkpt lat="43.69374" lon="6.71007">
        <ele>911</ele>
        <time>2016-03-20T08:39:42Z</time>
      </trkpt>
      <trkpt lat="43.69381" lon="6.71011">
        <ele>911</ele>
        <time>2016-03-20T08:39:48Z</time>
      </trkpt>
      <trkpt lat="43.69386" lon="6.71014">
        <ele>914</ele>
        <time>2016-03-20T08:39:53Z</time>
      </trkpt>
      <trkpt lat="43.69393" lon="6.71018">
        <ele>913</ele>
        <time>2016-03-20T08:39:58Z</time>
      </trkpt>
      <trkpt lat="43.69398" lon="6.7102">
        <ele>915</ele>
        <time>2016-03-20T08:40:03Z</time>
      </trkpt>
      <trkpt lat="43.69403" lon="6.71026">
        <ele>919</ele>
        <time>2016-03-20T08:40:10Z</time>
      </trkpt>
      <trkpt lat="43.69409" lon="6.71031">
        <ele>921</ele>
        <time>2016-03-20T08:40:16Z</time>
      </trkpt>
      <trkpt lat="43.69418" lon="6.71038">
        <ele>923</ele>
        <time>2016-03-20T08:40:23Z</time>
      </trkpt>
      <trkpt lat="43.69421" lon="6.71046">
        <ele>925</ele>
        <time>2016-03-20T08:40:29Z</time>
      </trkpt>
      <trkpt lat="43.69423" lon="6.71055">
        <ele>927</ele>
        <time>2016-03-20T08:40:35Z</time>
      </trkpt>
      <trkpt lat="43.69424" lon="6.71064">
        <ele>928</ele>
        <time>2016-03-20T08:40:40Z</time>
      </trkpt>
      <trkpt lat="43.69425" lon="6.71073">
        <ele>929</ele>
        <time>2016-03-20T08:40:45Z</time>
      </trkpt>
      <trkpt lat="43.69426" lon="6.71083">
        <ele>929</ele>
        <time>2016-03-20T08:40:50Z</time>
      </trkpt>
      <trkpt lat="43.69428" lon="6.71093">
        <ele>930</ele>
        <time>2016-03-20T08:40:56Z</time>
      </trkpt>
      <trkpt lat="43.69432" lon="6.71102">
        <ele>931</ele>
        <time>2016-03-20T08:41:02Z</time>
      </trkpt>
      <trkpt lat="43.69437" lon="6.7111">
        <ele>930</ele>
        <time>2016-03-20T08:41:07Z</time>
      </trkpt>
      <trkpt lat="43.69443" lon="6.7112">
        <ele>926</ele>
        <time>2016-03-20T08:41:13Z</time>
      </trkpt>
      <trkpt lat="43.69446" lon="6.71126">
        <ele>927</ele>
        <time>2016-03-20T08:41:18Z</time>
      </trkpt>
      <trkpt lat="43.69454" lon="6.71123">
        <ele>929</ele>
        <time>2016-03-20T08:41:24Z</time>
      </trkpt>
      <trkpt lat="43.69455" lon="6.7111">
        <ele>932</ele>
        <time>2016-03-20T08:41:31Z</time>
      </trkpt>
      <trkpt lat="43.69459" lon="6.71099">
        <ele>932</ele>
        <time>2016-03-20T08:41:37Z</time>
      </trkpt>
      <trkpt lat="43.69465" lon="6.71094">
        <ele>935</ele>
        <time>2016-03-20T08:41:42Z</time>
      </trkpt>
      <trkpt lat="43.69474" lon="6.71089">
        <ele>936</ele>
        <time>2016-03-20T08:41:48Z</time>
      </trkpt>
      <trkpt lat="43.69481" lon="6.71088">
        <ele>936</ele>
        <time>2016-03-20T08:41:53Z</time>
      </trkpt>
      <trkpt lat="43.69488" lon="6.71091">
        <ele>937</ele>
        <time>2016-03-20T08:41:58Z</time>
      </trkpt>
      <trkpt lat="43.69498" lon="6.71095">
        <ele>936</ele>
        <time>2016-03-20T08:42:04Z</time>
      </trkpt>
      <trkpt lat="43.69505" lon="6.71099">
        <ele>939</ele>
        <time>2016-03-20T08:42:09Z</time>
      </trkpt>
      <trkpt lat="43.69513" lon="6.71102">
        <ele>938</ele>
        <time>2016-03-20T08:42:15Z</time>
      </trkpt>
      <trkpt lat="43.69521" lon="6.71103">
        <ele>939</ele>
        <time>2016-03-20T08:42:20Z</time>
      </trkpt>
      <trkpt lat="43.6953" lon="6.71107">
        <ele>936</ele>
        <time>2016-03-20T08:42:26Z</time>
      </trkpt>
      <trkpt lat="43.69539" lon="6.7111">
        <ele>940</ele>
        <time>2016-03-20T08:42:32Z</time>
      </trkpt>
      <trkpt lat="43.69551" lon="6.7111">
        <ele>940</ele>
        <time>2016-03-20T08:42:38Z</time>
      </trkpt>
      <trkpt lat="43.69566" lon="6.71113">
        <ele>938</ele>
        <time>2016-03-20T08:42:44Z</time>
      </trkpt>
      <trkpt lat="43.69579" lon="6.71114">
        <ele>937</ele>
        <time>2016-03-20T08:42:49Z</time>
      </trkpt>
      <trkpt lat="43.69595" lon="6.7112">
        <ele>938</ele>
        <time>2016-03-20T08:42:54Z</time>
      </trkpt>
      <trkpt lat="43.69605" lon="6.71127">
        <ele>938</ele>
        <time>2016-03-20T08:42:59Z</time>
      </trkpt>
      <trkpt lat="43.69616" lon="6.71123">
        <ele>938</ele>
        <time>2016-03-20T08:43:05Z</time>
      </trkpt>
      <trkpt lat="43.69628" lon="6.71118">
        <ele>937</ele>
        <time>2016-03-20T08:43:10Z</time>
      </trkpt>
      <trkpt lat="43.69639" lon="6.71113">
        <ele>940</ele>
        <time>2016-03-20T08:43:15Z</time>
      </trkpt>
      <trkpt lat="43.6965" lon="6.71106">
        <ele>943</ele>
        <time>2016-03-20T08:43:20Z</time>
      </trkpt>
      <trkpt lat="43.69663" lon="6.711">
        <ele>943</ele>
        <time>2016-03-20T08:43:26Z</time>
      </trkpt>
      <trkpt lat="43.69676" lon="6.71095">
        <ele>944</ele>
        <time>2016-03-20T08:43:32Z</time>
      </trkpt>
      <trkpt lat="43.69689" lon="6.71092">
        <ele>944</ele>
        <time>2016-03-20T08:43:38Z</time>
      </trkpt>
      <trkpt lat="43.69699" lon="6.71087">
        <ele>945</ele>
        <time>2016-03-20T08:43:44Z</time>
      </trkpt>
      <trkpt lat="43.6971" lon="6.71082">
        <ele>944</ele>
        <time>2016-03-20T08:43:49Z</time>
      </trkpt>
      <trkpt lat="43.69722" lon="6.71081">
        <ele>946</ele>
        <time>2016-03-20T08:43:55Z</time>
      </trkpt>
      <trkpt lat="43.69734" lon="6.71082">
        <ele>947</ele>
        <time>2016-03-20T08:44:01Z</time>
      </trkpt>
      <trkpt lat="43.69745" lon="6.71082">
        <ele>945</ele>
        <time>2016-03-20T08:44:07Z</time>
      </trkpt>
      <trkpt lat="43.69758" lon="6.71082">
        <ele>947</ele>
        <time>2016-03-20T08:44:13Z</time>
      </trkpt>
      <trkpt lat="43.69769" lon="6.7108">
        <ele>946</ele>
        <time>2016-03-20T08:44:19Z</time>
      </trkpt>
      <trkpt lat="43.69779" lon="6.71081">
        <ele>946</ele>
        <time>2016-03-20T08:44:25Z</time>
      </trkpt>
      <trkpt lat="43.69791" lon="6.71082">
        <ele>950</ele>
        <time>2016-03-20T08:44:31Z</time>
      </trkpt>
      <trkpt lat="43.69802" lon="6.71082">
        <ele>950</ele>
        <time>2016-03-20T08:44:37Z</time>
      </trkpt>
      <trkpt lat="43.69813" lon="6.71085">
        <ele>951</ele>
        <time>2016-03-20T08:44:43Z</time>
      </trkpt>
      <trkpt lat="43.69825" lon="6.71091">
        <ele>950</ele>
        <time>2016-03-20T08:44:49Z</time>
      </trkpt>
      <trkpt lat="43.69837" lon="6.71095">
        <ele>951</ele>
        <time>2016-03-20T08:44:55Z</time>
      </trkpt>
      <trkpt lat="43.69847" lon="6.71097">
        <ele>949</ele>
        <time>2016-03-20T08:45:01Z</time>
      </trkpt>
      <trkpt lat="43.69856" lon="6.71098">
        <ele>950</ele>
        <time>2016-03-20T08:45:07Z</time>
      </trkpt>
      <trkpt lat="43.69866" lon="6.71094">
        <ele>951</ele>
        <time>2016-03-20T08:45:13Z</time>
      </trkpt>
      <trkpt lat="43.69874" lon="6.71086">
        <ele>952</ele>
        <time>2016-03-20T08:45:19Z</time>
      </trkpt>
      <trkpt lat="43.69883" lon="6.71076">
        <ele>954</ele>
        <time>2016-03-20T08:45:25Z</time>
      </trkpt>
      <trkpt lat="43.69892" lon="6.7107">
        <ele>959</ele>
        <time>2016-03-20T08:45:31Z</time>
      </trkpt>
      <trkpt lat="43.69898" lon="6.71066">
        <ele>960</ele>
        <time>2016-03-20T08:45:37Z</time>
      </trkpt>
      <trkpt lat="43.69907" lon="6.71066">
        <ele>960</ele>
        <time>2016-03-20T08:45:43Z</time>
      </trkpt>
      <trkpt lat="43.69906" lon="6.7108">
        <ele>961</ele>
        <time>2016-03-20T08:45:49Z</time>
      </trkpt>
      <trkpt lat="43.69902" lon="6.71089">
        <ele>962</ele>
        <time>2016-03-20T08:45:55Z</time>
      </trkpt>
      <trkpt lat="43.699" lon="6.71099">
        <ele>961</ele>
        <time>2016-03-20T08:46:00Z</time>
      </trkpt>
      <trkpt lat="43.69898" lon="6.71111">
        <ele>962</ele>
        <time>2016-03-20T08:46:06Z</time>
      </trkpt>
      <trkpt lat="43.69894" lon="6.71125">
        <ele>962</ele>
        <time>2016-03-20T08:46:12Z</time>
      </trkpt>
      <trkpt lat="43.69892" lon="6.71134">
        <ele>962</ele>
        <time>2016-03-20T08:46:17Z</time>
      </trkpt>
      <trkpt lat="43.69892" lon="6.71145">
        <ele>961</ele>
        <time>2016-03-20T08:46:22Z</time>
      </trkpt>
      <trkpt lat="43.69891" lon="6.71154">
        <ele>963</ele>
        <time>2016-03-20T08:46:27Z</time>
      </trkpt>
      <trkpt lat="43.69888" lon="6.71165">
        <ele>961</ele>
        <time>2016-03-20T08:46:33Z</time>
      </trkpt>
      <trkpt lat="43.69886" lon="6.71173">
        <ele>964</ele>
        <time>2016-03-20T08:46:38Z</time>
      </trkpt>
      <trkpt lat="43.69884" lon="6.71187">
        <ele>961</ele>
        <time>2016-03-20T08:46:44Z</time>
      </trkpt>
      <trkpt lat="43.69882" lon="6.71196">
        <ele>961</ele>
        <time>2016-03-20T08:46:49Z</time>
      </trkpt>
      <trkpt lat="43.69875" lon="6.7121">
        <ele>960</ele>
        <time>2016-03-20T08:46:56Z</time>
      </trkpt>
      <trkpt lat="43.69872" lon="6.71219">
        <ele>965</ele>
        <time>2016-03-20T08:47:02Z</time>
      </trkpt>
      <trkpt lat="43.69866" lon="6.71225">
        <ele>967</ele>
        <time>2016-03-20T08:47:08Z</time>
      </trkpt>
      <trkpt lat="43.69862" lon="6.71231">
        <ele>969</ele>
        <time>2016-03-20T08:47:14Z</time>
      </trkpt>
      <trkpt lat="43.69856" lon="6.71241">
        <ele>971</ele>
        <time>2016-03-20T08:47:20Z</time>
      </trkpt>
      <trkpt lat="43.69852" lon="6.71249">
        <ele>971</ele>
        <time>2016-03-20T08:47:25Z</time>
      </trkpt>
      <trkpt lat="43.69847" lon="6.71255">
        <ele>972</ele>
        <time>2016-03-20T08:47:30Z</time>
      </trkpt>
      <trkpt lat="43.69838" lon="6.71257">
        <ele>975</ele>
        <time>2016-03-20T08:47:37Z</time>
      </trkpt>
      <trkpt lat="43.69831" lon="6.71266">
        <ele>977</ele>
        <time>2016-03-20T08:47:44Z</time>
      </trkpt>
      <trkpt lat="43.69823" lon="6.71272">
        <ele>979</ele>
        <time>2016-03-20T08:47:50Z</time>
      </trkpt>
      <trkpt lat="43.69815" lon="6.71278">
        <ele>979</ele>
        <time>2016-03-20T08:47:56Z</time>
      </trkpt>
      <trkpt lat="43.69809" lon="6.71286">
        <ele>978</ele>
        <time>2016-03-20T08:48:01Z</time>
      </trkpt>
      <trkpt lat="43.69804" lon="6.71293">
        <ele>979</ele>
        <time>2016-03-20T08:48:06Z</time>
      </trkpt>
      <trkpt lat="43.69799" lon="6.71299">
        <ele>980</ele>
        <time>2016-03-20T08:48:11Z</time>
      </trkpt>
      <trkpt lat="43.69795" lon="6.71307">
        <ele>981</ele>
        <time>2016-03-20T08:48:16Z</time>
      </trkpt>
      <trkpt lat="43.69792" lon="6.7132">
        <ele>982</ele>
        <time>2016-03-20T08:48:22Z</time>
      </trkpt>
      <trkpt lat="43.69792" lon="6.7133">
        <ele>981</ele>
        <time>2016-03-20T08:48:27Z</time>
      </trkpt>
      <trkpt lat="43.69795" lon="6.71343">
        <ele>985</ele>
        <time>2016-03-20T08:48:34Z</time>
      </trkpt>
      <trkpt lat="43.698" lon="6.71348">
        <ele>985</ele>
        <time>2016-03-20T08:48:39Z</time>
      </trkpt>
      <trkpt lat="43.69797" lon="6.71357">
        <ele>985</ele>
        <time>2016-03-20T08:48:44Z</time>
      </trkpt>
      <trkpt lat="43.69795" lon="6.71365">
        <ele>985</ele>
        <time>2016-03-20T08:48:49Z</time>
      </trkpt>
      <trkpt lat="43.69794" lon="6.71376">
        <ele>985</ele>
        <time>2016-03-20T08:48:54Z</time>
      </trkpt>
      <trkpt lat="43.69794" lon="6.71384">
        <ele>985</ele>
        <time>2016-03-20T08:48:59Z</time>
      </trkpt>
      <trkpt lat="43.69791" lon="6.71385">
        <ele>985</ele>
        <time>2016-03-20T08:49:21Z</time>
      </trkpt>
      <trkpt lat="43.69786" lon="6.71389">
        <ele>985</ele>
        <time>2016-03-20T08:49:30Z</time>
      </trkpt>
      <trkpt lat="43.69785" lon="6.71393">
        <ele>986</ele>
        <time>2016-03-20T08:50:50Z</time>
      </trkpt>
      <trkpt lat="43.69787" lon="6.7139">
        <ele>988</ele>
        <time>2016-03-20T08:51:38Z</time>
      </trkpt>
      <trkpt lat="43.69784" lon="6.71389">
        <ele>986</ele>
        <time>2016-03-20T08:52:38Z</time>
      </trkpt>
      <trkpt lat="43.69787" lon="6.71386">
        <ele>986</ele>
        <time>2016-03-20T08:52:54Z</time>
      </trkpt>
      <trkpt lat="43.69792" lon="6.71383">
        <ele>988</ele>
        <time>2016-03-20T08:52:59Z</time>
      </trkpt>
      <trkpt lat="43.69795" lon="6.71384">
        <ele>990</ele>
        <time>2016-03-20T08:53:10Z</time>
      </trkpt>
      <trkpt lat="43.69798" lon="6.71384">
        <ele>989</ele>
        <time>2016-03-20T08:53:33Z</time>
      </trkpt>
      <trkpt lat="43.69803" lon="6.71391">
        <ele>989</ele>
        <time>2016-03-20T08:53:38Z</time>
      </trkpt>
      <trkpt lat="43.69808" lon="6.71404">
        <ele>987</ele>
        <time>2016-03-20T08:53:44Z</time>
      </trkpt>
      <trkpt lat="43.69811" lon="6.71417">
        <ele>988</ele>
        <time>2016-03-20T08:53:50Z</time>
      </trkpt>
      <trkpt lat="43.69814" lon="6.71425">
        <ele>988</ele>
        <time>2016-03-20T08:53:55Z</time>
      </trkpt>
      <trkpt lat="43.69817" lon="6.71439">
        <ele>987</ele>
        <time>2016-03-20T08:54:01Z</time>
      </trkpt>
      <trkpt lat="43.69822" lon="6.71453">
        <ele>988</ele>
        <time>2016-03-20T08:54:07Z</time>
      </trkpt>
      <trkpt lat="43.69828" lon="6.71466">
        <ele>989</ele>
        <time>2016-03-20T08:54:13Z</time>
      </trkpt>
      <trkpt lat="43.69833" lon="6.7148">
        <ele>989</ele>
        <time>2016-03-20T08:54:19Z</time>
      </trkpt>
      <trkpt lat="43.69837" lon="6.71494">
        <ele>991</ele>
        <time>2016-03-20T08:54:25Z</time>
      </trkpt>
      <trkpt lat="43.69841" lon="6.71508">
        <ele>992</ele>
        <time>2016-03-20T08:54:31Z</time>
      </trkpt>
      <trkpt lat="43.69844" lon="6.71521">
        <ele>992</ele>
        <time>2016-03-20T08:54:37Z</time>
      </trkpt>
      <trkpt lat="43.69847" lon="6.71537">
        <ele>994</ele>
        <time>2016-03-20T08:54:43Z</time>
      </trkpt>
      <trkpt lat="43.6985" lon="6.7155">
        <ele>993</ele>
        <time>2016-03-20T08:54:49Z</time>
      </trkpt>
      <trkpt lat="43.69853" lon="6.71562">
        <ele>994</ele>
        <time>2016-03-20T08:54:55Z</time>
      </trkpt>
      <trkpt lat="43.69858" lon="6.71573">
        <ele>997</ele>
        <time>2016-03-20T08:55:01Z</time>
      </trkpt>
      <trkpt lat="43.69863" lon="6.71587">
        <ele>995</ele>
        <time>2016-03-20T08:55:07Z</time>
      </trkpt>
      <trkpt lat="43.69867" lon="6.71599">
        <ele>997</ele>
        <time>2016-03-20T08:55:13Z</time>
      </trkpt>
      <trkpt lat="43.69871" lon="6.71611">
        <ele>997</ele>
        <time>2016-03-20T08:55:20Z</time>
      </trkpt>
      <trkpt lat="43.69875" lon="6.71622">
        <ele>998</ele>
        <time>2016-03-20T08:55:26Z</time>
      </trkpt>
      <trkpt lat="43.69879" lon="6.71634">
        <ele>999</ele>
        <time>2016-03-20T08:55:32Z</time>
      </trkpt>
      <trkpt lat="43.69884" lon="6.71645">
        <ele>1000</ele>
        <time>2016-03-20T08:55:38Z</time>
      </trkpt>
      <trkpt lat="43.6989" lon="6.71659">
        <ele>1000</ele>
        <time>2016-03-20T08:55:44Z</time>
      </trkpt>
      <trkpt lat="43.69897" lon="6.71673">
        <ele>999</ele>
        <time>2016-03-20T08:55:50Z</time>
      </trkpt>
      <trkpt lat="43.69904" lon="6.71683">
        <ele>1000</ele>
        <time>2016-03-20T08:55:56Z</time>
      </trkpt>
      <trkpt lat="43.69913" lon="6.71694">
        <ele>1000</ele>
        <time>2016-03-20T08:56:02Z</time>
      </trkpt>
      <trkpt lat="43.69922" lon="6.71701">
        <ele>1002</ele>
        <time>2016-03-20T08:56:08Z</time>
      </trkpt>
      <trkpt lat="43.69932" lon="6.7171">
        <ele>1003</ele>
        <time>2016-03-20T08:56:14Z</time>
      </trkpt>
      <trkpt lat="43.69941" lon="6.71714">
        <ele>1006</ele>
        <time>2016-03-20T08:56:20Z</time>
      </trkpt>
      <trkpt lat="43.69952" lon="6.71717">
        <ele>1005</ele>
        <time>2016-03-20T08:56:27Z</time>
      </trkpt>
      <trkpt lat="43.69963" lon="6.71716">
        <ele>1008</ele>
        <time>2016-03-20T08:56:33Z</time>
      </trkpt>
      <trkpt lat="43.69973" lon="6.71718">
        <ele>1012</ele>
        <time>2016-03-20T08:56:39Z</time>
      </trkpt>
      <trkpt lat="43.69981" lon="6.71719">
        <ele>1014</ele>
        <time>2016-03-20T08:56:45Z</time>
      </trkpt>
      <trkpt lat="43.69992" lon="6.71716">
        <ele>1013</ele>
        <time>2016-03-20T08:56:51Z</time>
      </trkpt>
      <trkpt lat="43.7" lon="6.71711">
        <ele>1014</ele>
        <time>2016-03-20T08:56:57Z</time>
      </trkpt>
      <trkpt lat="43.70007" lon="6.71709">
        <ele>1015</ele>
        <time>2016-03-20T08:57:02Z</time>
      </trkpt>
      <trkpt lat="43.70015" lon="6.71703">
        <ele>1016</ele>
        <time>2016-03-20T08:57:08Z</time>
      </trkpt>
      <trkpt lat="43.70022" lon="6.71702">
        <ele>1018</ele>
        <time>2016-03-20T08:57:13Z</time>
      </trkpt>
      <trkpt lat="43.70031" lon="6.71699">
        <ele>1020</ele>
        <time>2016-03-20T08:57:19Z</time>
      </trkpt>
      <trkpt lat="43.7004" lon="6.71699">
        <ele>1019</ele>
        <time>2016-03-20T08:57:25Z</time>
      </trkpt>
      <trkpt lat="43.7005" lon="6.71705">
        <ele>1019</ele>
        <time>2016-03-20T08:57:31Z</time>
      </trkpt>
      <trkpt lat="43.7006" lon="6.7171">
        <ele>1021</ele>
        <time>2016-03-20T08:57:37Z</time>
      </trkpt>
      <trkpt lat="43.70069" lon="6.71717">
        <ele>1022</ele>
        <time>2016-03-20T08:57:43Z</time>
      </trkpt>
      <trkpt lat="43.70077" lon="6.71724">
        <ele>1023</ele>
        <time>2016-03-20T08:57:49Z</time>
      </trkpt>
      <trkpt lat="43.70085" lon="6.71729">
        <ele>1025</ele>
        <time>2016-03-20T08:57:55Z</time>
      </trkpt>
      <trkpt lat="43.70094" lon="6.71732">
        <ele>1026</ele>
        <time>2016-03-20T08:58:01Z</time>
      </trkpt>
      <trkpt lat="43.701" lon="6.71737">
        <ele>1027</ele>
        <time>2016-03-20T08:58:06Z</time>
      </trkpt>
      <trkpt lat="43.70108" lon="6.71742">
        <ele>1026</ele>
        <time>2016-03-20T08:58:13Z</time>
      </trkpt>
      <trkpt lat="43.70117" lon="6.71742">
        <ele>1031</ele>
        <time>2016-03-20T08:58:20Z</time>
      </trkpt>
      <trkpt lat="43.70123" lon="6.71743">
        <ele>1030</ele>
        <time>2016-03-20T08:58:25Z</time>
      </trkpt>
      <trkpt lat="43.7013" lon="6.71742">
        <ele>1033</ele>
        <time>2016-03-20T08:58:31Z</time>
      </trkpt>
      <trkpt lat="43.70136" lon="6.71741">
        <ele>1033</ele>
        <time>2016-03-20T08:58:37Z</time>
      </trkpt>
      <trkpt lat="43.70143" lon="6.7174">
        <ele>1033</ele>
        <time>2016-03-20T08:58:42Z</time>
      </trkpt>
      <trkpt lat="43.70149" lon="6.71738">
        <ele>1033</ele>
        <time>2016-03-20T08:58:47Z</time>
      </trkpt>
      <trkpt lat="43.70155" lon="6.71738">
        <ele>1037</ele>
        <time>2016-03-20T08:58:53Z</time>
      </trkpt>
      <trkpt lat="43.70162" lon="6.71736">
        <ele>1035</ele>
        <time>2016-03-20T08:58:59Z</time>
      </trkpt>
      <trkpt lat="43.70169" lon="6.71734">
        <ele>1034</ele>
        <time>2016-03-20T08:59:04Z</time>
      </trkpt>
      <trkpt lat="43.70179" lon="6.71733">
        <ele>1034</ele>
        <time>2016-03-20T08:59:11Z</time>
      </trkpt>
      <trkpt lat="43.70186" lon="6.71732">
        <ele>1035</ele>
        <time>2016-03-20T08:59:16Z</time>
      </trkpt>
      <trkpt lat="43.70192" lon="6.71733">
        <ele>1035</ele>
        <time>2016-03-20T08:59:21Z</time>
      </trkpt>
      <trkpt lat="43.70199" lon="6.71731">
        <ele>1037</ele>
        <time>2016-03-20T08:59:26Z</time>
      </trkpt>
      <trkpt lat="43.70209" lon="6.71726">
        <ele>1040</ele>
        <time>2016-03-20T08:59:33Z</time>
      </trkpt>
      <trkpt lat="43.70219" lon="6.71724">
        <ele>1042</ele>
        <time>2016-03-20T08:59:39Z</time>
      </trkpt>
      <trkpt lat="43.70228" lon="6.7172">
        <ele>1043</ele>
        <time>2016-03-20T08:59:45Z</time>
      </trkpt>
      <trkpt lat="43.70237" lon="6.71719">
        <ele>1043</ele>
        <time>2016-03-20T08:59:51Z</time>
      </trkpt>
      <trkpt lat="43.70247" lon="6.71723">
        <ele>1044</ele>
        <time>2016-03-20T08:59:57Z</time>
      </trkpt>
      <trkpt lat="43.70254" lon="6.71731">
        <ele>1045</ele>
        <time>2016-03-20T09:00:03Z</time>
      </trkpt>
      <trkpt lat="43.70261" lon="6.7174">
        <ele>1045</ele>
        <time>2016-03-20T09:00:09Z</time>
      </trkpt>
      <trkpt lat="43.70269" lon="6.7175">
        <ele>1045</ele>
        <time>2016-03-20T09:00:15Z</time>
      </trkpt>
      <trkpt lat="43.70278" lon="6.71755">
        <ele>1047</ele>
        <time>2016-03-20T09:00:21Z</time>
      </trkpt>
      <trkpt lat="43.70287" lon="6.71757">
        <ele>1048</ele>
        <time>2016-03-20T09:00:27Z</time>
      </trkpt>
      <trkpt lat="43.70296" lon="6.71756">
        <ele>1050</ele>
        <time>2016-03-20T09:00:33Z</time>
      </trkpt>
      <trkpt lat="43.70304" lon="6.7175">
        <ele>1050</ele>
        <time>2016-03-20T09:00:39Z</time>
      </trkpt>
      <trkpt lat="43.70311" lon="6.71739">
        <ele>1050</ele>
        <time>2016-03-20T09:00:45Z</time>
      </trkpt>
      <trkpt lat="43.70316" lon="6.71729">
        <ele>1051</ele>
        <time>2016-03-20T09:00:51Z</time>
      </trkpt>
      <trkpt lat="43.70323" lon="6.71719">
        <ele>1052</ele>
        <time>2016-03-20T09:00:57Z</time>
      </trkpt>
      <trkpt lat="43.7033" lon="6.7171">
        <ele>1052</ele>
        <time>2016-03-20T09:01:03Z</time>
      </trkpt>
      <trkpt lat="43.70337" lon="6.71702">
        <ele>1051</ele>
        <time>2016-03-20T09:01:09Z</time>
      </trkpt>
      <trkpt lat="43.70344" lon="6.71694">
        <ele>1051</ele>
        <time>2016-03-20T09:01:15Z</time>
      </trkpt>
      <trkpt lat="43.7035" lon="6.7169">
        <ele>1050</ele>
        <time>2016-03-20T09:01:20Z</time>
      </trkpt>
      <trkpt lat="43.70356" lon="6.71685">
        <ele>1051</ele>
        <time>2016-03-20T09:01:25Z</time>
      </trkpt>
      <trkpt lat="43.70365" lon="6.71678">
        <ele>1051</ele>
        <time>2016-03-20T09:01:31Z</time>
      </trkpt>
      <trkpt lat="43.7037" lon="6.71673">
        <ele>1053</ele>
        <time>2016-03-20T09:01:36Z</time>
      </trkpt>
      <trkpt lat="43.70376" lon="6.71668">
        <ele>1054</ele>
        <time>2016-03-20T09:01:41Z</time>
      </trkpt>
      <trkpt lat="43.70383" lon="6.71662">
        <ele>1054</ele>
        <time>2016-03-20T09:01:47Z</time>
      </trkpt>
      <trkpt lat="43.70392" lon="6.71656">
        <ele>1054</ele>
        <time>2016-03-20T09:01:54Z</time>
      </trkpt>
      <trkpt lat="43.70397" lon="6.71652">
        <ele>1054</ele>
        <time>2016-03-20T09:02:00Z</time>
      </trkpt>
      <trkpt lat="43.70402" lon="6.71645">
        <ele>1055</ele>
        <time>2016-03-20T09:02:06Z</time>
      </trkpt>
      <trkpt lat="43.7041" lon="6.71637">
        <ele>1057</ele>
        <time>2016-03-20T09:02:13Z</time>
      </trkpt>
      <trkpt lat="43.70416" lon="6.71632">
        <ele>1057</ele>
        <time>2016-03-20T09:02:18Z</time>
      </trkpt>
      <trkpt lat="43.70424" lon="6.71625">
        <ele>1058</ele>
        <time>2016-03-20T09:02:24Z</time>
      </trkpt>
      <trkpt lat="43.70429" lon="6.7162">
        <ele>1061</ele>
        <time>2016-03-20T09:02:29Z</time>
      </trkpt>
      <trkpt lat="43.70434" lon="6.71614">
        <ele>1062</ele>
        <time>2016-03-20T09:02:35Z</time>
      </trkpt>
      <trkpt lat="43.70439" lon="6.71607">
        <ele>1065</ele>
        <time>2016-03-20T09:02:41Z</time>
      </trkpt>
      <trkpt lat="43.70444" lon="6.71603">
        <ele>1066</ele>
        <time>2016-03-20T09:02:47Z</time>
      </trkpt>
      <trkpt lat="43.70451" lon="6.71599">
        <ele>1068</ele>
        <time>2016-03-20T09:02:53Z</time>
      </trkpt>
      <trkpt lat="43.70457" lon="6.71595">
        <ele>1069</ele>
        <time>2016-03-20T09:02:59Z</time>
      </trkpt>
      <trkpt lat="43.70462" lon="6.71589">
        <ele>1070</ele>
        <time>2016-03-20T09:03:04Z</time>
      </trkpt>
      <trkpt lat="43.70469" lon="6.71587">
        <ele>1071</ele>
        <time>2016-03-20T09:03:10Z</time>
      </trkpt>
      <trkpt lat="43.70474" lon="6.71583">
        <ele>1071</ele>
        <time>2016-03-20T09:03:16Z</time>
      </trkpt>
      <trkpt lat="43.70478" lon="6.71579">
        <ele>1072</ele>
        <time>2016-03-20T09:03:22Z</time>
      </trkpt>
      <trkpt lat="43.70483" lon="6.71572">
        <ele>1072</ele>
        <time>2016-03-20T09:03:28Z</time>
      </trkpt>
      <trkpt lat="43.70489" lon="6.71568">
        <ele>1072</ele>
        <time>2016-03-20T09:03:33Z</time>
      </trkpt>
      <trkpt lat="43.70494" lon="6.71565">
        <ele>1073</ele>
        <time>2016-03-20T09:03:40Z</time>
      </trkpt>
      <trkpt lat="43.70501" lon="6.71562">
        <ele>1074</ele>
        <time>2016-03-20T09:03:46Z</time>
      </trkpt>
      <trkpt lat="43.70508" lon="6.7156">
        <ele>1075</ele>
        <time>2016-03-20T09:03:52Z</time>
      </trkpt>
      <trkpt lat="43.70515" lon="6.71556">
        <ele>1075</ele>
        <time>2016-03-20T09:03:58Z</time>
      </trkpt>
      <trkpt lat="43.7052" lon="6.71552">
        <ele>1075</ele>
        <time>2016-03-20T09:04:04Z</time>
      </trkpt>
      <trkpt lat="43.70528" lon="6.71549">
        <ele>1076</ele>
        <time>2016-03-20T09:04:10Z</time>
      </trkpt>
      <trkpt lat="43.70533" lon="6.71541">
        <ele>1077</ele>
        <time>2016-03-20T09:04:16Z</time>
      </trkpt>
      <trkpt lat="43.70538" lon="6.71536">
        <ele>1078</ele>
        <time>2016-03-20T09:04:22Z</time>
      </trkpt>
      <trkpt lat="43.70544" lon="6.7153">
        <ele>1079</ele>
        <time>2016-03-20T09:04:28Z</time>
      </trkpt>
      <trkpt lat="43.70549" lon="6.71524">
        <ele>1079</ele>
        <time>2016-03-20T09:04:33Z</time>
      </trkpt>
      <trkpt lat="43.70553" lon="6.71514">
        <ele>1080</ele>
        <time>2016-03-20T09:04:39Z</time>
      </trkpt>
      <trkpt lat="43.70558" lon="6.71506">
        <ele>1081</ele>
        <time>2016-03-20T09:04:44Z</time>
      </trkpt>
      <trkpt lat="43.70564" lon="6.71496">
        <ele>1082</ele>
        <time>2016-03-20T09:04:50Z</time>
      </trkpt>
      <trkpt lat="43.70569" lon="6.71484">
        <ele>1083</ele>
        <time>2016-03-20T09:04:56Z</time>
      </trkpt>
      <trkpt lat="43.70574" lon="6.71474">
        <ele>1083</ele>
        <time>2016-03-20T09:05:02Z</time>
      </trkpt>
      <trkpt lat="43.7058" lon="6.71463">
        <ele>1084</ele>
        <time>2016-03-20T09:05:08Z</time>
      </trkpt>
      <trkpt lat="43.70583" lon="6.71454">
        <ele>1086</ele>
        <time>2016-03-20T09:05:14Z</time>
      </trkpt>
      <trkpt lat="43.70588" lon="6.71444">
        <ele>1086</ele>
        <time>2016-03-20T09:05:20Z</time>
      </trkpt>
      <trkpt lat="43.70592" lon="6.71435">
        <ele>1086</ele>
        <time>2016-03-20T09:05:26Z</time>
      </trkpt>
      <trkpt lat="43.70598" lon="6.71425">
        <ele>1086</ele>
        <time>2016-03-20T09:05:32Z</time>
      </trkpt>
      <trkpt lat="43.70601" lon="6.71417">
        <ele>1084</ele>
        <time>2016-03-20T09:05:37Z</time>
      </trkpt>
      <trkpt lat="43.70608" lon="6.71406">
        <ele>1087</ele>
        <time>2016-03-20T09:05:43Z</time>
      </trkpt>
      <trkpt lat="43.70612" lon="6.714">
        <ele>1088</ele>
        <time>2016-03-20T09:05:48Z</time>
      </trkpt>
      <trkpt lat="43.70614" lon="6.71392">
        <ele>1089</ele>
        <time>2016-03-20T09:05:53Z</time>
      </trkpt>
      <trkpt lat="43.70618" lon="6.71385">
        <ele>1092</ele>
        <time>2016-03-20T09:05:58Z</time>
      </trkpt>
      <trkpt lat="43.70621" lon="6.71374">
        <ele>1091</ele>
        <time>2016-03-20T09:06:04Z</time>
      </trkpt>
      <trkpt lat="43.70625" lon="6.71366">
        <ele>1092</ele>
        <time>2016-03-20T09:06:09Z</time>
      </trkpt>
      <trkpt lat="43.70629" lon="6.71358">
        <ele>1092</ele>
        <time>2016-03-20T09:06:14Z</time>
      </trkpt>
      <trkpt lat="43.70634" lon="6.71353">
        <ele>1092</ele>
        <time>2016-03-20T09:06:19Z</time>
      </trkpt>
      <trkpt lat="43.70637" lon="6.71346">
        <ele>1092</ele>
        <time>2016-03-20T09:06:24Z</time>
      </trkpt>
      <trkpt lat="43.70642" lon="6.71339">
        <ele>1094</ele>
        <time>2016-03-20T09:06:29Z</time>
      </trkpt>
      <trkpt lat="43.70645" lon="6.71331">
        <ele>1095</ele>
        <time>2016-03-20T09:06:35Z</time>
      </trkpt>
      <trkpt lat="43.70649" lon="6.71323">
        <ele>1096</ele>
        <time>2016-03-20T09:06:41Z</time>
      </trkpt>
      <trkpt lat="43.70656" lon="6.71312">
        <ele>1097</ele>
        <time>2016-03-20T09:06:48Z</time>
      </trkpt>
      <trkpt lat="43.70661" lon="6.71306">
        <ele>1098</ele>
        <time>2016-03-20T09:06:53Z</time>
      </trkpt>
      <trkpt lat="43.70667" lon="6.71301">
        <ele>1099</ele>
        <time>2016-03-20T09:06:58Z</time>
      </trkpt>
      <trkpt lat="43.70672" lon="6.71297">
        <ele>1100</ele>
        <time>2016-03-20T09:07:03Z</time>
      </trkpt>
      <trkpt lat="43.70678" lon="6.71292">
        <ele>1100</ele>
        <time>2016-03-20T09:07:09Z</time>
      </trkpt>
      <trkpt lat="43.70684" lon="6.71286">
        <ele>1101</ele>
        <time>2016-03-20T09:07:14Z</time>
      </trkpt>
      <trkpt lat="43.7069" lon="6.71281">
        <ele>1101</ele>
        <time>2016-03-20T09:07:19Z</time>
      </trkpt>
      <trkpt lat="43.70695" lon="6.71276">
        <ele>1103</ele>
        <time>2016-03-20T09:07:24Z</time>
      </trkpt>
      <trkpt lat="43.70701" lon="6.71272">
        <ele>1103</ele>
        <time>2016-03-20T09:07:30Z</time>
      </trkpt>
      <trkpt lat="43.70707" lon="6.71267">
        <ele>1104</ele>
        <time>2016-03-20T09:07:35Z</time>
      </trkpt>
      <trkpt lat="43.70713" lon="6.71262">
        <ele>1105</ele>
        <time>2016-03-20T09:07:40Z</time>
      </trkpt>
      <trkpt lat="43.70719" lon="6.71257">
        <ele>1105</ele>
        <time>2016-03-20T09:07:45Z</time>
      </trkpt>
      <trkpt lat="43.70725" lon="6.71253">
        <ele>1106</ele>
        <time>2016-03-20T09:07:50Z</time>
      </trkpt>
      <trkpt lat="43.70732" lon="6.7125">
        <ele>1105</ele>
        <time>2016-03-20T09:07:56Z</time>
      </trkpt>
      <trkpt lat="43.70741" lon="6.71245">
        <ele>1105</ele>
        <time>2016-03-20T09:08:02Z</time>
      </trkpt>
      <trkpt lat="43.7075" lon="6.71241">
        <ele>1106</ele>
        <time>2016-03-20T09:08:08Z</time>
      </trkpt>
      <trkpt lat="43.70758" lon="6.71241">
        <ele>1107</ele>
        <time>2016-03-20T09:08:13Z</time>
      </trkpt>
      <trkpt lat="43.70765" lon="6.7124">
        <ele>1108</ele>
        <time>2016-03-20T09:08:18Z</time>
      </trkpt>
      <trkpt lat="43.70771" lon="6.71239">
        <ele>1108</ele>
        <time>2016-03-20T09:08:23Z</time>
      </trkpt>
      <trkpt lat="43.70777" lon="6.71241">
        <ele>1108</ele>
        <time>2016-03-20T09:08:28Z</time>
      </trkpt>
      <trkpt lat="43.70784" lon="6.71245">
        <ele>1108</ele>
        <time>2016-03-20T09:08:34Z</time>
      </trkpt>
      <trkpt lat="43.70793" lon="6.71252">
        <ele>1109</ele>
        <time>2016-03-20T09:08:40Z</time>
      </trkpt>
      <trkpt lat="43.708" lon="6.71252">
        <ele>1109</ele>
        <time>2016-03-20T09:08:46Z</time>
      </trkpt>
      <trkpt lat="43.7081" lon="6.71248">
        <ele>1111</ele>
        <time>2016-03-20T09:08:53Z</time>
      </trkpt>
      <trkpt lat="43.70816" lon="6.71243">
        <ele>1111</ele>
        <time>2016-03-20T09:08:58Z</time>
      </trkpt>
      <trkpt lat="43.70822" lon="6.71236">
        <ele>1112</ele>
        <time>2016-03-20T09:09:03Z</time>
      </trkpt>
      <trkpt lat="43.70827" lon="6.71229">
        <ele>1113</ele>
        <time>2016-03-20T09:09:09Z</time>
      </trkpt>
      <trkpt lat="43.70833" lon="6.71224">
        <ele>1114</ele>
        <time>2016-03-20T09:09:15Z</time>
      </trkpt>
      <trkpt lat="43.70842" lon="6.71218">
        <ele>1116</ele>
        <time>2016-03-20T09:09:21Z</time>
      </trkpt>
      <trkpt lat="43.70851" lon="6.71221">
        <ele>1114</ele>
        <time>2016-03-20T09:09:27Z</time>
      </trkpt>
      <trkpt lat="43.70857" lon="6.71224">
        <ele>1113</ele>
        <time>2016-03-20T09:09:33Z</time>
      </trkpt>
      <trkpt lat="43.70867" lon="6.71229">
        <ele>1112</ele>
        <time>2016-03-20T09:09:39Z</time>
      </trkpt>
      <trkpt lat="43.70875" lon="6.71234">
        <ele>1114</ele>
        <time>2016-03-20T09:09:45Z</time>
      </trkpt>
      <trkpt lat="43.70882" lon="6.71237">
        <ele>1114</ele>
        <time>2016-03-20T09:09:50Z</time>
      </trkpt>
      <trkpt lat="43.7089" lon="6.71243">
        <ele>1115</ele>
        <time>2016-03-20T09:09:56Z</time>
      </trkpt>
      <trkpt lat="43.70898" lon="6.71253">
        <ele>1113</ele>
        <time>2016-03-20T09:10:02Z</time>
      </trkpt>
      <trkpt lat="43.70905" lon="6.71263">
        <ele>1114</ele>
        <time>2016-03-20T09:10:08Z</time>
      </trkpt>
      <trkpt lat="43.7091" lon="6.71274">
        <ele>1114</ele>
        <time>2016-03-20T09:10:14Z</time>
      </trkpt>
      <trkpt lat="43.70913" lon="6.71284">
        <ele>1117</ele>
        <time>2016-03-20T09:10:20Z</time>
      </trkpt>
      <trkpt lat="43.70916" lon="6.71293">
        <ele>1118</ele>
        <time>2016-03-20T09:10:25Z</time>
      </trkpt>
      <trkpt lat="43.70918" lon="6.71305">
        <ele>1120</ele>
        <time>2016-03-20T09:10:31Z</time>
      </trkpt>
      <trkpt lat="43.70923" lon="6.71318">
        <ele>1121</ele>
        <time>2016-03-20T09:10:37Z</time>
      </trkpt>
      <trkpt lat="43.70928" lon="6.71328">
        <ele>1122</ele>
        <time>2016-03-20T09:10:43Z</time>
      </trkpt>
      <trkpt lat="43.70931" lon="6.7134">
        <ele>1125</ele>
        <time>2016-03-20T09:10:50Z</time>
      </trkpt>
      <trkpt lat="43.70934" lon="6.71347">
        <ele>1123</ele>
        <time>2016-03-20T09:13:03Z</time>
      </trkpt>
      <trkpt lat="43.70939" lon="6.71354">
        <ele>1123</ele>
        <time>2016-03-20T09:13:09Z</time>
      </trkpt>
      <trkpt lat="43.70946" lon="6.71365">
        <ele>1123</ele>
        <time>2016-03-20T09:13:16Z</time>
      </trkpt>
      <trkpt lat="43.70954" lon="6.71374">
        <ele>1124</ele>
        <time>2016-03-20T09:13:23Z</time>
      </trkpt>
      <trkpt lat="43.7096" lon="6.71385">
        <ele>1125</ele>
        <time>2016-03-20T09:13:30Z</time>
      </trkpt>
      <trkpt lat="43.70969" lon="6.71391">
        <ele>1124</ele>
        <time>2016-03-20T09:13:37Z</time>
      </trkpt>
      <trkpt lat="43.70975" lon="6.71393">
        <ele>1124</ele>
        <time>2016-03-20T09:13:42Z</time>
      </trkpt>
      <trkpt lat="43.70982" lon="6.71394">
        <ele>1125</ele>
        <time>2016-03-20T09:13:48Z</time>
      </trkpt>
      <trkpt lat="43.70989" lon="6.71396">
        <ele>1127</ele>
        <time>2016-03-20T09:13:53Z</time>
      </trkpt>
      <trkpt lat="43.70996" lon="6.71396">
        <ele>1128</ele>
        <time>2016-03-20T09:13:58Z</time>
      </trkpt>
      <trkpt lat="43.71004" lon="6.71399">
        <ele>1129</ele>
        <time>2016-03-20T09:14:05Z</time>
      </trkpt>
      <trkpt lat="43.71013" lon="6.71399">
        <ele>1129</ele>
        <time>2016-03-20T09:14:11Z</time>
      </trkpt>
      <trkpt lat="43.7102" lon="6.714">
        <ele>1129</ele>
        <time>2016-03-20T09:14:17Z</time>
      </trkpt>
      <trkpt lat="43.71027" lon="6.71397">
        <ele>1130</ele>
        <time>2016-03-20T09:14:22Z</time>
      </trkpt>
      <trkpt lat="43.71034" lon="6.71395">
        <ele>1130</ele>
        <time>2016-03-20T09:14:27Z</time>
      </trkpt>
      <trkpt lat="43.71041" lon="6.71393">
        <ele>1134</ele>
        <time>2016-03-20T09:14:32Z</time>
      </trkpt>
      <trkpt lat="43.71048" lon="6.7139">
        <ele>1135</ele>
        <time>2016-03-20T09:14:37Z</time>
      </trkpt>
      <trkpt lat="43.71058" lon="6.71384">
        <ele>1136</ele>
        <time>2016-03-20T09:14:44Z</time>
      </trkpt>
      <trkpt lat="43.71065" lon="6.71382">
        <ele>1138</ele>
        <time>2016-03-20T09:14:49Z</time>
      </trkpt>
      <trkpt lat="43.71071" lon="6.71378">
        <ele>1139</ele>
        <time>2016-03-20T09:14:55Z</time>
      </trkpt>
      <trkpt lat="43.71079" lon="6.71371">
        <ele>1140</ele>
        <time>2016-03-20T09:15:01Z</time>
      </trkpt>
      <trkpt lat="43.71082" lon="6.71359">
        <ele>1141</ele>
        <time>2016-03-20T09:15:07Z</time>
      </trkpt>
      <trkpt lat="43.71085" lon="6.7135">
        <ele>1139</ele>
        <time>2016-03-20T09:15:13Z</time>
      </trkpt>
      <trkpt lat="43.71088" lon="6.71341">
        <ele>1141</ele>
        <time>2016-03-20T09:15:19Z</time>
      </trkpt>
      <trkpt lat="43.7109" lon="6.71333">
        <ele>1143</ele>
        <time>2016-03-20T09:15:24Z</time>
      </trkpt>
      <trkpt lat="43.71093" lon="6.71323">
        <ele>1144</ele>
        <time>2016-03-20T09:15:29Z</time>
      </trkpt>
      <trkpt lat="43.71095" lon="6.71316">
        <ele>1146</ele>
        <time>2016-03-20T09:15:34Z</time>
      </trkpt>
      <trkpt lat="43.711" lon="6.7131">
        <ele>1146</ele>
        <time>2016-03-20T09:15:39Z</time>
      </trkpt>
      <trkpt lat="43.71108" lon="6.71301">
        <ele>1146</ele>
        <time>2016-03-20T09:15:46Z</time>
      </trkpt>
      <trkpt lat="43.71114" lon="6.71298">
        <ele>1147</ele>
        <time>2016-03-20T09:15:51Z</time>
      </trkpt>
      <trkpt lat="43.71121" lon="6.713">
        <ele>1149</ele>
        <time>2016-03-20T09:15:57Z</time>
      </trkpt>
      <trkpt lat="43.71127" lon="6.71302">
        <ele>1148</ele>
        <time>2016-03-20T09:16:02Z</time>
      </trkpt>
      <trkpt lat="43.71133" lon="6.71304">
        <ele>1149</ele>
        <time>2016-03-20T09:16:07Z</time>
      </trkpt>
      <trkpt lat="43.71138" lon="6.71309">
        <ele>1149</ele>
        <time>2016-03-20T09:16:13Z</time>
      </trkpt>
      <trkpt lat="43.71144" lon="6.71316">
        <ele>1150</ele>
        <time>2016-03-20T09:16:19Z</time>
      </trkpt>
      <trkpt lat="43.7115" lon="6.7132">
        <ele>1151</ele>
        <time>2016-03-20T09:16:24Z</time>
      </trkpt>
      <trkpt lat="43.71155" lon="6.71322">
        <ele>1153</ele>
        <time>2016-03-20T09:16:29Z</time>
      </trkpt>
      <trkpt lat="43.71159" lon="6.71328">
        <ele>1153</ele>
        <time>2016-03-20T09:16:35Z</time>
      </trkpt>
      <trkpt lat="43.71164" lon="6.71333">
        <ele>1152</ele>
        <time>2016-03-20T09:16:40Z</time>
      </trkpt>
      <trkpt lat="43.7117" lon="6.71337">
        <ele>1152</ele>
        <time>2016-03-20T09:16:46Z</time>
      </trkpt>
      <trkpt lat="43.71176" lon="6.71342">
        <ele>1151</ele>
        <time>2016-03-20T09:16:52Z</time>
      </trkpt>
      <trkpt lat="43.71181" lon="6.71348">
        <ele>1152</ele>
        <time>2016-03-20T09:16:57Z</time>
      </trkpt>
      <trkpt lat="43.71184" lon="6.71353">
        <ele>1152</ele>
        <time>2016-03-20T09:17:03Z</time>
      </trkpt>
      <trkpt lat="43.7119" lon="6.71358">
        <ele>1153</ele>
        <time>2016-03-20T09:17:08Z</time>
      </trkpt>
      <trkpt lat="43.71196" lon="6.71363">
        <ele>1155</ele>
        <time>2016-03-20T09:17:14Z</time>
      </trkpt>
      <trkpt lat="43.71202" lon="6.71367">
        <ele>1156</ele>
        <time>2016-03-20T09:17:20Z</time>
      </trkpt>
      <trkpt lat="43.71208" lon="6.71369">
        <ele>1156</ele>
        <time>2016-03-20T09:17:25Z</time>
      </trkpt>
      <trkpt lat="43.71215" lon="6.71372">
        <ele>1158</ele>
        <time>2016-03-20T09:17:31Z</time>
      </trkpt>
      <trkpt lat="43.7122" lon="6.71376">
        <ele>1160</ele>
        <time>2016-03-20T09:17:36Z</time>
      </trkpt>
      <trkpt lat="43.71227" lon="6.71379">
        <ele>1161</ele>
        <time>2016-03-20T09:17:42Z</time>
      </trkpt>
      <trkpt lat="43.71233" lon="6.71382">
        <ele>1162</ele>
        <time>2016-03-20T09:17:47Z</time>
      </trkpt>
      <trkpt lat="43.7124" lon="6.71384">
        <ele>1164</ele>
        <time>2016-03-20T09:17:53Z</time>
      </trkpt>
      <trkpt lat="43.71245" lon="6.71389">
        <ele>1163</ele>
        <time>2016-03-20T09:17:59Z</time>
      </trkpt>
      <trkpt lat="43.71251" lon="6.71392">
        <ele>1162</ele>
        <time>2016-03-20T09:18:05Z</time>
      </trkpt>
      <trkpt lat="43.71257" lon="6.71395">
        <ele>1164</ele>
        <time>2016-03-20T09:18:10Z</time>
      </trkpt>
      <trkpt lat="43.71263" lon="6.71399">
        <ele>1167</ele>
        <time>2016-03-20T09:18:16Z</time>
      </trkpt>
      <trkpt lat="43.71269" lon="6.71402">
        <ele>1167</ele>
        <time>2016-03-20T09:18:22Z</time>
      </trkpt>
      <trkpt lat="43.71275" lon="6.71407">
        <ele>1169</ele>
        <time>2016-03-20T09:18:28Z</time>
      </trkpt>
      <trkpt lat="43.7128" lon="6.71411">
        <ele>1169</ele>
        <time>2016-03-20T09:18:34Z</time>
      </trkpt>
      <trkpt lat="43.71286" lon="6.71416">
        <ele>1172</ele>
        <time>2016-03-20T09:18:40Z</time>
      </trkpt>
      <trkpt lat="43.71292" lon="6.7142">
        <ele>1172</ele>
        <time>2016-03-20T09:18:45Z</time>
      </trkpt>
      <trkpt lat="43.71297" lon="6.71425">
        <ele>1172</ele>
        <time>2016-03-20T09:18:50Z</time>
      </trkpt>
      <trkpt lat="43.71302" lon="6.71428">
        <ele>1171</ele>
        <time>2016-03-20T09:18:55Z</time>
      </trkpt>
      <trkpt lat="43.71308" lon="6.71435">
        <ele>1170</ele>
        <time>2016-03-20T09:19:02Z</time>
      </trkpt>
      <trkpt lat="43.71313" lon="6.71439">
        <ele>1170</ele>
        <time>2016-03-20T09:19:07Z</time>
      </trkpt>
      <trkpt lat="43.71319" lon="6.71444">
        <ele>1171</ele>
        <time>2016-03-20T09:19:13Z</time>
      </trkpt>
      <trkpt lat="43.71325" lon="6.7145">
        <ele>1171</ele>
        <time>2016-03-20T09:19:20Z</time>
      </trkpt>
      <trkpt lat="43.71332" lon="6.71455">
        <ele>1170</ele>
        <time>2016-03-20T09:19:25Z</time>
      </trkpt>
      <trkpt lat="43.71337" lon="6.71462">
        <ele>1172</ele>
        <time>2016-03-20T09:19:31Z</time>
      </trkpt>
      <trkpt lat="43.71341" lon="6.71469">
        <ele>1173</ele>
        <time>2016-03-20T09:19:37Z</time>
      </trkpt>
      <trkpt lat="43.71345" lon="6.71476">
        <ele>1174</ele>
        <time>2016-03-20T09:19:42Z</time>
      </trkpt>
      <trkpt lat="43.71349" lon="6.71484">
        <ele>1175</ele>
        <time>2016-03-20T09:19:48Z</time>
      </trkpt>
      <trkpt lat="43.71352" lon="6.71493">
        <ele>1175</ele>
        <time>2016-03-20T09:19:54Z</time>
      </trkpt>
      <trkpt lat="43.71358" lon="6.71504">
        <ele>1176</ele>
        <time>2016-03-20T09:20:01Z</time>
      </trkpt>
      <trkpt lat="43.71365" lon="6.71514">
        <ele>1177</ele>
        <time>2016-03-20T09:20:08Z</time>
      </trkpt>
      <trkpt lat="43.71369" lon="6.7152">
        <ele>1178</ele>
        <time>2016-03-20T09:20:13Z</time>
      </trkpt>
      <trkpt lat="43.71377" lon="6.71528">
        <ele>1178</ele>
        <time>2016-03-20T09:20:19Z</time>
      </trkpt>
      <trkpt lat="43.71384" lon="6.71536">
        <ele>1179</ele>
        <time>2016-03-20T09:20:26Z</time>
      </trkpt>
      <trkpt lat="43.71392" lon="6.71542">
        <ele>1181</ele>
        <time>2016-03-20T09:20:32Z</time>
      </trkpt>
      <trkpt lat="43.71397" lon="6.71548">
        <ele>1180</ele>
        <time>2016-03-20T09:20:37Z</time>
      </trkpt>
      <trkpt lat="43.71404" lon="6.71553">
        <ele>1181</ele>
        <time>2016-03-20T09:20:43Z</time>
      </trkpt>
      <trkpt lat="43.71411" lon="6.71557">
        <ele>1182</ele>
        <time>2016-03-20T09:20:49Z</time>
      </trkpt>
      <trkpt lat="43.71419" lon="6.71562">
        <ele>1182</ele>
        <time>2016-03-20T09:20:55Z</time>
      </trkpt>
      <trkpt lat="43.71426" lon="6.71565">
        <ele>1183</ele>
        <time>2016-03-20T09:21:00Z</time>
      </trkpt>
      <trkpt lat="43.71433" lon="6.71569">
        <ele>1184</ele>
        <time>2016-03-20T09:21:05Z</time>
      </trkpt>
      <trkpt lat="43.71441" lon="6.71574">
        <ele>1185</ele>
        <time>2016-03-20T09:21:11Z</time>
      </trkpt>
      <trkpt lat="43.71447" lon="6.71578">
        <ele>1185</ele>
        <time>2016-03-20T09:21:16Z</time>
      </trkpt>
      <trkpt lat="43.71453" lon="6.71583">
        <ele>1186</ele>
        <time>2016-03-20T09:21:21Z</time>
      </trkpt>
      <trkpt lat="43.71458" lon="6.71589">
        <ele>1186</ele>
        <time>2016-03-20T09:21:26Z</time>
      </trkpt>
      <trkpt lat="43.71463" lon="6.71595">
        <ele>1186</ele>
        <time>2016-03-20T09:21:31Z</time>
      </trkpt>
      <trkpt lat="43.71468" lon="6.71602">
        <ele>1188</ele>
        <time>2016-03-20T09:21:36Z</time>
      </trkpt>
      <trkpt lat="43.71474" lon="6.7161">
        <ele>1188</ele>
        <time>2016-03-20T09:21:42Z</time>
      </trkpt>
      <trkpt lat="43.71481" lon="6.7162">
        <ele>1188</ele>
        <time>2016-03-20T09:21:49Z</time>
      </trkpt>
      <trkpt lat="43.71486" lon="6.71627">
        <ele>1189</ele>
        <time>2016-03-20T09:21:55Z</time>
      </trkpt>
      <trkpt lat="43.71491" lon="6.71632">
        <ele>1191</ele>
        <time>2016-03-20T09:22:00Z</time>
      </trkpt>
      <trkpt lat="43.71497" lon="6.71638">
        <ele>1192</ele>
        <time>2016-03-20T09:22:06Z</time>
      </trkpt>
      <trkpt lat="43.71502" lon="6.71643">
        <ele>1193</ele>
        <time>2016-03-20T09:22:11Z</time>
      </trkpt>
      <trkpt lat="43.71508" lon="6.71649">
        <ele>1194</ele>
        <time>2016-03-20T09:22:16Z</time>
      </trkpt>
      <trkpt lat="43.71514" lon="6.71656">
        <ele>1195</ele>
        <time>2016-03-20T09:22:22Z</time>
      </trkpt>
      <trkpt lat="43.71521" lon="6.71661">
        <ele>1195</ele>
        <time>2016-03-20T09:22:27Z</time>
      </trkpt>
      <trkpt lat="43.71526" lon="6.71668">
        <ele>1196</ele>
        <time>2016-03-20T09:22:33Z</time>
      </trkpt>
      <trkpt lat="43.71532" lon="6.71675">
        <ele>1196</ele>
        <time>2016-03-20T09:22:39Z</time>
      </trkpt>
      <trkpt lat="43.71536" lon="6.71682">
        <ele>1198</ele>
        <time>2016-03-20T09:22:44Z</time>
      </trkpt>
      <trkpt lat="43.71541" lon="6.71689">
        <ele>1197</ele>
        <time>2016-03-20T09:22:49Z</time>
      </trkpt>
      <trkpt lat="43.71545" lon="6.71696">
        <ele>1198</ele>
        <time>2016-03-20T09:22:54Z</time>
      </trkpt>
      <trkpt lat="43.71549" lon="6.71703">
        <ele>1199</ele>
        <time>2016-03-20T09:22:59Z</time>
      </trkpt>
      <trkpt lat="43.71551" lon="6.71713">
        <ele>1201</ele>
        <time>2016-03-20T09:23:05Z</time>
      </trkpt>
      <trkpt lat="43.71553" lon="6.71721">
        <ele>1200</ele>
        <time>2016-03-20T09:23:10Z</time>
      </trkpt>
      <trkpt lat="43.71554" lon="6.7173">
        <ele>1200</ele>
        <time>2016-03-20T09:23:16Z</time>
      </trkpt>
      <trkpt lat="43.71556" lon="6.71742">
        <ele>1201</ele>
        <time>2016-03-20T09:23:22Z</time>
      </trkpt>
      <trkpt lat="43.71557" lon="6.71751">
        <ele>1202</ele>
        <time>2016-03-20T09:23:27Z</time>
      </trkpt>
      <trkpt lat="43.71556" lon="6.71761">
        <ele>1203</ele>
        <time>2016-03-20T09:23:32Z</time>
      </trkpt>
      <trkpt lat="43.71556" lon="6.7177">
        <ele>1205</ele>
        <time>2016-03-20T09:23:37Z</time>
      </trkpt>
      <trkpt lat="43.71556" lon="6.71779">
        <ele>1204</ele>
        <time>2016-03-20T09:23:42Z</time>
      </trkpt>
      <trkpt lat="43.71558" lon="6.71789">
        <ele>1203</ele>
        <time>2016-03-20T09:23:48Z</time>
      </trkpt>
      <trkpt lat="43.7156" lon="6.71798">
        <ele>1205</ele>
        <time>2016-03-20T09:23:53Z</time>
      </trkpt>
      <trkpt lat="43.71561" lon="6.71808">
        <ele>1205</ele>
        <time>2016-03-20T09:23:58Z</time>
      </trkpt>
      <trkpt lat="43.71561" lon="6.71821">
        <ele>1206</ele>
        <time>2016-03-20T09:24:04Z</time>
      </trkpt>
      <trkpt lat="43.71562" lon="6.71833">
        <ele>1207</ele>
        <time>2016-03-20T09:24:10Z</time>
      </trkpt>
      <trkpt lat="43.71562" lon="6.71843">
        <ele>1206</ele>
        <time>2016-03-20T09:24:15Z</time>
      </trkpt>
      <trkpt lat="43.71562" lon="6.71853">
        <ele>1207</ele>
        <time>2016-03-20T09:24:20Z</time>
      </trkpt>
      <trkpt lat="43.71561" lon="6.71865">
        <ele>1207</ele>
        <time>2016-03-20T09:24:27Z</time>
      </trkpt>
      <trkpt lat="43.71559" lon="6.71874">
        <ele>1206</ele>
        <time>2016-03-20T09:24:33Z</time>
      </trkpt>
      <trkpt lat="43.71559" lon="6.71884">
        <ele>1207</ele>
        <time>2016-03-20T09:24:39Z</time>
      </trkpt>
      <trkpt lat="43.7156" lon="6.71893">
        <ele>1209</ele>
        <time>2016-03-20T09:24:44Z</time>
      </trkpt>
      <trkpt lat="43.71562" lon="6.71906">
        <ele>1209</ele>
        <time>2016-03-20T09:24:51Z</time>
      </trkpt>
      <trkpt lat="43.71563" lon="6.71915">
        <ele>1211</ele>
        <time>2016-03-20T09:24:56Z</time>
      </trkpt>
      <trkpt lat="43.71565" lon="6.71929">
        <ele>1211</ele>
        <time>2016-03-20T09:25:03Z</time>
      </trkpt>
      <trkpt lat="43.71566" lon="6.71942">
        <ele>1213</ele>
        <time>2016-03-20T09:25:10Z</time>
      </trkpt>
      <trkpt lat="43.71568" lon="6.7195">
        <ele>1213</ele>
        <time>2016-03-20T09:25:16Z</time>
      </trkpt>
      <trkpt lat="43.71571" lon="6.71959">
        <ele>1213</ele>
        <time>2016-03-20T09:25:21Z</time>
      </trkpt>
      <trkpt lat="43.71574" lon="6.71965">
        <ele>1214</ele>
        <time>2016-03-20T09:25:26Z</time>
      </trkpt>
      <trkpt lat="43.71576" lon="6.71974">
        <ele>1214</ele>
        <time>2016-03-20T09:25:31Z</time>
      </trkpt>
      <trkpt lat="43.71577" lon="6.71982">
        <ele>1212</ele>
        <time>2016-03-20T09:25:36Z</time>
      </trkpt>
      <trkpt lat="43.71579" lon="6.71991">
        <ele>1214</ele>
        <time>2016-03-20T09:25:42Z</time>
      </trkpt>
      <trkpt lat="43.7158" lon="6.72">
        <ele>1213</ele>
        <time>2016-03-20T09:25:47Z</time>
      </trkpt>
      <trkpt lat="43.71582" lon="6.72007">
        <ele>1213</ele>
        <time>2016-03-20T09:25:52Z</time>
      </trkpt>
      <trkpt lat="43.71586" lon="6.72017">
        <ele>1215</ele>
        <time>2016-03-20T09:25:58Z</time>
      </trkpt>
      <trkpt lat="43.7159" lon="6.72029">
        <ele>1215</ele>
        <time>2016-03-20T09:26:04Z</time>
      </trkpt>
      <trkpt lat="43.71594" lon="6.72036">
        <ele>1216</ele>
        <time>2016-03-20T09:26:09Z</time>
      </trkpt>
      <trkpt lat="43.71597" lon="6.72048">
        <ele>1218</ele>
        <time>2016-03-20T09:26:16Z</time>
      </trkpt>
      <trkpt lat="43.71599" lon="6.72056">
        <ele>1219</ele>
        <time>2016-03-20T09:26:21Z</time>
      </trkpt>
      <trkpt lat="43.716" lon="6.72065">
        <ele>1219</ele>
        <time>2016-03-20T09:26:27Z</time>
      </trkpt>
      <trkpt lat="43.71606" lon="6.72075">
        <ele>1220</ele>
        <time>2016-03-20T09:26:34Z</time>
      </trkpt>
      <trkpt lat="43.71613" lon="6.72079">
        <ele>1221</ele>
        <time>2016-03-20T09:26:40Z</time>
      </trkpt>
      <trkpt lat="43.71621" lon="6.72079">
        <ele>1221</ele>
        <time>2016-03-20T09:26:45Z</time>
      </trkpt>
      <trkpt lat="43.71627" lon="6.72078">
        <ele>1223</ele>
        <time>2016-03-20T09:26:50Z</time>
      </trkpt>
      <trkpt lat="43.71635" lon="6.72078">
        <ele>1223</ele>
        <time>2016-03-20T09:26:56Z</time>
      </trkpt>
      <trkpt lat="43.71644" lon="6.72078">
        <ele>1224</ele>
        <time>2016-03-20T09:27:02Z</time>
      </trkpt>
      <trkpt lat="43.7165" lon="6.72081">
        <ele>1227</ele>
        <time>2016-03-20T09:27:07Z</time>
      </trkpt>
      <trkpt lat="43.71656" lon="6.72083">
        <ele>1227</ele>
        <time>2016-03-20T09:27:12Z</time>
      </trkpt>
      <trkpt lat="43.71663" lon="6.72089">
        <ele>1227</ele>
        <time>2016-03-20T09:27:18Z</time>
      </trkpt>
      <trkpt lat="43.71669" lon="6.72093">
        <ele>1226</ele>
        <time>2016-03-20T09:27:23Z</time>
      </trkpt>
      <trkpt lat="43.71674" lon="6.72098">
        <ele>1226</ele>
        <time>2016-03-20T09:27:28Z</time>
      </trkpt>
      <trkpt lat="43.71679" lon="6.72103">
        <ele>1229</ele>
        <time>2016-03-20T09:27:34Z</time>
      </trkpt>
      <trkpt lat="43.71688" lon="6.72109">
        <ele>1228</ele>
        <time>2016-03-20T09:27:41Z</time>
      </trkpt>
      <trkpt lat="43.71694" lon="6.72115">
        <ele>1229</ele>
        <time>2016-03-20T09:27:47Z</time>
      </trkpt>
      <trkpt lat="43.71699" lon="6.7212">
        <ele>1229</ele>
        <time>2016-03-20T09:27:53Z</time>
      </trkpt>
      <trkpt lat="43.71704" lon="6.72124">
        <ele>1230</ele>
        <time>2016-03-20T09:27:58Z</time>
      </trkpt>
      <trkpt lat="43.71709" lon="6.7213">
        <ele>1231</ele>
        <time>2016-03-20T09:28:05Z</time>
      </trkpt>
      <trkpt lat="43.71713" lon="6.72136">
        <ele>1233</ele>
        <time>2016-03-20T09:28:10Z</time>
      </trkpt>
      <trkpt lat="43.71719" lon="6.72141">
        <ele>1232</ele>
        <time>2016-03-20T09:28:15Z</time>
      </trkpt>
      <trkpt lat="43.71724" lon="6.72147">
        <ele>1232</ele>
        <time>2016-03-20T09:28:20Z</time>
      </trkpt>
      <trkpt lat="43.71728" lon="6.72153">
        <ele>1233</ele>
        <time>2016-03-20T09:28:25Z</time>
      </trkpt>
      <trkpt lat="43.7173" lon="6.72161">
        <ele>1235</ele>
        <time>2016-03-20T09:28:31Z</time>
      </trkpt>
      <trkpt lat="43.71734" lon="6.72171">
        <ele>1235</ele>
        <time>2016-03-20T09:28:37Z</time>
      </trkpt>
      <trkpt lat="43.71736" lon="6.72179">
        <ele>1236</ele>
        <time>2016-03-20T09:28:42Z</time>
      </trkpt>
      <trkpt lat="43.71741" lon="6.7219">
        <ele>1237</ele>
        <time>2016-03-20T09:28:49Z</time>
      </trkpt>
      <trkpt lat="43.71745" lon="6.72198">
        <ele>1237</ele>
        <time>2016-03-20T09:28:55Z</time>
      </trkpt>
      <trkpt lat="43.71748" lon="6.72207">
        <ele>1238</ele>
        <time>2016-03-20T09:29:01Z</time>
      </trkpt>
      <trkpt lat="43.7175" lon="6.72214">
        <ele>1238</ele>
        <time>2016-03-20T09:29:06Z</time>
      </trkpt>
      <trkpt lat="43.71753" lon="6.72223">
        <ele>1238</ele>
        <time>2016-03-20T09:29:11Z</time>
      </trkpt>
      <trkpt lat="43.71756" lon="6.72231">
        <ele>1239</ele>
        <time>2016-03-20T09:29:16Z</time>
      </trkpt>
      <trkpt lat="43.71759" lon="6.72239">
        <ele>1240</ele>
        <time>2016-03-20T09:29:21Z</time>
      </trkpt>
      <trkpt lat="43.71762" lon="6.72247">
        <ele>1241</ele>
        <time>2016-03-20T09:29:27Z</time>
      </trkpt>
      <trkpt lat="43.71765" lon="6.72257">
        <ele>1242</ele>
        <time>2016-03-20T09:29:33Z</time>
      </trkpt>
      <trkpt lat="43.71768" lon="6.72266">
        <ele>1243</ele>
        <time>2016-03-20T09:29:39Z</time>
      </trkpt>
      <trkpt lat="43.7177" lon="6.72278">
        <ele>1245</ele>
        <time>2016-03-20T09:29:45Z</time>
      </trkpt>
      <trkpt lat="43.71773" lon="6.72291">
        <ele>1245</ele>
        <time>2016-03-20T09:29:52Z</time>
      </trkpt>
      <trkpt lat="43.71778" lon="6.72302">
        <ele>1246</ele>
        <time>2016-03-20T09:29:59Z</time>
      </trkpt>
      <trkpt lat="43.71781" lon="6.72311">
        <ele>1245</ele>
        <time>2016-03-20T09:30:04Z</time>
      </trkpt>
      <trkpt lat="43.71785" lon="6.72319">
        <ele>1246</ele>
        <time>2016-03-20T09:30:09Z</time>
      </trkpt>
      <trkpt lat="43.7179" lon="6.72331">
        <ele>1246</ele>
        <time>2016-03-20T09:30:15Z</time>
      </trkpt>
      <trkpt lat="43.71795" lon="6.72339">
        <ele>1246</ele>
        <time>2016-03-20T09:30:20Z</time>
      </trkpt>
      <trkpt lat="43.71802" lon="6.72343">
        <ele>1248</ele>
        <time>2016-03-20T09:30:26Z</time>
      </trkpt>
      <trkpt lat="43.71811" lon="6.72346">
        <ele>1250</ele>
        <time>2016-03-20T09:30:32Z</time>
      </trkpt>
      <trkpt lat="43.71818" lon="6.72343">
        <ele>1252</ele>
        <time>2016-03-20T09:30:38Z</time>
      </trkpt>
      <trkpt lat="43.71823" lon="6.7234">
        <ele>1253</ele>
        <time>2016-03-20T09:30:44Z</time>
      </trkpt>
      <trkpt lat="43.71829" lon="6.72335">
        <ele>1252</ele>
        <time>2016-03-20T09:30:49Z</time>
      </trkpt>
      <trkpt lat="43.71834" lon="6.7233">
        <ele>1253</ele>
        <time>2016-03-20T09:30:54Z</time>
      </trkpt>
      <trkpt lat="43.7184" lon="6.72323">
        <ele>1251</ele>
        <time>2016-03-20T09:31:00Z</time>
      </trkpt>
      <trkpt lat="43.71846" lon="6.72318">
        <ele>1252</ele>
        <time>2016-03-20T09:31:05Z</time>
      </trkpt>
      <trkpt lat="43.7185" lon="6.72312">
        <ele>1252</ele>
        <time>2016-03-20T09:31:10Z</time>
      </trkpt>
      <trkpt lat="43.71856" lon="6.72303">
        <ele>1254</ele>
        <time>2016-03-20T09:31:16Z</time>
      </trkpt>
      <trkpt lat="43.71863" lon="6.72293">
        <ele>1254</ele>
        <time>2016-03-20T09:31:23Z</time>
      </trkpt>
      <trkpt lat="43.71868" lon="6.72282">
        <ele>1254</ele>
        <time>2016-03-20T09:31:30Z</time>
      </trkpt>
      <trkpt lat="43.71873" lon="6.72271">
        <ele>1254</ele>
        <time>2016-03-20T09:31:36Z</time>
      </trkpt>
      <trkpt lat="43.71879" lon="6.72259">
        <ele>1256</ele>
        <time>2016-03-20T09:31:42Z</time>
      </trkpt>
      <trkpt lat="43.71886" lon="6.72246">
        <ele>1255</ele>
        <time>2016-03-20T09:31:48Z</time>
      </trkpt>
      <trkpt lat="43.71895" lon="6.72238">
        <ele>1256</ele>
        <time>2016-03-20T09:31:54Z</time>
      </trkpt>
      <trkpt lat="43.71903" lon="6.72233">
        <ele>1256</ele>
        <time>2016-03-20T09:32:00Z</time>
      </trkpt>
      <trkpt lat="43.71909" lon="6.72229">
        <ele>1257</ele>
        <time>2016-03-20T09:32:05Z</time>
      </trkpt>
      <trkpt lat="43.71918" lon="6.72226">
        <ele>1258</ele>
        <time>2016-03-20T09:32:11Z</time>
      </trkpt>
      <trkpt lat="43.71924" lon="6.7222">
        <ele>1259</ele>
        <time>2016-03-20T09:32:18Z</time>
      </trkpt>
      <trkpt lat="43.71933" lon="6.72214">
        <ele>1259</ele>
        <time>2016-03-20T09:32:25Z</time>
      </trkpt>
      <trkpt lat="43.71938" lon="6.72208">
        <ele>1259</ele>
        <time>2016-03-20T09:32:30Z</time>
      </trkpt>
      <trkpt lat="43.71944" lon="6.72203">
        <ele>1260</ele>
        <time>2016-03-20T09:32:35Z</time>
      </trkpt>
      <trkpt lat="43.7195" lon="6.72198">
        <ele>1262</ele>
        <time>2016-03-20T09:32:40Z</time>
      </trkpt>
      <trkpt lat="43.71956" lon="6.72196">
        <ele>1264</ele>
        <time>2016-03-20T09:32:45Z</time>
      </trkpt>
      <trkpt lat="43.71963" lon="6.72204">
        <ele>1265</ele>
        <time>2016-03-20T09:32:52Z</time>
      </trkpt>
      <trkpt lat="43.7196" lon="6.72211">
        <ele>1264</ele>
        <time>2016-03-20T09:32:57Z</time>
      </trkpt>
      <trkpt lat="43.71954" lon="6.72217">
        <ele>1265</ele>
        <time>2016-03-20T09:33:02Z</time>
      </trkpt>
      <trkpt lat="43.71946" lon="6.72225">
        <ele>1266</ele>
        <time>2016-03-20T09:33:08Z</time>
      </trkpt>
      <trkpt lat="43.71939" lon="6.72233">
        <ele>1266</ele>
        <time>2016-03-20T09:33:14Z</time>
      </trkpt>
      <trkpt lat="43.71933" lon="6.72243">
        <ele>1265</ele>
        <time>2016-03-20T09:33:20Z</time>
      </trkpt>
      <trkpt lat="43.71928" lon="6.72254">
        <ele>1267</ele>
        <time>2016-03-20T09:33:27Z</time>
      </trkpt>
      <trkpt lat="43.71923" lon="6.72265">
        <ele>1270</ele>
        <time>2016-03-20T09:33:33Z</time>
      </trkpt>
      <trkpt lat="43.71919" lon="6.72276">
        <ele>1270</ele>
        <time>2016-03-20T09:33:39Z</time>
      </trkpt>
      <trkpt lat="43.71916" lon="6.72284">
        <ele>1270</ele>
        <time>2016-03-20T09:33:44Z</time>
      </trkpt>
      <trkpt lat="43.71913" lon="6.72292">
        <ele>1272</ele>
        <time>2016-03-20T09:33:50Z</time>
      </trkpt>
      <trkpt lat="43.71911" lon="6.72301">
        <ele>1273</ele>
        <time>2016-03-20T09:33:55Z</time>
      </trkpt>
      <trkpt lat="43.71909" lon="6.72309">
        <ele>1271</ele>
        <time>2016-03-20T09:34:00Z</time>
      </trkpt>
      <trkpt lat="43.71907" lon="6.72319">
        <ele>1272</ele>
        <time>2016-03-20T09:34:06Z</time>
      </trkpt>
      <trkpt lat="43.71905" lon="6.72328">
        <ele>1273</ele>
        <time>2016-03-20T09:34:11Z</time>
      </trkpt>
      <trkpt lat="43.71902" lon="6.72335">
        <ele>1275</ele>
        <time>2016-03-20T09:34:16Z</time>
      </trkpt>
      <trkpt lat="43.71899" lon="6.72343">
        <ele>1277</ele>
        <time>2016-03-20T09:34:22Z</time>
      </trkpt>
      <trkpt lat="43.71896" lon="6.72352">
        <ele>1278</ele>
        <time>2016-03-20T09:34:28Z</time>
      </trkpt>
      <trkpt lat="43.71893" lon="6.7236">
        <ele>1277</ele>
        <time>2016-03-20T09:34:33Z</time>
      </trkpt>
      <trkpt lat="43.71887" lon="6.72371">
        <ele>1278</ele>
        <time>2016-03-20T09:34:40Z</time>
      </trkpt>
      <trkpt lat="43.71885" lon="6.72379">
        <ele>1278</ele>
        <time>2016-03-20T09:34:45Z</time>
      </trkpt>
      <trkpt lat="43.71883" lon="6.72386">
        <ele>1279</ele>
        <time>2016-03-20T09:34:50Z</time>
      </trkpt>
      <trkpt lat="43.71879" lon="6.72397">
        <ele>1279</ele>
        <time>2016-03-20T09:34:56Z</time>
      </trkpt>
      <trkpt lat="43.71877" lon="6.72407">
        <ele>1278</ele>
        <time>2016-03-20T09:35:02Z</time>
      </trkpt>
      <trkpt lat="43.71873" lon="6.72419">
        <ele>1276</ele>
        <time>2016-03-20T09:35:08Z</time>
      </trkpt>
      <trkpt lat="43.71869" lon="6.72427">
        <ele>1278</ele>
        <time>2016-03-20T09:35:14Z</time>
      </trkpt>
      <trkpt lat="43.71864" lon="6.72434">
        <ele>1279</ele>
        <time>2016-03-20T09:35:19Z</time>
      </trkpt>
      <trkpt lat="43.71859" lon="6.72444">
        <ele>1282</ele>
        <time>2016-03-20T09:35:26Z</time>
      </trkpt>
      <trkpt lat="43.71856" lon="6.72452">
        <ele>1284</ele>
        <time>2016-03-20T09:35:32Z</time>
      </trkpt>
      <trkpt lat="43.71852" lon="6.7246">
        <ele>1285</ele>
        <time>2016-03-20T09:35:38Z</time>
      </trkpt>
      <trkpt lat="43.71849" lon="6.72467">
        <ele>1286</ele>
        <time>2016-03-20T09:35:44Z</time>
      </trkpt>
      <trkpt lat="43.71844" lon="6.72474">
        <ele>1286</ele>
        <time>2016-03-20T09:35:50Z</time>
      </trkpt>
      <trkpt lat="43.7184" lon="6.72481">
        <ele>1290</ele>
        <time>2016-03-20T09:35:58Z</time>
      </trkpt>
      <trkpt lat="43.71835" lon="6.72489">
        <ele>1291</ele>
        <time>2016-03-20T09:36:05Z</time>
      </trkpt>
      <trkpt lat="43.71829" lon="6.72494">
        <ele>1291</ele>
        <time>2016-03-20T09:36:11Z</time>
      </trkpt>
      <trkpt lat="43.71826" lon="6.72497">
        <ele>1292</ele>
        <time>2016-03-20T09:36:14Z</time>
      </trkpt>
      <trkpt lat="43.71821" lon="6.72503">
        <ele>1292</ele>
        <time>2016-03-20T09:36:20Z</time>
      </trkpt>
      <trkpt lat="43.71816" lon="6.72508">
        <ele>1293</ele>
        <time>2016-03-20T09:36:25Z</time>
      </trkpt>
      <trkpt lat="43.71811" lon="6.72514">
        <ele>1293</ele>
        <time>2016-03-20T09:36:31Z</time>
      </trkpt>
      <trkpt lat="43.71804" lon="6.72521">
        <ele>1293</ele>
        <time>2016-03-20T09:36:37Z</time>
      </trkpt>
      <trkpt lat="43.71799" lon="6.72528">
        <ele>1294</ele>
        <time>2016-03-20T09:36:45Z</time>
      </trkpt>
      <trkpt lat="43.71794" lon="6.72536">
        <ele>1293</ele>
        <time>2016-03-20T09:36:52Z</time>
      </trkpt>
      <trkpt lat="43.7179" lon="6.72544">
        <ele>1294</ele>
        <time>2016-03-20T09:36:58Z</time>
      </trkpt>
      <trkpt lat="43.71788" lon="6.72552">
        <ele>1296</ele>
        <time>2016-03-20T09:37:04Z</time>
      </trkpt>
      <trkpt lat="43.71789" lon="6.72562">
        <ele>1298</ele>
        <time>2016-03-20T09:37:09Z</time>
      </trkpt>
      <trkpt lat="43.71788" lon="6.72566">
        <ele>1299</ele>
        <time>2016-03-20T09:37:11Z</time>
      </trkpt>
      <trkpt lat="43.71787" lon="6.72575">
        <ele>1299</ele>
        <time>2016-03-20T09:37:17Z</time>
      </trkpt>
      <trkpt lat="43.71785" lon="6.72583">
        <ele>1300</ele>
        <time>2016-03-20T09:37:23Z</time>
      </trkpt>
      <trkpt lat="43.71783" lon="6.72591">
        <ele>1300</ele>
        <time>2016-03-20T09:37:28Z</time>
      </trkpt>
      <trkpt lat="43.71781" lon="6.726">
        <ele>1301</ele>
        <time>2016-03-20T09:37:33Z</time>
      </trkpt>
      <trkpt lat="43.71779" lon="6.72609">
        <ele>1303</ele>
        <time>2016-03-20T09:37:39Z</time>
      </trkpt>
      <trkpt lat="43.71778" lon="6.72618">
        <ele>1303</ele>
        <time>2016-03-20T09:37:45Z</time>
      </trkpt>
      <trkpt lat="43.71777" lon="6.72628">
        <ele>1303</ele>
        <time>2016-03-20T09:37:51Z</time>
      </trkpt>
      <trkpt lat="43.71778" lon="6.72636">
        <ele>1304</ele>
        <time>2016-03-20T09:37:57Z</time>
      </trkpt>
      <trkpt lat="43.71778" lon="6.72645">
        <ele>1307</ele>
        <time>2016-03-20T09:38:03Z</time>
      </trkpt>
      <trkpt lat="43.71777" lon="6.72654">
        <ele>1308</ele>
        <time>2016-03-20T09:38:08Z</time>
      </trkpt>
      <trkpt lat="43.71777" lon="6.72664">
        <ele>1308</ele>
        <time>2016-03-20T09:38:14Z</time>
      </trkpt>
      <trkpt lat="43.71774" lon="6.72672">
        <ele>1309</ele>
        <time>2016-03-20T09:38:19Z</time>
      </trkpt>
      <trkpt lat="43.71768" lon="6.72678">
        <ele>1311</ele>
        <time>2016-03-20T09:38:26Z</time>
      </trkpt>
      <trkpt lat="43.71761" lon="6.72681">
        <ele>1311</ele>
        <time>2016-03-20T09:38:32Z</time>
      </trkpt>
      <trkpt lat="43.71755" lon="6.72683">
        <ele>1312</ele>
        <time>2016-03-20T09:38:38Z</time>
      </trkpt>
      <trkpt lat="43.71749" lon="6.72691">
        <ele>1312</ele>
        <time>2016-03-20T09:38:44Z</time>
      </trkpt>
      <trkpt lat="43.71746" lon="6.727">
        <ele>1311</ele>
        <time>2016-03-20T09:38:49Z</time>
      </trkpt>
      <trkpt lat="43.71745" lon="6.72712">
        <ele>1313</ele>
        <time>2016-03-20T09:38:55Z</time>
      </trkpt>
      <trkpt lat="43.71745" lon="6.72723">
        <ele>1313</ele>
        <time>2016-03-20T09:39:00Z</time>
      </trkpt>
      <trkpt lat="43.71747" lon="6.72733">
        <ele>1314</ele>
        <time>2016-03-20T09:39:05Z</time>
      </trkpt>
      <trkpt lat="43.71747" lon="6.72742">
        <ele>1314</ele>
        <time>2016-03-20T09:39:10Z</time>
      </trkpt>
      <trkpt lat="43.71746" lon="6.7275">
        <ele>1314</ele>
        <time>2016-03-20T09:39:15Z</time>
      </trkpt>
      <trkpt lat="43.71745" lon="6.72763">
        <ele>1316</ele>
        <time>2016-03-20T09:39:21Z</time>
      </trkpt>
      <trkpt lat="43.71745" lon="6.72772">
        <ele>1317</ele>
        <time>2016-03-20T09:39:26Z</time>
      </trkpt>
      <trkpt lat="43.71746" lon="6.72785">
        <ele>1317</ele>
        <time>2016-03-20T09:39:32Z</time>
      </trkpt>
      <trkpt lat="43.71745" lon="6.72794">
        <ele>1317</ele>
        <time>2016-03-20T09:39:37Z</time>
      </trkpt>
      <trkpt lat="43.71744" lon="6.72804">
        <ele>1316</ele>
        <time>2016-03-20T09:39:42Z</time>
      </trkpt>
      <trkpt lat="43.71743" lon="6.72817">
        <ele>1316</ele>
        <time>2016-03-20T09:39:49Z</time>
      </trkpt>
      <trkpt lat="43.71741" lon="6.72826">
        <ele>1316</ele>
        <time>2016-03-20T09:39:54Z</time>
      </trkpt>
      <trkpt lat="43.71739" lon="6.72837">
        <ele>1317</ele>
        <time>2016-03-20T09:40:00Z</time>
      </trkpt>
      <trkpt lat="43.71737" lon="6.72849">
        <ele>1317</ele>
        <time>2016-03-20T09:40:06Z</time>
      </trkpt>
      <trkpt lat="43.71737" lon="6.72864">
        <ele>1318</ele>
        <time>2016-03-20T09:40:12Z</time>
      </trkpt>
      <trkpt lat="43.71737" lon="6.72878">
        <ele>1317</ele>
        <time>2016-03-20T09:40:18Z</time>
      </trkpt>
      <trkpt lat="43.71739" lon="6.72894">
        <ele>1317</ele>
        <time>2016-03-20T09:40:24Z</time>
      </trkpt>
      <trkpt lat="43.71741" lon="6.72904">
        <ele>1318</ele>
        <time>2016-03-20T09:40:29Z</time>
      </trkpt>
      <trkpt lat="43.71743" lon="6.72914">
        <ele>1318</ele>
        <time>2016-03-20T09:40:35Z</time>
      </trkpt>
      <trkpt lat="43.71742" lon="6.72924">
        <ele>1318</ele>
        <time>2016-03-20T09:40:41Z</time>
      </trkpt>
      <trkpt lat="43.71745" lon="6.72937">
        <ele>1319</ele>
        <time>2016-03-20T09:40:48Z</time>
      </trkpt>
      <trkpt lat="43.71744" lon="6.72949">
        <ele>1320</ele>
        <time>2016-03-20T09:40:54Z</time>
      </trkpt>
      <trkpt lat="43.71744" lon="6.72961">
        <ele>1322</ele>
        <time>2016-03-20T09:41:00Z</time>
      </trkpt>
      <trkpt lat="43.71745" lon="6.7297">
        <ele>1322</ele>
        <time>2016-03-20T09:41:05Z</time>
      </trkpt>
      <trkpt lat="43.71747" lon="6.72979">
        <ele>1324</ele>
        <time>2016-03-20T09:41:11Z</time>
      </trkpt>
      <trkpt lat="43.71748" lon="6.72989">
        <ele>1326</ele>
        <time>2016-03-20T09:41:17Z</time>
      </trkpt>
      <trkpt lat="43.7175" lon="6.73001">
        <ele>1325</ele>
        <time>2016-03-20T09:41:23Z</time>
      </trkpt>
      <trkpt lat="43.71752" lon="6.7301">
        <ele>1326</ele>
        <time>2016-03-20T09:41:28Z</time>
      </trkpt>
      <trkpt lat="43.71756" lon="6.73018">
        <ele>1326</ele>
        <time>2016-03-20T09:41:33Z</time>
      </trkpt>
      <trkpt lat="43.71762" lon="6.73026">
        <ele>1327</ele>
        <time>2016-03-20T09:41:40Z</time>
      </trkpt>
      <trkpt lat="43.71765" lon="6.73032">
        <ele>1328</ele>
        <time>2016-03-20T09:41:45Z</time>
      </trkpt>
      <trkpt lat="43.71769" lon="6.73041">
        <ele>1328</ele>
        <time>2016-03-20T09:41:50Z</time>
      </trkpt>
      <trkpt lat="43.71771" lon="6.7305">
        <ele>1328</ele>
        <time>2016-03-20T09:41:55Z</time>
      </trkpt>
      <trkpt lat="43.71771" lon="6.73059">
        <ele>1328</ele>
        <time>2016-03-20T09:42:00Z</time>
      </trkpt>
      <trkpt lat="43.71773" lon="6.73068">
        <ele>1330</ele>
        <time>2016-03-20T09:42:05Z</time>
      </trkpt>
      <trkpt lat="43.71775" lon="6.73076">
        <ele>1331</ele>
        <time>2016-03-20T09:42:10Z</time>
      </trkpt>
      <trkpt lat="43.71775" lon="6.7309">
        <ele>1330</ele>
        <time>2016-03-20T09:42:16Z</time>
      </trkpt>
      <trkpt lat="43.71778" lon="6.73102">
        <ele>1331</ele>
        <time>2016-03-20T09:42:22Z</time>
      </trkpt>
      <trkpt lat="43.71778" lon="6.73114">
        <ele>1331</ele>
        <time>2016-03-20T09:42:28Z</time>
      </trkpt>
      <trkpt lat="43.7178" lon="6.73127">
        <ele>1331</ele>
        <time>2016-03-20T09:42:35Z</time>
      </trkpt>
      <trkpt lat="43.71783" lon="6.73134">
        <ele>1332</ele>
        <time>2016-03-20T09:42:40Z</time>
      </trkpt>
      <trkpt lat="43.71787" lon="6.73143">
        <ele>1332</ele>
        <time>2016-03-20T09:42:45Z</time>
      </trkpt>
      <trkpt lat="43.71788" lon="6.73153">
        <ele>1335</ele>
        <time>2016-03-20T09:42:51Z</time>
      </trkpt>
      <trkpt lat="43.71792" lon="6.7316">
        <ele>1334</ele>
        <time>2016-03-20T09:42:57Z</time>
      </trkpt>
      <trkpt lat="43.71796" lon="6.73167">
        <ele>1334</ele>
        <time>2016-03-20T09:43:02Z</time>
      </trkpt>
      <trkpt lat="43.718" lon="6.73165">
        <ele>1326</ele>
        <time>2016-03-20T09:47:57Z</time>
      </trkpt>
      <trkpt lat="43.71801" lon="6.73169">
        <ele>1327</ele>
        <time>2016-03-20T09:51:06Z</time>
      </trkpt>
      <trkpt lat="43.71803" lon="6.73172">
        <ele>1328</ele>
        <time>2016-03-20T09:51:14Z</time>
      </trkpt>
      <trkpt lat="43.71801" lon="6.73168">
        <ele>1330</ele>
        <time>2016-03-20T09:51:28Z</time>
      </trkpt>
      <trkpt lat="43.71803" lon="6.73171">
        <ele>1330</ele>
        <time>2016-03-20T09:52:03Z</time>
      </trkpt>
      <trkpt lat="43.718" lon="6.73171">
        <ele>1334</ele>
        <time>2016-03-20T09:52:57Z</time>
      </trkpt>
      <trkpt lat="43.71797" lon="6.7317">
        <ele>1336</ele>
        <time>2016-03-20T09:53:36Z</time>
      </trkpt>
      <trkpt lat="43.71784" lon="6.73175">
        <ele>1334</ele>
        <time>2016-03-20T09:53:41Z</time>
      </trkpt>
      <trkpt lat="43.71767" lon="6.7317">
        <ele>1330</ele>
        <time>2016-03-20T09:53:46Z</time>
      </trkpt>
      <trkpt lat="43.71754" lon="6.73153">
        <ele>1327</ele>
        <time>2016-03-20T09:53:52Z</time>
      </trkpt>
      <trkpt lat="43.71752" lon="6.73149">
        <ele>1323</ele>
        <time>2016-03-20T09:56:11Z</time>
      </trkpt>
      <trkpt lat="43.71749" lon="6.73148">
        <ele>1321</ele>
        <time>2016-03-20T09:56:20Z</time>
      </trkpt>
      <trkpt lat="43.71755" lon="6.7315">
        <ele>1320</ele>
        <time>2016-03-20T09:56:30Z</time>
      </trkpt>
      <trkpt lat="43.71752" lon="6.7315">
        <ele>1324</ele>
        <time>2016-03-20T09:57:17Z</time>
      </trkpt>
      <trkpt lat="43.71749" lon="6.73148">
        <ele>1323</ele>
        <time>2016-03-20T09:57:27Z</time>
      </trkpt>
      <trkpt lat="43.71737" lon="6.73131">
        <ele>1321</ele>
        <time>2016-03-20T09:57:32Z</time>
      </trkpt>
      <trkpt lat="43.71729" lon="6.73109">
        <ele>1318</ele>
        <time>2016-03-20T09:57:37Z</time>
      </trkpt>
      <trkpt lat="43.7171" lon="6.73095">
        <ele>1318</ele>
        <time>2016-03-20T09:57:42Z</time>
      </trkpt>
      <trkpt lat="43.71691" lon="6.73086">
        <ele>1315</ele>
        <time>2016-03-20T09:57:47Z</time>
      </trkpt>
      <trkpt lat="43.7168" lon="6.73072">
        <ele>1311</ele>
        <time>2016-03-20T09:57:52Z</time>
      </trkpt>
      <trkpt lat="43.71657" lon="6.73056">
        <ele>1309</ele>
        <time>2016-03-20T09:57:57Z</time>
      </trkpt>
      <trkpt lat="43.71632" lon="6.73039">
        <ele>1303</ele>
        <time>2016-03-20T09:58:02Z</time>
      </trkpt>
      <trkpt lat="43.71609" lon="6.73016">
        <ele>1300</ele>
        <time>2016-03-20T09:58:07Z</time>
      </trkpt>
      <trkpt lat="43.71589" lon="6.72998">
        <ele>1295</ele>
        <time>2016-03-20T09:58:12Z</time>
      </trkpt>
      <trkpt lat="43.71571" lon="6.72988">
        <ele>1294</ele>
        <time>2016-03-20T09:58:17Z</time>
      </trkpt>
      <trkpt lat="43.71564" lon="6.72969">
        <ele>1290</ele>
        <time>2016-03-20T09:58:22Z</time>
      </trkpt>
      <trkpt lat="43.71558" lon="6.72956">
        <ele>1291</ele>
        <time>2016-03-20T09:59:09Z</time>
      </trkpt>
      <trkpt lat="43.71558" lon="6.72952">
        <ele>1290</ele>
        <time>2016-03-20T09:59:11Z</time>
      </trkpt>
      <trkpt lat="43.71557" lon="6.72934">
        <ele>1288</ele>
        <time>2016-03-20T09:59:17Z</time>
      </trkpt>
      <trkpt lat="43.71552" lon="6.72913">
        <ele>1280</ele>
        <time>2016-03-20T09:59:23Z</time>
      </trkpt>
      <trkpt lat="43.71541" lon="6.72887">
        <ele>1275</ele>
        <time>2016-03-20T09:59:28Z</time>
      </trkpt>
      <trkpt lat="43.71525" lon="6.72861">
        <ele>1271</ele>
        <time>2016-03-20T09:59:33Z</time>
      </trkpt>
      <trkpt lat="43.7151" lon="6.72839">
        <ele>1269</ele>
        <time>2016-03-20T09:59:38Z</time>
      </trkpt>
      <trkpt lat="43.71497" lon="6.72827">
        <ele>1263</ele>
        <time>2016-03-20T09:59:44Z</time>
      </trkpt>
      <trkpt lat="43.71479" lon="6.72818">
        <ele>1261</ele>
        <time>2016-03-20T09:59:49Z</time>
      </trkpt>
      <trkpt lat="43.71457" lon="6.72802">
        <ele>1257</ele>
        <time>2016-03-20T09:59:54Z</time>
      </trkpt>
      <trkpt lat="43.71443" lon="6.72783">
        <ele>1254</ele>
        <time>2016-03-20T09:59:59Z</time>
      </trkpt>
      <trkpt lat="43.7144" lon="6.7278">
        <ele>1254</ele>
        <time>2016-03-20T10:00:00Z</time>
      </trkpt>
      <trkpt lat="43.71433" lon="6.72765">
        <ele>1251</ele>
        <time>2016-03-20T10:00:06Z</time>
      </trkpt>
      <trkpt lat="43.71433" lon="6.72761">
        <ele>1247</ele>
        <time>2016-03-20T10:00:15Z</time>
      </trkpt>
      <trkpt lat="43.7143" lon="6.72761">
        <ele>1249</ele>
        <time>2016-03-20T10:00:28Z</time>
      </trkpt>
      <trkpt lat="43.71433" lon="6.72759">
        <ele>1249</ele>
        <time>2016-03-20T10:00:35Z</time>
      </trkpt>
      <trkpt lat="43.71435" lon="6.72759">
        <ele>1249</ele>
        <time>2016-03-20T10:00:51Z</time>
      </trkpt>
      <trkpt lat="43.71438" lon="6.72756">
        <ele>1250</ele>
        <time>2016-03-20T10:01:02Z</time>
      </trkpt>
      <trkpt lat="43.71438" lon="6.72753">
        <ele>1248</ele>
        <time>2016-03-20T10:03:26Z</time>
      </trkpt>
      <trkpt lat="43.71435" lon="6.72757">
        <ele>1252</ele>
        <time>2016-03-20T10:04:07Z</time>
      </trkpt>
      <trkpt lat="43.71431" lon="6.72755">
        <ele>1255</ele>
        <time>2016-03-20T10:04:59Z</time>
      </trkpt>
      <trkpt lat="43.71417" lon="6.72731">
        <ele>1251</ele>
        <time>2016-03-20T10:05:05Z</time>
      </trkpt>
      <trkpt lat="43.71406" lon="6.72704">
        <ele>1243</ele>
        <time>2016-03-20T10:05:10Z</time>
      </trkpt>
      <trkpt lat="43.71395" lon="6.72676">
        <ele>1237</ele>
        <time>2016-03-20T10:05:15Z</time>
      </trkpt>
      <trkpt lat="43.7138" lon="6.72651">
        <ele>1234</ele>
        <time>2016-03-20T10:05:20Z</time>
      </trkpt>
      <trkpt lat="43.71377" lon="6.72621">
        <ele>1230</ele>
        <time>2016-03-20T10:05:25Z</time>
      </trkpt>
      <trkpt lat="43.71374" lon="6.72617">
        <ele>1229</ele>
        <time>2016-03-20T10:05:26Z</time>
      </trkpt>
      <trkpt lat="43.71372" lon="6.72611">
        <ele>1227</ele>
        <time>2016-03-20T10:05:27Z</time>
      </trkpt>
      <trkpt lat="43.7137" lon="6.72603">
        <ele>1225</ele>
        <time>2016-03-20T10:05:28Z</time>
      </trkpt>
      <trkpt lat="43.71367" lon="6.72588">
        <ele>1221</ele>
        <time>2016-03-20T10:05:30Z</time>
      </trkpt>
      <trkpt lat="43.71364" lon="6.72572">
        <ele>1218</ele>
        <time>2016-03-20T10:05:32Z</time>
      </trkpt>
      <trkpt lat="43.7136" lon="6.72558">
        <ele>1217</ele>
        <time>2016-03-20T10:05:34Z</time>
      </trkpt>
      <trkpt lat="43.71349" lon="6.72535">
        <ele>1216</ele>
        <time>2016-03-20T10:05:37Z</time>
      </trkpt>
      <trkpt lat="43.71323" lon="6.72516">
        <ele>1212</ele>
        <time>2016-03-20T10:05:42Z</time>
      </trkpt>
      <trkpt lat="43.71296" lon="6.72504">
        <ele>1208</ele>
        <time>2016-03-20T10:05:47Z</time>
      </trkpt>
      <trkpt lat="43.71266" lon="6.72495">
        <ele>1205</ele>
        <time>2016-03-20T10:05:52Z</time>
      </trkpt>
      <trkpt lat="43.71261" lon="6.72489">
        <ele>1202</ele>
        <time>2016-03-20T10:05:53Z</time>
      </trkpt>
      <trkpt lat="43.71236" lon="6.72478">
        <ele>1200</ele>
        <time>2016-03-20T10:05:58Z</time>
      </trkpt>
      <trkpt lat="43.71219" lon="6.72475">
        <ele>1199</ele>
        <time>2016-03-20T10:06:01Z</time>
      </trkpt>
      <trkpt lat="43.71198" lon="6.7248">
        <ele>1198</ele>
        <time>2016-03-20T10:06:06Z</time>
      </trkpt>
      <trkpt lat="43.71194" lon="6.7248">
        <ele>1197</ele>
        <time>2016-03-20T10:06:07Z</time>
      </trkpt>
      <trkpt lat="43.71179" lon="6.72482">
        <ele>1194</ele>
        <time>2016-03-20T10:06:13Z</time>
      </trkpt>
      <trkpt lat="43.71175" lon="6.72479">
        <ele>1193</ele>
        <time>2016-03-20T10:06:34Z</time>
      </trkpt>
      <trkpt lat="43.71177" lon="6.7248">
        <ele>1188</ele>
        <time>2016-03-20T10:07:11Z</time>
      </trkpt>
      <trkpt lat="43.71174" lon="6.7248">
        <ele>1188</ele>
        <time>2016-03-20T10:07:24Z</time>
      </trkpt>
      <trkpt lat="43.71159" lon="6.72483">
        <ele>1188</ele>
        <time>2016-03-20T10:07:29Z</time>
      </trkpt>
      <trkpt lat="43.71133" lon="6.72486">
        <ele>1184</ele>
        <time>2016-03-20T10:07:34Z</time>
      </trkpt>
      <trkpt lat="43.71102" lon="6.72494">
        <ele>1179</ele>
        <time>2016-03-20T10:07:39Z</time>
      </trkpt>
      <trkpt lat="43.71068" lon="6.72504">
        <ele>1176</ele>
        <time>2016-03-20T10:07:44Z</time>
      </trkpt>
      <trkpt lat="43.71036" lon="6.72515">
        <ele>1176</ele>
        <time>2016-03-20T10:07:49Z</time>
      </trkpt>
      <trkpt lat="43.71012" lon="6.72527">
        <ele>1173</ele>
        <time>2016-03-20T10:07:54Z</time>
      </trkpt>
      <trkpt lat="43.70988" lon="6.72541">
        <ele>1172</ele>
        <time>2016-03-20T10:07:59Z</time>
      </trkpt>
      <trkpt lat="43.70966" lon="6.72555">
        <ele>1167</ele>
        <time>2016-03-20T10:08:04Z</time>
      </trkpt>
      <trkpt lat="43.70942" lon="6.7257">
        <ele>1163</ele>
        <time>2016-03-20T10:08:09Z</time>
      </trkpt>
      <trkpt lat="43.70918" lon="6.72588">
        <ele>1157</ele>
        <time>2016-03-20T10:08:14Z</time>
      </trkpt>
      <trkpt lat="43.70896" lon="6.726">
        <ele>1152</ele>
        <time>2016-03-20T10:08:19Z</time>
      </trkpt>
      <trkpt lat="43.70876" lon="6.72603">
        <ele>1148</ele>
        <time>2016-03-20T10:08:24Z</time>
      </trkpt>
      <trkpt lat="43.70857" lon="6.72611">
        <ele>1143</ele>
        <time>2016-03-20T10:08:29Z</time>
      </trkpt>
      <trkpt lat="43.70841" lon="6.72612">
        <ele>1137</ele>
        <time>2016-03-20T10:08:34Z</time>
      </trkpt>
      <trkpt lat="43.7082" lon="6.72612">
        <ele>1133</ele>
        <time>2016-03-20T10:08:40Z</time>
      </trkpt>
      <trkpt lat="43.70802" lon="6.72609">
        <ele>1129</ele>
        <time>2016-03-20T10:08:45Z</time>
      </trkpt>
      <trkpt lat="43.70782" lon="6.72609">
        <ele>1124</ele>
        <time>2016-03-20T10:08:50Z</time>
      </trkpt>
      <trkpt lat="43.70769" lon="6.726">
        <ele>1120</ele>
        <time>2016-03-20T10:08:55Z</time>
      </trkpt>
      <trkpt lat="43.70749" lon="6.72594">
        <ele>1116</ele>
        <time>2016-03-20T10:09:00Z</time>
      </trkpt>
      <trkpt lat="43.70732" lon="6.72599">
        <ele>1113</ele>
        <time>2016-03-20T10:09:05Z</time>
      </trkpt>
      <trkpt lat="43.70728" lon="6.72602">
        <ele>1111</ele>
        <time>2016-03-20T10:09:12Z</time>
      </trkpt>
      <trkpt lat="43.70711" lon="6.72608">
        <ele>1105</ele>
        <time>2016-03-20T10:09:17Z</time>
      </trkpt>
      <trkpt lat="43.70691" lon="6.7261">
        <ele>1099</ele>
        <time>2016-03-20T10:09:22Z</time>
      </trkpt>
      <trkpt lat="43.70674" lon="6.72608">
        <ele>1095</ele>
        <time>2016-03-20T10:09:28Z</time>
      </trkpt>
      <trkpt lat="43.70671" lon="6.72608">
        <ele>1094</ele>
        <time>2016-03-20T10:09:33Z</time>
      </trkpt>
      <trkpt lat="43.70664" lon="6.72608">
        <ele>1092</ele>
        <time>2016-03-20T10:09:38Z</time>
      </trkpt>
      <trkpt lat="43.70659" lon="6.72607">
        <ele>1092</ele>
        <time>2016-03-20T10:09:45Z</time>
      </trkpt>
      <trkpt lat="43.70653" lon="6.72607">
        <ele>1089</ele>
        <time>2016-03-20T10:09:51Z</time>
      </trkpt>
      <trkpt lat="43.70648" lon="6.72609">
        <ele>1087</ele>
        <time>2016-03-20T10:09:56Z</time>
      </trkpt>
      <trkpt lat="43.70641" lon="6.72612">
        <ele>1086</ele>
        <time>2016-03-20T10:10:02Z</time>
      </trkpt>
      <trkpt lat="43.70638" lon="6.72614">
        <ele>1085</ele>
        <time>2016-03-20T10:10:11Z</time>
      </trkpt>
      <trkpt lat="43.70631" lon="6.72615">
        <ele>1084</ele>
        <time>2016-03-20T10:10:19Z</time>
      </trkpt>
      <trkpt lat="43.70624" lon="6.72616">
        <ele>1081</ele>
        <time>2016-03-20T10:10:25Z</time>
      </trkpt>
      <trkpt lat="43.70612" lon="6.72612">
        <ele>1078</ele>
        <time>2016-03-20T10:10:31Z</time>
      </trkpt>
      <trkpt lat="43.70607" lon="6.72609">
        <ele>1077</ele>
        <time>2016-03-20T10:10:36Z</time>
      </trkpt>
      <trkpt lat="43.70604" lon="6.72608">
        <ele>1077</ele>
        <time>2016-03-20T10:10:50Z</time>
      </trkpt>
      <trkpt lat="43.70598" lon="6.72608">
        <ele>1075</ele>
        <time>2016-03-20T10:11:15Z</time>
      </trkpt>
      <trkpt lat="43.70591" lon="6.72605">
        <ele>1074</ele>
        <time>2016-03-20T10:11:21Z</time>
      </trkpt>
      <trkpt lat="43.70586" lon="6.72605">
        <ele>1071</ele>
        <time>2016-03-20T10:11:26Z</time>
      </trkpt>
      <trkpt lat="43.70572" lon="6.72609">
        <ele>1068</ele>
        <time>2016-03-20T10:11:31Z</time>
      </trkpt>
      <trkpt lat="43.70567" lon="6.72617">
        <ele>1067</ele>
        <time>2016-03-20T10:11:59Z</time>
      </trkpt>
      <trkpt lat="43.70563" lon="6.72619">
        <ele>1067</ele>
        <time>2016-03-20T10:12:27Z</time>
      </trkpt>
      <trkpt lat="43.70548" lon="6.72639">
        <ele>1066</ele>
        <time>2016-03-20T10:12:32Z</time>
      </trkpt>
      <trkpt lat="43.70537" lon="6.72656">
        <ele>1065</ele>
        <time>2016-03-20T10:12:37Z</time>
      </trkpt>
      <trkpt lat="43.70526" lon="6.72672">
        <ele>1063</ele>
        <time>2016-03-20T10:12:42Z</time>
      </trkpt>
      <trkpt lat="43.70518" lon="6.72691">
        <ele>1062</ele>
        <time>2016-03-20T10:12:47Z</time>
      </trkpt>
      <trkpt lat="43.70512" lon="6.7271">
        <ele>1061</ele>
        <time>2016-03-20T10:12:52Z</time>
      </trkpt>
      <trkpt lat="43.70506" lon="6.72731">
        <ele>1059</ele>
        <time>2016-03-20T10:12:57Z</time>
      </trkpt>
      <trkpt lat="43.70498" lon="6.72745">
        <ele>1057</ele>
        <time>2016-03-20T10:13:02Z</time>
      </trkpt>
      <trkpt lat="43.7049" lon="6.72764">
        <ele>1054</ele>
        <time>2016-03-20T10:13:07Z</time>
      </trkpt>
      <trkpt lat="43.7048" lon="6.72786">
        <ele>1053</ele>
        <time>2016-03-20T10:13:12Z</time>
      </trkpt>
      <trkpt lat="43.70471" lon="6.72809">
        <ele>1051</ele>
        <time>2016-03-20T10:13:17Z</time>
      </trkpt>
      <trkpt lat="43.70463" lon="6.72828">
        <ele>1050</ele>
        <time>2016-03-20T10:13:23Z</time>
      </trkpt>
      <trkpt lat="43.70456" lon="6.72843">
        <ele>1047</ele>
        <time>2016-03-20T10:13:28Z</time>
      </trkpt>
      <trkpt lat="43.7045" lon="6.72858">
        <ele>1044</ele>
        <time>2016-03-20T10:13:33Z</time>
      </trkpt>
      <trkpt lat="43.70445" lon="6.72873">
        <ele>1043</ele>
        <time>2016-03-20T10:13:38Z</time>
      </trkpt>
      <trkpt lat="43.70439" lon="6.72884">
        <ele>1039</ele>
        <time>2016-03-20T10:13:45Z</time>
      </trkpt>
      <trkpt lat="43.70432" lon="6.72894">
        <ele>1037</ele>
        <time>2016-03-20T10:13:51Z</time>
      </trkpt>
      <trkpt lat="43.70425" lon="6.72904">
        <ele>1032</ele>
        <time>2016-03-20T10:13:57Z</time>
      </trkpt>
      <trkpt lat="43.70419" lon="6.72921">
        <ele>1029</ele>
        <time>2016-03-20T10:14:03Z</time>
      </trkpt>
      <trkpt lat="43.70419" lon="6.72927">
        <ele>1030</ele>
        <time>2016-03-20T10:14:05Z</time>
      </trkpt>
      <trkpt lat="43.70424" lon="6.72941">
        <ele>1028</ele>
        <time>2016-03-20T10:14:11Z</time>
      </trkpt>
      <trkpt lat="43.70429" lon="6.72963">
        <ele>1027</ele>
        <time>2016-03-20T10:14:17Z</time>
      </trkpt>
      <trkpt lat="43.70431" lon="6.72979">
        <ele>1026</ele>
        <time>2016-03-20T10:14:22Z</time>
      </trkpt>
      <trkpt lat="43.70433" lon="6.72992">
        <ele>1028</ele>
        <time>2016-03-20T10:14:25Z</time>
      </trkpt>
      <trkpt lat="43.70435" lon="6.73003">
        <ele>1028</ele>
        <time>2016-03-20T10:14:27Z</time>
      </trkpt>
      <trkpt lat="43.70434" lon="6.73023">
        <ele>1025</ele>
        <time>2016-03-20T10:14:32Z</time>
      </trkpt>
      <trkpt lat="43.70431" lon="6.73025">
        <ele>1017</ele>
        <time>2016-03-20T10:14:56Z</time>
      </trkpt>
      <trkpt lat="43.70429" lon="6.73023">
        <ele>1017</ele>
        <time>2016-03-20T10:15:04Z</time>
      </trkpt>
      <trkpt lat="43.70427" lon="6.73019">
        <ele>1017</ele>
        <time>2016-03-20T10:15:09Z</time>
      </trkpt>
      <trkpt lat="43.70417" lon="6.73006">
        <ele>1017</ele>
        <time>2016-03-20T10:15:14Z</time>
      </trkpt>
      <trkpt lat="43.70415" lon="6.73015">
        <ele>1015</ele>
        <time>2016-03-20T10:15:16Z</time>
      </trkpt>
      <trkpt lat="43.70411" lon="6.73045">
        <ele>1008</ele>
        <time>2016-03-20T10:15:21Z</time>
      </trkpt>
      <trkpt lat="43.70411" lon="6.73075">
        <ele>1003</ele>
        <time>2016-03-20T10:15:26Z</time>
      </trkpt>
      <trkpt lat="43.7041" lon="6.73084">
        <ele>1003</ele>
        <time>2016-03-20T10:15:31Z</time>
      </trkpt>
      <trkpt lat="43.70411" lon="6.73087">
        <ele>1001</ele>
        <time>2016-03-20T10:15:37Z</time>
      </trkpt>
      <trkpt lat="43.70417" lon="6.73107">
        <ele>1001</ele>
        <time>2016-03-20T10:15:42Z</time>
      </trkpt>
      <trkpt lat="43.70425" lon="6.7313">
        <ele>997</ele>
        <time>2016-03-20T10:15:48Z</time>
      </trkpt>
      <trkpt lat="43.70432" lon="6.73152">
        <ele>997</ele>
        <time>2016-03-20T10:15:53Z</time>
      </trkpt>
      <trkpt lat="43.70439" lon="6.73169">
        <ele>999</ele>
        <time>2016-03-20T10:15:58Z</time>
      </trkpt>
      <trkpt lat="43.70443" lon="6.73177">
        <ele>998</ele>
        <time>2016-03-20T10:16:00Z</time>
      </trkpt>
      <trkpt lat="43.70438" lon="6.7319">
        <ele>994</ele>
        <time>2016-03-20T10:16:05Z</time>
      </trkpt>
      <trkpt lat="43.70431" lon="6.73203">
        <ele>995</ele>
        <time>2016-03-20T10:16:10Z</time>
      </trkpt>
      <trkpt lat="43.70424" lon="6.73218">
        <ele>994</ele>
        <time>2016-03-20T10:16:15Z</time>
      </trkpt>
      <trkpt lat="43.70419" lon="6.7323">
        <ele>994</ele>
        <time>2016-03-20T10:16:20Z</time>
      </trkpt>
      <trkpt lat="43.70416" lon="6.7323">
        <ele>992</ele>
        <time>2016-03-20T10:16:21Z</time>
      </trkpt>
      <trkpt lat="43.70402" lon="6.73248">
        <ele>986</ele>
        <time>2016-03-20T10:16:26Z</time>
      </trkpt>
      <trkpt lat="43.70395" lon="6.73259">
        <ele>984</ele>
        <time>2016-03-20T10:16:29Z</time>
      </trkpt>
      <trkpt lat="43.70386" lon="6.73279">
        <ele>983</ele>
        <time>2016-03-20T10:16:34Z</time>
      </trkpt>
      <trkpt lat="43.70387" lon="6.73297">
        <ele>982</ele>
        <time>2016-03-20T10:16:41Z</time>
      </trkpt>
      <trkpt lat="43.7039" lon="6.73298">
        <ele>979</ele>
        <time>2016-03-20T10:16:47Z</time>
      </trkpt>
      <trkpt lat="43.70391" lon="6.73302">
        <ele>978</ele>
        <time>2016-03-20T10:16:57Z</time>
      </trkpt>
      <trkpt lat="43.70387" lon="6.73326">
        <ele>974</ele>
        <time>2016-03-20T10:17:03Z</time>
      </trkpt>
      <trkpt lat="43.70381" lon="6.7335">
        <ele>969</ele>
        <time>2016-03-20T10:17:08Z</time>
      </trkpt>
      <trkpt lat="43.70378" lon="6.73352">
        <ele>968</ele>
        <time>2016-03-20T10:17:09Z</time>
      </trkpt>
      <trkpt lat="43.7037" lon="6.73353">
        <ele>967</ele>
        <time>2016-03-20T10:17:11Z</time>
      </trkpt>
      <trkpt lat="43.70354" lon="6.73348">
        <ele>967</ele>
        <time>2016-03-20T10:17:16Z</time>
      </trkpt>
      <trkpt lat="43.70352" lon="6.73346">
        <ele>968</ele>
        <time>2016-03-20T10:17:18Z</time>
      </trkpt>
      <trkpt lat="43.70346" lon="6.73347">
        <ele>962</ele>
        <time>2016-03-20T10:17:25Z</time>
      </trkpt>
      <trkpt lat="43.70341" lon="6.73351">
        <ele>963</ele>
        <time>2016-03-20T10:17:47Z</time>
      </trkpt>
      <trkpt lat="43.70342" lon="6.73356">
        <ele>963</ele>
        <time>2016-03-20T10:17:53Z</time>
      </trkpt>
      <trkpt lat="43.70338" lon="6.73363">
        <ele>966</ele>
        <time>2016-03-20T10:18:04Z</time>
      </trkpt>
      <trkpt lat="43.70337" lon="6.73367">
        <ele>969</ele>
        <time>2016-03-20T10:18:10Z</time>
      </trkpt>
      <trkpt lat="43.70339" lon="6.73371">
        <ele>968</ele>
        <time>2016-03-20T10:18:16Z</time>
      </trkpt>
      <trkpt lat="43.70342" lon="6.7337">
        <ele>970</ele>
        <time>2016-03-20T10:20:18Z</time>
      </trkpt>
      <trkpt lat="43.70345" lon="6.73371">
        <ele>972</ele>
        <time>2016-03-20T10:20:30Z</time>
      </trkpt>
      <trkpt lat="43.7035" lon="6.73382">
        <ele>970</ele>
        <time>2016-03-20T10:20:35Z</time>
      </trkpt>
      <trkpt lat="43.70361" lon="6.73403">
        <ele>968</ele>
        <time>2016-03-20T10:20:40Z</time>
      </trkpt>
      <trkpt lat="43.70377" lon="6.73413">
        <ele>967</ele>
        <time>2016-03-20T10:20:44Z</time>
      </trkpt>
      <trkpt lat="43.70391" lon="6.73423">
        <ele>964</ele>
        <time>2016-03-20T10:20:49Z</time>
      </trkpt>
      <trkpt lat="43.70406" lon="6.73426">
        <ele>964</ele>
        <time>2016-03-20T10:20:54Z</time>
      </trkpt>
      <trkpt lat="43.70419" lon="6.73433">
        <ele>962</ele>
        <time>2016-03-20T10:21:00Z</time>
      </trkpt>
      <trkpt lat="43.70427" lon="6.73436">
        <ele>962</ele>
        <time>2016-03-20T10:21:02Z</time>
      </trkpt>
      <trkpt lat="43.70447" lon="6.73436">
        <ele>958</ele>
        <time>2016-03-20T10:21:07Z</time>
      </trkpt>
      <trkpt lat="43.70464" lon="6.73444">
        <ele>959</ele>
        <time>2016-03-20T10:21:12Z</time>
      </trkpt>
      <trkpt lat="43.70473" lon="6.73447">
        <ele>956</ele>
        <time>2016-03-20T10:21:15Z</time>
      </trkpt>
      <trkpt lat="43.70489" lon="6.73452">
        <ele>954</ele>
        <time>2016-03-20T10:21:20Z</time>
      </trkpt>
      <trkpt lat="43.70509" lon="6.7346">
        <ele>952</ele>
        <time>2016-03-20T10:21:25Z</time>
      </trkpt>
      <trkpt lat="43.70517" lon="6.73466">
        <ele>952</ele>
        <time>2016-03-20T10:21:35Z</time>
      </trkpt>
      <trkpt lat="43.70531" lon="6.73475">
        <ele>950</ele>
        <time>2016-03-20T10:21:41Z</time>
      </trkpt>
      <trkpt lat="43.70543" lon="6.73486">
        <ele>950</ele>
        <time>2016-03-20T10:21:46Z</time>
      </trkpt>
      <trkpt lat="43.70554" lon="6.73492">
        <ele>951</ele>
        <time>2016-03-20T10:21:51Z</time>
      </trkpt>
      <trkpt lat="43.70571" lon="6.73496">
        <ele>946</ele>
        <time>2016-03-20T10:21:56Z</time>
      </trkpt>
      <trkpt lat="43.70589" lon="6.73502">
        <ele>943</ele>
        <time>2016-03-20T10:22:02Z</time>
      </trkpt>
      <trkpt lat="43.70604" lon="6.73514">
        <ele>943</ele>
        <time>2016-03-20T10:22:08Z</time>
      </trkpt>
      <trkpt lat="43.70608" lon="6.73521">
        <ele>944</ele>
        <time>2016-03-20T10:22:09Z</time>
      </trkpt>
      <trkpt lat="43.70618" lon="6.73529">
        <ele>937</ele>
        <time>2016-03-20T10:22:12Z</time>
      </trkpt>
      <trkpt lat="43.70624" lon="6.73539">
        <ele>937</ele>
        <time>2016-03-20T10:22:15Z</time>
      </trkpt>
      <trkpt lat="43.70638" lon="6.73558">
        <ele>937</ele>
        <time>2016-03-20T10:22:21Z</time>
      </trkpt>
      <trkpt lat="43.70639" lon="6.73561">
        <ele>937</ele>
        <time>2016-03-20T10:22:22Z</time>
      </trkpt>
      <trkpt lat="43.70645" lon="6.73575">
        <ele>936</ele>
        <time>2016-03-20T10:22:28Z</time>
      </trkpt>
      <trkpt lat="43.70648" lon="6.73583">
        <ele>935</ele>
        <time>2016-03-20T10:22:41Z</time>
      </trkpt>
      <trkpt lat="43.70653" lon="6.73602">
        <ele>938</ele>
        <time>2016-03-20T10:22:46Z</time>
      </trkpt>
      <trkpt lat="43.70656" lon="6.7361">
        <ele>938</ele>
        <time>2016-03-20T10:22:48Z</time>
      </trkpt>
      <trkpt lat="43.70665" lon="6.73633">
        <ele>937</ele>
        <time>2016-03-20T10:22:54Z</time>
      </trkpt>
      <trkpt lat="43.70667" lon="6.73638">
        <ele>939</ele>
        <time>2016-03-20T10:22:56Z</time>
      </trkpt>
      <trkpt lat="43.70675" lon="6.73654">
        <ele>938</ele>
        <time>2016-03-20T10:23:03Z</time>
      </trkpt>
      <trkpt lat="43.70679" lon="6.73669">
        <ele>939</ele>
        <time>2016-03-20T10:23:09Z</time>
      </trkpt>
      <trkpt lat="43.70685" lon="6.73684">
        <ele>939</ele>
        <time>2016-03-20T10:23:14Z</time>
      </trkpt>
      <trkpt lat="43.70689" lon="6.73695">
        <ele>937</ele>
        <time>2016-03-20T10:23:17Z</time>
      </trkpt>
      <trkpt lat="43.70696" lon="6.7371">
        <ele>938</ele>
        <time>2016-03-20T10:23:22Z</time>
      </trkpt>
      <trkpt lat="43.70704" lon="6.73723">
        <ele>941</ele>
        <time>2016-03-20T10:23:27Z</time>
      </trkpt>
      <trkpt lat="43.70709" lon="6.7374">
        <ele>943</ele>
        <time>2016-03-20T10:23:32Z</time>
      </trkpt>
      <trkpt lat="43.70714" lon="6.73757">
        <ele>942</ele>
        <time>2016-03-20T10:23:36Z</time>
      </trkpt>
      <trkpt lat="43.7072" lon="6.73776">
        <ele>940</ele>
        <time>2016-03-20T10:23:41Z</time>
      </trkpt>
      <trkpt lat="43.70721" lon="6.73781">
        <ele>940</ele>
        <time>2016-03-20T10:23:42Z</time>
      </trkpt>
      <trkpt lat="43.70729" lon="6.73795">
        <ele>939</ele>
        <time>2016-03-20T10:23:47Z</time>
      </trkpt>
      <trkpt lat="43.70739" lon="6.73812">
        <ele>937</ele>
        <time>2016-03-20T10:23:52Z</time>
      </trkpt>
      <trkpt lat="43.70751" lon="6.7383">
        <ele>934</ele>
        <time>2016-03-20T10:23:57Z</time>
      </trkpt>
      <trkpt lat="43.70765" lon="6.73843">
        <ele>931</ele>
        <time>2016-03-20T10:24:02Z</time>
      </trkpt>
      <trkpt lat="43.70784" lon="6.73852">
        <ele>928</ele>
        <time>2016-03-20T10:24:07Z</time>
      </trkpt>
      <trkpt lat="43.708" lon="6.73855">
        <ele>925</ele>
        <time>2016-03-20T10:24:12Z</time>
      </trkpt>
      <trkpt lat="43.70807" lon="6.73853">
        <ele>925</ele>
        <time>2016-03-20T10:24:14Z</time>
      </trkpt>
      <trkpt lat="43.70823" lon="6.73861">
        <ele>923</ele>
        <time>2016-03-20T10:24:19Z</time>
      </trkpt>
      <trkpt lat="43.70839" lon="6.73874">
        <ele>924</ele>
        <time>2016-03-20T10:24:24Z</time>
      </trkpt>
      <trkpt lat="43.70845" lon="6.7388">
        <ele>923</ele>
        <time>2016-03-20T10:24:27Z</time>
      </trkpt>
      <trkpt lat="43.70857" lon="6.73884">
        <ele>920</ele>
        <time>2016-03-20T10:24:32Z</time>
      </trkpt>
      <trkpt lat="43.70869" lon="6.73882">
        <ele>921</ele>
        <time>2016-03-20T10:24:38Z</time>
      </trkpt>
      <trkpt lat="43.70878" lon="6.73883">
        <ele>921</ele>
        <time>2016-03-20T10:24:42Z</time>
      </trkpt>
      <trkpt lat="43.70888" lon="6.73883">
        <ele>921</ele>
        <time>2016-03-20T10:24:46Z</time>
      </trkpt>
      <trkpt lat="43.70894" lon="6.73885">
        <ele>922</ele>
        <time>2016-03-20T10:24:50Z</time>
      </trkpt>
      <trkpt lat="43.70896" lon="6.73898">
        <ele>928</ele>
        <time>2016-03-20T10:24:56Z</time>
      </trkpt>
      <trkpt lat="43.70894" lon="6.73902">
        <ele>928</ele>
        <time>2016-03-20T10:24:58Z</time>
      </trkpt>
      <trkpt lat="43.70897" lon="6.73904">
        <ele>934</ele>
        <time>2016-03-20T10:25:11Z</time>
      </trkpt>
      <trkpt lat="43.70899" lon="6.73907">
        <ele>934</ele>
        <time>2016-03-20T10:25:20Z</time>
      </trkpt>
      <trkpt lat="43.70897" lon="6.73918">
        <ele>932</ele>
        <time>2016-03-20T10:25:25Z</time>
      </trkpt>
      <trkpt lat="43.70895" lon="6.73928">
        <ele>934</ele>
        <time>2016-03-20T10:25:30Z</time>
      </trkpt>
      <trkpt lat="43.70896" lon="6.73936">
        <ele>935</ele>
        <time>2016-03-20T10:25:35Z</time>
      </trkpt>
      <trkpt lat="43.70897" lon="6.73942">
        <ele>932</ele>
        <time>2016-03-20T10:25:47Z</time>
      </trkpt>
      <trkpt lat="43.70902" lon="6.73945">
        <ele>929</ele>
        <time>2016-03-20T10:25:57Z</time>
      </trkpt>
      <trkpt lat="43.7091" lon="6.7395">
        <ele>926</ele>
        <time>2016-03-20T10:26:03Z</time>
      </trkpt>
      <trkpt lat="43.70921" lon="6.73952">
        <ele>921</ele>
        <time>2016-03-20T10:26:09Z</time>
      </trkpt>
      <trkpt lat="43.7094" lon="6.73953">
        <ele>921</ele>
        <time>2016-03-20T10:26:14Z</time>
      </trkpt>
      <trkpt lat="43.70958" lon="6.73953">
        <ele>923</ele>
        <time>2016-03-20T10:26:19Z</time>
      </trkpt>
      <trkpt lat="43.70968" lon="6.73962">
        <ele>924</ele>
        <time>2016-03-20T10:26:24Z</time>
      </trkpt>
      <trkpt lat="43.70974" lon="6.73973">
        <ele>925</ele>
        <time>2016-03-20T10:26:30Z</time>
      </trkpt>
      <trkpt lat="43.70982" lon="6.73975">
        <ele>928</ele>
        <time>2016-03-20T10:26:35Z</time>
      </trkpt>
      <trkpt lat="43.70989" lon="6.73978">
        <ele>927</ele>
        <time>2016-03-20T10:26:46Z</time>
      </trkpt>
      <trkpt lat="43.70993" lon="6.73983">
        <ele>928</ele>
        <time>2016-03-20T10:26:52Z</time>
      </trkpt>
      <trkpt lat="43.70999" lon="6.73987">
        <ele>925</ele>
        <time>2016-03-20T10:27:00Z</time>
      </trkpt>
      <trkpt lat="43.71005" lon="6.73994">
        <ele>930</ele>
        <time>2016-03-20T10:27:13Z</time>
      </trkpt>
      <trkpt lat="43.71007" lon="6.74001">
        <ele>933</ele>
        <time>2016-03-20T10:27:18Z</time>
      </trkpt>
      <trkpt lat="43.71008" lon="6.74006">
        <ele>933</ele>
        <time>2016-03-20T10:27:23Z</time>
      </trkpt>
      <trkpt lat="43.71011" lon="6.74007">
        <ele>935</ele>
        <time>2016-03-20T10:27:30Z</time>
      </trkpt>
      <trkpt lat="43.71015" lon="6.74008">
        <ele>941</ele>
        <time>2016-03-20T10:27:42Z</time>
      </trkpt>
      <trkpt lat="43.71021" lon="6.7401">
        <ele>940</ele>
        <time>2016-03-20T10:27:50Z</time>
      </trkpt>
      <trkpt lat="43.71028" lon="6.74012">
        <ele>938</ele>
        <time>2016-03-20T10:27:57Z</time>
      </trkpt>
      <trkpt lat="43.71034" lon="6.74017">
        <ele>938</ele>
        <time>2016-03-20T10:28:04Z</time>
      </trkpt>
      <trkpt lat="43.71037" lon="6.74015">
        <ele>938</ele>
        <time>2016-03-20T10:28:13Z</time>
      </trkpt>
      <trkpt lat="43.71039" lon="6.74018">
        <ele>939</ele>
        <time>2016-03-20T10:28:20Z</time>
      </trkpt>
      <trkpt lat="43.71046" lon="6.74022">
        <ele>935</ele>
        <time>2016-03-20T10:28:31Z</time>
      </trkpt>
      <trkpt lat="43.71052" lon="6.74016">
        <ele>935</ele>
        <time>2016-03-20T10:28:40Z</time>
      </trkpt>
      <trkpt lat="43.71054" lon="6.74019">
        <ele>936</ele>
        <time>2016-03-20T10:28:42Z</time>
      </trkpt>
      <trkpt lat="43.71057" lon="6.7402">
        <ele>936</ele>
        <time>2016-03-20T10:28:44Z</time>
      </trkpt>
      <trkpt lat="43.71062" lon="6.74015">
        <ele>940</ele>
        <time>2016-03-20T10:28:53Z</time>
      </trkpt>
      <trkpt lat="43.71067" lon="6.74009">
        <ele>943</ele>
        <time>2016-03-20T10:29:00Z</time>
      </trkpt>
      <trkpt lat="43.71071" lon="6.74008">
        <ele>944</ele>
        <time>2016-03-20T10:29:02Z</time>
      </trkpt>
      <trkpt lat="43.71074" lon="6.74007">
        <ele>943</ele>
        <time>2016-03-20T10:29:05Z</time>
      </trkpt>
      <trkpt lat="43.71081" lon="6.74004">
        <ele>947</ele>
        <time>2016-03-20T10:29:12Z</time>
      </trkpt>
      <trkpt lat="43.71084" lon="6.73997">
        <ele>947</ele>
        <time>2016-03-20T10:29:19Z</time>
      </trkpt>
      <trkpt lat="43.71083" lon="6.73989">
        <ele>949</ele>
        <time>2016-03-20T10:29:32Z</time>
      </trkpt>
      <trkpt lat="43.71081" lon="6.73982">
        <ele>950</ele>
        <time>2016-03-20T10:29:41Z</time>
      </trkpt>
      <trkpt lat="43.71084" lon="6.73976">
        <ele>950</ele>
        <time>2016-03-20T10:29:48Z</time>
      </trkpt>
      <trkpt lat="43.71087" lon="6.73975">
        <ele>951</ele>
        <time>2016-03-20T10:30:04Z</time>
      </trkpt>
      <trkpt lat="43.7109" lon="6.73974">
        <ele>952</ele>
        <time>2016-03-20T10:30:35Z</time>
      </trkpt>
      <trkpt lat="43.71095" lon="6.73972">
        <ele>953</ele>
        <time>2016-03-20T10:30:41Z</time>
      </trkpt>
      <trkpt lat="43.71096" lon="6.73969">
        <ele>956</ele>
        <time>2016-03-20T10:33:59Z</time>
      </trkpt>
      <trkpt lat="43.71094" lon="6.73965">
        <ele>958</ele>
        <time>2016-03-20T10:34:10Z</time>
      </trkpt>
      <trkpt lat="43.71093" lon="6.73957">
        <ele>958</ele>
        <time>2016-03-20T10:34:20Z</time>
      </trkpt>
      <trkpt lat="43.71089" lon="6.73951">
        <ele>957</ele>
        <time>2016-03-20T10:34:25Z</time>
      </trkpt>
      <trkpt lat="43.71086" lon="6.73943">
        <ele>959</ele>
        <time>2016-03-20T10:34:31Z</time>
      </trkpt>
      <trkpt lat="43.71085" lon="6.73937">
        <ele>960</ele>
        <time>2016-03-20T10:34:35Z</time>
      </trkpt>
      <trkpt lat="43.71089" lon="6.73931">
        <ele>958</ele>
        <time>2016-03-20T10:34:42Z</time>
      </trkpt>
      <trkpt lat="43.71092" lon="6.73936">
        <ele>962</ele>
        <time>2016-03-20T10:34:49Z</time>
      </trkpt>
      <trkpt lat="43.71095" lon="6.73936">
        <ele>965</ele>
        <time>2016-03-20T10:34:54Z</time>
      </trkpt>
      <trkpt lat="43.71101" lon="6.73938">
        <ele>967</ele>
        <time>2016-03-20T10:35:01Z</time>
      </trkpt>
      <trkpt lat="43.71108" lon="6.73937">
        <ele>969</ele>
        <time>2016-03-20T10:35:08Z</time>
      </trkpt>
      <trkpt lat="43.71114" lon="6.73937">
        <ele>969</ele>
        <time>2016-03-20T10:35:14Z</time>
      </trkpt>
      <trkpt lat="43.71116" lon="6.73937">
        <ele>967</ele>
        <time>2016-03-20T10:35:21Z</time>
      </trkpt>
      <trkpt lat="43.71124" lon="6.73936">
        <ele>969</ele>
        <time>2016-03-20T10:35:26Z</time>
      </trkpt>
      <trkpt lat="43.7113" lon="6.73937">
        <ele>969</ele>
        <time>2016-03-20T10:35:31Z</time>
      </trkpt>
      <trkpt lat="43.71138" lon="6.73935">
        <ele>966</ele>
        <time>2016-03-20T10:35:37Z</time>
      </trkpt>
      <trkpt lat="43.71141" lon="6.73933">
        <ele>968</ele>
        <time>2016-03-20T10:35:39Z</time>
      </trkpt>
      <trkpt lat="43.7115" lon="6.7393">
        <ele>967</ele>
        <time>2016-03-20T10:35:45Z</time>
      </trkpt>
      <trkpt lat="43.71154" lon="6.73926">
        <ele>968</ele>
        <time>2016-03-20T10:35:47Z</time>
      </trkpt>
      <trkpt lat="43.71158" lon="6.73916">
        <ele>966</ele>
        <time>2016-03-20T10:35:52Z</time>
      </trkpt>
      <trkpt lat="43.7117" lon="6.7392">
        <ele>966</ele>
        <time>2016-03-20T10:35:56Z</time>
      </trkpt>
      <trkpt lat="43.7118" lon="6.73941">
        <ele>967</ele>
        <time>2016-03-20T10:36:01Z</time>
      </trkpt>
      <trkpt lat="43.71186" lon="6.73963">
        <ele>968</ele>
        <time>2016-03-20T10:36:06Z</time>
      </trkpt>
      <trkpt lat="43.71189" lon="6.73991">
        <ele>966</ele>
        <time>2016-03-20T10:36:11Z</time>
      </trkpt>
      <trkpt lat="43.71193" lon="6.74018">
        <ele>965</ele>
        <time>2016-03-20T10:36:17Z</time>
      </trkpt>
      <trkpt lat="43.71191" lon="6.74025">
        <ele>964</ele>
        <time>2016-03-20T10:36:22Z</time>
      </trkpt>
      <trkpt lat="43.71195" lon="6.74032">
        <ele>964</ele>
        <time>2016-03-20T10:36:26Z</time>
      </trkpt>
      <trkpt lat="43.71198" lon="6.74039">
        <ele>966</ele>
        <time>2016-03-20T10:36:32Z</time>
      </trkpt>
      <trkpt lat="43.71203" lon="6.74048">
        <ele>962</ele>
        <time>2016-03-20T10:36:37Z</time>
      </trkpt>
      <trkpt lat="43.71207" lon="6.74055">
        <ele>965</ele>
        <time>2016-03-20T10:36:42Z</time>
      </trkpt>
      <trkpt lat="43.71213" lon="6.74068">
        <ele>968</ele>
        <time>2016-03-20T10:36:50Z</time>
      </trkpt>
      <trkpt lat="43.71216" lon="6.74076">
        <ele>966</ele>
        <time>2016-03-20T10:36:55Z</time>
      </trkpt>
      <trkpt lat="43.7122" lon="6.74086">
        <ele>965</ele>
        <time>2016-03-20T10:37:01Z</time>
      </trkpt>
      <trkpt lat="43.71227" lon="6.74097">
        <ele>965</ele>
        <time>2016-03-20T10:37:07Z</time>
      </trkpt>
      <trkpt lat="43.71237" lon="6.74108">
        <ele>967</ele>
        <time>2016-03-20T10:37:14Z</time>
      </trkpt>
      <trkpt lat="43.71244" lon="6.74116">
        <ele>968</ele>
        <time>2016-03-20T10:37:20Z</time>
      </trkpt>
      <trkpt lat="43.71247" lon="6.74123">
        <ele>969</ele>
        <time>2016-03-20T10:37:25Z</time>
      </trkpt>
      <trkpt lat="43.71251" lon="6.7413">
        <ele>968</ele>
        <time>2016-03-20T10:37:30Z</time>
      </trkpt>
      <trkpt lat="43.71253" lon="6.74132">
        <ele>969</ele>
        <time>2016-03-20T10:37:32Z</time>
      </trkpt>
      <trkpt lat="43.71256" lon="6.74141">
        <ele>973</ele>
        <time>2016-03-20T10:37:38Z</time>
      </trkpt>
      <trkpt lat="43.71258" lon="6.74149">
        <ele>975</ele>
        <time>2016-03-20T10:37:44Z</time>
      </trkpt>
      <trkpt lat="43.7126" lon="6.74153">
        <ele>977</ele>
        <time>2016-03-20T10:37:48Z</time>
      </trkpt>
      <trkpt lat="43.71264" lon="6.74158">
        <ele>979</ele>
        <time>2016-03-20T10:37:54Z</time>
      </trkpt>
      <trkpt lat="43.7127" lon="6.74162">
        <ele>980</ele>
        <time>2016-03-20T10:38:04Z</time>
      </trkpt>
      <trkpt lat="43.71275" lon="6.74166">
        <ele>981</ele>
        <time>2016-03-20T10:38:11Z</time>
      </trkpt>
      <trkpt lat="43.71281" lon="6.74169">
        <ele>981</ele>
        <time>2016-03-20T10:38:22Z</time>
      </trkpt>
      <trkpt lat="43.71286" lon="6.74173">
        <ele>982</ele>
        <time>2016-03-20T10:38:29Z</time>
      </trkpt>
      <trkpt lat="43.71292" lon="6.74173">
        <ele>985</ele>
        <time>2016-03-20T10:38:35Z</time>
      </trkpt>
      <trkpt lat="43.71297" lon="6.74178">
        <ele>986</ele>
        <time>2016-03-20T10:38:42Z</time>
      </trkpt>
      <trkpt lat="43.713" lon="6.74185">
        <ele>989</ele>
        <time>2016-03-20T10:38:49Z</time>
      </trkpt>
      <trkpt lat="43.71296" lon="6.74191">
        <ele>988</ele>
        <time>2016-03-20T10:38:56Z</time>
      </trkpt>
      <trkpt lat="43.71298" lon="6.74193">
        <ele>985</ele>
        <time>2016-03-20T10:39:27Z</time>
      </trkpt>
      <trkpt lat="43.71296" lon="6.74196">
        <ele>985</ele>
        <time>2016-03-20T10:40:55Z</time>
      </trkpt>
      <trkpt lat="43.71288" lon="6.74203">
        <ele>984</ele>
        <time>2016-03-20T10:41:01Z</time>
      </trkpt>
      <trkpt lat="43.71282" lon="6.74207">
        <ele>980</ele>
        <time>2016-03-20T10:41:06Z</time>
      </trkpt>
      <trkpt lat="43.7127" lon="6.74211">
        <ele>979</ele>
        <time>2016-03-20T10:41:11Z</time>
      </trkpt>
      <trkpt lat="43.71256" lon="6.74216">
        <ele>976</ele>
        <time>2016-03-20T10:41:17Z</time>
      </trkpt>
      <trkpt lat="43.71252" lon="6.74235">
        <ele>977</ele>
        <time>2016-03-20T10:41:23Z</time>
      </trkpt>
      <trkpt lat="43.71251" lon="6.74247">
        <ele>978</ele>
        <time>2016-03-20T10:41:28Z</time>
      </trkpt>
      <trkpt lat="43.71249" lon="6.74251">
        <ele>978</ele>
        <time>2016-03-20T10:41:30Z</time>
      </trkpt>
      <trkpt lat="43.71241" lon="6.74268">
        <ele>977</ele>
        <time>2016-03-20T10:41:35Z</time>
      </trkpt>
      <trkpt lat="43.71239" lon="6.74271">
        <ele>978</ele>
        <time>2016-03-20T10:41:37Z</time>
      </trkpt>
      <trkpt lat="43.71236" lon="6.74287">
        <ele>979</ele>
        <time>2016-03-20T10:41:43Z</time>
      </trkpt>
      <trkpt lat="43.71236" lon="6.74302">
        <ele>980</ele>
        <time>2016-03-20T10:41:48Z</time>
      </trkpt>
      <trkpt lat="43.71241" lon="6.74319">
        <ele>979</ele>
        <time>2016-03-20T10:41:53Z</time>
      </trkpt>
      <trkpt lat="43.71249" lon="6.74334">
        <ele>981</ele>
        <time>2016-03-20T10:41:58Z</time>
      </trkpt>
      <trkpt lat="43.71256" lon="6.7435">
        <ele>978</ele>
        <time>2016-03-20T10:42:04Z</time>
      </trkpt>
      <trkpt lat="43.71258" lon="6.74367">
        <ele>979</ele>
        <time>2016-03-20T10:42:10Z</time>
      </trkpt>
      <trkpt lat="43.71258" lon="6.74371">
        <ele>979</ele>
        <time>2016-03-20T10:42:11Z</time>
      </trkpt>
      <trkpt lat="43.71261" lon="6.74394">
        <ele>981</ele>
        <time>2016-03-20T10:42:17Z</time>
      </trkpt>
      <trkpt lat="43.71267" lon="6.74408">
        <ele>982</ele>
        <time>2016-03-20T10:42:23Z</time>
      </trkpt>
      <trkpt lat="43.71268" lon="6.74411">
        <ele>984</ele>
        <time>2016-03-20T10:42:30Z</time>
      </trkpt>
      <trkpt lat="43.71273" lon="6.74417">
        <ele>984</ele>
        <time>2016-03-20T10:42:37Z</time>
      </trkpt>
      <trkpt lat="43.71278" lon="6.74424">
        <ele>986</ele>
        <time>2016-03-20T10:42:44Z</time>
      </trkpt>
      <trkpt lat="43.71281" lon="6.74432">
        <ele>986</ele>
        <time>2016-03-20T10:42:50Z</time>
      </trkpt>
      <trkpt lat="43.71281" lon="6.7444">
        <ele>987</ele>
        <time>2016-03-20T10:42:57Z</time>
      </trkpt>
      <trkpt lat="43.71282" lon="6.74448">
        <ele>987</ele>
        <time>2016-03-20T10:43:04Z</time>
      </trkpt>
      <trkpt lat="43.71284" lon="6.74455">
        <ele>987</ele>
        <time>2016-03-20T10:43:10Z</time>
      </trkpt>
      <trkpt lat="43.71285" lon="6.74464">
        <ele>988</ele>
        <time>2016-03-20T10:43:16Z</time>
      </trkpt>
      <trkpt lat="43.71287" lon="6.74472">
        <ele>990</ele>
        <time>2016-03-20T10:43:28Z</time>
      </trkpt>
      <trkpt lat="43.71289" lon="6.74475">
        <ele>990</ele>
        <time>2016-03-20T10:43:34Z</time>
      </trkpt>
      <trkpt lat="43.71292" lon="6.74483">
        <ele>991</ele>
        <time>2016-03-20T10:43:43Z</time>
      </trkpt>
      <trkpt lat="43.71297" lon="6.74488">
        <ele>991</ele>
        <time>2016-03-20T10:43:49Z</time>
      </trkpt>
      <trkpt lat="43.713" lon="6.7449">
        <ele>991</ele>
        <time>2016-03-20T10:43:56Z</time>
      </trkpt>
      <trkpt lat="43.71301" lon="6.74493">
        <ele>991</ele>
        <time>2016-03-20T10:44:07Z</time>
      </trkpt>
      <trkpt lat="43.71303" lon="6.74496">
        <ele>989</ele>
        <time>2016-03-20T10:44:17Z</time>
      </trkpt>
      <trkpt lat="43.71305" lon="6.74498">
        <ele>990</ele>
        <time>2016-03-20T10:44:22Z</time>
      </trkpt>
      <trkpt lat="43.71308" lon="6.74501">
        <ele>991</ele>
        <time>2016-03-20T10:44:27Z</time>
      </trkpt>
      <trkpt lat="43.71313" lon="6.74503">
        <ele>990</ele>
        <time>2016-03-20T10:44:33Z</time>
      </trkpt>
      <trkpt lat="43.71317" lon="6.74505">
        <ele>992</ele>
        <time>2016-03-20T10:44:38Z</time>
      </trkpt>
      <trkpt lat="43.71319" lon="6.74508">
        <ele>993</ele>
        <time>2016-03-20T10:44:43Z</time>
      </trkpt>
      <trkpt lat="43.71325" lon="6.74512">
        <ele>994</ele>
        <time>2016-03-20T10:44:49Z</time>
      </trkpt>
      <trkpt lat="43.7133" lon="6.74516">
        <ele>995</ele>
        <time>2016-03-20T10:44:55Z</time>
      </trkpt>
      <trkpt lat="43.71335" lon="6.74522">
        <ele>998</ele>
        <time>2016-03-20T10:45:01Z</time>
      </trkpt>
      <trkpt lat="43.71339" lon="6.74527">
        <ele>1000</ele>
        <time>2016-03-20T10:45:08Z</time>
      </trkpt>
      <trkpt lat="43.71343" lon="6.74528">
        <ele>1000</ele>
        <time>2016-03-20T10:45:13Z</time>
      </trkpt>
      <trkpt lat="43.71347" lon="6.74534">
        <ele>1000</ele>
        <time>2016-03-20T10:45:19Z</time>
      </trkpt>
      <trkpt lat="43.71348" lon="6.74537">
        <ele>1000</ele>
        <time>2016-03-20T10:45:29Z</time>
      </trkpt>
      <trkpt lat="43.71349" lon="6.74541">
        <ele>999</ele>
        <time>2016-03-20T10:45:51Z</time>
      </trkpt>
      <trkpt lat="43.7135" lon="6.74549">
        <ele>1001</ele>
        <time>2016-03-20T10:45:57Z</time>
      </trkpt>
      <trkpt lat="43.7135" lon="6.74553">
        <ele>1001</ele>
        <time>2016-03-20T10:46:08Z</time>
      </trkpt>
      <trkpt lat="43.71349" lon="6.74557">
        <ele>1000</ele>
        <time>2016-03-20T10:46:14Z</time>
      </trkpt>
      <trkpt lat="43.71351" lon="6.74568">
        <ele>1000</ele>
        <time>2016-03-20T10:46:20Z</time>
      </trkpt>
      <trkpt lat="43.71359" lon="6.74574">
        <ele>998</ele>
        <time>2016-03-20T10:46:27Z</time>
      </trkpt>
      <trkpt lat="43.71366" lon="6.7458">
        <ele>998</ele>
        <time>2016-03-20T10:46:33Z</time>
      </trkpt>
      <trkpt lat="43.71374" lon="6.74586">
        <ele>998</ele>
        <time>2016-03-20T10:46:39Z</time>
      </trkpt>
      <trkpt lat="43.71381" lon="6.74592">
        <ele>998</ele>
        <time>2016-03-20T10:46:45Z</time>
      </trkpt>
      <trkpt lat="43.71388" lon="6.746">
        <ele>999</ele>
        <time>2016-03-20T10:46:51Z</time>
      </trkpt>
      <trkpt lat="43.71393" lon="6.74607">
        <ele>1001</ele>
        <time>2016-03-20T10:46:56Z</time>
      </trkpt>
      <trkpt lat="43.71398" lon="6.74613">
        <ele>1000</ele>
        <time>2016-03-20T10:47:01Z</time>
      </trkpt>
      <trkpt lat="43.71404" lon="6.74617">
        <ele>1001</ele>
        <time>2016-03-20T10:47:06Z</time>
      </trkpt>
      <trkpt lat="43.7141" lon="6.74619">
        <ele>1003</ele>
        <time>2016-03-20T10:47:11Z</time>
      </trkpt>
      <trkpt lat="43.71416" lon="6.74622">
        <ele>1005</ele>
        <time>2016-03-20T10:47:18Z</time>
      </trkpt>
      <trkpt lat="43.71422" lon="6.74625">
        <ele>1005</ele>
        <time>2016-03-20T10:47:25Z</time>
      </trkpt>
      <trkpt lat="43.71427" lon="6.74629">
        <ele>1006</ele>
        <time>2016-03-20T10:47:33Z</time>
      </trkpt>
      <trkpt lat="43.71432" lon="6.74633">
        <ele>1006</ele>
        <time>2016-03-20T10:47:38Z</time>
      </trkpt>
      <trkpt lat="43.7144" lon="6.74633">
        <ele>1007</ele>
        <time>2016-03-20T10:47:44Z</time>
      </trkpt>
      <trkpt lat="43.71445" lon="6.74636">
        <ele>1009</ele>
        <time>2016-03-20T10:47:50Z</time>
      </trkpt>
      <trkpt lat="43.71451" lon="6.74641">
        <ele>1010</ele>
        <time>2016-03-20T10:47:56Z</time>
      </trkpt>
      <trkpt lat="43.71456" lon="6.74646">
        <ele>1011</ele>
        <time>2016-03-20T10:48:03Z</time>
      </trkpt>
      <trkpt lat="43.71461" lon="6.74651">
        <ele>1011</ele>
        <time>2016-03-20T10:48:10Z</time>
      </trkpt>
      <trkpt lat="43.71466" lon="6.74656">
        <ele>1013</ele>
        <time>2016-03-20T10:48:17Z</time>
      </trkpt>
      <trkpt lat="43.71471" lon="6.74663">
        <ele>1014</ele>
        <time>2016-03-20T10:48:24Z</time>
      </trkpt>
      <trkpt lat="43.71475" lon="6.74669">
        <ele>1016</ele>
        <time>2016-03-20T10:48:30Z</time>
      </trkpt>
      <trkpt lat="43.7148" lon="6.74674">
        <ele>1018</ele>
        <time>2016-03-20T10:48:36Z</time>
      </trkpt>
      <trkpt lat="43.71486" lon="6.74677">
        <ele>1017</ele>
        <time>2016-03-20T10:48:42Z</time>
      </trkpt>
      <trkpt lat="43.71492" lon="6.74679">
        <ele>1018</ele>
        <time>2016-03-20T10:48:48Z</time>
      </trkpt>
      <trkpt lat="43.71498" lon="6.74682">
        <ele>1019</ele>
        <time>2016-03-20T10:48:54Z</time>
      </trkpt>
      <trkpt lat="43.71505" lon="6.74686">
        <ele>1019</ele>
        <time>2016-03-20T10:49:00Z</time>
      </trkpt>
      <trkpt lat="43.71511" lon="6.74691">
        <ele>1020</ele>
        <time>2016-03-20T10:49:06Z</time>
      </trkpt>
      <trkpt lat="43.71517" lon="6.74694">
        <ele>1020</ele>
        <time>2016-03-20T10:49:11Z</time>
      </trkpt>
      <trkpt lat="43.71523" lon="6.74696">
        <ele>1021</ele>
        <time>2016-03-20T10:49:16Z</time>
      </trkpt>
      <trkpt lat="43.7153" lon="6.74697">
        <ele>1020</ele>
        <time>2016-03-20T10:49:22Z</time>
      </trkpt>
      <trkpt lat="43.71537" lon="6.74699">
        <ele>1021</ele>
        <time>2016-03-20T10:49:27Z</time>
      </trkpt>
      <trkpt lat="43.71545" lon="6.74702">
        <ele>1021</ele>
        <time>2016-03-20T10:49:33Z</time>
      </trkpt>
      <trkpt lat="43.71555" lon="6.74705">
        <ele>1022</ele>
        <time>2016-03-20T10:49:40Z</time>
      </trkpt>
      <trkpt lat="43.71563" lon="6.74709">
        <ele>1023</ele>
        <time>2016-03-20T10:49:45Z</time>
      </trkpt>
      <trkpt lat="43.71568" lon="6.74714">
        <ele>1024</ele>
        <time>2016-03-20T10:49:50Z</time>
      </trkpt>
      <trkpt lat="43.71573" lon="6.74721">
        <ele>1028</ele>
        <time>2016-03-20T10:49:55Z</time>
      </trkpt>
      <trkpt lat="43.71581" lon="6.74727">
        <ele>1031</ele>
        <time>2016-03-20T10:50:01Z</time>
      </trkpt>
      <trkpt lat="43.71587" lon="6.74736">
        <ele>1032</ele>
        <time>2016-03-20T10:50:07Z</time>
      </trkpt>
      <trkpt lat="43.71593" lon="6.74742">
        <ele>1034</ele>
        <time>2016-03-20T10:50:13Z</time>
      </trkpt>
      <trkpt lat="43.71601" lon="6.74744">
        <ele>1034</ele>
        <time>2016-03-20T10:50:18Z</time>
      </trkpt>
      <trkpt lat="43.71606" lon="6.74746">
        <ele>1039</ele>
        <time>2016-03-20T10:50:23Z</time>
      </trkpt>
      <trkpt lat="43.71618" lon="6.74748">
        <ele>1036</ele>
        <time>2016-03-20T10:50:29Z</time>
      </trkpt>
      <trkpt lat="43.71628" lon="6.7475">
        <ele>1038</ele>
        <time>2016-03-20T10:50:35Z</time>
      </trkpt>
      <trkpt lat="43.71631" lon="6.74751">
        <ele>1037</ele>
        <time>2016-03-20T10:50:37Z</time>
      </trkpt>
      <trkpt lat="43.71643" lon="6.74755">
        <ele>1035</ele>
        <time>2016-03-20T10:50:43Z</time>
      </trkpt>
      <trkpt lat="43.71654" lon="6.74758">
        <ele>1037</ele>
        <time>2016-03-20T10:50:49Z</time>
      </trkpt>
      <trkpt lat="43.71659" lon="6.74757">
        <ele>1034</ele>
        <time>2016-03-20T10:53:09Z</time>
      </trkpt>
      <trkpt lat="43.7166" lon="6.74761">
        <ele>1030</ele>
        <time>2016-03-20T10:53:27Z</time>
      </trkpt>
      <trkpt lat="43.71657" lon="6.74768">
        <ele>1029</ele>
        <time>2016-03-20T10:53:29Z</time>
      </trkpt>
      <trkpt lat="43.71649" lon="6.74783">
        <ele>1029</ele>
        <time>2016-03-20T10:53:33Z</time>
      </trkpt>
      <trkpt lat="43.71634" lon="6.74803">
        <ele>1027</ele>
        <time>2016-03-20T10:53:38Z</time>
      </trkpt>
      <trkpt lat="43.71621" lon="6.74825">
        <ele>1027</ele>
        <time>2016-03-20T10:53:43Z</time>
      </trkpt>
      <trkpt lat="43.71608" lon="6.74849">
        <ele>1026</ele>
        <time>2016-03-20T10:53:48Z</time>
      </trkpt>
      <trkpt lat="43.71596" lon="6.74867">
        <ele>1025</ele>
        <time>2016-03-20T10:53:54Z</time>
      </trkpt>
      <trkpt lat="43.71589" lon="6.74876">
        <ele>1026</ele>
        <time>2016-03-20T10:53:57Z</time>
      </trkpt>
      <trkpt lat="43.71577" lon="6.74891">
        <ele>1025</ele>
        <time>2016-03-20T10:54:02Z</time>
      </trkpt>
      <trkpt lat="43.71567" lon="6.74906">
        <ele>1024</ele>
        <time>2016-03-20T10:54:07Z</time>
      </trkpt>
      <trkpt lat="43.71556" lon="6.74915">
        <ele>1026</ele>
        <time>2016-03-20T10:54:13Z</time>
      </trkpt>
      <trkpt lat="43.71545" lon="6.74919">
        <ele>1023</ele>
        <time>2016-03-20T10:54:19Z</time>
      </trkpt>
      <trkpt lat="43.71532" lon="6.74923">
        <ele>1023</ele>
        <time>2016-03-20T10:54:25Z</time>
      </trkpt>
      <trkpt lat="43.71521" lon="6.74932">
        <ele>1020</ele>
        <time>2016-03-20T10:54:31Z</time>
      </trkpt>
      <trkpt lat="43.71512" lon="6.74943">
        <ele>1022</ele>
        <time>2016-03-20T10:54:36Z</time>
      </trkpt>
      <trkpt lat="43.71504" lon="6.74954">
        <ele>1021</ele>
        <time>2016-03-20T10:54:41Z</time>
      </trkpt>
      <trkpt lat="43.71494" lon="6.74962">
        <ele>1022</ele>
        <time>2016-03-20T10:54:47Z</time>
      </trkpt>
      <trkpt lat="43.71481" lon="6.7496">
        <ele>1020</ele>
        <time>2016-03-20T10:54:52Z</time>
      </trkpt>
      <trkpt lat="43.71471" lon="6.74959">
        <ele>1020</ele>
        <time>2016-03-20T10:54:57Z</time>
      </trkpt>
      <trkpt lat="43.71463" lon="6.74969">
        <ele>1021</ele>
        <time>2016-03-20T10:55:03Z</time>
      </trkpt>
      <trkpt lat="43.71453" lon="6.74977">
        <ele>1021</ele>
        <time>2016-03-20T10:55:09Z</time>
      </trkpt>
      <trkpt lat="43.71445" lon="6.74985">
        <ele>1022</ele>
        <time>2016-03-20T10:55:15Z</time>
      </trkpt>
      <trkpt lat="43.7144" lon="6.74993">
        <ele>1024</ele>
        <time>2016-03-20T10:55:20Z</time>
      </trkpt>
      <trkpt lat="43.71438" lon="6.74997">
        <ele>1025</ele>
        <time>2016-03-20T10:55:22Z</time>
      </trkpt>
      <trkpt lat="43.71432" lon="6.75008">
        <ele>1026</ele>
        <time>2016-03-20T10:55:28Z</time>
      </trkpt>
      <trkpt lat="43.71427" lon="6.75014">
        <ele>1026</ele>
        <time>2016-03-20T10:55:33Z</time>
      </trkpt>
      <trkpt lat="43.7142" lon="6.75023">
        <ele>1025</ele>
        <time>2016-03-20T10:55:39Z</time>
      </trkpt>
      <trkpt lat="43.71415" lon="6.75031">
        <ele>1028</ele>
        <time>2016-03-20T10:55:45Z</time>
      </trkpt>
      <trkpt lat="43.71411" lon="6.75041">
        <ele>1029</ele>
        <time>2016-03-20T10:55:51Z</time>
      </trkpt>
      <trkpt lat="43.7141" lon="6.75047">
        <ele>1030</ele>
        <time>2016-03-20T10:55:54Z</time>
      </trkpt>
      <trkpt lat="43.7141" lon="6.75055">
        <ele>1033</ele>
        <time>2016-03-20T10:55:59Z</time>
      </trkpt>
      <trkpt lat="43.71406" lon="6.75068">
        <ele>1034</ele>
        <time>2016-03-20T10:56:06Z</time>
      </trkpt>
      <trkpt lat="43.71402" lon="6.75078">
        <ele>1033</ele>
        <time>2016-03-20T10:56:12Z</time>
      </trkpt>
      <trkpt lat="43.71398" lon="6.75083">
        <ele>1031</ele>
        <time>2016-03-20T10:56:16Z</time>
      </trkpt>
      <trkpt lat="43.71389" lon="6.7509">
        <ele>1032</ele>
        <time>2016-03-20T10:56:22Z</time>
      </trkpt>
      <trkpt lat="43.71383" lon="6.751">
        <ele>1033</ele>
        <time>2016-03-20T10:56:28Z</time>
      </trkpt>
      <trkpt lat="43.71379" lon="6.75107">
        <ele>1033</ele>
        <time>2016-03-20T10:56:33Z</time>
      </trkpt>
      <trkpt lat="43.71373" lon="6.75113">
        <ele>1032</ele>
        <time>2016-03-20T10:56:38Z</time>
      </trkpt>
      <trkpt lat="43.71366" lon="6.75122">
        <ele>1029</ele>
        <time>2016-03-20T10:56:45Z</time>
      </trkpt>
      <trkpt lat="43.7136" lon="6.75129">
        <ele>1027</ele>
        <time>2016-03-20T10:56:51Z</time>
      </trkpt>
      <trkpt lat="43.71353" lon="6.75134">
        <ele>1030</ele>
        <time>2016-03-20T10:56:57Z</time>
      </trkpt>
      <trkpt lat="43.7135" lon="6.75136">
        <ele>1032</ele>
        <time>2016-03-20T10:57:00Z</time>
      </trkpt>
      <trkpt lat="43.71345" lon="6.75141">
        <ele>1032</ele>
        <time>2016-03-20T10:57:06Z</time>
      </trkpt>
      <trkpt lat="43.71341" lon="6.75148">
        <ele>1034</ele>
        <time>2016-03-20T10:57:11Z</time>
      </trkpt>
      <trkpt lat="43.71336" lon="6.75153">
        <ele>1036</ele>
        <time>2016-03-20T10:57:16Z</time>
      </trkpt>
      <trkpt lat="43.7133" lon="6.75159">
        <ele>1045</ele>
        <time>2016-03-20T10:57:22Z</time>
      </trkpt>
      <trkpt lat="43.71326" lon="6.75166">
        <ele>1040</ele>
        <time>2016-03-20T10:57:27Z</time>
      </trkpt>
      <trkpt lat="43.7132" lon="6.75172">
        <ele>1041</ele>
        <time>2016-03-20T10:57:34Z</time>
      </trkpt>
      <trkpt lat="43.71315" lon="6.75178">
        <ele>1043</ele>
        <time>2016-03-20T10:57:40Z</time>
      </trkpt>
      <trkpt lat="43.7131" lon="6.75184">
        <ele>1044</ele>
        <time>2016-03-20T10:57:46Z</time>
      </trkpt>
      <trkpt lat="43.71304" lon="6.7519">
        <ele>1044</ele>
        <time>2016-03-20T10:57:52Z</time>
      </trkpt>
      <trkpt lat="43.71298" lon="6.75195">
        <ele>1045</ele>
        <time>2016-03-20T10:57:58Z</time>
      </trkpt>
      <trkpt lat="43.71292" lon="6.75202">
        <ele>1046</ele>
        <time>2016-03-20T10:58:04Z</time>
      </trkpt>
      <trkpt lat="43.71288" lon="6.75208">
        <ele>1047</ele>
        <time>2016-03-20T10:58:09Z</time>
      </trkpt>
      <trkpt lat="43.71285" lon="6.75215">
        <ele>1048</ele>
        <time>2016-03-20T10:58:14Z</time>
      </trkpt>
      <trkpt lat="43.71282" lon="6.75221">
        <ele>1048</ele>
        <time>2016-03-20T10:58:19Z</time>
      </trkpt>
      <trkpt lat="43.71276" lon="6.75224">
        <ele>1049</ele>
        <time>2016-03-20T10:58:25Z</time>
      </trkpt>
      <trkpt lat="43.71267" lon="6.75226">
        <ele>1047</ele>
        <time>2016-03-20T10:58:31Z</time>
      </trkpt>
      <trkpt lat="43.71262" lon="6.75233">
        <ele>1049</ele>
        <time>2016-03-20T10:58:36Z</time>
      </trkpt>
      <trkpt lat="43.71257" lon="6.75238">
        <ele>1048</ele>
        <time>2016-03-20T10:58:41Z</time>
      </trkpt>
      <trkpt lat="43.71252" lon="6.75245">
        <ele>1048</ele>
        <time>2016-03-20T10:58:46Z</time>
      </trkpt>
      <trkpt lat="43.71247" lon="6.75251">
        <ele>1047</ele>
        <time>2016-03-20T10:58:51Z</time>
      </trkpt>
      <trkpt lat="43.71243" lon="6.75259">
        <ele>1050</ele>
        <time>2016-03-20T10:58:58Z</time>
      </trkpt>
      <trkpt lat="43.71237" lon="6.75265">
        <ele>1052</ele>
        <time>2016-03-20T10:59:04Z</time>
      </trkpt>
      <trkpt lat="43.71235" lon="6.75272">
        <ele>1052</ele>
        <time>2016-03-20T10:59:10Z</time>
      </trkpt>
      <trkpt lat="43.71229" lon="6.75276">
        <ele>1052</ele>
        <time>2016-03-20T10:59:15Z</time>
      </trkpt>
      <trkpt lat="43.71223" lon="6.75284">
        <ele>1052</ele>
        <time>2016-03-20T10:59:22Z</time>
      </trkpt>
      <trkpt lat="43.71217" lon="6.75289">
        <ele>1052</ele>
        <time>2016-03-20T10:59:28Z</time>
      </trkpt>
      <trkpt lat="43.71214" lon="6.7529">
        <ele>1052</ele>
        <time>2016-03-20T10:59:30Z</time>
      </trkpt>
      <trkpt lat="43.71204" lon="6.75295">
        <ele>1052</ele>
        <time>2016-03-20T10:59:36Z</time>
      </trkpt>
      <trkpt lat="43.71201" lon="6.75298">
        <ele>1054</ele>
        <time>2016-03-20T10:59:39Z</time>
      </trkpt>
      <trkpt lat="43.71194" lon="6.75303">
        <ele>1054</ele>
        <time>2016-03-20T10:59:46Z</time>
      </trkpt>
      <trkpt lat="43.71189" lon="6.75311">
        <ele>1057</ele>
        <time>2016-03-20T10:59:53Z</time>
      </trkpt>
      <trkpt lat="43.71187" lon="6.75314">
        <ele>1058</ele>
        <time>2016-03-20T10:59:56Z</time>
      </trkpt>
      <trkpt lat="43.71184" lon="6.75323">
        <ele>1059</ele>
        <time>2016-03-20T11:00:03Z</time>
      </trkpt>
      <trkpt lat="43.71178" lon="6.75328">
        <ele>1059</ele>
        <time>2016-03-20T11:00:09Z</time>
      </trkpt>
      <trkpt lat="43.71173" lon="6.75331">
        <ele>1061</ele>
        <time>2016-03-20T11:00:14Z</time>
      </trkpt>
      <trkpt lat="43.71168" lon="6.75335">
        <ele>1060</ele>
        <time>2016-03-20T11:00:19Z</time>
      </trkpt>
      <trkpt lat="43.71162" lon="6.75339">
        <ele>1060</ele>
        <time>2016-03-20T11:00:26Z</time>
      </trkpt>
      <trkpt lat="43.71159" lon="6.7534">
        <ele>1062</ele>
        <time>2016-03-20T11:00:29Z</time>
      </trkpt>
      <trkpt lat="43.71156" lon="6.75341">
        <ele>1062</ele>
        <time>2016-03-20T11:00:31Z</time>
      </trkpt>
      <trkpt lat="43.71151" lon="6.75347">
        <ele>1061</ele>
        <time>2016-03-20T11:00:37Z</time>
      </trkpt>
      <trkpt lat="43.71143" lon="6.75352">
        <ele>1059</ele>
        <time>2016-03-20T11:00:44Z</time>
      </trkpt>
      <trkpt lat="43.7114" lon="6.75354">
        <ele>1060</ele>
        <time>2016-03-20T11:00:48Z</time>
      </trkpt>
      <trkpt lat="43.71134" lon="6.75357">
        <ele>1061</ele>
        <time>2016-03-20T11:00:57Z</time>
      </trkpt>
      <trkpt lat="43.71133" lon="6.75362">
        <ele>1063</ele>
        <time>2016-03-20T11:01:00Z</time>
      </trkpt>
      <trkpt lat="43.7113" lon="6.75369">
        <ele>1066</ele>
        <time>2016-03-20T11:01:05Z</time>
      </trkpt>
      <trkpt lat="43.71124" lon="6.75373">
        <ele>1068</ele>
        <time>2016-03-20T11:01:12Z</time>
      </trkpt>
      <trkpt lat="43.7112" lon="6.75373">
        <ele>1069</ele>
        <time>2016-03-20T11:01:18Z</time>
      </trkpt>
      <trkpt lat="43.71117" lon="6.75374">
        <ele>1069</ele>
        <time>2016-03-20T11:01:21Z</time>
      </trkpt>
      <trkpt lat="43.71114" lon="6.75381">
        <ele>1072</ele>
        <time>2016-03-20T11:01:28Z</time>
      </trkpt>
      <trkpt lat="43.7111" lon="6.75385">
        <ele>1069</ele>
        <time>2016-03-20T11:01:32Z</time>
      </trkpt>
      <trkpt lat="43.71105" lon="6.75386">
        <ele>1070</ele>
        <time>2016-03-20T11:01:38Z</time>
      </trkpt>
      <trkpt lat="43.71098" lon="6.75386">
        <ele>1071</ele>
        <time>2016-03-20T11:01:43Z</time>
      </trkpt>
      <trkpt lat="43.71092" lon="6.75388">
        <ele>1073</ele>
        <time>2016-03-20T11:01:49Z</time>
      </trkpt>
      <trkpt lat="43.71088" lon="6.75394">
        <ele>1072</ele>
        <time>2016-03-20T11:01:55Z</time>
      </trkpt>
      <trkpt lat="43.71086" lon="6.75402">
        <ele>1073</ele>
        <time>2016-03-20T11:02:02Z</time>
      </trkpt>
      <trkpt lat="43.71085" lon="6.75406">
        <ele>1076</ele>
        <time>2016-03-20T11:02:06Z</time>
      </trkpt>
      <trkpt lat="43.71084" lon="6.7541">
        <ele>1076</ele>
        <time>2016-03-20T11:02:09Z</time>
      </trkpt>
      <trkpt lat="43.71083" lon="6.75413">
        <ele>1078</ele>
        <time>2016-03-20T11:02:12Z</time>
      </trkpt>
      <trkpt lat="43.71079" lon="6.7542">
        <ele>1082</ele>
        <time>2016-03-20T11:02:19Z</time>
      </trkpt>
      <trkpt lat="43.71075" lon="6.75427">
        <ele>1085</ele>
        <time>2016-03-20T11:02:26Z</time>
      </trkpt>
      <trkpt lat="43.7107" lon="6.75433">
        <ele>1084</ele>
        <time>2016-03-20T11:02:34Z</time>
      </trkpt>
      <trkpt lat="43.71066" lon="6.75438">
        <ele>1086</ele>
        <time>2016-03-20T11:02:40Z</time>
      </trkpt>
      <trkpt lat="43.71061" lon="6.75445">
        <ele>1089</ele>
        <time>2016-03-20T11:02:46Z</time>
      </trkpt>
      <trkpt lat="43.71057" lon="6.75453">
        <ele>1090</ele>
        <time>2016-03-20T11:02:53Z</time>
      </trkpt>
      <trkpt lat="43.71052" lon="6.7546">
        <ele>1091</ele>
        <time>2016-03-20T11:02:59Z</time>
      </trkpt>
      <trkpt lat="43.71047" lon="6.75463">
        <ele>1091</ele>
        <time>2016-03-20T11:03:04Z</time>
      </trkpt>
      <trkpt lat="43.71041" lon="6.75465">
        <ele>1092</ele>
        <time>2016-03-20T11:03:10Z</time>
      </trkpt>
      <trkpt lat="43.71035" lon="6.75464">
        <ele>1092</ele>
        <time>2016-03-20T11:03:18Z</time>
      </trkpt>
      <trkpt lat="43.71029" lon="6.75464">
        <ele>1092</ele>
        <time>2016-03-20T11:03:25Z</time>
      </trkpt>
      <trkpt lat="43.71023" lon="6.75465">
        <ele>1089</ele>
        <time>2016-03-20T11:03:32Z</time>
      </trkpt>
      <trkpt lat="43.71017" lon="6.75465">
        <ele>1093</ele>
        <time>2016-03-20T11:03:38Z</time>
      </trkpt>
      <trkpt lat="43.71012" lon="6.75463">
        <ele>1094</ele>
        <time>2016-03-20T11:03:45Z</time>
      </trkpt>
      <trkpt lat="43.71006" lon="6.75464">
        <ele>1095</ele>
        <time>2016-03-20T11:03:50Z</time>
      </trkpt>
      <trkpt lat="43.71003" lon="6.75464">
        <ele>1095</ele>
        <time>2016-03-20T11:03:55Z</time>
      </trkpt>
      <trkpt lat="43.70997" lon="6.7546">
        <ele>1092</ele>
        <time>2016-03-20T11:04:01Z</time>
      </trkpt>
      <trkpt lat="43.70991" lon="6.75457">
        <ele>1093</ele>
        <time>2016-03-20T11:04:07Z</time>
      </trkpt>
      <trkpt lat="43.70984" lon="6.75454">
        <ele>1096</ele>
        <time>2016-03-20T11:04:15Z</time>
      </trkpt>
      <trkpt lat="43.70978" lon="6.75451">
        <ele>1094</ele>
        <time>2016-03-20T11:04:22Z</time>
      </trkpt>
      <trkpt lat="43.70975" lon="6.75452">
        <ele>1096</ele>
        <time>2016-03-20T11:04:27Z</time>
      </trkpt>
      <trkpt lat="43.70969" lon="6.75454">
        <ele>1101</ele>
        <time>2016-03-20T11:04:35Z</time>
      </trkpt>
      <trkpt lat="43.70964" lon="6.75461">
        <ele>1103</ele>
        <time>2016-03-20T11:04:42Z</time>
      </trkpt>
      <trkpt lat="43.70958" lon="6.75464">
        <ele>1103</ele>
        <time>2016-03-20T11:04:49Z</time>
      </trkpt>
      <trkpt lat="43.70955" lon="6.75462">
        <ele>1103</ele>
        <time>2016-03-20T11:04:54Z</time>
      </trkpt>
      <trkpt lat="43.70948" lon="6.75459">
        <ele>1106</ele>
        <time>2016-03-20T11:05:01Z</time>
      </trkpt>
      <trkpt lat="43.70941" lon="6.75462">
        <ele>1107</ele>
        <time>2016-03-20T11:05:09Z</time>
      </trkpt>
      <trkpt lat="43.70932" lon="6.75463">
        <ele>1109</ele>
        <time>2016-03-20T11:05:15Z</time>
      </trkpt>
      <trkpt lat="43.7093" lon="6.75467">
        <ele>1110</ele>
        <time>2016-03-20T11:05:19Z</time>
      </trkpt>
      <trkpt lat="43.70925" lon="6.75473">
        <ele>1108</ele>
        <time>2016-03-20T11:05:26Z</time>
      </trkpt>
      <trkpt lat="43.70923" lon="6.75477">
        <ele>1108</ele>
        <time>2016-03-20T11:05:29Z</time>
      </trkpt>
      <trkpt lat="43.7092" lon="6.75479">
        <ele>1109</ele>
        <time>2016-03-20T11:05:34Z</time>
      </trkpt>
      <trkpt lat="43.70917" lon="6.75481">
        <ele>1112</ele>
        <time>2016-03-20T11:05:38Z</time>
      </trkpt>
      <trkpt lat="43.70911" lon="6.7548">
        <ele>1114</ele>
        <time>2016-03-20T11:05:44Z</time>
      </trkpt>
      <trkpt lat="43.70906" lon="6.75483">
        <ele>1114</ele>
        <time>2016-03-20T11:05:49Z</time>
      </trkpt>
      <trkpt lat="43.709" lon="6.75481">
        <ele>1113</ele>
        <time>2016-03-20T11:05:55Z</time>
      </trkpt>
      <trkpt lat="43.70896" lon="6.75481">
        <ele>1113</ele>
        <time>2016-03-20T11:06:01Z</time>
      </trkpt>
      <trkpt lat="43.70893" lon="6.75484">
        <ele>1115</ele>
        <time>2016-03-20T11:06:07Z</time>
      </trkpt>
      <trkpt lat="43.70889" lon="6.7549">
        <ele>1119</ele>
        <time>2016-03-20T11:06:14Z</time>
      </trkpt>
      <trkpt lat="43.70886" lon="6.7549">
        <ele>1117</ele>
        <time>2016-03-20T11:06:17Z</time>
      </trkpt>
      <trkpt lat="43.7088" lon="6.75487">
        <ele>1120</ele>
        <time>2016-03-20T11:06:24Z</time>
      </trkpt>
      <trkpt lat="43.70874" lon="6.75487">
        <ele>1119</ele>
        <time>2016-03-20T11:06:30Z</time>
      </trkpt>
      <trkpt lat="43.7087" lon="6.75489">
        <ele>1121</ele>
        <time>2016-03-20T11:06:34Z</time>
      </trkpt>
      <trkpt lat="43.70863" lon="6.75493">
        <ele>1120</ele>
        <time>2016-03-20T11:06:40Z</time>
      </trkpt>
      <trkpt lat="43.70857" lon="6.75493">
        <ele>1121</ele>
        <time>2016-03-20T11:06:47Z</time>
      </trkpt>
      <trkpt lat="43.70851" lon="6.75496">
        <ele>1123</ele>
        <time>2016-03-20T11:06:54Z</time>
      </trkpt>
      <trkpt lat="43.70845" lon="6.75497">
        <ele>1128</ele>
        <time>2016-03-20T11:07:01Z</time>
      </trkpt>
      <trkpt lat="43.70839" lon="6.75498">
        <ele>1131</ele>
        <time>2016-03-20T11:07:08Z</time>
      </trkpt>
      <trkpt lat="43.70834" lon="6.75495">
        <ele>1131</ele>
        <time>2016-03-20T11:07:14Z</time>
      </trkpt>
      <trkpt lat="43.70828" lon="6.75492">
        <ele>1131</ele>
        <time>2016-03-20T11:07:19Z</time>
      </trkpt>
      <trkpt lat="43.70823" lon="6.75497">
        <ele>1132</ele>
        <time>2016-03-20T11:07:25Z</time>
      </trkpt>
      <trkpt lat="43.70817" lon="6.755">
        <ele>1130</ele>
        <time>2016-03-20T11:07:32Z</time>
      </trkpt>
      <trkpt lat="43.70814" lon="6.75501">
        <ele>1133</ele>
        <time>2016-03-20T11:07:37Z</time>
      </trkpt>
      <trkpt lat="43.70807" lon="6.75504">
        <ele>1134</ele>
        <time>2016-03-20T11:07:43Z</time>
      </trkpt>
      <trkpt lat="43.70802" lon="6.7551">
        <ele>1134</ele>
        <time>2016-03-20T11:07:49Z</time>
      </trkpt>
      <trkpt lat="43.70797" lon="6.75514">
        <ele>1135</ele>
        <time>2016-03-20T11:07:54Z</time>
      </trkpt>
      <trkpt lat="43.7079" lon="6.75517">
        <ele>1133</ele>
        <time>2016-03-20T11:08:00Z</time>
      </trkpt>
      <trkpt lat="43.70783" lon="6.75519">
        <ele>1132</ele>
        <time>2016-03-20T11:08:06Z</time>
      </trkpt>
      <trkpt lat="43.70778" lon="6.75523">
        <ele>1135</ele>
        <time>2016-03-20T11:08:13Z</time>
      </trkpt>
      <trkpt lat="43.70772" lon="6.75529">
        <ele>1137</ele>
        <time>2016-03-20T11:08:19Z</time>
      </trkpt>
      <trkpt lat="43.70766" lon="6.75533">
        <ele>1138</ele>
        <time>2016-03-20T11:08:25Z</time>
      </trkpt>
      <trkpt lat="43.70761" lon="6.75541">
        <ele>1138</ele>
        <time>2016-03-20T11:08:31Z</time>
      </trkpt>
      <trkpt lat="43.70757" lon="6.75548">
        <ele>1141</ele>
        <time>2016-03-20T11:08:38Z</time>
      </trkpt>
      <trkpt lat="43.70751" lon="6.75554">
        <ele>1142</ele>
        <time>2016-03-20T11:08:44Z</time>
      </trkpt>
      <trkpt lat="43.70746" lon="6.75562">
        <ele>1142</ele>
        <time>2016-03-20T11:08:50Z</time>
      </trkpt>
      <trkpt lat="43.70745" lon="6.75567">
        <ele>1142</ele>
        <time>2016-03-20T11:08:53Z</time>
      </trkpt>
      <trkpt lat="43.70746" lon="6.75574">
        <ele>1142</ele>
        <time>2016-03-20T11:08:58Z</time>
      </trkpt>
      <trkpt lat="43.70745" lon="6.75578">
        <ele>1142</ele>
        <time>2016-03-20T11:09:15Z</time>
      </trkpt>
      <trkpt lat="43.70745" lon="6.75574">
        <ele>1141</ele>
        <time>2016-03-20T11:10:39Z</time>
      </trkpt>
      <trkpt lat="43.70743" lon="6.75571">
        <ele>1140</ele>
        <time>2016-03-20T11:10:46Z</time>
      </trkpt>
      <trkpt lat="43.70746" lon="6.75568">
        <ele>1141</ele>
        <time>2016-03-20T11:10:53Z</time>
      </trkpt>
      <trkpt lat="43.70746" lon="6.75564">
        <ele>1141</ele>
        <time>2016-03-20T11:10:56Z</time>
      </trkpt>
      <trkpt lat="43.70749" lon="6.75557">
        <ele>1142</ele>
        <time>2016-03-20T11:11:02Z</time>
      </trkpt>
      <trkpt lat="43.70747" lon="6.75561">
        <ele>1135</ele>
        <time>2016-03-20T11:11:29Z</time>
      </trkpt>
      <trkpt lat="43.70746" lon="6.7557">
        <ele>1137</ele>
        <time>2016-03-20T11:11:35Z</time>
      </trkpt>
      <trkpt lat="43.70745" lon="6.75573">
        <ele>1139</ele>
        <time>2016-03-20T11:11:41Z</time>
      </trkpt>
      <trkpt lat="43.70743" lon="6.75576">
        <ele>1141</ele>
        <time>2016-03-20T11:12:38Z</time>
      </trkpt>
      <trkpt lat="43.70745" lon="6.75579">
        <ele>1145</ele>
        <time>2016-03-20T11:14:01Z</time>
      </trkpt>
      <trkpt lat="43.70742" lon="6.75585">
        <ele>1146</ele>
        <time>2016-03-20T11:14:06Z</time>
      </trkpt>
      <trkpt lat="43.70732" lon="6.75594">
        <ele>1145</ele>
        <time>2016-03-20T11:14:12Z</time>
      </trkpt>
      <trkpt lat="43.70724" lon="6.75599">
        <ele>1145</ele>
        <time>2016-03-20T11:14:19Z</time>
      </trkpt>
      <trkpt lat="43.70709" lon="6.75605">
        <ele>1142</ele>
        <time>2016-03-20T11:14:25Z</time>
      </trkpt>
      <trkpt lat="43.70694" lon="6.75607">
        <ele>1139</ele>
        <time>2016-03-20T11:14:29Z</time>
      </trkpt>
      <trkpt lat="43.70682" lon="6.75601">
        <ele>1133</ele>
        <time>2016-03-20T11:14:51Z</time>
      </trkpt>
      <trkpt lat="43.70662" lon="6.75596">
        <ele>1131</ele>
        <time>2016-03-20T11:14:56Z</time>
      </trkpt>
      <trkpt lat="43.70631" lon="6.756">
        <ele>1128</ele>
        <time>2016-03-20T11:15:01Z</time>
      </trkpt>
      <trkpt lat="43.70612" lon="6.75599">
        <ele>1129</ele>
        <time>2016-03-20T11:15:06Z</time>
      </trkpt>
      <trkpt lat="43.70605" lon="6.75599">
        <ele>1129</ele>
        <time>2016-03-20T11:15:11Z</time>
      </trkpt>
      <trkpt lat="43.70598" lon="6.75597">
        <ele>1124</ele>
        <time>2016-03-20T11:15:15Z</time>
      </trkpt>
      <trkpt lat="43.70592" lon="6.75593">
        <ele>1126</ele>
        <time>2016-03-20T11:15:20Z</time>
      </trkpt>
      <trkpt lat="43.70586" lon="6.75588">
        <ele>1127</ele>
        <time>2016-03-20T11:15:25Z</time>
      </trkpt>
      <trkpt lat="43.70583" lon="6.75587">
        <ele>1128</ele>
        <time>2016-03-20T11:15:28Z</time>
      </trkpt>
      <trkpt lat="43.70576" lon="6.75581">
        <ele>1131</ele>
        <time>2016-03-20T11:15:35Z</time>
      </trkpt>
      <trkpt lat="43.7057" lon="6.75576">
        <ele>1131</ele>
        <time>2016-03-20T11:15:40Z</time>
      </trkpt>
      <trkpt lat="43.70566" lon="6.7557">
        <ele>1130</ele>
        <time>2016-03-20T11:15:45Z</time>
      </trkpt>
      <trkpt lat="43.70563" lon="6.75561">
        <ele>1133</ele>
        <time>2016-03-20T11:15:52Z</time>
      </trkpt>
      <trkpt lat="43.7056" lon="6.75554">
        <ele>1132</ele>
        <time>2016-03-20T11:15:57Z</time>
      </trkpt>
      <trkpt lat="43.70559" lon="6.75544">
        <ele>1133</ele>
        <time>2016-03-20T11:16:04Z</time>
      </trkpt>
      <trkpt lat="43.70559" lon="6.75535">
        <ele>1138</ele>
        <time>2016-03-20T11:16:11Z</time>
      </trkpt>
      <trkpt lat="43.70558" lon="6.75526">
        <ele>1141</ele>
        <time>2016-03-20T11:16:18Z</time>
      </trkpt>
      <trkpt lat="43.70556" lon="6.75518">
        <ele>1142</ele>
        <time>2016-03-20T11:16:24Z</time>
      </trkpt>
      <trkpt lat="43.70555" lon="6.75509">
        <ele>1143</ele>
        <time>2016-03-20T11:16:30Z</time>
      </trkpt>
      <trkpt lat="43.70552" lon="6.75501">
        <ele>1145</ele>
        <time>2016-03-20T11:16:35Z</time>
      </trkpt>
      <trkpt lat="43.70548" lon="6.75494">
        <ele>1147</ele>
        <time>2016-03-20T11:16:42Z</time>
      </trkpt>
      <trkpt lat="43.70544" lon="6.75488">
        <ele>1149</ele>
        <time>2016-03-20T11:16:48Z</time>
      </trkpt>
      <trkpt lat="43.70541" lon="6.75482">
        <ele>1148</ele>
        <time>2016-03-20T11:16:55Z</time>
      </trkpt>
      <trkpt lat="43.7054" lon="6.75478">
        <ele>1149</ele>
        <time>2016-03-20T11:17:00Z</time>
      </trkpt>
      <trkpt lat="43.70538" lon="6.75474">
        <ele>1150</ele>
        <time>2016-03-20T11:17:02Z</time>
      </trkpt>
      <trkpt lat="43.70533" lon="6.7547">
        <ele>1152</ele>
        <time>2016-03-20T11:17:09Z</time>
      </trkpt>
      <trkpt lat="43.70526" lon="6.75469">
        <ele>1152</ele>
        <time>2016-03-20T11:17:16Z</time>
      </trkpt>
      <trkpt lat="43.70524" lon="6.75466">
        <ele>1154</ele>
        <time>2016-03-20T11:17:21Z</time>
      </trkpt>
      <trkpt lat="43.7052" lon="6.75462">
        <ele>1156</ele>
        <time>2016-03-20T11:17:29Z</time>
      </trkpt>
      <trkpt lat="43.70518" lon="6.75451">
        <ele>1158</ele>
        <time>2016-03-20T11:17:38Z</time>
      </trkpt>
      <trkpt lat="43.70513" lon="6.75445">
        <ele>1159</ele>
        <time>2016-03-20T11:17:46Z</time>
      </trkpt>
      <trkpt lat="43.70512" lon="6.75442">
        <ele>1160</ele>
        <time>2016-03-20T11:17:51Z</time>
      </trkpt>
      <trkpt lat="43.70512" lon="6.75434">
        <ele>1160</ele>
        <time>2016-03-20T11:17:58Z</time>
      </trkpt>
      <trkpt lat="43.70511" lon="6.75425">
        <ele>1160</ele>
        <time>2016-03-20T11:18:04Z</time>
      </trkpt>
      <trkpt lat="43.70507" lon="6.75419">
        <ele>1160</ele>
        <time>2016-03-20T11:18:10Z</time>
      </trkpt>
      <trkpt lat="43.70501" lon="6.75416">
        <ele>1161</ele>
        <time>2016-03-20T11:18:16Z</time>
      </trkpt>
      <trkpt lat="43.70495" lon="6.75413">
        <ele>1162</ele>
        <time>2016-03-20T11:18:23Z</time>
      </trkpt>
      <trkpt lat="43.70486" lon="6.75409">
        <ele>1164</ele>
        <time>2016-03-20T11:18:30Z</time>
      </trkpt>
      <trkpt lat="43.70479" lon="6.75408">
        <ele>1164</ele>
        <time>2016-03-20T11:18:36Z</time>
      </trkpt>
      <trkpt lat="43.70473" lon="6.75407">
        <ele>1166</ele>
        <time>2016-03-20T11:18:44Z</time>
      </trkpt>
      <trkpt lat="43.70467" lon="6.75406">
        <ele>1167</ele>
        <time>2016-03-20T11:18:50Z</time>
      </trkpt>
      <trkpt lat="43.7046" lon="6.75405">
        <ele>1169</ele>
        <time>2016-03-20T11:18:56Z</time>
      </trkpt>
      <trkpt lat="43.70454" lon="6.75403">
        <ele>1170</ele>
        <time>2016-03-20T11:19:02Z</time>
      </trkpt>
      <trkpt lat="43.70447" lon="6.75402">
        <ele>1171</ele>
        <time>2016-03-20T11:19:08Z</time>
      </trkpt>
      <trkpt lat="43.70441" lon="6.75401">
        <ele>1171</ele>
        <time>2016-03-20T11:19:14Z</time>
      </trkpt>
      <trkpt lat="43.70435" lon="6.75398">
        <ele>1173</ele>
        <time>2016-03-20T11:19:20Z</time>
      </trkpt>
      <trkpt lat="43.70428" lon="6.75397">
        <ele>1174</ele>
        <time>2016-03-20T11:19:26Z</time>
      </trkpt>
      <trkpt lat="43.70423" lon="6.75391">
        <ele>1176</ele>
        <time>2016-03-20T11:19:32Z</time>
      </trkpt>
      <trkpt lat="43.70419" lon="6.75386">
        <ele>1177</ele>
        <time>2016-03-20T11:19:38Z</time>
      </trkpt>
      <trkpt lat="43.70413" lon="6.75383">
        <ele>1178</ele>
        <time>2016-03-20T11:19:44Z</time>
      </trkpt>
      <trkpt lat="43.70405" lon="6.75382">
        <ele>1180</ele>
        <time>2016-03-20T11:19:50Z</time>
      </trkpt>
      <trkpt lat="43.70396" lon="6.75378">
        <ele>1180</ele>
        <time>2016-03-20T11:19:56Z</time>
      </trkpt>
      <trkpt lat="43.70387" lon="6.75375">
        <ele>1180</ele>
        <time>2016-03-20T11:20:02Z</time>
      </trkpt>
      <trkpt lat="43.70385" lon="6.75373">
        <ele>1180</ele>
        <time>2016-03-20T11:20:04Z</time>
      </trkpt>
      <trkpt lat="43.70378" lon="6.75369">
        <ele>1182</ele>
        <time>2016-03-20T11:20:10Z</time>
      </trkpt>
      <trkpt lat="43.70371" lon="6.75368">
        <ele>1184</ele>
        <time>2016-03-20T11:20:15Z</time>
      </trkpt>
      <trkpt lat="43.70365" lon="6.75366">
        <ele>1183</ele>
        <time>2016-03-20T11:20:20Z</time>
      </trkpt>
      <trkpt lat="43.70358" lon="6.75364">
        <ele>1181</ele>
        <time>2016-03-20T11:20:25Z</time>
      </trkpt>
      <trkpt lat="43.70356" lon="6.75361">
        <ele>1183</ele>
        <time>2016-03-20T11:20:27Z</time>
      </trkpt>
      <trkpt lat="43.70348" lon="6.75353">
        <ele>1187</ele>
        <time>2016-03-20T11:20:34Z</time>
      </trkpt>
      <trkpt lat="43.70344" lon="6.75351">
        <ele>1186</ele>
        <time>2016-03-20T11:20:36Z</time>
      </trkpt>
      <trkpt lat="43.70335" lon="6.75347">
        <ele>1186</ele>
        <time>2016-03-20T11:20:42Z</time>
      </trkpt>
      <trkpt lat="43.70326" lon="6.75342">
        <ele>1187</ele>
        <time>2016-03-20T11:20:48Z</time>
      </trkpt>
      <trkpt lat="43.70318" lon="6.75336">
        <ele>1185</ele>
        <time>2016-03-20T11:20:55Z</time>
      </trkpt>
      <trkpt lat="43.70311" lon="6.75334">
        <ele>1184</ele>
        <time>2016-03-20T11:21:00Z</time>
      </trkpt>
      <trkpt lat="43.70302" lon="6.75331">
        <ele>1187</ele>
        <time>2016-03-20T11:21:07Z</time>
      </trkpt>
      <trkpt lat="43.70296" lon="6.75327">
        <ele>1187</ele>
        <time>2016-03-20T11:21:12Z</time>
      </trkpt>
      <trkpt lat="43.70289" lon="6.75327">
        <ele>1191</ele>
        <time>2016-03-20T11:21:17Z</time>
      </trkpt>
      <trkpt lat="43.7028" lon="6.75326">
        <ele>1194</ele>
        <time>2016-03-20T11:21:23Z</time>
      </trkpt>
      <trkpt lat="43.70272" lon="6.75329">
        <ele>1192</ele>
        <time>2016-03-20T11:21:27Z</time>
      </trkpt>
      <trkpt lat="43.7026" lon="6.75327">
        <ele>1188</ele>
        <time>2016-03-20T11:21:32Z</time>
      </trkpt>
      <trkpt lat="43.70251" lon="6.75328">
        <ele>1186</ele>
        <time>2016-03-20T11:21:37Z</time>
      </trkpt>
      <trkpt lat="43.70245" lon="6.75324">
        <ele>1185</ele>
        <time>2016-03-20T11:21:40Z</time>
      </trkpt>
      <trkpt lat="43.70236" lon="6.7532">
        <ele>1185</ele>
        <time>2016-03-20T11:21:45Z</time>
      </trkpt>
      <trkpt lat="43.70233" lon="6.7532">
        <ele>1186</ele>
        <time>2016-03-20T11:21:55Z</time>
      </trkpt>
      <trkpt lat="43.70233" lon="6.75315">
        <ele>1184</ele>
        <time>2016-03-20T11:22:06Z</time>
      </trkpt>
      <trkpt lat="43.70236" lon="6.75311">
        <ele>1181</ele>
        <time>2016-03-20T11:22:11Z</time>
      </trkpt>
      <trkpt lat="43.70239" lon="6.75306">
        <ele>1184</ele>
        <time>2016-03-20T11:27:00Z</time>
      </trkpt>
      <trkpt lat="43.70245" lon="6.75301">
        <ele>1185</ele>
        <time>2016-03-20T11:27:07Z</time>
      </trkpt>
      <trkpt lat="43.7025" lon="6.75298">
        <ele>1185</ele>
        <time>2016-03-20T11:27:19Z</time>
      </trkpt>
      <trkpt lat="43.70248" lon="6.75301">
        <ele>1186</ele>
        <time>2016-03-20T11:27:27Z</time>
      </trkpt>
      <trkpt lat="43.70247" lon="6.75304">
        <ele>1186</ele>
        <time>2016-03-20T11:27:36Z</time>
      </trkpt>
      <trkpt lat="43.70245" lon="6.75307">
        <ele>1186</ele>
        <time>2016-03-20T11:27:41Z</time>
      </trkpt>
      <trkpt lat="43.70241" lon="6.75308">
        <ele>1184</ele>
        <time>2016-03-20T11:28:09Z</time>
      </trkpt>
      <trkpt lat="43.70239" lon="6.75308">
        <ele>1186</ele>
        <time>2016-03-20T11:28:26Z</time>
      </trkpt>
      <trkpt lat="43.70236" lon="6.75311">
        <ele>1183</ele>
        <time>2016-03-20T11:46:37Z</time>
      </trkpt>
      <trkpt lat="43.70238" lon="6.75314">
        <ele>1185</ele>
        <time>2016-03-20T11:47:05Z</time>
      </trkpt>
      <trkpt lat="43.70235" lon="6.75317">
        <ele>1183</ele>
        <time>2016-03-20T11:47:11Z</time>
      </trkpt>
      <trkpt lat="43.70232" lon="6.75316">
        <ele>1183</ele>
        <time>2016-03-20T11:47:22Z</time>
      </trkpt>
      <trkpt lat="43.70235" lon="6.75316">
        <ele>1184</ele>
        <time>2016-03-20T11:47:59Z</time>
      </trkpt>
      <trkpt lat="43.70241" lon="6.75317">
        <ele>1185</ele>
        <time>2016-03-20T11:48:09Z</time>
      </trkpt>
      <trkpt lat="43.70238" lon="6.75317">
        <ele>1186</ele>
        <time>2016-03-20T11:48:24Z</time>
      </trkpt>
      <trkpt lat="43.70235" lon="6.75315">
        <ele>1185</ele>
        <time>2016-03-20T11:49:35Z</time>
      </trkpt>
      <trkpt lat="43.70224" lon="6.75315">
        <ele>1183</ele>
        <time>2016-03-20T11:49:44Z</time>
      </trkpt>
      <trkpt lat="43.70219" lon="6.75304">
        <ele>1181</ele>
        <time>2016-03-20T11:49:50Z</time>
      </trkpt>
      <trkpt lat="43.7021" lon="6.753">
        <ele>1181</ele>
        <time>2016-03-20T11:49:56Z</time>
      </trkpt>
      <trkpt lat="43.70206" lon="6.75295">
        <ele>1181</ele>
        <time>2016-03-20T11:50:01Z</time>
      </trkpt>
      <trkpt lat="43.70205" lon="6.75291">
        <ele>1180</ele>
        <time>2016-03-20T11:50:06Z</time>
      </trkpt>
      <trkpt lat="43.70196" lon="6.75285">
        <ele>1172</ele>
        <time>2016-03-20T11:50:12Z</time>
      </trkpt>
      <trkpt lat="43.70191" lon="6.75279">
        <ele>1171</ele>
        <time>2016-03-20T11:50:17Z</time>
      </trkpt>
      <trkpt lat="43.7018" lon="6.75276">
        <ele>1171</ele>
        <time>2016-03-20T11:50:23Z</time>
      </trkpt>
      <trkpt lat="43.70166" lon="6.75273">
        <ele>1164</ele>
        <time>2016-03-20T11:50:29Z</time>
      </trkpt>
      <trkpt lat="43.70153" lon="6.75274">
        <ele>1161</ele>
        <time>2016-03-20T11:50:34Z</time>
      </trkpt>
      <trkpt lat="43.70141" lon="6.75268">
        <ele>1159</ele>
        <time>2016-03-20T11:50:40Z</time>
      </trkpt>
      <trkpt lat="43.70127" lon="6.75259">
        <ele>1151</ele>
        <time>2016-03-20T11:50:45Z</time>
      </trkpt>
      <trkpt lat="43.70118" lon="6.75255">
        <ele>1149</ele>
        <time>2016-03-20T11:50:52Z</time>
      </trkpt>
      <trkpt lat="43.70115" lon="6.75255">
        <ele>1152</ele>
        <time>2016-03-20T11:51:25Z</time>
      </trkpt>
      <trkpt lat="43.70104" lon="6.75252">
        <ele>1153</ele>
        <time>2016-03-20T11:51:31Z</time>
      </trkpt>
      <trkpt lat="43.70096" lon="6.7525">
        <ele>1148</ele>
        <time>2016-03-20T11:51:36Z</time>
      </trkpt>
      <trkpt lat="43.70082" lon="6.75251">
        <ele>1147</ele>
        <time>2016-03-20T11:51:42Z</time>
      </trkpt>
      <trkpt lat="43.70075" lon="6.7523">
        <ele>1146</ele>
        <time>2016-03-20T11:51:48Z</time>
      </trkpt>
      <trkpt lat="43.70072" lon="6.75203">
        <ele>1146</ele>
        <time>2016-03-20T11:51:53Z</time>
      </trkpt>
      <trkpt lat="43.70072" lon="6.7517">
        <ele>1144</ele>
        <time>2016-03-20T11:51:58Z</time>
      </trkpt>
      <trkpt lat="43.70073" lon="6.75164">
        <ele>1144</ele>
        <time>2016-03-20T11:51:59Z</time>
      </trkpt>
      <trkpt lat="43.70074" lon="6.75145">
        <ele>1139</ele>
        <time>2016-03-20T11:52:04Z</time>
      </trkpt>
      <trkpt lat="43.70065" lon="6.75129">
        <ele>1137</ele>
        <time>2016-03-20T11:52:09Z</time>
      </trkpt>
      <trkpt lat="43.70056" lon="6.7511">
        <ele>1135</ele>
        <time>2016-03-20T11:52:13Z</time>
      </trkpt>
      <trkpt lat="43.70045" lon="6.7509">
        <ele>1134</ele>
        <time>2016-03-20T11:52:18Z</time>
      </trkpt>
      <trkpt lat="43.70042" lon="6.75088">
        <ele>1133</ele>
        <time>2016-03-20T11:52:19Z</time>
      </trkpt>
      <trkpt lat="43.70033" lon="6.75084">
        <ele>1138</ele>
        <time>2016-03-20T11:52:25Z</time>
      </trkpt>
      <trkpt lat="43.70023" lon="6.75085">
        <ele>1131</ele>
        <time>2016-03-20T11:52:31Z</time>
      </trkpt>
      <trkpt lat="43.70017" lon="6.75083">
        <ele>1130</ele>
        <time>2016-03-20T11:52:34Z</time>
      </trkpt>
      <trkpt lat="43.70014" lon="6.75081">
        <ele>1132</ele>
        <time>2016-03-20T11:52:36Z</time>
      </trkpt>
      <trkpt lat="43.70007" lon="6.75078">
        <ele>1133</ele>
        <time>2016-03-20T11:52:41Z</time>
      </trkpt>
      <trkpt lat="43.69997" lon="6.75076">
        <ele>1133</ele>
        <time>2016-03-20T11:52:47Z</time>
      </trkpt>
      <trkpt lat="43.69989" lon="6.75078">
        <ele>1132</ele>
        <time>2016-03-20T11:52:50Z</time>
      </trkpt>
      <trkpt lat="43.69979" lon="6.75086">
        <ele>1132</ele>
        <time>2016-03-20T11:52:55Z</time>
      </trkpt>
      <trkpt lat="43.69975" lon="6.75107">
        <ele>1132</ele>
        <time>2016-03-20T11:53:00Z</time>
      </trkpt>
      <trkpt lat="43.69965" lon="6.75129">
        <ele>1130</ele>
        <time>2016-03-20T11:53:05Z</time>
      </trkpt>
      <trkpt lat="43.69951" lon="6.75145">
        <ele>1128</ele>
        <time>2016-03-20T11:53:11Z</time>
      </trkpt>
      <trkpt lat="43.6994" lon="6.75168">
        <ele>1127</ele>
        <time>2016-03-20T11:53:16Z</time>
      </trkpt>
      <trkpt lat="43.69928" lon="6.75155">
        <ele>1126</ele>
        <time>2016-03-20T11:53:21Z</time>
      </trkpt>
      <trkpt lat="43.69924" lon="6.75159">
        <ele>1124</ele>
        <time>2016-03-20T11:53:22Z</time>
      </trkpt>
      <trkpt lat="43.6991" lon="6.75153">
        <ele>1123</ele>
        <time>2016-03-20T11:53:27Z</time>
      </trkpt>
      <trkpt lat="43.69897" lon="6.75132">
        <ele>1123</ele>
        <time>2016-03-20T11:53:33Z</time>
      </trkpt>
      <trkpt lat="43.69887" lon="6.75118">
        <ele>1123</ele>
        <time>2016-03-20T11:53:38Z</time>
      </trkpt>
      <trkpt lat="43.69877" lon="6.75116">
        <ele>1119</ele>
        <time>2016-03-20T11:53:50Z</time>
      </trkpt>
      <trkpt lat="43.69861" lon="6.75111">
        <ele>1112</ele>
        <time>2016-03-20T11:53:55Z</time>
      </trkpt>
      <trkpt lat="43.69855" lon="6.75111">
        <ele>1110</ele>
        <time>2016-03-20T11:53:57Z</time>
      </trkpt>
      <trkpt lat="43.69839" lon="6.75108">
        <ele>1105</ele>
        <time>2016-03-20T11:54:02Z</time>
      </trkpt>
      <trkpt lat="43.6982" lon="6.7511">
        <ele>1100</ele>
        <time>2016-03-20T11:54:08Z</time>
      </trkpt>
      <trkpt lat="43.69811" lon="6.75103">
        <ele>1098</ele>
        <time>2016-03-20T11:54:13Z</time>
      </trkpt>
      <trkpt lat="43.698" lon="6.75095">
        <ele>1094</ele>
        <time>2016-03-20T11:54:19Z</time>
      </trkpt>
      <trkpt lat="43.69789" lon="6.75087">
        <ele>1091</ele>
        <time>2016-03-20T11:54:24Z</time>
      </trkpt>
      <trkpt lat="43.69778" lon="6.75068">
        <ele>1086</ele>
        <time>2016-03-20T11:54:29Z</time>
      </trkpt>
      <trkpt lat="43.69774" lon="6.75045">
        <ele>1082</ele>
        <time>2016-03-20T11:54:34Z</time>
      </trkpt>
      <trkpt lat="43.6977" lon="6.75041">
        <ele>1080</ele>
        <time>2016-03-20T11:54:36Z</time>
      </trkpt>
      <trkpt lat="43.69761" lon="6.75025">
        <ele>1075</ele>
        <time>2016-03-20T11:54:41Z</time>
      </trkpt>
      <trkpt lat="43.69755" lon="6.75005">
        <ele>1069</ele>
        <time>2016-03-20T11:54:46Z</time>
      </trkpt>
      <trkpt lat="43.69754" lon="6.74993">
        <ele>1063</ele>
        <time>2016-03-20T11:54:57Z</time>
      </trkpt>
      <trkpt lat="43.69754" lon="6.74989">
        <ele>1059</ele>
        <time>2016-03-20T11:55:09Z</time>
      </trkpt>
      <trkpt lat="43.69756" lon="6.74981">
        <ele>1059</ele>
        <time>2016-03-20T11:55:14Z</time>
      </trkpt>
      <trkpt lat="43.69759" lon="6.7498">
        <ele>1058</ele>
        <time>2016-03-20T11:55:15Z</time>
      </trkpt>
      <trkpt lat="43.69765" lon="6.74968">
        <ele>1059</ele>
        <time>2016-03-20T11:55:20Z</time>
      </trkpt>
      <trkpt lat="43.69769" lon="6.74968">
        <ele>1059</ele>
        <time>2016-03-20T11:55:22Z</time>
      </trkpt>
      <trkpt lat="43.69782" lon="6.74966">
        <ele>1058</ele>
        <time>2016-03-20T11:55:27Z</time>
      </trkpt>
      <trkpt lat="43.69792" lon="6.7495">
        <ele>1056</ele>
        <time>2016-03-20T11:55:32Z</time>
      </trkpt>
      <trkpt lat="43.6981" lon="6.74937">
        <ele>1054</ele>
        <time>2016-03-20T11:55:37Z</time>
      </trkpt>
      <trkpt lat="43.69819" lon="6.74926">
        <ele>1052</ele>
        <time>2016-03-20T11:55:42Z</time>
      </trkpt>
      <trkpt lat="43.69837" lon="6.74918">
        <ele>1047</ele>
        <time>2016-03-20T11:55:47Z</time>
      </trkpt>
      <trkpt lat="43.69847" lon="6.74919">
        <ele>1047</ele>
        <time>2016-03-20T11:55:50Z</time>
      </trkpt>
      <trkpt lat="43.69863" lon="6.74913">
        <ele>1045</ele>
        <time>2016-03-20T11:55:55Z</time>
      </trkpt>
      <trkpt lat="43.69867" lon="6.74913">
        <ele>1041</ele>
        <time>2016-03-20T11:55:56Z</time>
      </trkpt>
      <trkpt lat="43.69887" lon="6.74906">
        <ele>1038</ele>
        <time>2016-03-20T11:56:01Z</time>
      </trkpt>
      <trkpt lat="43.69907" lon="6.74895">
        <ele>1035</ele>
        <time>2016-03-20T11:56:06Z</time>
      </trkpt>
      <trkpt lat="43.69922" lon="6.7489">
        <ele>1032</ele>
        <time>2016-03-20T11:56:11Z</time>
      </trkpt>
      <trkpt lat="43.69932" lon="6.74887">
        <ele>1028</ele>
        <time>2016-03-20T11:56:16Z</time>
      </trkpt>
      <trkpt lat="43.69946" lon="6.74873">
        <ele>1024</ele>
        <time>2016-03-20T11:56:22Z</time>
      </trkpt>
      <trkpt lat="43.6996" lon="6.74855">
        <ele>1021</ele>
        <time>2016-03-20T11:56:27Z</time>
      </trkpt>
      <trkpt lat="43.69961" lon="6.74848">
        <ele>1021</ele>
        <time>2016-03-20T11:56:28Z</time>
      </trkpt>
      <trkpt lat="43.69965" lon="6.74828">
        <ele>1022</ele>
        <time>2016-03-20T11:56:34Z</time>
      </trkpt>
      <trkpt lat="43.69965" lon="6.7482">
        <ele>1021</ele>
        <time>2016-03-20T11:56:36Z</time>
      </trkpt>
      <trkpt lat="43.69963" lon="6.74817">
        <ele>1020</ele>
        <time>2016-03-20T11:56:37Z</time>
      </trkpt>
      <trkpt lat="43.69957" lon="6.74803">
        <ele>1019</ele>
        <time>2016-03-20T11:56:42Z</time>
      </trkpt>
      <trkpt lat="43.69955" lon="6.7479">
        <ele>1017</ele>
        <time>2016-03-20T11:56:45Z</time>
      </trkpt>
      <trkpt lat="43.69953" lon="6.74769">
        <ele>1014</ele>
        <time>2016-03-20T11:56:50Z</time>
      </trkpt>
      <trkpt lat="43.69954" lon="6.74765">
        <ele>1015</ele>
        <time>2016-03-20T11:56:51Z</time>
      </trkpt>
      <trkpt lat="43.69957" lon="6.74749">
        <ele>1007</ele>
        <time>2016-03-20T11:57:20Z</time>
      </trkpt>
      <trkpt lat="43.69962" lon="6.74733">
        <ele>1004</ele>
        <time>2016-03-20T11:57:25Z</time>
      </trkpt>
      <trkpt lat="43.69972" lon="6.74714">
        <ele>1005</ele>
        <time>2016-03-20T11:57:31Z</time>
      </trkpt>
      <trkpt lat="43.69979" lon="6.74698">
        <ele>1001</ele>
        <time>2016-03-20T11:57:36Z</time>
      </trkpt>
      <trkpt lat="43.69981" lon="6.74694">
        <ele>1002</ele>
        <time>2016-03-20T11:57:38Z</time>
      </trkpt>
      <trkpt lat="43.69985" lon="6.74683">
        <ele>1000</ele>
        <time>2016-03-20T11:57:43Z</time>
      </trkpt>
      <trkpt lat="43.69978" lon="6.74668">
        <ele>998</ele>
        <time>2016-03-20T11:57:49Z</time>
      </trkpt>
      <trkpt lat="43.69972" lon="6.74658">
        <ele>997</ele>
        <time>2016-03-20T11:57:52Z</time>
      </trkpt>
      <trkpt lat="43.69954" lon="6.74643">
        <ele>991</ele>
        <time>2016-03-20T11:57:57Z</time>
      </trkpt>
      <trkpt lat="43.69951" lon="6.74621">
        <ele>986</ele>
        <time>2016-03-20T11:58:02Z</time>
      </trkpt>
      <trkpt lat="43.69949" lon="6.74605">
        <ele>980</ele>
        <time>2016-03-20T11:58:08Z</time>
      </trkpt>
      <trkpt lat="43.69946" lon="6.74584">
        <ele>976</ele>
        <time>2016-03-20T11:58:13Z</time>
      </trkpt>
      <trkpt lat="43.69934" lon="6.74573">
        <ele>969</ele>
        <time>2016-03-20T11:58:18Z</time>
      </trkpt>
      <trkpt lat="43.69924" lon="6.74569">
        <ele>967</ele>
        <time>2016-03-20T11:58:20Z</time>
      </trkpt>
      <trkpt lat="43.69916" lon="6.7456">
        <ele>961</ele>
        <time>2016-03-20T11:58:28Z</time>
      </trkpt>
      <trkpt lat="43.69913" lon="6.7456">
        <ele>956</ele>
        <time>2016-03-20T11:58:42Z</time>
      </trkpt>
      <trkpt lat="43.69909" lon="6.74554">
        <ele>955</ele>
        <time>2016-03-20T11:58:47Z</time>
      </trkpt>
      <trkpt lat="43.69908" lon="6.74544">
        <ele>951</ele>
        <time>2016-03-20T11:58:52Z</time>
      </trkpt>
      <trkpt lat="43.69909" lon="6.74527">
        <ele>942</ele>
        <time>2016-03-20T11:58:57Z</time>
      </trkpt>
      <trkpt lat="43.69904" lon="6.74506">
        <ele>940</ele>
        <time>2016-03-20T11:59:02Z</time>
      </trkpt>
      <trkpt lat="43.69893" lon="6.74485">
        <ele>937</ele>
        <time>2016-03-20T11:59:07Z</time>
      </trkpt>
      <trkpt lat="43.69872" lon="6.74474">
        <ele>930</ele>
        <time>2016-03-20T11:59:12Z</time>
      </trkpt>
      <trkpt lat="43.69857" lon="6.74457">
        <ele>924</ele>
        <time>2016-03-20T11:59:16Z</time>
      </trkpt>
      <trkpt lat="43.69834" lon="6.74446">
        <ele>919</ele>
        <time>2016-03-20T11:59:21Z</time>
      </trkpt>
      <trkpt lat="43.69828" lon="6.7444">
        <ele>919</ele>
        <time>2016-03-20T11:59:22Z</time>
      </trkpt>
      <trkpt lat="43.69804" lon="6.74441">
        <ele>911</ele>
        <time>2016-03-20T11:59:27Z</time>
      </trkpt>
      <trkpt lat="43.69792" lon="6.74429">
        <ele>909</ele>
        <time>2016-03-20T11:59:32Z</time>
      </trkpt>
      <trkpt lat="43.69788" lon="6.7443">
        <ele>907</ele>
        <time>2016-03-20T11:59:53Z</time>
      </trkpt>
      <trkpt lat="43.69785" lon="6.74427">
        <ele>907</ele>
        <time>2016-03-20T12:00:45Z</time>
      </trkpt>
      <trkpt lat="43.6979" lon="6.74423">
        <ele>903</ele>
        <time>2016-03-20T12:00:49Z</time>
      </trkpt>
      <trkpt lat="43.69798" lon="6.74415">
        <ele>901</ele>
        <time>2016-03-20T12:00:55Z</time>
      </trkpt>
      <trkpt lat="43.69808" lon="6.74413">
        <ele>900</ele>
        <time>2016-03-20T12:01:01Z</time>
      </trkpt>
      <trkpt lat="43.69818" lon="6.74409">
        <ele>902</ele>
        <time>2016-03-20T12:01:07Z</time>
      </trkpt>
      <trkpt lat="43.69829" lon="6.74406">
        <ele>901</ele>
        <time>2016-03-20T12:01:12Z</time>
      </trkpt>
      <trkpt lat="43.69837" lon="6.74404">
        <ele>906</ele>
        <time>2016-03-20T12:01:17Z</time>
      </trkpt>
      <trkpt lat="43.69847" lon="6.74408">
        <ele>908</ele>
        <time>2016-03-20T12:01:23Z</time>
      </trkpt>
      <trkpt lat="43.69857" lon="6.7441">
        <ele>910</ele>
        <time>2016-03-20T12:01:29Z</time>
      </trkpt>
      <trkpt lat="43.69867" lon="6.74414">
        <ele>910</ele>
        <time>2016-03-20T12:01:35Z</time>
      </trkpt>
      <trkpt lat="43.69872" lon="6.74416">
        <ele>907</ele>
        <time>2016-03-20T12:01:37Z</time>
      </trkpt>
      <trkpt lat="43.69877" lon="6.74415">
        <ele>908</ele>
        <time>2016-03-20T12:01:39Z</time>
      </trkpt>
      <trkpt lat="43.6989" lon="6.7441">
        <ele>907</ele>
        <time>2016-03-20T12:01:44Z</time>
      </trkpt>
      <trkpt lat="43.69898" lon="6.74403">
        <ele>908</ele>
        <time>2016-03-20T12:01:48Z</time>
      </trkpt>
      <trkpt lat="43.69912" lon="6.74397">
        <ele>909</ele>
        <time>2016-03-20T12:01:54Z</time>
      </trkpt>
      <trkpt lat="43.69929" lon="6.7439">
        <ele>906</ele>
        <time>2016-03-20T12:02:00Z</time>
      </trkpt>
      <trkpt lat="43.69944" lon="6.74389">
        <ele>903</ele>
        <time>2016-03-20T12:02:05Z</time>
      </trkpt>
      <trkpt lat="43.69948" lon="6.74388">
        <ele>904</ele>
        <time>2016-03-20T12:02:06Z</time>
      </trkpt>
      <trkpt lat="43.69966" lon="6.74381">
        <ele>908</ele>
        <time>2016-03-20T12:02:11Z</time>
      </trkpt>
      <trkpt lat="43.69984" lon="6.74371">
        <ele>908</ele>
        <time>2016-03-20T12:02:16Z</time>
      </trkpt>
      <trkpt lat="43.69998" lon="6.7435">
        <ele>912</ele>
        <time>2016-03-20T12:02:21Z</time>
      </trkpt>
      <trkpt lat="43.70006" lon="6.74323">
        <ele>913</ele>
        <time>2016-03-20T12:02:26Z</time>
      </trkpt>
      <trkpt lat="43.70012" lon="6.74311">
        <ele>909</ele>
        <time>2016-03-20T12:02:28Z</time>
      </trkpt>
      <trkpt lat="43.70023" lon="6.74282">
        <ele>912</ele>
        <time>2016-03-20T12:02:32Z</time>
      </trkpt>
      <trkpt lat="43.70026" lon="6.74275">
        <ele>911</ele>
        <time>2016-03-20T12:02:33Z</time>
      </trkpt>
      <trkpt lat="43.70029" lon="6.74271">
        <ele>911</ele>
        <time>2016-03-20T12:02:34Z</time>
      </trkpt>
      <trkpt lat="43.70048" lon="6.74254">
        <ele>911</ele>
        <time>2016-03-20T12:02:39Z</time>
      </trkpt>
      <trkpt lat="43.70064" lon="6.74238">
        <ele>913</ele>
        <time>2016-03-20T12:02:44Z</time>
      </trkpt>
      <trkpt lat="43.70086" lon="6.74216">
        <ele>910</ele>
        <time>2016-03-20T12:02:49Z</time>
      </trkpt>
      <trkpt lat="43.7012" lon="6.74202">
        <ele>911</ele>
        <time>2016-03-20T12:02:54Z</time>
      </trkpt>
      <trkpt lat="43.70156" lon="6.74204">
        <ele>909</ele>
        <time>2016-03-20T12:02:59Z</time>
      </trkpt>
      <trkpt lat="43.70188" lon="6.74224">
        <ele>902</ele>
        <time>2016-03-20T12:03:04Z</time>
      </trkpt>
      <trkpt lat="43.70208" lon="6.74235">
        <ele>900</ele>
        <time>2016-03-20T12:03:07Z</time>
      </trkpt>
      <trkpt lat="43.70242" lon="6.74241">
        <ele>900</ele>
        <time>2016-03-20T12:03:12Z</time>
      </trkpt>
      <trkpt lat="43.70273" lon="6.7423">
        <ele>902</ele>
        <time>2016-03-20T12:03:17Z</time>
      </trkpt>
      <trkpt lat="43.70285" lon="6.74221">
        <ele>904</ele>
        <time>2016-03-20T12:03:19Z</time>
      </trkpt>
      <trkpt lat="43.70304" lon="6.74205">
        <ele>906</ele>
        <time>2016-03-20T12:03:24Z</time>
      </trkpt>
      <trkpt lat="43.70308" lon="6.74204">
        <ele>906</ele>
        <time>2016-03-20T12:03:25Z</time>
      </trkpt>
      <trkpt lat="43.70333" lon="6.74203">
        <ele>901</ele>
        <time>2016-03-20T12:03:30Z</time>
      </trkpt>
      <trkpt lat="43.70364" lon="6.74207">
        <ele>896</ele>
        <time>2016-03-20T12:03:35Z</time>
      </trkpt>
      <trkpt lat="43.70401" lon="6.74204">
        <ele>896</ele>
        <time>2016-03-20T12:03:40Z</time>
      </trkpt>
      <trkpt lat="43.70445" lon="6.74207">
        <ele>894</ele>
        <time>2016-03-20T12:03:45Z</time>
      </trkpt>
      <trkpt lat="43.70465" lon="6.74212">
        <ele>891</ele>
        <time>2016-03-20T12:03:53Z</time>
      </trkpt>
      <trkpt lat="43.70481" lon="6.74211">
        <ele>891</ele>
        <time>2016-03-20T12:03:58Z</time>
      </trkpt>
      <trkpt lat="43.70502" lon="6.74214">
        <ele>891</ele>
        <time>2016-03-20T12:04:03Z</time>
      </trkpt>
      <trkpt lat="43.70519" lon="6.74213">
        <ele>892</ele>
        <time>2016-03-20T12:04:09Z</time>
      </trkpt>
      <trkpt lat="43.70529" lon="6.74215">
        <ele>889</ele>
        <time>2016-03-20T12:04:15Z</time>
      </trkpt>
      <trkpt lat="43.7054" lon="6.74214">
        <ele>889</ele>
        <time>2016-03-20T12:04:21Z</time>
      </trkpt>
      <trkpt lat="43.70547" lon="6.74213">
        <ele>888</ele>
        <time>2016-03-20T12:04:26Z</time>
      </trkpt>
      <trkpt lat="43.70551" lon="6.74213">
        <ele>890</ele>
        <time>2016-03-20T12:04:32Z</time>
      </trkpt>
      <trkpt lat="43.70567" lon="6.74212">
        <ele>891</ele>
        <time>2016-03-20T12:04:38Z</time>
      </trkpt>
      <trkpt lat="43.70586" lon="6.74215">
        <ele>886</ele>
        <time>2016-03-20T12:04:44Z</time>
      </trkpt>
      <trkpt lat="43.7059" lon="6.74214">
        <ele>885</ele>
        <time>2016-03-20T12:04:45Z</time>
      </trkpt>
      <trkpt lat="43.70605" lon="6.74215">
        <ele>889</ele>
        <time>2016-03-20T12:04:50Z</time>
      </trkpt>
      <trkpt lat="43.7062" lon="6.74215">
        <ele>890</ele>
        <time>2016-03-20T12:04:55Z</time>
      </trkpt>
      <trkpt lat="43.70636" lon="6.74214">
        <ele>892</ele>
        <time>2016-03-20T12:05:00Z</time>
      </trkpt>
      <trkpt lat="43.70654" lon="6.74215">
        <ele>890</ele>
        <time>2016-03-20T12:05:05Z</time>
      </trkpt>
      <trkpt lat="43.70674" lon="6.74214">
        <ele>890</ele>
        <time>2016-03-20T12:05:10Z</time>
      </trkpt>
      <trkpt lat="43.70695" lon="6.74214">
        <ele>890</ele>
        <time>2016-03-20T12:05:15Z</time>
      </trkpt>
      <trkpt lat="43.70714" lon="6.74215">
        <ele>888</ele>
        <time>2016-03-20T12:05:20Z</time>
      </trkpt>
      <trkpt lat="43.70732" lon="6.74216">
        <ele>888</ele>
        <time>2016-03-20T12:05:25Z</time>
      </trkpt>
      <trkpt lat="43.70751" lon="6.74217">
        <ele>887</ele>
        <time>2016-03-20T12:05:30Z</time>
      </trkpt>
      <trkpt lat="43.70768" lon="6.74216">
        <ele>886</ele>
        <time>2016-03-20T12:05:35Z</time>
      </trkpt>
      <trkpt lat="43.7078" lon="6.74211">
        <ele>885</ele>
        <time>2016-03-20T12:05:40Z</time>
      </trkpt>
      <trkpt lat="43.70793" lon="6.74213">
        <ele>886</ele>
        <time>2016-03-20T12:05:45Z</time>
      </trkpt>
      <trkpt lat="43.70799" lon="6.74215">
        <ele>883</ele>
        <time>2016-03-20T12:05:48Z</time>
      </trkpt>
      <trkpt lat="43.7081" lon="6.74207">
        <ele>886</ele>
        <time>2016-03-20T12:05:54Z</time>
      </trkpt>
      <trkpt lat="43.70817" lon="6.74207">
        <ele>890</ele>
        <time>2016-03-20T12:05:58Z</time>
      </trkpt>
      <trkpt lat="43.70832" lon="6.74211">
        <ele>893</ele>
        <time>2016-03-20T12:06:03Z</time>
      </trkpt>
      <trkpt lat="43.70843" lon="6.74213">
        <ele>899</ele>
        <time>2016-03-20T12:06:08Z</time>
      </trkpt>
      <trkpt lat="43.70853" lon="6.74217">
        <ele>899</ele>
        <time>2016-03-20T12:06:14Z</time>
      </trkpt>
      <trkpt lat="43.70858" lon="6.74223">
        <ele>901</ele>
        <time>2016-03-20T12:06:18Z</time>
      </trkpt>
      <trkpt lat="43.70865" lon="6.74231">
        <ele>898</ele>
        <time>2016-03-20T12:06:24Z</time>
      </trkpt>
      <trkpt lat="43.70874" lon="6.74239">
        <ele>895</ele>
        <time>2016-03-20T12:06:30Z</time>
      </trkpt>
      <trkpt lat="43.7088" lon="6.74242">
        <ele>896</ele>
        <time>2016-03-20T12:06:35Z</time>
      </trkpt>
      <trkpt lat="43.70888" lon="6.74249">
        <ele>898</ele>
        <time>2016-03-20T12:06:41Z</time>
      </trkpt>
      <trkpt lat="43.70894" lon="6.74255">
        <ele>897</ele>
        <time>2016-03-20T12:06:46Z</time>
      </trkpt>
      <trkpt lat="43.70903" lon="6.74259">
        <ele>899</ele>
        <time>2016-03-20T12:06:52Z</time>
      </trkpt>
      <trkpt lat="43.70909" lon="6.74264">
        <ele>900</ele>
        <time>2016-03-20T12:06:57Z</time>
      </trkpt>
      <trkpt lat="43.70912" lon="6.7427">
        <ele>902</ele>
        <time>2016-03-20T12:07:04Z</time>
      </trkpt>
      <trkpt lat="43.70917" lon="6.74276">
        <ele>903</ele>
        <time>2016-03-20T12:07:11Z</time>
      </trkpt>
      <trkpt lat="43.70922" lon="6.7428">
        <ele>908</ele>
        <time>2016-03-20T12:07:18Z</time>
      </trkpt>
      <trkpt lat="43.70924" lon="6.74284">
        <ele>904</ele>
        <time>2016-03-20T12:07:33Z</time>
      </trkpt>
      <trkpt lat="43.70926" lon="6.74287">
        <ele>906</ele>
        <time>2016-03-20T12:07:39Z</time>
      </trkpt>
      <trkpt lat="43.70932" lon="6.74292">
        <ele>911</ele>
        <time>2016-03-20T12:07:44Z</time>
      </trkpt>
      <trkpt lat="43.70934" lon="6.74299">
        <ele>907</ele>
        <time>2016-03-20T12:07:58Z</time>
      </trkpt>
      <trkpt lat="43.70935" lon="6.74303">
        <ele>907</ele>
        <time>2016-03-20T12:08:14Z</time>
      </trkpt>
      <trkpt lat="43.70937" lon="6.74307">
        <ele>901</ele>
        <time>2016-03-20T12:09:27Z</time>
      </trkpt>
      <trkpt lat="43.70939" lon="6.74314">
        <ele>897</ele>
        <time>2016-03-20T12:09:32Z</time>
      </trkpt>
      <trkpt lat="43.70945" lon="6.7432">
        <ele>903</ele>
        <time>2016-03-20T12:09:37Z</time>
      </trkpt>
      <trkpt lat="43.70954" lon="6.74324">
        <ele>904</ele>
        <time>2016-03-20T12:09:42Z</time>
      </trkpt>
      <trkpt lat="43.70963" lon="6.74323">
        <ele>909</ele>
        <time>2016-03-20T12:09:49Z</time>
      </trkpt>
      <trkpt lat="43.70973" lon="6.74325">
        <ele>911</ele>
        <time>2016-03-20T12:09:56Z</time>
      </trkpt>
      <trkpt lat="43.70982" lon="6.74332">
        <ele>913</ele>
        <time>2016-03-20T12:10:01Z</time>
      </trkpt>
      <trkpt lat="43.7098" lon="6.74346">
        <ele>913</ele>
        <time>2016-03-20T12:10:08Z</time>
      </trkpt>
      <trkpt lat="43.70969" lon="6.74351">
        <ele>908</ele>
        <time>2016-03-20T12:10:13Z</time>
      </trkpt>
      <trkpt lat="43.70958" lon="6.74349">
        <ele>908</ele>
        <time>2016-03-20T12:10:18Z</time>
      </trkpt>
      <trkpt lat="43.70954" lon="6.74349">
        <ele>909</ele>
        <time>2016-03-20T12:10:20Z</time>
      </trkpt>
      <trkpt lat="43.70947" lon="6.74348">
        <ele>906</ele>
        <time>2016-03-20T12:10:24Z</time>
      </trkpt>
      <trkpt lat="43.70939" lon="6.74348">
        <ele>909</ele>
        <time>2016-03-20T12:10:30Z</time>
      </trkpt>
      <trkpt lat="43.70932" lon="6.74347">
        <ele>914</ele>
        <time>2016-03-20T12:10:35Z</time>
      </trkpt>
      <trkpt lat="43.70921" lon="6.74346">
        <ele>914</ele>
        <time>2016-03-20T12:10:42Z</time>
      </trkpt>
      <trkpt lat="43.70908" lon="6.74346">
        <ele>912</ele>
        <time>2016-03-20T12:10:48Z</time>
      </trkpt>
      <trkpt lat="43.70897" lon="6.74345">
        <ele>914</ele>
        <time>2016-03-20T12:10:54Z</time>
      </trkpt>
      <trkpt lat="43.70894" lon="6.74345">
        <ele>912</ele>
        <time>2016-03-20T12:10:56Z</time>
      </trkpt>
      <trkpt lat="43.7089" lon="6.74346">
        <ele>912</ele>
        <time>2016-03-20T12:10:58Z</time>
      </trkpt>
      <trkpt lat="43.70878" lon="6.74344">
        <ele>913</ele>
        <time>2016-03-20T12:11:04Z</time>
      </trkpt>
      <trkpt lat="43.70865" lon="6.74342">
        <ele>913</ele>
        <time>2016-03-20T12:11:10Z</time>
      </trkpt>
      <trkpt lat="43.70859" lon="6.7434">
        <ele>912</ele>
        <time>2016-03-20T12:11:16Z</time>
      </trkpt>
      <trkpt lat="43.70856" lon="6.74339">
        <ele>914</ele>
        <time>2016-03-20T12:11:18Z</time>
      </trkpt>
      <trkpt lat="43.70849" lon="6.74337">
        <ele>911</ele>
        <time>2016-03-20T12:11:24Z</time>
      </trkpt>
      <trkpt lat="43.70838" lon="6.74333">
        <ele>911</ele>
        <time>2016-03-20T12:11:30Z</time>
      </trkpt>
      <trkpt lat="43.70831" lon="6.74334">
        <ele>910</ele>
        <time>2016-03-20T12:11:34Z</time>
      </trkpt>
      <trkpt lat="43.7082" lon="6.74333">
        <ele>906</ele>
        <time>2016-03-20T12:11:40Z</time>
      </trkpt>
      <trkpt lat="43.70808" lon="6.74333">
        <ele>905</ele>
        <time>2016-03-20T12:11:46Z</time>
      </trkpt>
      <trkpt lat="43.70806" lon="6.74334">
        <ele>906</ele>
        <time>2016-03-20T12:11:47Z</time>
      </trkpt>
      <trkpt lat="43.70797" lon="6.74335">
        <ele>905</ele>
        <time>2016-03-20T12:11:51Z</time>
      </trkpt>
      <trkpt lat="43.70787" lon="6.74336">
        <ele>905</ele>
        <time>2016-03-20T12:11:56Z</time>
      </trkpt>
      <trkpt lat="43.70778" lon="6.74339">
        <ele>908</ele>
        <time>2016-03-20T12:12:02Z</time>
      </trkpt>
      <trkpt lat="43.70769" lon="6.74345">
        <ele>910</ele>
        <time>2016-03-20T12:12:09Z</time>
      </trkpt>
      <trkpt lat="43.70766" lon="6.74353">
        <ele>912</ele>
        <time>2016-03-20T12:12:15Z</time>
      </trkpt>
      <trkpt lat="43.70769" lon="6.74361">
        <ele>913</ele>
        <time>2016-03-20T12:12:21Z</time>
      </trkpt>
      <trkpt lat="43.70774" lon="6.74363">
        <ele>916</ele>
        <time>2016-03-20T12:12:28Z</time>
      </trkpt>
      <trkpt lat="43.7078" lon="6.74367">
        <ele>917</ele>
        <time>2016-03-20T12:12:35Z</time>
      </trkpt>
      <trkpt lat="43.70786" lon="6.74371">
        <ele>918</ele>
        <time>2016-03-20T12:12:41Z</time>
      </trkpt>
      <trkpt lat="43.70791" lon="6.74376">
        <ele>921</ele>
        <time>2016-03-20T12:12:49Z</time>
      </trkpt>
      <trkpt lat="43.70796" lon="6.74382">
        <ele>923</ele>
        <time>2016-03-20T12:12:58Z</time>
      </trkpt>
      <trkpt lat="43.708" lon="6.74387">
        <ele>927</ele>
        <time>2016-03-20T12:13:06Z</time>
      </trkpt>
      <trkpt lat="43.70805" lon="6.74392">
        <ele>926</ele>
        <time>2016-03-20T12:13:13Z</time>
      </trkpt>
      <trkpt lat="43.7081" lon="6.74399">
        <ele>930</ele>
        <time>2016-03-20T12:13:20Z</time>
      </trkpt>
      <trkpt lat="43.70815" lon="6.74404">
        <ele>934</ele>
        <time>2016-03-20T12:13:27Z</time>
      </trkpt>
      <trkpt lat="43.70815" lon="6.74409">
        <ele>936</ele>
        <time>2016-03-20T12:13:31Z</time>
      </trkpt>
      <trkpt lat="43.7082" lon="6.74414">
        <ele>936</ele>
        <time>2016-03-20T12:13:37Z</time>
      </trkpt>
      <trkpt lat="43.70826" lon="6.7442">
        <ele>935</ele>
        <time>2016-03-20T12:13:43Z</time>
      </trkpt>
      <trkpt lat="43.70831" lon="6.74426">
        <ele>934</ele>
        <time>2016-03-20T12:13:49Z</time>
      </trkpt>
      <trkpt lat="43.70835" lon="6.74433">
        <ele>935</ele>
        <time>2016-03-20T12:13:55Z</time>
      </trkpt>
      <trkpt lat="43.7084" lon="6.74439">
        <ele>937</ele>
        <time>2016-03-20T12:14:01Z</time>
      </trkpt>
      <trkpt lat="43.70846" lon="6.74444">
        <ele>937</ele>
        <time>2016-03-20T12:14:07Z</time>
      </trkpt>
      <trkpt lat="43.70851" lon="6.74448">
        <ele>939</ele>
        <time>2016-03-20T12:14:13Z</time>
      </trkpt>
      <trkpt lat="43.70859" lon="6.74451">
        <ele>940</ele>
        <time>2016-03-20T12:14:19Z</time>
      </trkpt>
      <trkpt lat="43.70865" lon="6.74455">
        <ele>940</ele>
        <time>2016-03-20T12:14:24Z</time>
      </trkpt>
      <trkpt lat="43.70871" lon="6.7446">
        <ele>941</ele>
        <time>2016-03-20T12:14:29Z</time>
      </trkpt>
      <trkpt lat="43.70877" lon="6.74466">
        <ele>942</ele>
        <time>2016-03-20T12:14:35Z</time>
      </trkpt>
      <trkpt lat="43.70883" lon="6.74471">
        <ele>942</ele>
        <time>2016-03-20T12:14:40Z</time>
      </trkpt>
      <trkpt lat="43.70891" lon="6.74478">
        <ele>942</ele>
        <time>2016-03-20T12:14:47Z</time>
      </trkpt>
      <trkpt lat="43.70896" lon="6.74485">
        <ele>943</ele>
        <time>2016-03-20T12:14:54Z</time>
      </trkpt>
      <trkpt lat="43.70901" lon="6.74491">
        <ele>945</ele>
        <time>2016-03-20T12:15:01Z</time>
      </trkpt>
      <trkpt lat="43.70907" lon="6.74497">
        <ele>944</ele>
        <time>2016-03-20T12:15:07Z</time>
      </trkpt>
      <trkpt lat="43.70913" lon="6.74502">
        <ele>945</ele>
        <time>2016-03-20T12:15:13Z</time>
      </trkpt>
      <trkpt lat="43.70918" lon="6.74508">
        <ele>946</ele>
        <time>2016-03-20T12:15:18Z</time>
      </trkpt>
      <trkpt lat="43.70923" lon="6.74515">
        <ele>945</ele>
        <time>2016-03-20T12:15:24Z</time>
      </trkpt>
      <trkpt lat="43.70928" lon="6.74521">
        <ele>945</ele>
        <time>2016-03-20T12:15:30Z</time>
      </trkpt>
      <trkpt lat="43.70931" lon="6.74529">
        <ele>948</ele>
        <time>2016-03-20T12:15:36Z</time>
      </trkpt>
      <trkpt lat="43.70935" lon="6.74537">
        <ele>947</ele>
        <time>2016-03-20T12:15:41Z</time>
      </trkpt>
      <trkpt lat="43.7094" lon="6.7454">
        <ele>950</ele>
        <time>2016-03-20T12:15:46Z</time>
      </trkpt>
      <trkpt lat="43.70945" lon="6.74547">
        <ele>950</ele>
        <time>2016-03-20T12:15:51Z</time>
      </trkpt>
      <trkpt lat="43.70946" lon="6.74551">
        <ele>951</ele>
        <time>2016-03-20T12:15:54Z</time>
      </trkpt>
      <trkpt lat="43.70951" lon="6.74557">
        <ele>951</ele>
        <time>2016-03-20T12:15:59Z</time>
      </trkpt>
      <trkpt lat="43.7096" lon="6.74561">
        <ele>952</ele>
        <time>2016-03-20T12:16:06Z</time>
      </trkpt>
      <trkpt lat="43.70965" lon="6.74564">
        <ele>951</ele>
        <time>2016-03-20T12:16:11Z</time>
      </trkpt>
      <trkpt lat="43.70972" lon="6.74567">
        <ele>955</ele>
        <time>2016-03-20T12:16:16Z</time>
      </trkpt>
      <trkpt lat="43.70977" lon="6.74572">
        <ele>956</ele>
        <time>2016-03-20T12:16:21Z</time>
      </trkpt>
      <trkpt lat="43.70983" lon="6.74574">
        <ele>958</ele>
        <time>2016-03-20T12:16:26Z</time>
      </trkpt>
      <trkpt lat="43.7099" lon="6.74578">
        <ele>959</ele>
        <time>2016-03-20T12:16:32Z</time>
      </trkpt>
      <trkpt lat="43.70995" lon="6.74584">
        <ele>957</ele>
        <time>2016-03-20T12:16:38Z</time>
      </trkpt>
      <trkpt lat="43.71001" lon="6.74588">
        <ele>957</ele>
        <time>2016-03-20T12:16:44Z</time>
      </trkpt>
      <trkpt lat="43.71009" lon="6.7459">
        <ele>958</ele>
        <time>2016-03-20T12:16:50Z</time>
      </trkpt>
      <trkpt lat="43.71015" lon="6.74594">
        <ele>961</ele>
        <time>2016-03-20T12:16:56Z</time>
      </trkpt>
      <trkpt lat="43.71021" lon="6.74598">
        <ele>961</ele>
        <time>2016-03-20T12:17:01Z</time>
      </trkpt>
      <trkpt lat="43.71028" lon="6.74603">
        <ele>959</ele>
        <time>2016-03-20T12:17:06Z</time>
      </trkpt>
      <trkpt lat="43.71037" lon="6.74609">
        <ele>960</ele>
        <time>2016-03-20T12:17:13Z</time>
      </trkpt>
      <trkpt lat="43.71045" lon="6.74615">
        <ele>961</ele>
        <time>2016-03-20T12:17:19Z</time>
      </trkpt>
      <trkpt lat="43.71056" lon="6.74621">
        <ele>961</ele>
        <time>2016-03-20T12:17:25Z</time>
      </trkpt>
      <trkpt lat="43.71067" lon="6.74619">
        <ele>963</ele>
        <time>2016-03-20T12:17:31Z</time>
      </trkpt>
      <trkpt lat="43.71078" lon="6.74616">
        <ele>963</ele>
        <time>2016-03-20T12:17:37Z</time>
      </trkpt>
      <trkpt lat="43.7109" lon="6.74616">
        <ele>964</ele>
        <time>2016-03-20T12:17:43Z</time>
      </trkpt>
      <trkpt lat="43.71101" lon="6.74615">
        <ele>967</ele>
        <time>2016-03-20T12:17:49Z</time>
      </trkpt>
      <trkpt lat="43.71112" lon="6.74615">
        <ele>968</ele>
        <time>2016-03-20T12:17:55Z</time>
      </trkpt>
      <trkpt lat="43.71124" lon="6.74618">
        <ele>968</ele>
        <time>2016-03-20T12:18:01Z</time>
      </trkpt>
      <trkpt lat="43.71133" lon="6.74617">
        <ele>967</ele>
        <time>2016-03-20T12:18:07Z</time>
      </trkpt>
      <trkpt lat="43.71144" lon="6.74617">
        <ele>967</ele>
        <time>2016-03-20T12:18:13Z</time>
      </trkpt>
      <trkpt lat="43.71152" lon="6.74617">
        <ele>970</ele>
        <time>2016-03-20T12:18:18Z</time>
      </trkpt>
      <trkpt lat="43.71162" lon="6.74618">
        <ele>971</ele>
        <time>2016-03-20T12:18:24Z</time>
      </trkpt>
      <trkpt lat="43.71175" lon="6.74619">
        <ele>971</ele>
        <time>2016-03-20T12:18:30Z</time>
      </trkpt>
      <trkpt lat="43.71185" lon="6.74627">
        <ele>970</ele>
        <time>2016-03-20T12:18:36Z</time>
      </trkpt>
      <trkpt lat="43.71193" lon="6.74641">
        <ele>973</ele>
        <time>2016-03-20T12:18:42Z</time>
      </trkpt>
      <trkpt lat="43.71199" lon="6.74648">
        <ele>972</ele>
        <time>2016-03-20T12:18:47Z</time>
      </trkpt>
      <trkpt lat="43.71209" lon="6.74653">
        <ele>974</ele>
        <time>2016-03-20T12:18:53Z</time>
      </trkpt>
      <trkpt lat="43.71219" lon="6.74659">
        <ele>971</ele>
        <time>2016-03-20T12:18:59Z</time>
      </trkpt>
      <trkpt lat="43.71231" lon="6.74663">
        <ele>973</ele>
        <time>2016-03-20T12:19:04Z</time>
      </trkpt>
      <trkpt lat="43.71242" lon="6.7467">
        <ele>974</ele>
        <time>2016-03-20T12:19:10Z</time>
      </trkpt>
      <trkpt lat="43.71251" lon="6.74677">
        <ele>974</ele>
        <time>2016-03-20T12:19:15Z</time>
      </trkpt>
      <trkpt lat="43.71262" lon="6.7468">
        <ele>975</ele>
        <time>2016-03-20T12:19:21Z</time>
      </trkpt>
      <trkpt lat="43.71273" lon="6.7468">
        <ele>976</ele>
        <time>2016-03-20T12:19:27Z</time>
      </trkpt>
      <trkpt lat="43.71278" lon="6.7468">
        <ele>978</ele>
        <time>2016-03-20T12:19:29Z</time>
      </trkpt>
      <trkpt lat="43.71289" lon="6.74682">
        <ele>981</ele>
        <time>2016-03-20T12:19:36Z</time>
      </trkpt>
      <trkpt lat="43.71298" lon="6.74683">
        <ele>983</ele>
        <time>2016-03-20T12:19:41Z</time>
      </trkpt>
      <trkpt lat="43.71309" lon="6.74682">
        <ele>983</ele>
        <time>2016-03-20T12:19:47Z</time>
      </trkpt>
      <trkpt lat="43.71313" lon="6.74682">
        <ele>985</ele>
        <time>2016-03-20T12:19:50Z</time>
      </trkpt>
      <trkpt lat="43.71317" lon="6.74681">
        <ele>985</ele>
        <time>2016-03-20T12:19:52Z</time>
      </trkpt>
      <trkpt lat="43.71327" lon="6.74668">
        <ele>984</ele>
        <time>2016-03-20T12:19:58Z</time>
      </trkpt>
      <trkpt lat="43.7133" lon="6.74652">
        <ele>984</ele>
        <time>2016-03-20T12:20:03Z</time>
      </trkpt>
      <trkpt lat="43.7133" lon="6.74638">
        <ele>984</ele>
        <time>2016-03-20T12:20:08Z</time>
      </trkpt>
      <trkpt lat="43.7133" lon="6.74626">
        <ele>981</ele>
        <time>2016-03-20T12:20:13Z</time>
      </trkpt>
      <trkpt lat="43.71337" lon="6.74611">
        <ele>983</ele>
        <time>2016-03-20T12:20:19Z</time>
      </trkpt>
      <trkpt lat="43.71342" lon="6.74597">
        <ele>984</ele>
        <time>2016-03-20T12:20:25Z</time>
      </trkpt>
      <trkpt lat="43.71344" lon="6.74591">
        <ele>982</ele>
        <time>2016-03-20T12:20:27Z</time>
      </trkpt>
      <trkpt lat="43.71346" lon="6.74581">
        <ele>982</ele>
        <time>2016-03-20T12:20:32Z</time>
      </trkpt>
      <trkpt lat="43.71348" lon="6.74577">
        <ele>981</ele>
        <time>2016-03-20T12:20:35Z</time>
      </trkpt>
      <trkpt lat="43.71351" lon="6.74565">
        <ele>983</ele>
        <time>2016-03-20T12:20:41Z</time>
      </trkpt>
      <trkpt lat="43.71349" lon="6.74547">
        <ele>982</ele>
        <time>2016-03-20T12:20:47Z</time>
      </trkpt>
      <trkpt lat="43.71347" lon="6.74542">
        <ele>982</ele>
        <time>2016-03-20T12:21:03Z</time>
      </trkpt>
      <trkpt lat="43.71347" lon="6.74547">
        <ele>983</ele>
        <time>2016-03-20T12:21:06Z</time>
      </trkpt>
      <trkpt lat="43.71346" lon="6.7455">
        <ele>984</ele>
        <time>2016-03-20T12:21:11Z</time>
      </trkpt>
      <trkpt lat="43.71345" lon="6.74547">
        <ele>983</ele>
        <time>2016-03-20T12:21:15Z</time>
      </trkpt>
      <trkpt lat="43.71347" lon="6.74539">
        <ele>984</ele>
        <time>2016-03-20T12:21:23Z</time>
      </trkpt>
      <trkpt lat="43.71348" lon="6.74533">
        <ele>990</ele>
        <time>2016-03-20T12:23:33Z</time>
      </trkpt>
      <trkpt lat="43.71341" lon="6.74529">
        <ele>990</ele>
        <time>2016-03-20T12:23:39Z</time>
      </trkpt>
      <trkpt lat="43.71339" lon="6.74527">
        <ele>989</ele>
        <time>2016-03-20T12:23:51Z</time>
      </trkpt>
      <trkpt lat="43.71342" lon="6.74528">
        <ele>989</ele>
        <time>2016-03-20T12:23:58Z</time>
      </trkpt>
      <trkpt lat="43.71344" lon="6.74531">
        <ele>988</ele>
        <time>2016-03-20T12:24:32Z</time>
      </trkpt>
      <trkpt lat="43.71346" lon="6.74535">
        <ele>988</ele>
        <time>2016-03-20T12:24:37Z</time>
      </trkpt>
      <trkpt lat="43.71343" lon="6.74535">
        <ele>988</ele>
        <time>2016-03-20T12:24:42Z</time>
      </trkpt>
      <trkpt lat="43.71335" lon="6.74527">
        <ele>986</ele>
        <time>2016-03-20T12:24:54Z</time>
      </trkpt>
      <trkpt lat="43.7133" lon="6.74519">
        <ele>984</ele>
        <time>2016-03-20T12:25:00Z</time>
      </trkpt>
      <trkpt lat="43.7132" lon="6.74514">
        <ele>985</ele>
        <time>2016-03-20T12:25:06Z</time>
      </trkpt>
      <trkpt lat="43.71315" lon="6.74511">
        <ele>986</ele>
        <time>2016-03-20T12:25:08Z</time>
      </trkpt>
      <trkpt lat="43.71309" lon="6.74509">
        <ele>989</ele>
        <time>2016-03-20T12:25:13Z</time>
      </trkpt>
      <trkpt lat="43.71306" lon="6.74507">
        <ele>987</ele>
        <time>2016-03-20T12:25:19Z</time>
      </trkpt>
      <trkpt lat="43.71302" lon="6.74503">
        <ele>984</ele>
        <time>2016-03-20T12:25:24Z</time>
      </trkpt>
      <trkpt lat="43.71296" lon="6.74496">
        <ele>985</ele>
        <time>2016-03-20T12:25:30Z</time>
      </trkpt>
      <trkpt lat="43.71293" lon="6.74493">
        <ele>986</ele>
        <time>2016-03-20T12:25:32Z</time>
      </trkpt>
      <trkpt lat="43.71289" lon="6.74485">
        <ele>988</ele>
        <time>2016-03-20T12:25:40Z</time>
      </trkpt>
      <trkpt lat="43.71286" lon="6.74477">
        <ele>986</ele>
        <time>2016-03-20T12:26:06Z</time>
      </trkpt>
      <trkpt lat="43.71284" lon="6.74469">
        <ele>984</ele>
        <time>2016-03-20T12:26:13Z</time>
      </trkpt>
      <trkpt lat="43.71282" lon="6.74466">
        <ele>983</ele>
        <time>2016-03-20T12:26:46Z</time>
      </trkpt>
      <trkpt lat="43.7128" lon="6.74461">
        <ele>983</ele>
        <time>2016-03-20T12:26:56Z</time>
      </trkpt>
      <trkpt lat="43.71278" lon="6.74446">
        <ele>979</ele>
        <time>2016-03-20T12:27:04Z</time>
      </trkpt>
      <trkpt lat="43.71276" lon="6.74439">
        <ele>978</ele>
        <time>2016-03-20T12:27:11Z</time>
      </trkpt>
      <trkpt lat="43.71274" lon="6.74428">
        <ele>974</ele>
        <time>2016-03-20T12:27:16Z</time>
      </trkpt>
      <trkpt lat="43.71266" lon="6.74417">
        <ele>974</ele>
        <time>2016-03-20T12:27:22Z</time>
      </trkpt>
      <trkpt lat="43.71262" lon="6.74408">
        <ele>972</ele>
        <time>2016-03-20T12:27:27Z</time>
      </trkpt>
      <trkpt lat="43.71258" lon="6.74383">
        <ele>971</ele>
        <time>2016-03-20T12:27:33Z</time>
      </trkpt>
      <trkpt lat="43.71259" lon="6.74367">
        <ele>968</ele>
        <time>2016-03-20T12:27:38Z</time>
      </trkpt>
      <trkpt lat="43.71256" lon="6.74359">
        <ele>968</ele>
        <time>2016-03-20T12:27:44Z</time>
      </trkpt>
      <trkpt lat="43.71254" lon="6.74357">
        <ele>972</ele>
        <time>2016-03-20T12:28:05Z</time>
      </trkpt>
      <trkpt lat="43.71252" lon="6.74354">
        <ele>973</ele>
        <time>2016-03-20T12:28:45Z</time>
      </trkpt>
      <trkpt lat="43.7125" lon="6.74346">
        <ele>973</ele>
        <time>2016-03-20T12:28:50Z</time>
      </trkpt>
      <trkpt lat="43.71237" lon="6.74324">
        <ele>974</ele>
        <time>2016-03-20T12:28:56Z</time>
      </trkpt>
      <trkpt lat="43.71233" lon="6.74307">
        <ele>974</ele>
        <time>2016-03-20T12:29:02Z</time>
      </trkpt>
      <trkpt lat="43.71233" lon="6.74294">
        <ele>971</ele>
        <time>2016-03-20T12:29:08Z</time>
      </trkpt>
      <trkpt lat="43.71232" lon="6.74291">
        <ele>972</ele>
        <time>2016-03-20T12:29:23Z</time>
      </trkpt>
      <trkpt lat="43.71235" lon="6.74273">
        <ele>973</ele>
        <time>2016-03-20T12:29:28Z</time>
      </trkpt>
      <trkpt lat="43.71239" lon="6.74265">
        <ele>973</ele>
        <time>2016-03-20T12:29:30Z</time>
      </trkpt>
      <trkpt lat="43.71245" lon="6.74247">
        <ele>970</ele>
        <time>2016-03-20T12:29:36Z</time>
      </trkpt>
      <trkpt lat="43.71246" lon="6.74237">
        <ele>972</ele>
        <time>2016-03-20T12:29:39Z</time>
      </trkpt>
      <trkpt lat="43.71248" lon="6.7422">
        <ele>976</ele>
        <time>2016-03-20T12:29:43Z</time>
      </trkpt>
      <trkpt lat="43.71261" lon="6.74216">
        <ele>976</ele>
        <time>2016-03-20T12:29:48Z</time>
      </trkpt>
      <trkpt lat="43.71267" lon="6.74212">
        <ele>976</ele>
        <time>2016-03-20T12:29:50Z</time>
      </trkpt>
      <trkpt lat="43.7128" lon="6.74203">
        <ele>979</ele>
        <time>2016-03-20T12:29:55Z</time>
      </trkpt>
      <trkpt lat="43.71288" lon="6.74195">
        <ele>978</ele>
        <time>2016-03-20T12:29:59Z</time>
      </trkpt>
      <trkpt lat="43.71297" lon="6.74182">
        <ele>976</ele>
        <time>2016-03-20T12:30:05Z</time>
      </trkpt>
      <trkpt lat="43.71285" lon="6.74174">
        <ele>975</ele>
        <time>2016-03-20T12:30:11Z</time>
      </trkpt>
      <trkpt lat="43.71275" lon="6.7417">
        <ele>971</ele>
        <time>2016-03-20T12:30:16Z</time>
      </trkpt>
      <trkpt lat="43.71263" lon="6.74165">
        <ele>972</ele>
        <time>2016-03-20T12:30:21Z</time>
      </trkpt>
      <trkpt lat="43.71255" lon="6.74151">
        <ele>968</ele>
        <time>2016-03-20T12:30:27Z</time>
      </trkpt>
      <trkpt lat="43.71247" lon="6.74137">
        <ele>963</ele>
        <time>2016-03-20T12:30:33Z</time>
      </trkpt>
      <trkpt lat="43.71237" lon="6.74121">
        <ele>963</ele>
        <time>2016-03-20T12:30:38Z</time>
      </trkpt>
      <trkpt lat="43.71222" lon="6.74107">
        <ele>967</ele>
        <time>2016-03-20T12:30:50Z</time>
      </trkpt>
      <trkpt lat="43.71221" lon="6.74102">
        <ele>967</ele>
        <time>2016-03-20T12:31:31Z</time>
      </trkpt>
      <trkpt lat="43.71216" lon="6.74094">
        <ele>965</ele>
        <time>2016-03-20T12:31:36Z</time>
      </trkpt>
      <trkpt lat="43.7121" lon="6.74074">
        <ele>964</ele>
        <time>2016-03-20T12:31:42Z</time>
      </trkpt>
      <trkpt lat="43.71206" lon="6.74064">
        <ele>963</ele>
        <time>2016-03-20T12:31:48Z</time>
      </trkpt>
      <trkpt lat="43.71195" lon="6.74048">
        <ele>963</ele>
        <time>2016-03-20T12:31:52Z</time>
      </trkpt>
      <trkpt lat="43.71185" lon="6.7403">
        <ele>961</ele>
        <time>2016-03-20T12:31:57Z</time>
      </trkpt>
      <trkpt lat="43.71181" lon="6.74018">
        <ele>961</ele>
        <time>2016-03-20T12:32:03Z</time>
      </trkpt>
      <trkpt lat="43.71181" lon="6.74002">
        <ele>959</ele>
        <time>2016-03-20T12:32:09Z</time>
      </trkpt>
      <trkpt lat="43.71187" lon="6.73991">
        <ele>960</ele>
        <time>2016-03-20T12:32:15Z</time>
      </trkpt>
      <trkpt lat="43.71187" lon="6.73985">
        <ele>960</ele>
        <time>2016-03-20T12:32:17Z</time>
      </trkpt>
      <trkpt lat="43.71184" lon="6.73971">
        <ele>959</ele>
        <time>2016-03-20T12:32:22Z</time>
      </trkpt>
      <trkpt lat="43.71182" lon="6.73968">
        <ele>961</ele>
        <time>2016-03-20T12:32:23Z</time>
      </trkpt>
      <trkpt lat="43.71178" lon="6.73953">
        <ele>964</ele>
        <time>2016-03-20T12:32:29Z</time>
      </trkpt>
      <trkpt lat="43.71178" lon="6.73936">
        <ele>963</ele>
        <time>2016-03-20T12:32:35Z</time>
      </trkpt>
      <trkpt lat="43.71176" lon="6.73932">
        <ele>961</ele>
        <time>2016-03-20T12:32:37Z</time>
      </trkpt>
      <trkpt lat="43.71169" lon="6.73918">
        <ele>962</ele>
        <time>2016-03-20T12:32:43Z</time>
      </trkpt>
      <trkpt lat="43.71163" lon="6.7392">
        <ele>961</ele>
        <time>2016-03-20T12:32:49Z</time>
      </trkpt>
      <trkpt lat="43.71161" lon="6.73926">
        <ele>960</ele>
        <time>2016-03-20T12:32:53Z</time>
      </trkpt>
      <trkpt lat="43.71155" lon="6.73931">
        <ele>961</ele>
        <time>2016-03-20T12:32:58Z</time>
      </trkpt>
      <trkpt lat="43.71152" lon="6.73932">
        <ele>962</ele>
        <time>2016-03-20T12:33:00Z</time>
      </trkpt>
      <trkpt lat="43.71145" lon="6.73935">
        <ele>963</ele>
        <time>2016-03-20T12:33:27Z</time>
      </trkpt>
      <trkpt lat="43.7113" lon="6.73937">
        <ele>963</ele>
        <time>2016-03-20T12:33:32Z</time>
      </trkpt>
      <trkpt lat="43.71107" lon="6.73937">
        <ele>961</ele>
        <time>2016-03-20T12:33:37Z</time>
      </trkpt>
      <trkpt lat="43.71092" lon="6.73936">
        <ele>954</ele>
        <time>2016-03-20T12:33:42Z</time>
      </trkpt>
      <trkpt lat="43.71092" lon="6.73946">
        <ele>954</ele>
        <time>2016-03-20T12:33:44Z</time>
      </trkpt>
      <trkpt lat="43.71097" lon="6.73961">
        <ele>952</ele>
        <time>2016-03-20T12:33:49Z</time>
      </trkpt>
      <trkpt lat="43.71092" lon="6.73975">
        <ele>949</ele>
        <time>2016-03-20T12:33:54Z</time>
      </trkpt>
      <trkpt lat="43.71084" lon="6.73976">
        <ele>947</ele>
        <time>2016-03-20T12:33:56Z</time>
      </trkpt>
      <trkpt lat="43.71089" lon="6.73997">
        <ele>943</ele>
        <time>2016-03-20T12:34:01Z</time>
      </trkpt>
      <trkpt lat="43.71074" lon="6.74013">
        <ele>937</ele>
        <time>2016-03-20T12:34:06Z</time>
      </trkpt>
      <trkpt lat="43.71059" lon="6.7403">
        <ele>935</ele>
        <time>2016-03-20T12:34:11Z</time>
      </trkpt>
      <trkpt lat="43.71038" lon="6.74018">
        <ele>931</ele>
        <time>2016-03-20T12:34:16Z</time>
      </trkpt>
      <trkpt lat="43.71024" lon="6.74014">
        <ele>928</ele>
        <time>2016-03-20T12:34:21Z</time>
      </trkpt>
      <trkpt lat="43.7101" lon="6.74008">
        <ele>928</ele>
        <time>2016-03-20T12:34:26Z</time>
      </trkpt>
      <trkpt lat="43.70999" lon="6.73991">
        <ele>926</ele>
        <time>2016-03-20T12:34:31Z</time>
      </trkpt>
      <trkpt lat="43.70988" lon="6.73981">
        <ele>921</ele>
        <time>2016-03-20T12:34:35Z</time>
      </trkpt>
      <trkpt lat="43.70975" lon="6.73966">
        <ele>921</ele>
        <time>2016-03-20T12:34:40Z</time>
      </trkpt>
      <trkpt lat="43.70962" lon="6.73959">
        <ele>921</ele>
        <time>2016-03-20T12:34:45Z</time>
      </trkpt>
      <trkpt lat="43.7095" lon="6.73961">
        <ele>921</ele>
        <time>2016-03-20T12:34:51Z</time>
      </trkpt>
      <trkpt lat="43.70937" lon="6.73957">
        <ele>919</ele>
        <time>2016-03-20T12:34:57Z</time>
      </trkpt>
      <trkpt lat="43.70926" lon="6.73959">
        <ele>921</ele>
        <time>2016-03-20T12:35:04Z</time>
      </trkpt>
      <trkpt lat="43.70923" lon="6.73955">
        <ele>920</ele>
        <time>2016-03-20T12:35:06Z</time>
      </trkpt>
      <trkpt lat="43.70912" lon="6.73948">
        <ele>922</ele>
        <time>2016-03-20T12:35:12Z</time>
      </trkpt>
      <trkpt lat="43.70904" lon="6.73946">
        <ele>920</ele>
        <time>2016-03-20T12:35:16Z</time>
      </trkpt>
      <trkpt lat="43.70895" lon="6.73938">
        <ele>921</ele>
        <time>2016-03-20T12:35:24Z</time>
      </trkpt>
      <trkpt lat="43.70892" lon="6.73938">
        <ele>924</ele>
        <time>2016-03-20T12:35:36Z</time>
      </trkpt>
      <trkpt lat="43.70893" lon="6.73942">
        <ele>930</ele>
        <time>2016-03-20T12:36:14Z</time>
      </trkpt>
      <trkpt lat="43.70897" lon="6.73941">
        <ele>930</ele>
        <time>2016-03-20T12:36:16Z</time>
      </trkpt>
      <trkpt lat="43.70894" lon="6.73938">
        <ele>931</ele>
        <time>2016-03-20T12:36:30Z</time>
      </trkpt>
      <trkpt lat="43.70891" lon="6.73938">
        <ele>932</ele>
        <time>2016-03-20T12:36:37Z</time>
      </trkpt>
      <trkpt lat="43.70889" lon="6.73935">
        <ele>933</ele>
        <time>2016-03-20T12:38:27Z</time>
      </trkpt>
      <trkpt lat="43.7089" lon="6.73931">
        <ele>930</ele>
        <time>2016-03-20T12:39:41Z</time>
      </trkpt>
      <trkpt lat="43.70894" lon="6.73916">
        <ele>926</ele>
        <time>2016-03-20T12:39:46Z</time>
      </trkpt>
      <trkpt lat="43.709" lon="6.73896">
        <ele>922</ele>
        <time>2016-03-20T12:39:51Z</time>
      </trkpt>
      <trkpt lat="43.70895" lon="6.73892">
        <ele>921</ele>
        <time>2016-03-20T12:39:56Z</time>
      </trkpt>
      <trkpt lat="43.70883" lon="6.73889">
        <ele>921</ele>
        <time>2016-03-20T12:40:01Z</time>
      </trkpt>
      <trkpt lat="43.70878" lon="6.73889">
        <ele>919</ele>
        <time>2016-03-20T12:40:03Z</time>
      </trkpt>
      <trkpt lat="43.70864" lon="6.73891">
        <ele>918</ele>
        <time>2016-03-20T12:40:08Z</time>
      </trkpt>
      <trkpt lat="43.70848" lon="6.73885">
        <ele>922</ele>
        <time>2016-03-20T12:40:14Z</time>
      </trkpt>
      <trkpt lat="43.70842" lon="6.73879">
        <ele>920</ele>
        <time>2016-03-20T12:40:23Z</time>
      </trkpt>
      <trkpt lat="43.70839" lon="6.73879">
        <ele>918</ele>
        <time>2016-03-20T12:40:47Z</time>
      </trkpt>
      <trkpt lat="43.7083" lon="6.73872">
        <ele>921</ele>
        <time>2016-03-20T12:40:52Z</time>
      </trkpt>
      <trkpt lat="43.70819" lon="6.73867">
        <ele>924</ele>
        <time>2016-03-20T12:40:58Z</time>
      </trkpt>
      <trkpt lat="43.70812" lon="6.73866">
        <ele>922</ele>
        <time>2016-03-20T12:41:02Z</time>
      </trkpt>
      <trkpt lat="43.70801" lon="6.73858">
        <ele>921</ele>
        <time>2016-03-20T12:41:08Z</time>
      </trkpt>
      <trkpt lat="43.70795" lon="6.73859">
        <ele>923</ele>
        <time>2016-03-20T12:41:11Z</time>
      </trkpt>
      <trkpt lat="43.70791" lon="6.73857">
        <ele>923</ele>
        <time>2016-03-20T12:41:13Z</time>
      </trkpt>
      <trkpt lat="43.70782" lon="6.73853">
        <ele>922</ele>
        <time>2016-03-20T12:41:19Z</time>
      </trkpt>
      <trkpt lat="43.70774" lon="6.73849">
        <ele>924</ele>
        <time>2016-03-20T12:41:24Z</time>
      </trkpt>
      <trkpt lat="43.70764" lon="6.73842">
        <ele>927</ele>
        <time>2016-03-20T12:41:30Z</time>
      </trkpt>
      <trkpt lat="43.70761" lon="6.7384">
        <ele>928</ele>
        <time>2016-03-20T12:41:32Z</time>
      </trkpt>
      <trkpt lat="43.70751" lon="6.73836">
        <ele>928</ele>
        <time>2016-03-20T12:41:39Z</time>
      </trkpt>
      <trkpt lat="43.70744" lon="6.7383">
        <ele>931</ele>
        <time>2016-03-20T12:41:45Z</time>
      </trkpt>
      <trkpt lat="43.70738" lon="6.73819">
        <ele>931</ele>
        <time>2016-03-20T12:41:52Z</time>
      </trkpt>
      <trkpt lat="43.70732" lon="6.73808">
        <ele>931</ele>
        <time>2016-03-20T12:41:58Z</time>
      </trkpt>
      <trkpt lat="43.70727" lon="6.73798">
        <ele>934</ele>
        <time>2016-03-20T12:42:05Z</time>
      </trkpt>
      <trkpt lat="43.70726" lon="6.73794">
        <ele>933</ele>
        <time>2016-03-20T12:42:17Z</time>
      </trkpt>
      <trkpt lat="43.70721" lon="6.73786">
        <ele>934</ele>
        <time>2016-03-20T12:42:26Z</time>
      </trkpt>
      <trkpt lat="43.70718" lon="6.73776">
        <ele>936</ele>
        <time>2016-03-20T12:42:34Z</time>
      </trkpt>
      <trkpt lat="43.70715" lon="6.73767">
        <ele>936</ele>
        <time>2016-03-20T12:42:41Z</time>
      </trkpt>
      <trkpt lat="43.70717" lon="6.73759">
        <ele>934</ele>
        <time>2016-03-20T12:42:50Z</time>
      </trkpt>
      <trkpt lat="43.70716" lon="6.7375">
        <ele>932</ele>
        <time>2016-03-20T12:42:57Z</time>
      </trkpt>
      <trkpt lat="43.70712" lon="6.73736">
        <ele>933</ele>
        <time>2016-03-20T12:43:03Z</time>
      </trkpt>
      <trkpt lat="43.70709" lon="6.73737">
        <ele>935</ele>
        <time>2016-03-20T12:43:08Z</time>
      </trkpt>
      <trkpt lat="43.70707" lon="6.73734">
        <ele>937</ele>
        <time>2016-03-20T12:43:54Z</time>
      </trkpt>
      <trkpt lat="43.70699" lon="6.73719">
        <ele>936</ele>
        <time>2016-03-20T12:43:59Z</time>
      </trkpt>
      <trkpt lat="43.7069" lon="6.737">
        <ele>934</ele>
        <time>2016-03-20T12:44:04Z</time>
      </trkpt>
      <trkpt lat="43.70683" lon="6.73683">
        <ele>934</ele>
        <time>2016-03-20T12:44:09Z</time>
      </trkpt>
      <trkpt lat="43.70676" lon="6.73668">
        <ele>936</ele>
        <time>2016-03-20T12:44:15Z</time>
      </trkpt>
      <trkpt lat="43.70671" lon="6.73654">
        <ele>937</ele>
        <time>2016-03-20T12:44:21Z</time>
      </trkpt>
      <trkpt lat="43.70666" lon="6.73634">
        <ele>934</ele>
        <time>2016-03-20T12:44:26Z</time>
      </trkpt>
      <trkpt lat="43.70658" lon="6.73609">
        <ele>931</ele>
        <time>2016-03-20T12:44:31Z</time>
      </trkpt>
      <trkpt lat="43.70652" lon="6.73585">
        <ele>931</ele>
        <time>2016-03-20T12:44:36Z</time>
      </trkpt>
      <trkpt lat="43.70649" lon="6.73582">
        <ele>932</ele>
        <time>2016-03-20T12:44:37Z</time>
      </trkpt>
      <trkpt lat="43.70642" lon="6.73568">
        <ele>932</ele>
        <time>2016-03-20T12:44:42Z</time>
      </trkpt>
      <trkpt lat="43.70633" lon="6.73551">
        <ele>932</ele>
        <time>2016-03-20T12:44:48Z</time>
      </trkpt>
      <trkpt lat="43.70623" lon="6.73537">
        <ele>930</ele>
        <time>2016-03-20T12:44:54Z</time>
      </trkpt>
      <trkpt lat="43.70616" lon="6.73524">
        <ele>932</ele>
        <time>2016-03-20T12:45:00Z</time>
      </trkpt>
      <trkpt lat="43.70609" lon="6.73513">
        <ele>932</ele>
        <time>2016-03-20T12:45:06Z</time>
      </trkpt>
      <trkpt lat="43.70599" lon="6.73507">
        <ele>934</ele>
        <time>2016-03-20T12:45:12Z</time>
      </trkpt>
      <trkpt lat="43.70587" lon="6.73505">
        <ele>933</ele>
        <time>2016-03-20T12:45:18Z</time>
      </trkpt>
      <trkpt lat="43.70577" lon="6.73502">
        <ele>934</ele>
        <time>2016-03-20T12:45:24Z</time>
      </trkpt>
      <trkpt lat="43.70567" lon="6.73499">
        <ele>935</ele>
        <time>2016-03-20T12:45:30Z</time>
      </trkpt>
      <trkpt lat="43.7056" lon="6.73497">
        <ele>935</ele>
        <time>2016-03-20T12:45:35Z</time>
      </trkpt>
      <trkpt lat="43.7055" lon="6.73493">
        <ele>937</ele>
        <time>2016-03-20T12:45:41Z</time>
      </trkpt>
      <trkpt lat="43.70542" lon="6.73486">
        <ele>939</ele>
        <time>2016-03-20T12:45:46Z</time>
      </trkpt>
      <trkpt lat="43.70534" lon="6.7348">
        <ele>942</ele>
        <time>2016-03-20T12:45:52Z</time>
      </trkpt>
      <trkpt lat="43.70527" lon="6.73473">
        <ele>945</ele>
        <time>2016-03-20T12:45:57Z</time>
      </trkpt>
      <trkpt lat="43.70521" lon="6.73468">
        <ele>945</ele>
        <time>2016-03-20T12:46:03Z</time>
      </trkpt>
      <trkpt lat="43.70514" lon="6.73464">
        <ele>945</ele>
        <time>2016-03-20T12:46:08Z</time>
      </trkpt>
      <trkpt lat="43.70508" lon="6.73463">
        <ele>946</ele>
        <time>2016-03-20T12:46:13Z</time>
      </trkpt>
      <trkpt lat="43.70502" lon="6.73461">
        <ele>945</ele>
        <time>2016-03-20T12:46:18Z</time>
      </trkpt>
      <trkpt lat="43.70495" lon="6.73459">
        <ele>946</ele>
        <time>2016-03-20T12:46:25Z</time>
      </trkpt>
      <trkpt lat="43.70489" lon="6.73456">
        <ele>948</ele>
        <time>2016-03-20T12:46:30Z</time>
      </trkpt>
      <trkpt lat="43.70482" lon="6.73453">
        <ele>943</ele>
        <time>2016-03-20T12:46:35Z</time>
      </trkpt>
      <trkpt lat="43.70475" lon="6.73449">
        <ele>945</ele>
        <time>2016-03-20T12:46:41Z</time>
      </trkpt>
      <trkpt lat="43.70466" lon="6.73446">
        <ele>949</ele>
        <time>2016-03-20T12:46:47Z</time>
      </trkpt>
      <trkpt lat="43.70455" lon="6.73442">
        <ele>951</ele>
        <time>2016-03-20T12:46:53Z</time>
      </trkpt>
      <trkpt lat="43.70451" lon="6.73443">
        <ele>954</ele>
        <time>2016-03-20T12:46:56Z</time>
      </trkpt>
      <trkpt lat="43.70447" lon="6.73436">
        <ele>952</ele>
        <time>2016-03-20T12:47:01Z</time>
      </trkpt>
      <trkpt lat="43.70437" lon="6.73437">
        <ele>953</ele>
        <time>2016-03-20T12:47:11Z</time>
      </trkpt>
      <trkpt lat="43.7043" lon="6.73435">
        <ele>953</ele>
        <time>2016-03-20T12:47:17Z</time>
      </trkpt>
      <trkpt lat="43.70423" lon="6.73432">
        <ele>957</ele>
        <time>2016-03-20T12:47:22Z</time>
      </trkpt>
      <trkpt lat="43.70416" lon="6.7343">
        <ele>956</ele>
        <time>2016-03-20T12:47:27Z</time>
      </trkpt>
      <trkpt lat="43.70402" lon="6.73429">
        <ele>957</ele>
        <time>2016-03-20T12:47:33Z</time>
      </trkpt>
      <trkpt lat="43.70393" lon="6.73429">
        <ele>957</ele>
        <time>2016-03-20T12:47:39Z</time>
      </trkpt>
      <trkpt lat="43.70384" lon="6.73425">
        <ele>957</ele>
        <time>2016-03-20T12:47:45Z</time>
      </trkpt>
      <trkpt lat="43.70381" lon="6.73425">
        <ele>959</ele>
        <time>2016-03-20T12:47:47Z</time>
      </trkpt>
      <trkpt lat="43.70373" lon="6.73421">
        <ele>960</ele>
        <time>2016-03-20T12:47:52Z</time>
      </trkpt>
      <trkpt lat="43.70368" lon="6.73415">
        <ele>957</ele>
        <time>2016-03-20T12:47:57Z</time>
      </trkpt>
      <trkpt lat="43.70363" lon="6.7341">
        <ele>957</ele>
        <time>2016-03-20T12:48:02Z</time>
      </trkpt>
      <trkpt lat="43.70357" lon="6.734">
        <ele>959</ele>
        <time>2016-03-20T12:48:08Z</time>
      </trkpt>
      <trkpt lat="43.70352" lon="6.73393">
        <ele>959</ele>
        <time>2016-03-20T12:48:13Z</time>
      </trkpt>
      <trkpt lat="43.70347" lon="6.73387">
        <ele>960</ele>
        <time>2016-03-20T12:48:16Z</time>
      </trkpt>
      <trkpt lat="43.70343" lon="6.73378">
        <ele>959</ele>
        <time>2016-03-20T12:48:36Z</time>
      </trkpt>
      <trkpt lat="43.70339" lon="6.73376">
        <ele>963</ele>
        <time>2016-03-20T12:51:48Z</time>
      </trkpt>
      <trkpt lat="43.70334" lon="6.73362">
        <ele>964</ele>
        <time>2016-03-20T12:51:54Z</time>
      </trkpt>
      <trkpt lat="43.70326" lon="6.73348">
        <ele>964</ele>
        <time>2016-03-20T12:51:59Z</time>
      </trkpt>
      <trkpt lat="43.70321" lon="6.73338">
        <ele>961</ele>
        <time>2016-03-20T12:52:04Z</time>
      </trkpt>
      <trkpt lat="43.70315" lon="6.73323">
        <ele>963</ele>
        <time>2016-03-20T12:52:09Z</time>
      </trkpt>
      <trkpt lat="43.70304" lon="6.73305">
        <ele>963</ele>
        <time>2016-03-20T12:52:15Z</time>
      </trkpt>
      <trkpt lat="43.70297" lon="6.73291">
        <ele>965</ele>
        <time>2016-03-20T12:52:20Z</time>
      </trkpt>
      <trkpt lat="43.70289" lon="6.73274">
        <ele>962</ele>
        <time>2016-03-20T12:52:26Z</time>
      </trkpt>
      <trkpt lat="43.70279" lon="6.73256">
        <ele>962</ele>
        <time>2016-03-20T12:52:31Z</time>
      </trkpt>
      <trkpt lat="43.70276" lon="6.73249">
        <ele>962</ele>
        <time>2016-03-20T12:52:33Z</time>
      </trkpt>
      <trkpt lat="43.70268" lon="6.73229">
        <ele>959</ele>
        <time>2016-03-20T12:52:39Z</time>
      </trkpt>
      <trkpt lat="43.70267" lon="6.73224">
        <ele>959</ele>
        <time>2016-03-20T12:52:40Z</time>
      </trkpt>
      <trkpt lat="43.70255" lon="6.73209">
        <ele>959</ele>
        <time>2016-03-20T12:52:45Z</time>
      </trkpt>
      <trkpt lat="43.70246" lon="6.73182">
        <ele>954</ele>
        <time>2016-03-20T12:52:51Z</time>
      </trkpt>
      <trkpt lat="43.70242" lon="6.7316">
        <ele>953</ele>
        <time>2016-03-20T12:52:57Z</time>
      </trkpt>
      <trkpt lat="43.7024" lon="6.73155">
        <ele>954</ele>
        <time>2016-03-20T12:52:58Z</time>
      </trkpt>
      <trkpt lat="43.7023" lon="6.73149">
        <ele>952</ele>
        <time>2016-03-20T12:53:03Z</time>
      </trkpt>
      <trkpt lat="43.70226" lon="6.73149">
        <ele>953</ele>
        <time>2016-03-20T12:53:04Z</time>
      </trkpt>
      <trkpt lat="43.70214" lon="6.73142">
        <ele>951</ele>
        <time>2016-03-20T12:53:10Z</time>
      </trkpt>
      <trkpt lat="43.702" lon="6.73129">
        <ele>945</ele>
        <time>2016-03-20T12:53:15Z</time>
      </trkpt>
      <trkpt lat="43.70183" lon="6.73122">
        <ele>946</ele>
        <time>2016-03-20T12:53:20Z</time>
      </trkpt>
      <trkpt lat="43.70179" lon="6.7312">
        <ele>946</ele>
        <time>2016-03-20T12:53:21Z</time>
      </trkpt>
      <trkpt lat="43.70158" lon="6.73106">
        <ele>942</ele>
        <time>2016-03-20T12:53:26Z</time>
      </trkpt>
      <trkpt lat="43.70153" lon="6.73101">
        <ele>942</ele>
        <time>2016-03-20T12:53:27Z</time>
      </trkpt>
      <trkpt lat="43.70136" lon="6.73084">
        <ele>940</ele>
        <time>2016-03-20T12:53:32Z</time>
      </trkpt>
      <trkpt lat="43.70125" lon="6.73057">
        <ele>934</ele>
        <time>2016-03-20T12:53:38Z</time>
      </trkpt>
      <trkpt lat="43.7011" lon="6.73031">
        <ele>930</ele>
        <time>2016-03-20T12:53:43Z</time>
      </trkpt>
      <trkpt lat="43.70098" lon="6.73002">
        <ele>928</ele>
        <time>2016-03-20T12:53:48Z</time>
      </trkpt>
      <trkpt lat="43.70081" lon="6.72978">
        <ele>924</ele>
        <time>2016-03-20T12:53:53Z</time>
      </trkpt>
      <trkpt lat="43.70065" lon="6.72956">
        <ele>919</ele>
        <time>2016-03-20T12:53:58Z</time>
      </trkpt>
      <trkpt lat="43.70063" lon="6.72949">
        <ele>915</ele>
        <time>2016-03-20T12:53:59Z</time>
      </trkpt>
      <trkpt lat="43.70046" lon="6.72922">
        <ele>915</ele>
        <time>2016-03-20T12:54:04Z</time>
      </trkpt>
      <trkpt lat="43.70041" lon="6.72912">
        <ele>918</ele>
        <time>2016-03-20T12:54:06Z</time>
      </trkpt>
      <trkpt lat="43.70033" lon="6.72901">
        <ele>919</ele>
        <time>2016-03-20T12:54:09Z</time>
      </trkpt>
      <trkpt lat="43.70019" lon="6.72881">
        <ele>919</ele>
        <time>2016-03-20T12:54:13Z</time>
      </trkpt>
      <trkpt lat="43.7001" lon="6.7286">
        <ele>917</ele>
        <time>2016-03-20T12:54:18Z</time>
      </trkpt>
      <trkpt lat="43.69997" lon="6.72845">
        <ele>915</ele>
        <time>2016-03-20T12:54:22Z</time>
      </trkpt>
      <trkpt lat="43.69981" lon="6.72837">
        <ele>914</ele>
        <time>2016-03-20T12:54:27Z</time>
      </trkpt>
      <trkpt lat="43.69958" lon="6.72835">
        <ele>916</ele>
        <time>2016-03-20T12:54:32Z</time>
      </trkpt>
      <trkpt lat="43.69946" lon="6.72827">
        <ele>914</ele>
        <time>2016-03-20T12:54:37Z</time>
      </trkpt>
      <trkpt lat="43.6993" lon="6.7282">
        <ele>910</ele>
        <time>2016-03-20T12:54:42Z</time>
      </trkpt>
      <trkpt lat="43.69911" lon="6.72815">
        <ele>907</ele>
        <time>2016-03-20T12:54:47Z</time>
      </trkpt>
      <trkpt lat="43.6989" lon="6.72808">
        <ele>906</ele>
        <time>2016-03-20T12:54:52Z</time>
      </trkpt>
      <trkpt lat="43.69887" lon="6.72809">
        <ele>906</ele>
        <time>2016-03-20T12:54:53Z</time>
      </trkpt>
      <trkpt lat="43.69867" lon="6.72809">
        <ele>909</ele>
        <time>2016-03-20T12:54:58Z</time>
      </trkpt>
      <trkpt lat="43.69855" lon="6.72806">
        <ele>908</ele>
        <time>2016-03-20T12:55:03Z</time>
      </trkpt>
      <trkpt lat="43.69845" lon="6.72811">
        <ele>900</ele>
        <time>2016-03-20T12:55:08Z</time>
      </trkpt>
      <trkpt lat="43.69834" lon="6.72819">
        <ele>898</ele>
        <time>2016-03-20T12:55:14Z</time>
      </trkpt>
      <trkpt lat="43.69831" lon="6.72819">
        <ele>895</ele>
        <time>2016-03-20T12:55:20Z</time>
      </trkpt>
      <trkpt lat="43.69828" lon="6.72819">
        <ele>896</ele>
        <time>2016-03-20T12:56:14Z</time>
      </trkpt>
      <trkpt lat="43.69825" lon="6.72818">
        <ele>896</ele>
        <time>2016-03-20T12:56:27Z</time>
      </trkpt>
      <trkpt lat="43.69813" lon="6.72808">
        <ele>897</ele>
        <time>2016-03-20T12:56:32Z</time>
      </trkpt>
      <trkpt lat="43.698" lon="6.7279">
        <ele>896</ele>
        <time>2016-03-20T12:56:37Z</time>
      </trkpt>
      <trkpt lat="43.69791" lon="6.72772">
        <ele>896</ele>
        <time>2016-03-20T12:56:42Z</time>
      </trkpt>
      <trkpt lat="43.69777" lon="6.72755">
        <ele>895</ele>
        <time>2016-03-20T12:56:48Z</time>
      </trkpt>
      <trkpt lat="43.69771" lon="6.72749">
        <ele>895</ele>
        <time>2016-03-20T12:56:50Z</time>
      </trkpt>
      <trkpt lat="43.69755" lon="6.72726">
        <ele>895</ele>
        <time>2016-03-20T12:56:55Z</time>
      </trkpt>
      <trkpt lat="43.69746" lon="6.72699">
        <ele>894</ele>
        <time>2016-03-20T12:57:00Z</time>
      </trkpt>
      <trkpt lat="43.69744" lon="6.72694">
        <ele>895</ele>
        <time>2016-03-20T12:57:01Z</time>
      </trkpt>
      <trkpt lat="43.69734" lon="6.72674">
        <ele>891</ele>
        <time>2016-03-20T12:57:06Z</time>
      </trkpt>
      <trkpt lat="43.69727" lon="6.72655">
        <ele>893</ele>
        <time>2016-03-20T12:57:11Z</time>
      </trkpt>
      <trkpt lat="43.69717" lon="6.72632">
        <ele>892</ele>
        <time>2016-03-20T12:57:16Z</time>
      </trkpt>
      <trkpt lat="43.69711" lon="6.72618">
        <ele>890</ele>
        <time>2016-03-20T12:57:19Z</time>
      </trkpt>
      <trkpt lat="43.69707" lon="6.72592">
        <ele>896</ele>
        <time>2016-03-20T12:57:24Z</time>
      </trkpt>
      <trkpt lat="43.69702" lon="6.72578">
        <ele>897</ele>
        <time>2016-03-20T12:57:29Z</time>
      </trkpt>
      <trkpt lat="43.69696" lon="6.72561">
        <ele>898</ele>
        <time>2016-03-20T12:57:35Z</time>
      </trkpt>
      <trkpt lat="43.69695" lon="6.72539">
        <ele>899</ele>
        <time>2016-03-20T12:57:40Z</time>
      </trkpt>
      <trkpt lat="43.69695" lon="6.72515">
        <ele>900</ele>
        <time>2016-03-20T12:57:45Z</time>
      </trkpt>
      <trkpt lat="43.69696" lon="6.72491">
        <ele>898</ele>
        <time>2016-03-20T12:57:50Z</time>
      </trkpt>
      <trkpt lat="43.69683" lon="6.72467">
        <ele>895</ele>
        <time>2016-03-20T12:57:55Z</time>
      </trkpt>
      <trkpt lat="43.69663" lon="6.72454">
        <ele>894</ele>
        <time>2016-03-20T12:58:00Z</time>
      </trkpt>
      <trkpt lat="43.69647" lon="6.72469">
        <ele>895</ele>
        <time>2016-03-20T12:58:05Z</time>
      </trkpt>
      <trkpt lat="43.6964" lon="6.72481">
        <ele>896</ele>
        <time>2016-03-20T12:58:10Z</time>
      </trkpt>
      <trkpt lat="43.69621" lon="6.72505">
        <ele>892</ele>
        <time>2016-03-20T12:58:15Z</time>
      </trkpt>
      <trkpt lat="43.69607" lon="6.72531">
        <ele>889</ele>
        <time>2016-03-20T12:58:20Z</time>
      </trkpt>
      <trkpt lat="43.69586" lon="6.72557">
        <ele>884</ele>
        <time>2016-03-20T12:58:25Z</time>
      </trkpt>
      <trkpt lat="43.69556" lon="6.72583">
        <ele>879</ele>
        <time>2016-03-20T12:58:30Z</time>
      </trkpt>
      <trkpt lat="43.69542" lon="6.72605">
        <ele>878</ele>
        <time>2016-03-20T12:58:35Z</time>
      </trkpt>
      <trkpt lat="43.6955" lon="6.72621">
        <ele>878</ele>
        <time>2016-03-20T12:58:40Z</time>
      </trkpt>
      <trkpt lat="43.69555" lon="6.72636">
        <ele>878</ele>
        <time>2016-03-20T12:58:46Z</time>
      </trkpt>
      <trkpt lat="43.69553" lon="6.72629">
        <ele>875</ele>
        <time>2016-03-20T12:59:17Z</time>
      </trkpt>
      <trkpt lat="43.69548" lon="6.7262">
        <ele>874</ele>
        <time>2016-03-20T12:59:23Z</time>
      </trkpt>
      <trkpt lat="43.69543" lon="6.72607">
        <ele>876</ele>
        <time>2016-03-20T12:59:30Z</time>
      </trkpt>
      <trkpt lat="43.6954" lon="6.72601">
        <ele>879</ele>
        <time>2016-03-20T12:59:35Z</time>
      </trkpt>
      <trkpt lat="43.69541" lon="6.72604">
        <ele>877</ele>
        <time>2016-03-20T13:00:40Z</time>
      </trkpt>
      <trkpt lat="43.69545" lon="6.7261">
        <ele>877</ele>
        <time>2016-03-20T13:00:54Z</time>
      </trkpt>
      <trkpt lat="43.69547" lon="6.72613">
        <ele>878</ele>
        <time>2016-03-20T13:01:04Z</time>
      </trkpt>
      <trkpt lat="43.69552" lon="6.72621">
        <ele>879</ele>
        <time>2016-03-20T13:01:09Z</time>
      </trkpt>
      <trkpt lat="43.69555" lon="6.72629">
        <ele>878</ele>
        <time>2016-03-20T13:01:14Z</time>
      </trkpt>
      <trkpt lat="43.69554" lon="6.72637">
        <ele>880</ele>
        <time>2016-03-20T13:01:20Z</time>
      </trkpt>
      <trkpt lat="43.69553" lon="6.72646">
        <ele>882</ele>
        <time>2016-03-20T13:02:18Z</time>
      </trkpt>
      <trkpt lat="43.69553" lon="6.72656">
        <ele>883</ele>
        <time>2016-03-20T13:02:23Z</time>
      </trkpt>
      <trkpt lat="43.69554" lon="6.72671">
        <ele>883</ele>
        <time>2016-03-20T13:02:28Z</time>
      </trkpt>
      <trkpt lat="43.69546" lon="6.72692">
        <ele>880</ele>
        <time>2016-03-20T13:02:33Z</time>
      </trkpt>
      <trkpt lat="43.69529" lon="6.72706">
        <ele>878</ele>
        <time>2016-03-20T13:02:38Z</time>
      </trkpt>
      <trkpt lat="43.69513" lon="6.72718">
        <ele>876</ele>
        <time>2016-03-20T13:02:43Z</time>
      </trkpt>
      <trkpt lat="43.69498" lon="6.72732">
        <ele>874</ele>
        <time>2016-03-20T13:02:48Z</time>
      </trkpt>
      <trkpt lat="43.69477" lon="6.72748">
        <ele>872</ele>
        <time>2016-03-20T13:02:53Z</time>
      </trkpt>
      <trkpt lat="43.69454" lon="6.72764">
        <ele>870</ele>
        <time>2016-03-20T13:02:58Z</time>
      </trkpt>
      <trkpt lat="43.69432" lon="6.72777">
        <ele>870</ele>
        <time>2016-03-20T13:03:03Z</time>
      </trkpt>
      <trkpt lat="43.69409" lon="6.72786">
        <ele>865</ele>
        <time>2016-03-20T13:03:08Z</time>
      </trkpt>
      <trkpt lat="43.69387" lon="6.72787">
        <ele>866</ele>
        <time>2016-03-20T13:03:13Z</time>
      </trkpt>
      <trkpt lat="43.69383" lon="6.72792">
        <ele>866</ele>
        <time>2016-03-20T13:03:14Z</time>
      </trkpt>
      <trkpt lat="43.69369" lon="6.72803">
        <ele>863</ele>
        <time>2016-03-20T13:03:19Z</time>
      </trkpt>
      <trkpt lat="43.69356" lon="6.72818">
        <ele>862</ele>
        <time>2016-03-20T13:03:24Z</time>
      </trkpt>
      <trkpt lat="43.69355" lon="6.72847">
        <ele>865</ele>
        <time>2016-03-20T13:03:29Z</time>
      </trkpt>
      <trkpt lat="43.69356" lon="6.72881">
        <ele>867</ele>
        <time>2016-03-20T13:03:34Z</time>
      </trkpt>
      <trkpt lat="43.69353" lon="6.72907">
        <ele>863</ele>
        <time>2016-03-20T13:03:39Z</time>
      </trkpt>
      <trkpt lat="43.69344" lon="6.72933">
        <ele>864</ele>
        <time>2016-03-20T13:03:44Z</time>
      </trkpt>
      <trkpt lat="43.69335" lon="6.72956">
        <ele>865</ele>
        <time>2016-03-20T13:03:49Z</time>
      </trkpt>
      <trkpt lat="43.69323" lon="6.7298">
        <ele>865</ele>
        <time>2016-03-20T13:03:54Z</time>
      </trkpt>
      <trkpt lat="43.69308" lon="6.73002">
        <ele>866</ele>
        <time>2016-03-20T13:03:59Z</time>
      </trkpt>
      <trkpt lat="43.69292" lon="6.73013">
        <ele>864</ele>
        <time>2016-03-20T13:04:04Z</time>
      </trkpt>
      <trkpt lat="43.69271" lon="6.73015">
        <ele>863</ele>
        <time>2016-03-20T13:04:09Z</time>
      </trkpt>
      <trkpt lat="43.69255" lon="6.73033">
        <ele>861</ele>
        <time>2016-03-20T13:04:14Z</time>
      </trkpt>
      <trkpt lat="43.69247" lon="6.73059">
        <ele>862</ele>
        <time>2016-03-20T13:04:19Z</time>
      </trkpt>
      <trkpt lat="43.69242" lon="6.73086">
        <ele>861</ele>
        <time>2016-03-20T13:04:24Z</time>
      </trkpt>
      <trkpt lat="43.69238" lon="6.73114">
        <ele>859</ele>
        <time>2016-03-20T13:04:29Z</time>
      </trkpt>
      <trkpt lat="43.69218" lon="6.73129">
        <ele>857</ele>
        <time>2016-03-20T13:04:34Z</time>
      </trkpt>
      <trkpt lat="43.69188" lon="6.73124">
        <ele>852</ele>
        <time>2016-03-20T13:04:39Z</time>
      </trkpt>
      <trkpt lat="43.69166" lon="6.73136">
        <ele>846</ele>
        <time>2016-03-20T13:04:44Z</time>
      </trkpt>
      <trkpt lat="43.69144" lon="6.7315">
        <ele>841</ele>
        <time>2016-03-20T13:04:49Z</time>
      </trkpt>
      <trkpt lat="43.69138" lon="6.73156">
        <ele>840</ele>
        <time>2016-03-20T13:05:34Z</time>
      </trkpt>
      <trkpt lat="43.6913" lon="6.73187">
        <ele>837</ele>
        <time>2016-03-20T13:05:39Z</time>
      </trkpt>
      <trkpt lat="43.6912" lon="6.73199">
        <ele>833</ele>
        <time>2016-03-20T13:05:44Z</time>
      </trkpt>
      <trkpt lat="43.69111" lon="6.73212">
        <ele>832</ele>
        <time>2016-03-20T13:05:49Z</time>
      </trkpt>
      <trkpt lat="43.69105" lon="6.73248">
        <ele>827</ele>
        <time>2016-03-20T13:05:54Z</time>
      </trkpt>
      <trkpt lat="43.69101" lon="6.7329">
        <ele>828</ele>
        <time>2016-03-20T13:05:59Z</time>
      </trkpt>
      <trkpt lat="43.69098" lon="6.73327">
        <ele>820</ele>
        <time>2016-03-20T13:06:04Z</time>
      </trkpt>
      <trkpt lat="43.69095" lon="6.73353">
        <ele>818</ele>
        <time>2016-03-20T13:06:07Z</time>
      </trkpt>
      <trkpt lat="43.69085" lon="6.73397">
        <ele>813</ele>
        <time>2016-03-20T13:06:12Z</time>
      </trkpt>
      <trkpt lat="43.69066" lon="6.73408">
        <ele>810</ele>
        <time>2016-03-20T13:06:17Z</time>
      </trkpt>
      <trkpt lat="43.69063" lon="6.73407">
        <ele>810</ele>
        <time>2016-03-20T13:06:18Z</time>
      </trkpt>
      <trkpt lat="43.69052" lon="6.73424">
        <ele>810</ele>
        <time>2016-03-20T13:06:23Z</time>
      </trkpt>
      <trkpt lat="43.69045" lon="6.73431">
        <ele>814</ele>
        <time>2016-03-20T13:06:39Z</time>
      </trkpt>
      <trkpt lat="43.69048" lon="6.7343">
        <ele>818</ele>
        <time>2016-03-20T13:08:08Z</time>
      </trkpt>
      <trkpt lat="43.69057" lon="6.73434">
        <ele>817</ele>
        <time>2016-03-20T13:08:13Z</time>
      </trkpt>
      <trkpt lat="43.69068" lon="6.73443">
        <ele>818</ele>
        <time>2016-03-20T13:08:18Z</time>
      </trkpt>
      <trkpt lat="43.6908" lon="6.73459">
        <ele>820</ele>
        <time>2016-03-20T13:08:24Z</time>
      </trkpt>
      <trkpt lat="43.69084" lon="6.73475">
        <ele>822</ele>
        <time>2016-03-20T13:08:29Z</time>
      </trkpt>
      <trkpt lat="43.69084" lon="6.73492">
        <ele>822</ele>
        <time>2016-03-20T13:08:35Z</time>
      </trkpt>
      <trkpt lat="43.69078" lon="6.73504">
        <ele>821</ele>
        <time>2016-03-20T13:08:41Z</time>
      </trkpt>
      <trkpt lat="43.69074" lon="6.73524">
        <ele>821</ele>
        <time>2016-03-20T13:08:46Z</time>
      </trkpt>
      <trkpt lat="43.69073" lon="6.73548">
        <ele>821</ele>
        <time>2016-03-20T13:08:51Z</time>
      </trkpt>
      <trkpt lat="43.69076" lon="6.73577">
        <ele>819</ele>
        <time>2016-03-20T13:08:56Z</time>
      </trkpt>
      <trkpt lat="43.69075" lon="6.736">
        <ele>821</ele>
        <time>2016-03-20T13:09:01Z</time>
      </trkpt>
      <trkpt lat="43.69075" lon="6.73612">
        <ele>819</ele>
        <time>2016-03-20T13:09:15Z</time>
      </trkpt>
      <trkpt lat="43.69074" lon="6.73608">
        <ele>815</ele>
        <time>2016-03-20T13:10:12Z</time>
      </trkpt>
      <trkpt lat="43.69071" lon="6.73605">
        <ele>816</ele>
        <time>2016-03-20T13:10:30Z</time>
      </trkpt>
      <trkpt lat="43.69066" lon="6.73613">
        <ele>812</ele>
        <time>2016-03-20T13:10:35Z</time>
      </trkpt>
      <trkpt lat="43.69056" lon="6.73619">
        <ele>810</ele>
        <time>2016-03-20T13:10:41Z</time>
      </trkpt>
      <trkpt lat="43.69042" lon="6.73609">
        <ele>808</ele>
        <time>2016-03-20T13:10:46Z</time>
      </trkpt>
      <trkpt lat="43.69025" lon="6.73595">
        <ele>807</ele>
        <time>2016-03-20T13:10:51Z</time>
      </trkpt>
      <trkpt lat="43.69011" lon="6.7358">
        <ele>805</ele>
        <time>2016-03-20T13:10:56Z</time>
      </trkpt>
      <trkpt lat="43.68996" lon="6.73566">
        <ele>802</ele>
        <time>2016-03-20T13:11:01Z</time>
      </trkpt>
      <trkpt lat="43.68978" lon="6.73557">
        <ele>799</ele>
        <time>2016-03-20T13:11:06Z</time>
      </trkpt>
      <trkpt lat="43.68964" lon="6.73565">
        <ele>799</ele>
        <time>2016-03-20T13:11:11Z</time>
      </trkpt>
      <trkpt lat="43.68951" lon="6.73581">
        <ele>797</ele>
        <time>2016-03-20T13:11:17Z</time>
      </trkpt>
      <trkpt lat="43.68945" lon="6.73588">
        <ele>797</ele>
        <time>2016-03-20T13:11:23Z</time>
      </trkpt>
      <trkpt lat="43.68941" lon="6.73587">
        <ele>797</ele>
        <time>2016-03-20T13:11:34Z</time>
      </trkpt>
      <trkpt lat="43.68931" lon="6.73586">
        <ele>799</ele>
        <time>2016-03-20T13:11:40Z</time>
      </trkpt>
      <trkpt lat="43.68929" lon="6.73583">
        <ele>798</ele>
        <time>2016-03-20T13:11:47Z</time>
      </trkpt>
      <trkpt lat="43.68926" lon="6.73586">
        <ele>796</ele>
        <time>2016-03-20T13:12:17Z</time>
      </trkpt>
      <trkpt lat="43.68917" lon="6.73587">
        <ele>792</ele>
        <time>2016-03-20T13:12:23Z</time>
      </trkpt>
      <trkpt lat="43.689" lon="6.73599">
        <ele>789</ele>
        <time>2016-03-20T13:12:28Z</time>
      </trkpt>
      <trkpt lat="43.68894" lon="6.73602">
        <ele>789</ele>
        <time>2016-03-20T13:12:30Z</time>
      </trkpt>
      <trkpt lat="43.68885" lon="6.73617">
        <ele>787</ele>
        <time>2016-03-20T13:12:35Z</time>
      </trkpt>
      <trkpt lat="43.68883" lon="6.73634">
        <ele>787</ele>
        <time>2016-03-20T13:12:40Z</time>
      </trkpt>
      <trkpt lat="43.68876" lon="6.73646">
        <ele>787</ele>
        <time>2016-03-20T13:12:46Z</time>
      </trkpt>
      <trkpt lat="43.68865" lon="6.73652">
        <ele>784</ele>
        <time>2016-03-20T13:12:52Z</time>
      </trkpt>
      <trkpt lat="43.68856" lon="6.73664">
        <ele>781</ele>
        <time>2016-03-20T13:12:58Z</time>
      </trkpt>
      <trkpt lat="43.68851" lon="6.73667">
        <ele>783</ele>
        <time>2016-03-20T13:13:08Z</time>
      </trkpt>
      <trkpt lat="43.68849" lon="6.73671">
        <ele>784</ele>
        <time>2016-03-20T13:13:18Z</time>
      </trkpt>
      <trkpt lat="43.68842" lon="6.73688">
        <ele>780</ele>
        <time>2016-03-20T13:13:23Z</time>
      </trkpt>
      <trkpt lat="43.68833" lon="6.73709">
        <ele>773</ele>
        <time>2016-03-20T13:13:28Z</time>
      </trkpt>
      <trkpt lat="43.68829" lon="6.73738">
        <ele>773</ele>
        <time>2016-03-20T13:13:33Z</time>
      </trkpt>
      <trkpt lat="43.68822" lon="6.73763">
        <ele>771</ele>
        <time>2016-03-20T13:13:39Z</time>
      </trkpt>
      <trkpt lat="43.68821" lon="6.73773">
        <ele>770</ele>
        <time>2016-03-20T13:13:41Z</time>
      </trkpt>
      <trkpt lat="43.68815" lon="6.73798">
        <ele>772</ele>
        <time>2016-03-20T13:13:46Z</time>
      </trkpt>
      <trkpt lat="43.68816" lon="6.73807">
        <ele>771</ele>
        <time>2016-03-20T13:13:48Z</time>
      </trkpt>
      <trkpt lat="43.68817" lon="6.73833">
        <ele>766</ele>
        <time>2016-03-20T13:13:53Z</time>
      </trkpt>
      <trkpt lat="43.68813" lon="6.73855">
        <ele>761</ele>
        <time>2016-03-20T13:13:59Z</time>
      </trkpt>
      <trkpt lat="43.68813" lon="6.73867">
        <ele>762</ele>
        <time>2016-03-20T13:14:01Z</time>
      </trkpt>
      <trkpt lat="43.68812" lon="6.73887">
        <ele>756</ele>
        <time>2016-03-20T13:14:07Z</time>
      </trkpt>
      <trkpt lat="43.6881" lon="6.73896">
        <ele>758</ele>
        <time>2016-03-20T13:14:31Z</time>
      </trkpt>
      <trkpt lat="43.68801" lon="6.73905">
        <ele>756</ele>
        <time>2016-03-20T13:14:36Z</time>
      </trkpt>
      <trkpt lat="43.68788" lon="6.73918">
        <ele>750</ele>
        <time>2016-03-20T13:14:41Z</time>
      </trkpt>
      <trkpt lat="43.68781" lon="6.73932">
        <ele>746</ele>
        <time>2016-03-20T13:14:46Z</time>
      </trkpt>
      <trkpt lat="43.68767" lon="6.73934">
        <ele>741</ele>
        <time>2016-03-20T13:14:52Z</time>
      </trkpt>
      <trkpt lat="43.68761" lon="6.73948">
        <ele>739</ele>
        <time>2016-03-20T13:14:57Z</time>
      </trkpt>
      <trkpt lat="43.68758" lon="6.73973">
        <ele>734</ele>
        <time>2016-03-20T13:15:02Z</time>
      </trkpt>
      <trkpt lat="43.68749" lon="6.74005">
        <ele>733</ele>
        <time>2016-03-20T13:15:07Z</time>
      </trkpt>
      <trkpt lat="43.68744" lon="6.74011">
        <ele>731</ele>
        <time>2016-03-20T13:15:09Z</time>
      </trkpt>
      <trkpt lat="43.68731" lon="6.73993">
        <ele>729</ele>
        <time>2016-03-20T13:15:14Z</time>
      </trkpt>
      <trkpt lat="43.68722" lon="6.73995">
        <ele>728</ele>
        <time>2016-03-20T13:15:19Z</time>
      </trkpt>
      <trkpt lat="43.68709" lon="6.74017">
        <ele>725</ele>
        <time>2016-03-20T13:15:24Z</time>
      </trkpt>
      <trkpt lat="43.68708" lon="6.74026">
        <ele>735</ele>
        <time>2016-03-20T13:15:25Z</time>
      </trkpt>
      <trkpt lat="43.68705" lon="6.74032">
        <ele>730</ele>
        <time>2016-03-20T13:15:26Z</time>
      </trkpt>
      <trkpt lat="43.68691" lon="6.7406">
        <ele>718</ele>
        <time>2016-03-20T13:15:31Z</time>
      </trkpt>
      <trkpt lat="43.68686" lon="6.74071">
        <ele>715</ele>
        <time>2016-03-20T13:15:33Z</time>
      </trkpt>
      <trkpt lat="43.68673" lon="6.7407">
        <ele>711</ele>
        <time>2016-03-20T13:15:38Z</time>
      </trkpt>
      <trkpt lat="43.68669" lon="6.74046">
        <ele>709</ele>
        <time>2016-03-20T13:15:42Z</time>
      </trkpt>
      <trkpt lat="43.68656" lon="6.74046">
        <ele>707</ele>
        <time>2016-03-20T13:15:47Z</time>
      </trkpt>
      <trkpt lat="43.68654" lon="6.7405">
        <ele>706</ele>
        <time>2016-03-20T13:15:48Z</time>
      </trkpt>
      <trkpt lat="43.68649" lon="6.74057">
        <ele>705</ele>
        <time>2016-03-20T13:16:23Z</time>
      </trkpt>
      <trkpt lat="43.68641" lon="6.74068">
        <ele>703</ele>
        <time>2016-03-20T13:16:28Z</time>
      </trkpt>
      <trkpt lat="43.6863" lon="6.74073">
        <ele>698</ele>
        <time>2016-03-20T13:16:33Z</time>
      </trkpt>
      <trkpt lat="43.68623" lon="6.7408">
        <ele>695</ele>
        <time>2016-03-20T13:16:38Z</time>
      </trkpt>
      <trkpt lat="43.68616" lon="6.74095">
        <ele>692</ele>
        <time>2016-03-20T13:16:43Z</time>
      </trkpt>
      <trkpt lat="43.68618" lon="6.74119">
        <ele>696</ele>
        <time>2016-03-20T13:16:48Z</time>
      </trkpt>
      <trkpt lat="43.6863" lon="6.74137">
        <ele>697</ele>
        <time>2016-03-20T13:16:53Z</time>
      </trkpt>
      <trkpt lat="43.68641" lon="6.7416">
        <ele>693</ele>
        <time>2016-03-20T13:16:59Z</time>
      </trkpt>
      <trkpt lat="43.68651" lon="6.74187">
        <ele>692</ele>
        <time>2016-03-20T13:17:04Z</time>
      </trkpt>
      <trkpt lat="43.68659" lon="6.74214">
        <ele>687</ele>
        <time>2016-03-20T13:17:09Z</time>
      </trkpt>
      <trkpt lat="43.68674" lon="6.74242">
        <ele>681</ele>
        <time>2016-03-20T13:17:14Z</time>
      </trkpt>
      <trkpt lat="43.68674" lon="6.74247">
        <ele>681</ele>
        <time>2016-03-20T13:17:15Z</time>
      </trkpt>
      <trkpt lat="43.68675" lon="6.74252">
        <ele>682</ele>
        <time>2016-03-20T13:17:16Z</time>
      </trkpt>
      <trkpt lat="43.68677" lon="6.74264">
        <ele>681</ele>
        <time>2016-03-20T13:17:19Z</time>
      </trkpt>
      <trkpt lat="43.68669" lon="6.74286">
        <ele>679</ele>
        <time>2016-03-20T13:17:24Z</time>
      </trkpt>
      <trkpt lat="43.68654" lon="6.74299">
        <ele>676</ele>
        <time>2016-03-20T13:17:30Z</time>
      </trkpt>
      <trkpt lat="43.68652" lon="6.74295">
        <ele>674</ele>
        <time>2016-03-20T13:17:31Z</time>
      </trkpt>
      <trkpt lat="43.6865" lon="6.74304">
        <ele>674</ele>
        <time>2016-03-20T13:17:37Z</time>
      </trkpt>
      <trkpt lat="43.68643" lon="6.74304">
        <ele>674</ele>
        <time>2016-03-20T13:17:42Z</time>
      </trkpt>
      <trkpt lat="43.6864" lon="6.74306">
        <ele>675</ele>
        <time>2016-03-20T13:17:43Z</time>
      </trkpt>
      <trkpt lat="43.68629" lon="6.74326">
        <ele>672</ele>
        <time>2016-03-20T13:17:49Z</time>
      </trkpt>
      <trkpt lat="43.68626" lon="6.74327">
        <ele>671</ele>
        <time>2016-03-20T13:18:00Z</time>
      </trkpt>
      <trkpt lat="43.68624" lon="6.74329">
        <ele>670</ele>
        <time>2016-03-20T13:18:49Z</time>
      </trkpt>
      <trkpt lat="43.68629" lon="6.74344">
        <ele>670</ele>
        <time>2016-03-20T13:18:54Z</time>
      </trkpt>
      <trkpt lat="43.68644" lon="6.74363">
        <ele>665</ele>
        <time>2016-03-20T13:19:00Z</time>
      </trkpt>
      <trkpt lat="43.68647" lon="6.74372">
        <ele>660</ele>
        <time>2016-03-20T13:19:05Z</time>
      </trkpt>
      <trkpt lat="43.68658" lon="6.74377">
        <ele>655</ele>
        <time>2016-03-20T13:19:10Z</time>
      </trkpt>
      <trkpt lat="43.68676" lon="6.74383">
        <ele>653</ele>
        <time>2016-03-20T13:19:15Z</time>
      </trkpt>
      <trkpt lat="43.68688" lon="6.74385">
        <ele>649</ele>
        <time>2016-03-20T13:19:20Z</time>
      </trkpt>
      <trkpt lat="43.68708" lon="6.74385">
        <ele>643</ele>
        <time>2016-03-20T13:19:25Z</time>
      </trkpt>
      <trkpt lat="43.68725" lon="6.74388">
        <ele>642</ele>
        <time>2016-03-20T13:19:30Z</time>
      </trkpt>
      <trkpt lat="43.68735" lon="6.74396">
        <ele>636</ele>
        <time>2016-03-20T13:19:36Z</time>
      </trkpt>
      <trkpt lat="43.68733" lon="6.74404">
        <ele>632</ele>
        <time>2016-03-20T13:20:43Z</time>
      </trkpt>
      <trkpt lat="43.68732" lon="6.74408">
        <ele>625</ele>
        <time>2016-03-20T13:20:46Z</time>
      </trkpt>
      <trkpt lat="43.6872" lon="6.74422">
        <ele>625</ele>
        <time>2016-03-20T13:20:52Z</time>
      </trkpt>
      <trkpt lat="43.68707" lon="6.74425">
        <ele>625</ele>
        <time>2016-03-20T13:20:58Z</time>
      </trkpt>
      <trkpt lat="43.68695" lon="6.74434">
        <ele>628</ele>
        <time>2016-03-20T13:21:04Z</time>
      </trkpt>
      <trkpt lat="43.68692" lon="6.74435">
        <ele>629</ele>
        <time>2016-03-20T13:21:05Z</time>
      </trkpt>
      <trkpt lat="43.68682" lon="6.74439">
        <ele>632</ele>
        <time>2016-03-20T13:21:10Z</time>
      </trkpt>
      <trkpt lat="43.68672" lon="6.74444">
        <ele>634</ele>
        <time>2016-03-20T13:21:15Z</time>
      </trkpt>
      <trkpt lat="43.68655" lon="6.74451">
        <ele>631</ele>
        <time>2016-03-20T13:21:20Z</time>
      </trkpt>
      <trkpt lat="43.6865" lon="6.74452">
        <ele>632</ele>
        <time>2016-03-20T13:21:22Z</time>
      </trkpt>
      <trkpt lat="43.6864" lon="6.74455">
        <ele>634</ele>
        <time>2016-03-20T13:21:26Z</time>
      </trkpt>
      <trkpt lat="43.68627" lon="6.7446">
        <ele>634</ele>
        <time>2016-03-20T13:21:31Z</time>
      </trkpt>
      <trkpt lat="43.68621" lon="6.74462">
        <ele>637</ele>
        <time>2016-03-20T13:21:34Z</time>
      </trkpt>
      <trkpt lat="43.6861" lon="6.7447">
        <ele>636</ele>
        <time>2016-03-20T13:21:39Z</time>
      </trkpt>
      <trkpt lat="43.68598" lon="6.74475">
        <ele>639</ele>
        <time>2016-03-20T13:21:45Z</time>
      </trkpt>
      <trkpt lat="43.68595" lon="6.74478">
        <ele>641</ele>
        <time>2016-03-20T13:21:47Z</time>
      </trkpt>
      <trkpt lat="43.68584" lon="6.74486">
        <ele>647</ele>
        <time>2016-03-20T13:21:53Z</time>
      </trkpt>
      <trkpt lat="43.68573" lon="6.74482">
        <ele>643</ele>
        <time>2016-03-20T13:21:59Z</time>
      </trkpt>
      <trkpt lat="43.68564" lon="6.74481">
        <ele>640</ele>
        <time>2016-03-20T13:22:05Z</time>
      </trkpt>
      <trkpt lat="43.68562" lon="6.74479">
        <ele>637</ele>
        <time>2016-03-20T13:22:39Z</time>
      </trkpt>
      <trkpt lat="43.68559" lon="6.7448">
        <ele>639</ele>
        <time>2016-03-20T13:22:53Z</time>
      </trkpt>
      <trkpt lat="43.68544" lon="6.74482">
        <ele>638</ele>
        <time>2016-03-20T13:22:58Z</time>
      </trkpt>
      <trkpt lat="43.68519" lon="6.74479">
        <ele>633</ele>
        <time>2016-03-20T13:23:03Z</time>
      </trkpt>
      <trkpt lat="43.68528" lon="6.74498">
        <ele>631</ele>
        <time>2016-03-20T13:23:08Z</time>
      </trkpt>
      <trkpt lat="43.68512" lon="6.74516">
        <ele>628</ele>
        <time>2016-03-20T13:23:13Z</time>
      </trkpt>
      <trkpt lat="43.68507" lon="6.7452">
        <ele>628</ele>
        <time>2016-03-20T13:23:14Z</time>
      </trkpt>
      <trkpt lat="43.68479" lon="6.74535">
        <ele>624</ele>
        <time>2016-03-20T13:23:19Z</time>
      </trkpt>
      <trkpt lat="43.68454" lon="6.74543">
        <ele>621</ele>
        <time>2016-03-20T13:23:24Z</time>
      </trkpt>
      <trkpt lat="43.68441" lon="6.74547">
        <ele>619</ele>
        <time>2016-03-20T13:23:29Z</time>
      </trkpt>
      <trkpt lat="43.68417" lon="6.74555">
        <ele>615</ele>
        <time>2016-03-20T13:23:34Z</time>
      </trkpt>
      <trkpt lat="43.68404" lon="6.74552">
        <ele>612</ele>
        <time>2016-03-20T13:23:37Z</time>
      </trkpt>
      <trkpt lat="43.68383" lon="6.74558">
        <ele>610</ele>
        <time>2016-03-20T13:23:43Z</time>
      </trkpt>
      <trkpt lat="43.68384" lon="6.74568">
        <ele>606</ele>
        <time>2016-03-20T13:23:48Z</time>
      </trkpt>
      <trkpt lat="43.6838" lon="6.7457">
        <ele>603</ele>
        <time>2016-03-20T13:23:50Z</time>
      </trkpt>
      <trkpt lat="43.68376" lon="6.74576">
        <ele>600</ele>
        <time>2016-03-20T13:23:55Z</time>
      </trkpt>
      <trkpt lat="43.68375" lon="6.74583">
        <ele>599</ele>
        <time>2016-03-20T13:23:57Z</time>
      </trkpt>
      <trkpt lat="43.68364" lon="6.74613">
        <ele>594</ele>
        <time>2016-03-20T13:24:02Z</time>
      </trkpt>
      <trkpt lat="43.68362" lon="6.74618">
        <ele>592</ele>
        <time>2016-03-20T13:24:03Z</time>
      </trkpt>
      <trkpt lat="43.6835" lon="6.74641">
        <ele>587</ele>
        <time>2016-03-20T13:24:08Z</time>
      </trkpt>
      <trkpt lat="43.68337" lon="6.74667">
        <ele>618</ele>
        <time>2016-03-20T13:24:13Z</time>
      </trkpt>
      <trkpt lat="43.68335" lon="6.74677">
        <ele>599</ele>
        <time>2016-03-20T13:24:15Z</time>
      </trkpt>
      <trkpt lat="43.68331" lon="6.74684">
        <ele>584</ele>
        <time>2016-03-20T13:24:18Z</time>
      </trkpt>
      <trkpt lat="43.68327" lon="6.74683">
        <ele>577</ele>
        <time>2016-03-20T13:25:53Z</time>
      </trkpt>
      <trkpt lat="43.68318" lon="6.74701">
        <ele>572</ele>
        <time>2016-03-20T13:25:58Z</time>
      </trkpt>
      <trkpt lat="43.68303" lon="6.74714">
        <ele>571</ele>
        <time>2016-03-20T13:26:03Z</time>
      </trkpt>
      <trkpt lat="43.68292" lon="6.74728">
        <ele>569</ele>
        <time>2016-03-20T13:26:09Z</time>
      </trkpt>
      <trkpt lat="43.68277" lon="6.74732">
        <ele>566</ele>
        <time>2016-03-20T13:26:14Z</time>
      </trkpt>
      <trkpt lat="43.68262" lon="6.74725">
        <ele>563</ele>
        <time>2016-03-20T13:26:19Z</time>
      </trkpt>
      <trkpt lat="43.68252" lon="6.74709">
        <ele>559</ele>
        <time>2016-03-20T13:26:24Z</time>
      </trkpt>
      <trkpt lat="43.68243" lon="6.7469">
        <ele>558</ele>
        <time>2016-03-20T13:26:29Z</time>
      </trkpt>
      <trkpt lat="43.68237" lon="6.74674">
        <ele>558</ele>
        <time>2016-03-20T13:26:34Z</time>
      </trkpt>
      <trkpt lat="43.68227" lon="6.74661">
        <ele>555</ele>
        <time>2016-03-20T13:26:40Z</time>
      </trkpt>
      <trkpt lat="43.68216" lon="6.74649">
        <ele>557</ele>
        <time>2016-03-20T13:26:46Z</time>
      </trkpt>
      <trkpt lat="43.68203" lon="6.74644">
        <ele>557</ele>
        <time>2016-03-20T13:26:52Z</time>
      </trkpt>
      <trkpt lat="43.68187" lon="6.74644">
        <ele>556</ele>
        <time>2016-03-20T13:26:58Z</time>
      </trkpt>
      <trkpt lat="43.68171" lon="6.74646">
        <ele>557</ele>
        <time>2016-03-20T13:27:04Z</time>
      </trkpt>
      <trkpt lat="43.68155" lon="6.74648">
        <ele>557</ele>
        <time>2016-03-20T13:27:10Z</time>
      </trkpt>
      <trkpt lat="43.68143" lon="6.74644">
        <ele>557</ele>
        <time>2016-03-20T13:27:16Z</time>
      </trkpt>
      <trkpt lat="43.68131" lon="6.7464">
        <ele>560</ele>
        <time>2016-03-20T13:27:21Z</time>
      </trkpt>
      <trkpt lat="43.68124" lon="6.74638">
        <ele>564</ele>
        <time>2016-03-20T13:27:27Z</time>
      </trkpt>
      <trkpt lat="43.68117" lon="6.74638">
        <ele>565</ele>
        <time>2016-03-20T13:27:32Z</time>
      </trkpt>
      <trkpt lat="43.68107" lon="6.74637">
        <ele>566</ele>
        <time>2016-03-20T13:27:38Z</time>
      </trkpt>
      <trkpt lat="43.681" lon="6.74633">
        <ele>564</ele>
        <time>2016-03-20T13:27:43Z</time>
      </trkpt>
      <trkpt lat="43.68093" lon="6.74625">
        <ele>564</ele>
        <time>2016-03-20T13:27:49Z</time>
      </trkpt>
      <trkpt lat="43.6809" lon="6.74615">
        <ele>567</ele>
        <time>2016-03-20T13:27:54Z</time>
      </trkpt>
      <trkpt lat="43.68088" lon="6.74607">
        <ele>567</ele>
        <time>2016-03-20T13:27:59Z</time>
      </trkpt>
      <trkpt lat="43.68083" lon="6.74595">
        <ele>566</ele>
        <time>2016-03-20T13:28:05Z</time>
      </trkpt>
      <trkpt lat="43.68075" lon="6.74585">
        <ele>567</ele>
        <time>2016-03-20T13:28:11Z</time>
      </trkpt>
      <trkpt lat="43.68067" lon="6.74579">
        <ele>568</ele>
        <time>2016-03-20T13:28:15Z</time>
      </trkpt>
      <trkpt lat="43.68057" lon="6.74566">
        <ele>568</ele>
        <time>2016-03-20T13:28:21Z</time>
      </trkpt>
      <trkpt lat="43.6805" lon="6.74554">
        <ele>570</ele>
        <time>2016-03-20T13:28:26Z</time>
      </trkpt>
      <trkpt lat="43.68044" lon="6.74539">
        <ele>570</ele>
        <time>2016-03-20T13:28:32Z</time>
      </trkpt>
      <trkpt lat="43.68041" lon="6.74523">
        <ele>568</ele>
        <time>2016-03-20T13:28:38Z</time>
      </trkpt>
      <trkpt lat="43.68037" lon="6.74508">
        <ele>572</ele>
        <time>2016-03-20T13:28:44Z</time>
      </trkpt>
      <trkpt lat="43.68034" lon="6.74491">
        <ele>571</ele>
        <time>2016-03-20T13:28:50Z</time>
      </trkpt>
      <trkpt lat="43.6803" lon="6.74474">
        <ele>572</ele>
        <time>2016-03-20T13:28:56Z</time>
      </trkpt>
      <trkpt lat="43.68029" lon="6.7446">
        <ele>572</ele>
        <time>2016-03-20T13:29:02Z</time>
      </trkpt>
      <trkpt lat="43.68026" lon="6.74447">
        <ele>575</ele>
        <time>2016-03-20T13:29:08Z</time>
      </trkpt>
      <trkpt lat="43.68023" lon="6.74437">
        <ele>578</ele>
        <time>2016-03-20T13:29:13Z</time>
      </trkpt>
      <trkpt lat="43.6802" lon="6.74422">
        <ele>579</ele>
        <time>2016-03-20T13:29:19Z</time>
      </trkpt>
      <trkpt lat="43.68019" lon="6.74406">
        <ele>582</ele>
        <time>2016-03-20T13:29:25Z</time>
      </trkpt>
      <trkpt lat="43.68017" lon="6.74388">
        <ele>583</ele>
        <time>2016-03-20T13:29:31Z</time>
      </trkpt>
      <trkpt lat="43.68011" lon="6.74368">
        <ele>583</ele>
        <time>2016-03-20T13:29:36Z</time>
      </trkpt>
      <trkpt lat="43.67998" lon="6.74344">
        <ele>583</ele>
        <time>2016-03-20T13:29:41Z</time>
      </trkpt>
      <trkpt lat="43.67986" lon="6.74354">
        <ele>581</ele>
        <time>2016-03-20T13:29:46Z</time>
      </trkpt>
      <trkpt lat="43.67977" lon="6.74365">
        <ele>583</ele>
        <time>2016-03-20T13:29:51Z</time>
      </trkpt>
      <trkpt lat="43.67967" lon="6.74375">
        <ele>585</ele>
        <time>2016-03-20T13:29:56Z</time>
      </trkpt>
      <trkpt lat="43.67958" lon="6.74385">
        <ele>585</ele>
        <time>2016-03-20T13:30:01Z</time>
      </trkpt>
      <trkpt lat="43.67947" lon="6.74395">
        <ele>544</ele>
        <time>2016-03-20T13:30:06Z</time>
      </trkpt>
      <trkpt lat="43.67941" lon="6.74403">
        <ele>568</ele>
        <time>2016-03-20T13:30:14Z</time>
      </trkpt>
      <trkpt lat="43.67927" lon="6.74416">
        <ele>570</ele>
        <time>2016-03-20T13:30:19Z</time>
      </trkpt>
      <trkpt lat="43.67907" lon="6.7442">
        <ele>571</ele>
        <time>2016-03-20T13:30:24Z</time>
      </trkpt>
      <trkpt lat="43.67888" lon="6.74422">
        <ele>574</ele>
        <time>2016-03-20T13:30:29Z</time>
      </trkpt>
      <trkpt lat="43.6786" lon="6.74426">
        <ele>573</ele>
        <time>2016-03-20T13:30:34Z</time>
      </trkpt>
      <trkpt lat="43.67835" lon="6.74428">
        <ele>575</ele>
        <time>2016-03-20T13:30:39Z</time>
      </trkpt>
      <trkpt lat="43.67816" lon="6.74414">
        <ele>576</ele>
        <time>2016-03-20T13:30:44Z</time>
      </trkpt>
      <trkpt lat="43.67805" lon="6.74404">
        <ele>577</ele>
        <time>2016-03-20T13:30:49Z</time>
      </trkpt>
      <trkpt lat="43.67793" lon="6.74392">
        <ele>576</ele>
        <time>2016-03-20T13:30:55Z</time>
      </trkpt>
      <trkpt lat="43.67779" lon="6.74379">
        <ele>575</ele>
        <time>2016-03-20T13:31:01Z</time>
      </trkpt>
      <trkpt lat="43.67765" lon="6.74369">
        <ele>575</ele>
        <time>2016-03-20T13:31:06Z</time>
      </trkpt>
      <trkpt lat="43.67751" lon="6.7436">
        <ele>574</ele>
        <time>2016-03-20T13:31:11Z</time>
      </trkpt>
      <trkpt lat="43.67732" lon="6.74348">
        <ele>574</ele>
        <time>2016-03-20T13:31:16Z</time>
      </trkpt>
      <trkpt lat="43.67712" lon="6.74318">
        <ele>573</ele>
        <time>2016-03-20T13:31:21Z</time>
      </trkpt>
      <trkpt lat="43.67695" lon="6.74291">
        <ele>572</ele>
        <time>2016-03-20T13:31:26Z</time>
      </trkpt>
      <trkpt lat="43.67681" lon="6.74273">
        <ele>572</ele>
        <time>2016-03-20T13:31:31Z</time>
      </trkpt>
      <trkpt lat="43.67681" lon="6.74249">
        <ele>573</ele>
        <time>2016-03-20T13:31:36Z</time>
      </trkpt>
      <trkpt lat="43.67695" lon="6.74238">
        <ele>574</ele>
        <time>2016-03-20T13:31:41Z</time>
      </trkpt>
      <trkpt lat="43.67711" lon="6.7423">
        <ele>573</ele>
        <time>2016-03-20T13:31:47Z</time>
      </trkpt>
      <trkpt lat="43.67725" lon="6.74226">
        <ele>575</ele>
        <time>2016-03-20T13:31:53Z</time>
      </trkpt>
      <trkpt lat="43.67732" lon="6.74214">
        <ele>575</ele>
        <time>2016-03-20T13:31:58Z</time>
      </trkpt>
      <trkpt lat="43.6773" lon="6.74196">
        <ele>575</ele>
        <time>2016-03-20T13:32:03Z</time>
      </trkpt>
      <trkpt lat="43.67724" lon="6.74179">
        <ele>578</ele>
        <time>2016-03-20T13:32:08Z</time>
      </trkpt>
      <trkpt lat="43.67718" lon="6.74162">
        <ele>578</ele>
        <time>2016-03-20T13:32:13Z</time>
      </trkpt>
      <trkpt lat="43.67716" lon="6.74145">
        <ele>580</ele>
        <time>2016-03-20T13:32:18Z</time>
      </trkpt>
      <trkpt lat="43.67717" lon="6.74126">
        <ele>581</ele>
        <time>2016-03-20T13:32:24Z</time>
      </trkpt>
      <trkpt lat="43.67718" lon="6.7411">
        <ele>581</ele>
        <time>2016-03-20T13:32:30Z</time>
      </trkpt>
      <trkpt lat="43.67717" lon="6.74096">
        <ele>584</ele>
        <time>2016-03-20T13:32:36Z</time>
      </trkpt>
      <trkpt lat="43.67717" lon="6.74079">
        <ele>586</ele>
        <time>2016-03-20T13:32:42Z</time>
      </trkpt>
      <trkpt lat="43.67716" lon="6.74062">
        <ele>586</ele>
        <time>2016-03-20T13:32:48Z</time>
      </trkpt>
      <trkpt lat="43.67718" lon="6.74047">
        <ele>587</ele>
        <time>2016-03-20T13:32:54Z</time>
      </trkpt>
      <trkpt lat="43.67718" lon="6.74032">
        <ele>588</ele>
        <time>2016-03-20T13:33:00Z</time>
      </trkpt>
      <trkpt lat="43.6772" lon="6.74018">
        <ele>590</ele>
        <time>2016-03-20T13:33:06Z</time>
      </trkpt>
      <trkpt lat="43.67724" lon="6.74004">
        <ele>589</ele>
        <time>2016-03-20T13:33:12Z</time>
      </trkpt>
      <trkpt lat="43.67727" lon="6.7399">
        <ele>588</ele>
        <time>2016-03-20T13:33:18Z</time>
      </trkpt>
      <trkpt lat="43.67731" lon="6.73975">
        <ele>589</ele>
        <time>2016-03-20T13:33:24Z</time>
      </trkpt>
      <trkpt lat="43.67735" lon="6.73963">
        <ele>591</ele>
        <time>2016-03-20T13:33:30Z</time>
      </trkpt>
      <trkpt lat="43.67737" lon="6.73954">
        <ele>593</ele>
        <time>2016-03-20T13:33:36Z</time>
      </trkpt>
      <trkpt lat="43.67739" lon="6.73946">
        <ele>596</ele>
        <time>2016-03-20T13:33:42Z</time>
      </trkpt>
      <trkpt lat="43.67742" lon="6.73936">
        <ele>596</ele>
        <time>2016-03-20T13:33:47Z</time>
      </trkpt>
      <trkpt lat="43.67742" lon="6.73927">
        <ele>597</ele>
        <time>2016-03-20T13:33:53Z</time>
      </trkpt>
      <trkpt lat="43.67743" lon="6.73921">
        <ele>597</ele>
        <time>2016-03-20T13:33:57Z</time>
      </trkpt>
      <trkpt lat="43.67744" lon="6.73913">
        <ele>599</ele>
        <time>2016-03-20T13:34:02Z</time>
      </trkpt>
      <trkpt lat="43.6775" lon="6.73903">
        <ele>601</ele>
        <time>2016-03-20T13:34:09Z</time>
      </trkpt>
      <trkpt lat="43.67755" lon="6.73897">
        <ele>599</ele>
        <time>2016-03-20T13:34:14Z</time>
      </trkpt>
      <trkpt lat="43.67756" lon="6.73892">
        <ele>600</ele>
        <time>2016-03-20T13:34:17Z</time>
      </trkpt>
      <trkpt lat="43.67761" lon="6.73887">
        <ele>602</ele>
        <time>2016-03-20T13:34:23Z</time>
      </trkpt>
      <trkpt lat="43.67767" lon="6.73882">
        <ele>604</ele>
        <time>2016-03-20T13:34:30Z</time>
      </trkpt>
      <trkpt lat="43.67774" lon="6.73876">
        <ele>603</ele>
        <time>2016-03-20T13:34:35Z</time>
      </trkpt>
      <trkpt lat="43.6778" lon="6.73869">
        <ele>605</ele>
        <time>2016-03-20T13:34:41Z</time>
      </trkpt>
      <trkpt lat="43.67785" lon="6.73863">
        <ele>605</ele>
        <time>2016-03-20T13:34:46Z</time>
      </trkpt>
      <trkpt lat="43.6779" lon="6.73855">
        <ele>607</ele>
        <time>2016-03-20T13:34:53Z</time>
      </trkpt>
      <trkpt lat="43.67797" lon="6.73847">
        <ele>608</ele>
        <time>2016-03-20T13:34:59Z</time>
      </trkpt>
      <trkpt lat="43.67801" lon="6.73838">
        <ele>606</ele>
        <time>2016-03-20T13:35:04Z</time>
      </trkpt>
      <trkpt lat="43.67802" lon="6.7383">
        <ele>608</ele>
        <time>2016-03-20T13:35:10Z</time>
      </trkpt>
      <trkpt lat="43.67803" lon="6.73822">
        <ele>610</ele>
        <time>2016-03-20T13:35:17Z</time>
      </trkpt>
      <trkpt lat="43.67806" lon="6.73814">
        <ele>610</ele>
        <time>2016-03-20T13:35:23Z</time>
      </trkpt>
      <trkpt lat="43.67806" lon="6.73806">
        <ele>612</ele>
        <time>2016-03-20T13:35:30Z</time>
      </trkpt>
      <trkpt lat="43.67808" lon="6.73793">
        <ele>613</ele>
        <time>2016-03-20T13:35:37Z</time>
      </trkpt>
      <trkpt lat="43.67814" lon="6.73788">
        <ele>616</ele>
        <time>2016-03-20T13:35:44Z</time>
      </trkpt>
      <trkpt lat="43.67818" lon="6.7378">
        <ele>617</ele>
        <time>2016-03-20T13:35:50Z</time>
      </trkpt>
      <trkpt lat="43.67823" lon="6.73776">
        <ele>614</ele>
        <time>2016-03-20T13:35:55Z</time>
      </trkpt>
      <trkpt lat="43.67828" lon="6.73771">
        <ele>615</ele>
        <time>2016-03-20T13:36:02Z</time>
      </trkpt>
      <trkpt lat="43.67833" lon="6.73767">
        <ele>616</ele>
        <time>2016-03-20T13:36:10Z</time>
      </trkpt>
      <trkpt lat="43.67838" lon="6.73763">
        <ele>616</ele>
        <time>2016-03-20T13:36:16Z</time>
      </trkpt>
      <trkpt lat="43.67845" lon="6.73758">
        <ele>616</ele>
        <time>2016-03-20T13:36:21Z</time>
      </trkpt>
      <trkpt lat="43.67849" lon="6.73751">
        <ele>616</ele>
        <time>2016-03-20T13:36:26Z</time>
      </trkpt>
      <trkpt lat="43.67854" lon="6.73745">
        <ele>619</ele>
        <time>2016-03-20T13:36:32Z</time>
      </trkpt>
      <trkpt lat="43.67859" lon="6.73739">
        <ele>619</ele>
        <time>2016-03-20T13:36:37Z</time>
      </trkpt>
      <trkpt lat="43.67864" lon="6.73734">
        <ele>620</ele>
        <time>2016-03-20T13:36:44Z</time>
      </trkpt>
      <trkpt lat="43.67869" lon="6.73728">
        <ele>620</ele>
        <time>2016-03-20T13:36:49Z</time>
      </trkpt>
      <trkpt lat="43.67874" lon="6.73724">
        <ele>620</ele>
        <time>2016-03-20T13:36:54Z</time>
      </trkpt>
      <trkpt lat="43.67881" lon="6.73721">
        <ele>620</ele>
        <time>2016-03-20T13:36:59Z</time>
      </trkpt>
      <trkpt lat="43.67886" lon="6.73719">
        <ele>621</ele>
        <time>2016-03-20T13:37:04Z</time>
      </trkpt>
      <trkpt lat="43.6789" lon="6.73711">
        <ele>622</ele>
        <time>2016-03-20T13:37:11Z</time>
      </trkpt>
      <trkpt lat="43.67896" lon="6.73705">
        <ele>623</ele>
        <time>2016-03-20T13:37:17Z</time>
      </trkpt>
      <trkpt lat="43.679" lon="6.73698">
        <ele>623</ele>
        <time>2016-03-20T13:37:23Z</time>
      </trkpt>
      <trkpt lat="43.67902" lon="6.7369">
        <ele>627</ele>
        <time>2016-03-20T13:37:29Z</time>
      </trkpt>
      <trkpt lat="43.67907" lon="6.73685">
        <ele>629</ele>
        <time>2016-03-20T13:37:35Z</time>
      </trkpt>
      <trkpt lat="43.6791" lon="6.73676">
        <ele>630</ele>
        <time>2016-03-20T13:37:41Z</time>
      </trkpt>
      <trkpt lat="43.67916" lon="6.73673">
        <ele>631</ele>
        <time>2016-03-20T13:37:47Z</time>
      </trkpt>
      <trkpt lat="43.67918" lon="6.73665">
        <ele>633</ele>
        <time>2016-03-20T13:37:53Z</time>
      </trkpt>
      <trkpt lat="43.67922" lon="6.73659">
        <ele>635</ele>
        <time>2016-03-20T13:38:00Z</time>
      </trkpt>
      <trkpt lat="43.67927" lon="6.73654">
        <ele>635</ele>
        <time>2016-03-20T13:38:05Z</time>
      </trkpt>
      <trkpt lat="43.6793" lon="6.73648">
        <ele>635</ele>
        <time>2016-03-20T13:38:11Z</time>
      </trkpt>
      <trkpt lat="43.67935" lon="6.7364">
        <ele>638</ele>
        <time>2016-03-20T13:38:18Z</time>
      </trkpt>
      <trkpt lat="43.6794" lon="6.73632">
        <ele>639</ele>
        <time>2016-03-20T13:38:24Z</time>
      </trkpt>
      <trkpt lat="43.67943" lon="6.73624">
        <ele>640</ele>
        <time>2016-03-20T13:38:30Z</time>
      </trkpt>
      <trkpt lat="43.67944" lon="6.73615">
        <ele>642</ele>
        <time>2016-03-20T13:38:37Z</time>
      </trkpt>
      <trkpt lat="43.67948" lon="6.73608">
        <ele>642</ele>
        <time>2016-03-20T13:38:43Z</time>
      </trkpt>
      <trkpt lat="43.67952" lon="6.73601">
        <ele>643</ele>
        <time>2016-03-20T13:38:49Z</time>
      </trkpt>
      <trkpt lat="43.67956" lon="6.73594">
        <ele>644</ele>
        <time>2016-03-20T13:38:55Z</time>
      </trkpt>
      <trkpt lat="43.6796" lon="6.73588">
        <ele>645</ele>
        <time>2016-03-20T13:39:01Z</time>
      </trkpt>
      <trkpt lat="43.67966" lon="6.73583">
        <ele>645</ele>
        <time>2016-03-20T13:39:07Z</time>
      </trkpt>
      <trkpt lat="43.67972" lon="6.73581">
        <ele>644</ele>
        <time>2016-03-20T13:39:13Z</time>
      </trkpt>
      <trkpt lat="43.67978" lon="6.73576">
        <ele>646</ele>
        <time>2016-03-20T13:39:20Z</time>
      </trkpt>
      <trkpt lat="43.67982" lon="6.73569">
        <ele>648</ele>
        <time>2016-03-20T13:39:26Z</time>
      </trkpt>
      <trkpt lat="43.67985" lon="6.73563">
        <ele>650</ele>
        <time>2016-03-20T13:39:31Z</time>
      </trkpt>
      <trkpt lat="43.67988" lon="6.73553">
        <ele>650</ele>
        <time>2016-03-20T13:39:38Z</time>
      </trkpt>
      <trkpt lat="43.6799" lon="6.73545">
        <ele>650</ele>
        <time>2016-03-20T13:39:44Z</time>
      </trkpt>
      <trkpt lat="43.6799" lon="6.73539">
        <ele>652</ele>
        <time>2016-03-20T13:39:49Z</time>
      </trkpt>
      <trkpt lat="43.67995" lon="6.73531">
        <ele>653</ele>
        <time>2016-03-20T13:39:56Z</time>
      </trkpt>
      <trkpt lat="43.67999" lon="6.73525">
        <ele>650</ele>
        <time>2016-03-20T13:40:01Z</time>
      </trkpt>
      <trkpt lat="43.68004" lon="6.73518">
        <ele>654</ele>
        <time>2016-03-20T13:40:08Z</time>
      </trkpt>
      <trkpt lat="43.68009" lon="6.73511">
        <ele>654</ele>
        <time>2016-03-20T13:40:14Z</time>
      </trkpt>
      <trkpt lat="43.68014" lon="6.73507">
        <ele>658</ele>
        <time>2016-03-20T13:40:22Z</time>
      </trkpt>
      <trkpt lat="43.68016" lon="6.73504">
        <ele>659</ele>
        <time>2016-03-20T13:40:27Z</time>
      </trkpt>
      <trkpt lat="43.68018" lon="6.73499">
        <ele>659</ele>
        <time>2016-03-20T13:40:32Z</time>
      </trkpt>
      <trkpt lat="43.68024" lon="6.73493">
        <ele>659</ele>
        <time>2016-03-20T13:40:39Z</time>
      </trkpt>
      <trkpt lat="43.68028" lon="6.73488">
        <ele>658</ele>
        <time>2016-03-20T13:40:44Z</time>
      </trkpt>
      <trkpt lat="43.68033" lon="6.73482">
        <ele>660</ele>
        <time>2016-03-20T13:40:49Z</time>
      </trkpt>
      <trkpt lat="43.68038" lon="6.73476">
        <ele>660</ele>
        <time>2016-03-20T13:40:55Z</time>
      </trkpt>
      <trkpt lat="43.68043" lon="6.7347">
        <ele>661</ele>
        <time>2016-03-20T13:41:00Z</time>
      </trkpt>
      <trkpt lat="43.68046" lon="6.73463">
        <ele>662</ele>
        <time>2016-03-20T13:41:06Z</time>
      </trkpt>
      <trkpt lat="43.6805" lon="6.73456">
        <ele>663</ele>
        <time>2016-03-20T13:41:12Z</time>
      </trkpt>
      <trkpt lat="43.68053" lon="6.7345">
        <ele>664</ele>
        <time>2016-03-20T13:41:19Z</time>
      </trkpt>
      <trkpt lat="43.68057" lon="6.73443">
        <ele>664</ele>
        <time>2016-03-20T13:41:24Z</time>
      </trkpt>
      <trkpt lat="43.68061" lon="6.73437">
        <ele>664</ele>
        <time>2016-03-20T13:41:29Z</time>
      </trkpt>
      <trkpt lat="43.68065" lon="6.73431">
        <ele>664</ele>
        <time>2016-03-20T13:41:35Z</time>
      </trkpt>
      <trkpt lat="43.68067" lon="6.73423">
        <ele>664</ele>
        <time>2016-03-20T13:41:40Z</time>
      </trkpt>
      <trkpt lat="43.68072" lon="6.73418">
        <ele>667</ele>
        <time>2016-03-20T13:41:46Z</time>
      </trkpt>
      <trkpt lat="43.68073" lon="6.7341">
        <ele>670</ele>
        <time>2016-03-20T13:41:53Z</time>
      </trkpt>
      <trkpt lat="43.68072" lon="6.73401">
        <ele>669</ele>
        <time>2016-03-20T13:42:00Z</time>
      </trkpt>
      <trkpt lat="43.68074" lon="6.73393">
        <ele>670</ele>
        <time>2016-03-20T13:42:16Z</time>
      </trkpt>
      <trkpt lat="43.68072" lon="6.73389">
        <ele>669</ele>
        <time>2016-03-20T13:43:10Z</time>
      </trkpt>
      <trkpt lat="43.68074" lon="6.73377">
        <ele>671</ele>
        <time>2016-03-20T13:43:16Z</time>
      </trkpt>
      <trkpt lat="43.68075" lon="6.73367">
        <ele>672</ele>
        <time>2016-03-20T13:43:21Z</time>
      </trkpt>
      <trkpt lat="43.68076" lon="6.73353">
        <ele>672</ele>
        <time>2016-03-20T13:43:27Z</time>
      </trkpt>
      <trkpt lat="43.68077" lon="6.7334">
        <ele>673</ele>
        <time>2016-03-20T13:43:33Z</time>
      </trkpt>
      <trkpt lat="43.68078" lon="6.73326">
        <ele>673</ele>
        <time>2016-03-20T13:43:39Z</time>
      </trkpt>
      <trkpt lat="43.68079" lon="6.73312">
        <ele>673</ele>
        <time>2016-03-20T13:43:45Z</time>
      </trkpt>
      <trkpt lat="43.68081" lon="6.73301">
        <ele>675</ele>
        <time>2016-03-20T13:43:51Z</time>
      </trkpt>
      <trkpt lat="43.68086" lon="6.7329">
        <ele>677</ele>
        <time>2016-03-20T13:43:57Z</time>
      </trkpt>
      <trkpt lat="43.68089" lon="6.73283">
        <ele>679</ele>
        <time>2016-03-20T13:44:02Z</time>
      </trkpt>
      <trkpt lat="43.68091" lon="6.73273">
        <ele>679</ele>
        <time>2016-03-20T13:44:08Z</time>
      </trkpt>
      <trkpt lat="43.68091" lon="6.73264">
        <ele>680</ele>
        <time>2016-03-20T13:44:14Z</time>
      </trkpt>
      <trkpt lat="43.68094" lon="6.7325">
        <ele>681</ele>
        <time>2016-03-20T13:44:22Z</time>
      </trkpt>
      <trkpt lat="43.68096" lon="6.73237">
        <ele>683</ele>
        <time>2016-03-20T13:44:29Z</time>
      </trkpt>
      <trkpt lat="43.68098" lon="6.73227">
        <ele>685</ele>
        <time>2016-03-20T13:44:34Z</time>
      </trkpt>
      <trkpt lat="43.68102" lon="6.73219">
        <ele>686</ele>
        <time>2016-03-20T13:44:39Z</time>
      </trkpt>
      <trkpt lat="43.68107" lon="6.73207">
        <ele>685</ele>
        <time>2016-03-20T13:44:45Z</time>
      </trkpt>
      <trkpt lat="43.68115" lon="6.73198">
        <ele>684</ele>
        <time>2016-03-20T13:44:51Z</time>
      </trkpt>
      <trkpt lat="43.68124" lon="6.73192">
        <ele>684</ele>
        <time>2016-03-20T13:44:58Z</time>
      </trkpt>
      <trkpt lat="43.68128" lon="6.73185">
        <ele>686</ele>
        <time>2016-03-20T13:45:04Z</time>
      </trkpt>
      <trkpt lat="43.68135" lon="6.73176">
        <ele>684</ele>
        <time>2016-03-20T13:45:10Z</time>
      </trkpt>
      <trkpt lat="43.68137" lon="6.73165">
        <ele>686</ele>
        <time>2016-03-20T13:45:16Z</time>
      </trkpt>
      <trkpt lat="43.68135" lon="6.73155">
        <ele>687</ele>
        <time>2016-03-20T13:45:21Z</time>
      </trkpt>
      <trkpt lat="43.68133" lon="6.73146">
        <ele>686</ele>
        <time>2016-03-20T13:45:45Z</time>
      </trkpt>
      <trkpt lat="43.6813" lon="6.73132">
        <ele>685</ele>
        <time>2016-03-20T13:45:51Z</time>
      </trkpt>
      <trkpt lat="43.68126" lon="6.73118">
        <ele>687</ele>
        <time>2016-03-20T13:45:57Z</time>
      </trkpt>
      <trkpt lat="43.68122" lon="6.73101">
        <ele>688</ele>
        <time>2016-03-20T13:46:03Z</time>
      </trkpt>
      <trkpt lat="43.68116" lon="6.73082">
        <ele>688</ele>
        <time>2016-03-20T13:46:08Z</time>
      </trkpt>
      <trkpt lat="43.68112" lon="6.73065">
        <ele>688</ele>
        <time>2016-03-20T13:46:13Z</time>
      </trkpt>
      <trkpt lat="43.68105" lon="6.73046">
        <ele>688</ele>
        <time>2016-03-20T13:46:18Z</time>
      </trkpt>
      <trkpt lat="43.68098" lon="6.73028">
        <ele>689</ele>
        <time>2016-03-20T13:46:23Z</time>
      </trkpt>
      <trkpt lat="43.68093" lon="6.73013">
        <ele>692</ele>
        <time>2016-03-20T13:46:28Z</time>
      </trkpt>
      <trkpt lat="43.68088" lon="6.72993">
        <ele>690</ele>
        <time>2016-03-20T13:46:33Z</time>
      </trkpt>
      <trkpt lat="43.68084" lon="6.72969">
        <ele>690</ele>
        <time>2016-03-20T13:46:38Z</time>
      </trkpt>
      <trkpt lat="43.68081" lon="6.72945">
        <ele>690</ele>
        <time>2016-03-20T13:46:43Z</time>
      </trkpt>
      <trkpt lat="43.68079" lon="6.72921">
        <ele>690</ele>
        <time>2016-03-20T13:46:48Z</time>
      </trkpt>
      <trkpt lat="43.68076" lon="6.72894">
        <ele>688</ele>
        <time>2016-03-20T13:46:53Z</time>
      </trkpt>
      <trkpt lat="43.68079" lon="6.72867">
        <ele>688</ele>
        <time>2016-03-20T13:46:58Z</time>
      </trkpt>
      <trkpt lat="43.68083" lon="6.72844">
        <ele>687</ele>
        <time>2016-03-20T13:47:03Z</time>
      </trkpt>
      <trkpt lat="43.68086" lon="6.72821">
        <ele>686</ele>
        <time>2016-03-20T13:47:08Z</time>
      </trkpt>
      <trkpt lat="43.68087" lon="6.72799">
        <ele>688</ele>
        <time>2016-03-20T13:47:14Z</time>
      </trkpt>
      <trkpt lat="43.6809" lon="6.728">
        <ele>682</ele>
        <time>2016-03-20T13:47:38Z</time>
      </trkpt>
      <trkpt lat="43.68087" lon="6.728">
        <ele>686</ele>
        <time>2016-03-20T13:48:00Z</time>
      </trkpt>
      <trkpt lat="43.68088" lon="6.72795">
        <ele>687</ele>
        <time>2016-03-20T13:48:26Z</time>
      </trkpt>
      <trkpt lat="43.68096" lon="6.72786">
        <ele>687</ele>
        <time>2016-03-20T13:48:32Z</time>
      </trkpt>
      <trkpt lat="43.68106" lon="6.7278">
        <ele>688</ele>
        <time>2016-03-20T13:48:37Z</time>
      </trkpt>
      <trkpt lat="43.68113" lon="6.72771">
        <ele>692</ele>
        <time>2016-03-20T13:48:43Z</time>
      </trkpt>
      <trkpt lat="43.68124" lon="6.72764">
        <ele>695</ele>
        <time>2016-03-20T13:48:49Z</time>
      </trkpt>
      <trkpt lat="43.68135" lon="6.72755">
        <ele>696</ele>
        <time>2016-03-20T13:48:55Z</time>
      </trkpt>
      <trkpt lat="43.68146" lon="6.72747">
        <ele>697</ele>
        <time>2016-03-20T13:49:01Z</time>
      </trkpt>
      <trkpt lat="43.68156" lon="6.72736">
        <ele>699</ele>
        <time>2016-03-20T13:49:06Z</time>
      </trkpt>
      <trkpt lat="43.68167" lon="6.7273">
        <ele>700</ele>
        <time>2016-03-20T13:49:12Z</time>
      </trkpt>
      <trkpt lat="43.68178" lon="6.7272">
        <ele>700</ele>
        <time>2016-03-20T13:49:18Z</time>
      </trkpt>
      <trkpt lat="43.6819" lon="6.72712">
        <ele>698</ele>
        <time>2016-03-20T13:49:24Z</time>
      </trkpt>
      <trkpt lat="43.682" lon="6.72707">
        <ele>700</ele>
        <time>2016-03-20T13:49:30Z</time>
      </trkpt>
      <trkpt lat="43.6821" lon="6.72712">
        <ele>701</ele>
        <time>2016-03-20T13:49:35Z</time>
      </trkpt>
      <trkpt lat="43.68216" lon="6.72725">
        <ele>700</ele>
        <time>2016-03-20T13:49:41Z</time>
      </trkpt>
      <trkpt lat="43.68218" lon="6.72739">
        <ele>701</ele>
        <time>2016-03-20T13:49:47Z</time>
      </trkpt>
      <trkpt lat="43.68217" lon="6.72753">
        <ele>703</ele>
        <time>2016-03-20T13:49:53Z</time>
      </trkpt>
      <trkpt lat="43.68217" lon="6.72768">
        <ele>702</ele>
        <time>2016-03-20T13:49:59Z</time>
      </trkpt>
      <trkpt lat="43.68217" lon="6.72782">
        <ele>703</ele>
        <time>2016-03-20T13:50:05Z</time>
      </trkpt>
      <trkpt lat="43.6822" lon="6.72798">
        <ele>704</ele>
        <time>2016-03-20T13:50:11Z</time>
      </trkpt>
      <trkpt lat="43.68224" lon="6.72812">
        <ele>705</ele>
        <time>2016-03-20T13:50:17Z</time>
      </trkpt>
      <trkpt lat="43.68227" lon="6.72826">
        <ele>707</ele>
        <time>2016-03-20T13:50:23Z</time>
      </trkpt>
      <trkpt lat="43.6823" lon="6.7284">
        <ele>707</ele>
        <time>2016-03-20T13:50:29Z</time>
      </trkpt>
      <trkpt lat="43.68232" lon="6.72853">
        <ele>708</ele>
        <time>2016-03-20T13:50:35Z</time>
      </trkpt>
      <trkpt lat="43.68237" lon="6.72866">
        <ele>708</ele>
        <time>2016-03-20T13:50:41Z</time>
      </trkpt>
      <trkpt lat="43.6824" lon="6.7288">
        <ele>708</ele>
        <time>2016-03-20T13:50:47Z</time>
      </trkpt>
      <trkpt lat="43.68245" lon="6.72891">
        <ele>708</ele>
        <time>2016-03-20T13:50:53Z</time>
      </trkpt>
      <trkpt lat="43.6825" lon="6.72902">
        <ele>708</ele>
        <time>2016-03-20T13:50:59Z</time>
      </trkpt>
      <trkpt lat="43.68258" lon="6.72914">
        <ele>709</ele>
        <time>2016-03-20T13:51:05Z</time>
      </trkpt>
      <trkpt lat="43.68265" lon="6.72926">
        <ele>709</ele>
        <time>2016-03-20T13:51:11Z</time>
      </trkpt>
      <trkpt lat="43.68273" lon="6.72938">
        <ele>709</ele>
        <time>2016-03-20T13:51:17Z</time>
      </trkpt>
      <trkpt lat="43.68279" lon="6.72951">
        <ele>710</ele>
        <time>2016-03-20T13:51:23Z</time>
      </trkpt>
      <trkpt lat="43.68285" lon="6.72964">
        <ele>710</ele>
        <time>2016-03-20T13:51:30Z</time>
      </trkpt>
      <trkpt lat="43.68289" lon="6.72977">
        <ele>712</ele>
        <time>2016-03-20T13:51:36Z</time>
      </trkpt>
      <trkpt lat="43.68294" lon="6.72992">
        <ele>712</ele>
        <time>2016-03-20T13:51:42Z</time>
      </trkpt>
      <trkpt lat="43.68295" lon="6.73009">
        <ele>712</ele>
        <time>2016-03-20T13:51:49Z</time>
      </trkpt>
      <trkpt lat="43.68298" lon="6.73024">
        <ele>715</ele>
        <time>2016-03-20T13:51:55Z</time>
      </trkpt>
      <trkpt lat="43.68299" lon="6.7303">
        <ele>716</ele>
        <time>2016-03-20T13:51:58Z</time>
      </trkpt>
      <trkpt lat="43.68301" lon="6.73039">
        <ele>717</ele>
        <time>2016-03-20T13:52:03Z</time>
      </trkpt>
      <trkpt lat="43.68304" lon="6.73052">
        <ele>719</ele>
        <time>2016-03-20T13:52:09Z</time>
      </trkpt>
      <trkpt lat="43.68308" lon="6.73067">
        <ele>721</ele>
        <time>2016-03-20T13:52:15Z</time>
      </trkpt>
      <trkpt lat="43.68312" lon="6.73077">
        <ele>722</ele>
        <time>2016-03-20T13:52:20Z</time>
      </trkpt>
      <trkpt lat="43.68318" lon="6.7309">
        <ele>723</ele>
        <time>2016-03-20T13:52:26Z</time>
      </trkpt>
      <trkpt lat="43.68321" lon="6.731">
        <ele>721</ele>
        <time>2016-03-20T13:52:31Z</time>
      </trkpt>
      <trkpt lat="43.68325" lon="6.73113">
        <ele>721</ele>
        <time>2016-03-20T13:52:37Z</time>
      </trkpt>
      <trkpt lat="43.68329" lon="6.73126">
        <ele>723</ele>
        <time>2016-03-20T13:52:43Z</time>
      </trkpt>
      <trkpt lat="43.68334" lon="6.73139">
        <ele>723</ele>
        <time>2016-03-20T13:52:49Z</time>
      </trkpt>
      <trkpt lat="43.68338" lon="6.73152">
        <ele>724</ele>
        <time>2016-03-20T13:52:55Z</time>
      </trkpt>
      <trkpt lat="43.68343" lon="6.73164">
        <ele>726</ele>
        <time>2016-03-20T13:53:01Z</time>
      </trkpt>
      <trkpt lat="43.68347" lon="6.73176">
        <ele>726</ele>
        <time>2016-03-20T13:53:07Z</time>
      </trkpt>
      <trkpt lat="43.68351" lon="6.73186">
        <ele>726</ele>
        <time>2016-03-20T13:53:13Z</time>
      </trkpt>
      <trkpt lat="43.68357" lon="6.73197">
        <ele>725</ele>
        <time>2016-03-20T13:53:19Z</time>
      </trkpt>
      <trkpt lat="43.68361" lon="6.73206">
        <ele>726</ele>
        <time>2016-03-20T13:53:24Z</time>
      </trkpt>
      <trkpt lat="43.68367" lon="6.73217">
        <ele>726</ele>
        <time>2016-03-20T13:53:30Z</time>
      </trkpt>
      <trkpt lat="43.68371" lon="6.73225">
        <ele>727</ele>
        <time>2016-03-20T13:53:35Z</time>
      </trkpt>
      <trkpt lat="43.68374" lon="6.73233">
        <ele>729</ele>
        <time>2016-03-20T13:53:40Z</time>
      </trkpt>
      <trkpt lat="43.68378" lon="6.73244">
        <ele>729</ele>
        <time>2016-03-20T13:53:47Z</time>
      </trkpt>
      <trkpt lat="43.68382" lon="6.73251">
        <ele>730</ele>
        <time>2016-03-20T13:53:52Z</time>
      </trkpt>
      <trkpt lat="43.68386" lon="6.73258">
        <ele>731</ele>
        <time>2016-03-20T13:53:57Z</time>
      </trkpt>
      <trkpt lat="43.68394" lon="6.73269">
        <ele>729</ele>
        <time>2016-03-20T13:54:03Z</time>
      </trkpt>
      <trkpt lat="43.68402" lon="6.73279">
        <ele>729</ele>
        <time>2016-03-20T13:54:10Z</time>
      </trkpt>
      <trkpt lat="43.68411" lon="6.73276">
        <ele>730</ele>
        <time>2016-03-20T13:54:17Z</time>
      </trkpt>
      <trkpt lat="43.68411" lon="6.73266">
        <ele>732</ele>
        <time>2016-03-20T13:54:22Z</time>
      </trkpt>
      <trkpt lat="43.6841" lon="6.73253">
        <ele>733</ele>
        <time>2016-03-20T13:54:28Z</time>
      </trkpt>
      <trkpt lat="43.6841" lon="6.7324">
        <ele>734</ele>
        <time>2016-03-20T13:54:34Z</time>
      </trkpt>
      <trkpt lat="43.68411" lon="6.73226">
        <ele>735</ele>
        <time>2016-03-20T13:54:40Z</time>
      </trkpt>
      <trkpt lat="43.68412" lon="6.73212">
        <ele>737</ele>
        <time>2016-03-20T13:54:46Z</time>
      </trkpt>
      <trkpt lat="43.68411" lon="6.73197">
        <ele>738</ele>
        <time>2016-03-20T13:54:52Z</time>
      </trkpt>
      <trkpt lat="43.68407" lon="6.73182">
        <ele>739</ele>
        <time>2016-03-20T13:54:58Z</time>
      </trkpt>
      <trkpt lat="43.68406" lon="6.73165">
        <ele>737</ele>
        <time>2016-03-20T13:55:04Z</time>
      </trkpt>
      <trkpt lat="43.68404" lon="6.73149">
        <ele>741</ele>
        <time>2016-03-20T13:55:10Z</time>
      </trkpt>
      <trkpt lat="43.68405" lon="6.73131">
        <ele>741</ele>
        <time>2016-03-20T13:55:16Z</time>
      </trkpt>
      <trkpt lat="43.68409" lon="6.73114">
        <ele>742</ele>
        <time>2016-03-20T13:55:22Z</time>
      </trkpt>
      <trkpt lat="43.68413" lon="6.73101">
        <ele>743</ele>
        <time>2016-03-20T13:55:28Z</time>
      </trkpt>
      <trkpt lat="43.68414" lon="6.73087">
        <ele>743</ele>
        <time>2016-03-20T13:55:34Z</time>
      </trkpt>
      <trkpt lat="43.68417" lon="6.73074">
        <ele>745</ele>
        <time>2016-03-20T13:55:40Z</time>
      </trkpt>
      <trkpt lat="43.68422" lon="6.73061">
        <ele>748</ele>
        <time>2016-03-20T13:55:46Z</time>
      </trkpt>
      <trkpt lat="43.68428" lon="6.73048">
        <ele>749</ele>
        <time>2016-03-20T13:55:52Z</time>
      </trkpt>
      <trkpt lat="43.68434" lon="6.73036">
        <ele>750</ele>
        <time>2016-03-20T13:55:58Z</time>
      </trkpt>
      <trkpt lat="43.68439" lon="6.73024">
        <ele>751</ele>
        <time>2016-03-20T13:56:04Z</time>
      </trkpt>
      <trkpt lat="43.68447" lon="6.73011">
        <ele>751</ele>
        <time>2016-03-20T13:56:10Z</time>
      </trkpt>
      <trkpt lat="43.68452" lon="6.72999">
        <ele>752</ele>
        <time>2016-03-20T13:56:16Z</time>
      </trkpt>
      <trkpt lat="43.68457" lon="6.72987">
        <ele>754</ele>
        <time>2016-03-20T13:56:22Z</time>
      </trkpt>
      <trkpt lat="43.68463" lon="6.72973">
        <ele>756</ele>
        <time>2016-03-20T13:56:28Z</time>
      </trkpt>
      <trkpt lat="43.68472" lon="6.72959">
        <ele>754</ele>
        <time>2016-03-20T13:56:34Z</time>
      </trkpt>
      <trkpt lat="43.68479" lon="6.72947">
        <ele>754</ele>
        <time>2016-03-20T13:56:40Z</time>
      </trkpt>
      <trkpt lat="43.68487" lon="6.72934">
        <ele>754</ele>
        <time>2016-03-20T13:56:46Z</time>
      </trkpt>
      <trkpt lat="43.68494" lon="6.72922">
        <ele>752</ele>
        <time>2016-03-20T13:56:52Z</time>
      </trkpt>
      <trkpt lat="43.68503" lon="6.7291">
        <ele>751</ele>
        <time>2016-03-20T13:56:58Z</time>
      </trkpt>
      <trkpt lat="43.68507" lon="6.729">
        <ele>754</ele>
        <time>2016-03-20T13:57:04Z</time>
      </trkpt>
      <trkpt lat="43.68514" lon="6.72889">
        <ele>756</ele>
        <time>2016-03-20T13:57:10Z</time>
      </trkpt>
      <trkpt lat="43.68521" lon="6.72879">
        <ele>757</ele>
        <time>2016-03-20T13:57:16Z</time>
      </trkpt>
      <trkpt lat="43.68529" lon="6.72867">
        <ele>758</ele>
        <time>2016-03-20T13:57:22Z</time>
      </trkpt>
      <trkpt lat="43.68536" lon="6.72854">
        <ele>760</ele>
        <time>2016-03-20T13:57:28Z</time>
      </trkpt>
      <trkpt lat="43.68544" lon="6.72844">
        <ele>761</ele>
        <time>2016-03-20T13:57:34Z</time>
      </trkpt>
      <trkpt lat="43.68553" lon="6.72836">
        <ele>761</ele>
        <time>2016-03-20T13:57:40Z</time>
      </trkpt>
      <trkpt lat="43.68564" lon="6.7283">
        <ele>761</ele>
        <time>2016-03-20T13:57:46Z</time>
      </trkpt>
      <trkpt lat="43.68575" lon="6.72825">
        <ele>762</ele>
        <time>2016-03-20T13:57:52Z</time>
      </trkpt>
      <trkpt lat="43.68586" lon="6.72825">
        <ele>764</ele>
        <time>2016-03-20T13:57:58Z</time>
      </trkpt>
      <trkpt lat="43.68599" lon="6.72824">
        <ele>766</ele>
        <time>2016-03-20T13:58:04Z</time>
      </trkpt>
      <trkpt lat="43.6861" lon="6.72828">
        <ele>767</ele>
        <time>2016-03-20T13:58:10Z</time>
      </trkpt>
      <trkpt lat="43.68621" lon="6.72826">
        <ele>765</ele>
        <time>2016-03-20T13:58:16Z</time>
      </trkpt>
      <trkpt lat="43.6863" lon="6.72824">
        <ele>765</ele>
        <time>2016-03-20T13:58:21Z</time>
      </trkpt>
      <trkpt lat="43.68637" lon="6.72821">
        <ele>765</ele>
        <time>2016-03-20T13:58:26Z</time>
      </trkpt>
      <trkpt lat="43.68647" lon="6.72815">
        <ele>766</ele>
        <time>2016-03-20T13:58:32Z</time>
      </trkpt>
      <trkpt lat="43.68653" lon="6.72808">
        <ele>768</ele>
        <time>2016-03-20T13:58:37Z</time>
      </trkpt>
      <trkpt lat="43.68661" lon="6.72801">
        <ele>768</ele>
        <time>2016-03-20T13:58:43Z</time>
      </trkpt>
      <trkpt lat="43.68666" lon="6.72789">
        <ele>770</ele>
        <time>2016-03-20T13:58:49Z</time>
      </trkpt>
      <trkpt lat="43.68673" lon="6.7278">
        <ele>772</ele>
        <time>2016-03-20T13:58:55Z</time>
      </trkpt>
      <trkpt lat="43.68682" lon="6.72769">
        <ele>773</ele>
        <time>2016-03-20T13:59:01Z</time>
      </trkpt>
      <trkpt lat="43.6869" lon="6.72761">
        <ele>774</ele>
        <time>2016-03-20T13:59:07Z</time>
      </trkpt>
      <trkpt lat="43.68694" lon="6.72759">
        <ele>775</ele>
        <time>2016-03-20T13:59:13Z</time>
      </trkpt>
      <trkpt lat="43.68697" lon="6.72762">
        <ele>777</ele>
        <time>2016-03-20T14:00:20Z</time>
      </trkpt>
      <trkpt lat="43.68697" lon="6.72757">
        <ele>779</ele>
        <time>2016-03-20T14:00:56Z</time>
      </trkpt>
      <trkpt lat="43.68707" lon="6.72748">
        <ele>779</ele>
        <time>2016-03-20T14:01:02Z</time>
      </trkpt>
      <trkpt lat="43.68718" lon="6.72736">
        <ele>776</ele>
        <time>2016-03-20T14:01:07Z</time>
      </trkpt>
      <trkpt lat="43.68729" lon="6.72728">
        <ele>775</ele>
        <time>2016-03-20T14:01:12Z</time>
      </trkpt>
      <trkpt lat="43.6874" lon="6.72719">
        <ele>775</ele>
        <time>2016-03-20T14:01:17Z</time>
      </trkpt>
      <trkpt lat="43.68753" lon="6.7271">
        <ele>774</ele>
        <time>2016-03-20T14:01:22Z</time>
      </trkpt>
      <trkpt lat="43.68764" lon="6.72703">
        <ele>775</ele>
        <time>2016-03-20T14:01:27Z</time>
      </trkpt>
      <trkpt lat="43.68775" lon="6.72695">
        <ele>775</ele>
        <time>2016-03-20T14:01:32Z</time>
      </trkpt>
      <trkpt lat="43.68786" lon="6.72686">
        <ele>775</ele>
        <time>2016-03-20T14:01:37Z</time>
      </trkpt>
      <trkpt lat="43.68801" lon="6.72679">
        <ele>776</ele>
        <time>2016-03-20T14:01:43Z</time>
      </trkpt>
      <trkpt lat="43.68814" lon="6.72676">
        <ele>779</ele>
        <time>2016-03-20T14:01:49Z</time>
      </trkpt>
      <trkpt lat="43.68825" lon="6.72676">
        <ele>781</ele>
        <time>2016-03-20T14:01:55Z</time>
      </trkpt>
      <trkpt lat="43.68841" lon="6.72672">
        <ele>781</ele>
        <time>2016-03-20T14:02:01Z</time>
      </trkpt>
      <trkpt lat="43.68856" lon="6.72671">
        <ele>780</ele>
        <time>2016-03-20T14:02:06Z</time>
      </trkpt>
      <trkpt lat="43.6887" lon="6.7267">
        <ele>781</ele>
        <time>2016-03-20T14:02:11Z</time>
      </trkpt>
      <trkpt lat="43.68887" lon="6.72673">
        <ele>782</ele>
        <time>2016-03-20T14:02:17Z</time>
      </trkpt>
      <trkpt lat="43.689" lon="6.72674">
        <ele>783</ele>
        <time>2016-03-20T14:02:22Z</time>
      </trkpt>
      <trkpt lat="43.68915" lon="6.72676">
        <ele>785</ele>
        <time>2016-03-20T14:02:27Z</time>
      </trkpt>
      <trkpt lat="43.68931" lon="6.72678">
        <ele>786</ele>
        <time>2016-03-20T14:02:33Z</time>
      </trkpt>
      <trkpt lat="43.68943" lon="6.72675">
        <ele>786</ele>
        <time>2016-03-20T14:02:38Z</time>
      </trkpt>
      <trkpt lat="43.68955" lon="6.72667">
        <ele>786</ele>
        <time>2016-03-20T14:02:43Z</time>
      </trkpt>
      <trkpt lat="43.68957" lon="6.72649">
        <ele>785</ele>
        <time>2016-03-20T14:02:48Z</time>
      </trkpt>
      <trkpt lat="43.68952" lon="6.7263">
        <ele>786</ele>
        <time>2016-03-20T14:02:53Z</time>
      </trkpt>
      <trkpt lat="43.68951" lon="6.72626">
        <ele>786</ele>
        <time>2016-03-20T14:02:54Z</time>
      </trkpt>
      <trkpt lat="43.68947" lon="6.7261">
        <ele>787</ele>
        <time>2016-03-20T14:02:59Z</time>
      </trkpt>
      <trkpt lat="43.68943" lon="6.7259">
        <ele>786</ele>
        <time>2016-03-20T14:03:05Z</time>
      </trkpt>
      <trkpt lat="43.68944" lon="6.72573">
        <ele>788</ele>
        <time>2016-03-20T14:03:11Z</time>
      </trkpt>
      <trkpt lat="43.68952" lon="6.72559">
        <ele>789</ele>
        <time>2016-03-20T14:03:17Z</time>
      </trkpt>
      <trkpt lat="43.68961" lon="6.72547">
        <ele>791</ele>
        <time>2016-03-20T14:03:22Z</time>
      </trkpt>
      <trkpt lat="43.68974" lon="6.72536">
        <ele>792</ele>
        <time>2016-03-20T14:03:27Z</time>
      </trkpt>
      <trkpt lat="43.68991" lon="6.72524">
        <ele>790</ele>
        <time>2016-03-20T14:03:32Z</time>
      </trkpt>
      <trkpt lat="43.69009" lon="6.72514">
        <ele>788</ele>
        <time>2016-03-20T14:03:37Z</time>
      </trkpt>
      <trkpt lat="43.69021" lon="6.725">
        <ele>788</ele>
        <time>2016-03-20T14:03:42Z</time>
      </trkpt>
      <trkpt lat="43.69018" lon="6.72478">
        <ele>789</ele>
        <time>2016-03-20T14:03:47Z</time>
      </trkpt>
      <trkpt lat="43.69004" lon="6.72464">
        <ele>788</ele>
        <time>2016-03-20T14:03:53Z</time>
      </trkpt>
      <trkpt lat="43.68994" lon="6.72455">
        <ele>790</ele>
        <time>2016-03-20T14:03:58Z</time>
      </trkpt>
      <trkpt lat="43.68983" lon="6.72444">
        <ele>793</ele>
        <time>2016-03-20T14:04:04Z</time>
      </trkpt>
      <trkpt lat="43.68971" lon="6.72437">
        <ele>796</ele>
        <time>2016-03-20T14:04:10Z</time>
      </trkpt>
      <trkpt lat="43.6896" lon="6.72431">
        <ele>798</ele>
        <time>2016-03-20T14:04:16Z</time>
      </trkpt>
      <trkpt lat="43.68951" lon="6.72422">
        <ele>796</ele>
        <time>2016-03-20T14:04:21Z</time>
      </trkpt>
      <trkpt lat="43.68947" lon="6.72404">
        <ele>797</ele>
        <time>2016-03-20T14:04:27Z</time>
      </trkpt>
      <trkpt lat="43.68948" lon="6.72384">
        <ele>795</ele>
        <time>2016-03-20T14:04:33Z</time>
      </trkpt>
      <trkpt lat="43.68952" lon="6.72365">
        <ele>793</ele>
        <time>2016-03-20T14:04:38Z</time>
      </trkpt>
      <trkpt lat="43.68957" lon="6.72347">
        <ele>794</ele>
        <time>2016-03-20T14:04:43Z</time>
      </trkpt>
      <trkpt lat="43.68961" lon="6.72329">
        <ele>794</ele>
        <time>2016-03-20T14:04:48Z</time>
      </trkpt>
      <trkpt lat="43.6897" lon="6.7231">
        <ele>797</ele>
        <time>2016-03-20T14:04:54Z</time>
      </trkpt>
      <trkpt lat="43.68981" lon="6.72297">
        <ele>796</ele>
        <time>2016-03-20T14:04:59Z</time>
      </trkpt>
      <trkpt lat="43.68989" lon="6.72284">
        <ele>798</ele>
        <time>2016-03-20T14:05:04Z</time>
      </trkpt>
      <trkpt lat="43.69001" lon="6.72271">
        <ele>798</ele>
        <time>2016-03-20T14:05:10Z</time>
      </trkpt>
      <trkpt lat="43.69011" lon="6.72259">
        <ele>800</ele>
        <time>2016-03-20T14:05:16Z</time>
      </trkpt>
      <trkpt lat="43.69022" lon="6.72248">
        <ele>801</ele>
        <time>2016-03-20T14:05:22Z</time>
      </trkpt>
      <trkpt lat="43.69033" lon="6.72237">
        <ele>801</ele>
        <time>2016-03-20T14:05:28Z</time>
      </trkpt>
      <trkpt lat="43.69044" lon="6.72225">
        <ele>803</ele>
        <time>2016-03-20T14:05:34Z</time>
      </trkpt>
      <trkpt lat="43.69054" lon="6.72217">
        <ele>803</ele>
        <time>2016-03-20T14:05:39Z</time>
      </trkpt>
      <trkpt lat="43.69065" lon="6.72207">
        <ele>804</ele>
        <time>2016-03-20T14:05:45Z</time>
      </trkpt>
      <trkpt lat="43.69071" lon="6.72196">
        <ele>806</ele>
        <time>2016-03-20T14:05:51Z</time>
      </trkpt>
      <trkpt lat="43.69081" lon="6.72184">
        <ele>808</ele>
        <time>2016-03-20T14:05:57Z</time>
      </trkpt>
      <trkpt lat="43.69089" lon="6.72171">
        <ele>809</ele>
        <time>2016-03-20T14:06:03Z</time>
      </trkpt>
      <trkpt lat="43.69098" lon="6.7216">
        <ele>809</ele>
        <time>2016-03-20T14:06:09Z</time>
      </trkpt>
      <trkpt lat="43.69105" lon="6.72149">
        <ele>810</ele>
        <time>2016-03-20T14:06:15Z</time>
      </trkpt>
      <trkpt lat="43.69113" lon="6.72137">
        <ele>810</ele>
        <time>2016-03-20T14:06:21Z</time>
      </trkpt>
      <trkpt lat="43.6912" lon="6.72125">
        <ele>811</ele>
        <time>2016-03-20T14:06:27Z</time>
      </trkpt>
      <trkpt lat="43.69129" lon="6.72116">
        <ele>812</ele>
        <time>2016-03-20T14:06:33Z</time>
      </trkpt>
      <trkpt lat="43.69134" lon="6.72112">
        <ele>812</ele>
        <time>2016-03-20T14:06:38Z</time>
      </trkpt>
      <trkpt lat="43.69141" lon="6.72108">
        <ele>812</ele>
        <time>2016-03-20T14:06:43Z</time>
      </trkpt>
      <trkpt lat="43.69144" lon="6.72105">
        <ele>815</ele>
        <time>2016-03-20T14:07:29Z</time>
      </trkpt>
      <trkpt lat="43.69154" lon="6.72099">
        <ele>817</ele>
        <time>2016-03-20T14:07:35Z</time>
      </trkpt>
      <trkpt lat="43.69159" lon="6.72094">
        <ele>819</ele>
        <time>2016-03-20T14:07:42Z</time>
      </trkpt>
      <trkpt lat="43.69164" lon="6.72088">
        <ele>821</ele>
        <time>2016-03-20T14:07:48Z</time>
      </trkpt>
      <trkpt lat="43.69168" lon="6.72082">
        <ele>824</ele>
        <time>2016-03-20T14:07:56Z</time>
      </trkpt>
      <trkpt lat="43.69173" lon="6.72075">
        <ele>825</ele>
        <time>2016-03-20T14:08:03Z</time>
      </trkpt>
      <trkpt lat="43.69178" lon="6.7207">
        <ele>828</ele>
        <time>2016-03-20T14:08:09Z</time>
      </trkpt>
      <trkpt lat="43.69184" lon="6.72066">
        <ele>828</ele>
        <time>2016-03-20T14:08:16Z</time>
      </trkpt>
      <trkpt lat="43.6919" lon="6.72059">
        <ele>831</ele>
        <time>2016-03-20T14:08:24Z</time>
      </trkpt>
      <trkpt lat="43.69195" lon="6.72055">
        <ele>833</ele>
        <time>2016-03-20T14:08:29Z</time>
      </trkpt>
      <trkpt lat="43.69199" lon="6.7205">
        <ele>833</ele>
        <time>2016-03-20T14:08:34Z</time>
      </trkpt>
      <trkpt lat="43.69203" lon="6.72043">
        <ele>834</ele>
        <time>2016-03-20T14:08:41Z</time>
      </trkpt>
      <trkpt lat="43.69201" lon="6.72035">
        <ele>839</ele>
        <time>2016-03-20T14:08:50Z</time>
      </trkpt>
      <trkpt lat="43.692" lon="6.72027">
        <ele>837</ele>
        <time>2016-03-20T14:08:55Z</time>
      </trkpt>
      <trkpt lat="43.69201" lon="6.72022">
        <ele>841</ele>
        <time>2016-03-20T14:09:01Z</time>
      </trkpt>
      <trkpt lat="43.69202" lon="6.72014">
        <ele>839</ele>
        <time>2016-03-20T14:09:09Z</time>
      </trkpt>
      <trkpt lat="43.69205" lon="6.72012">
        <ele>837</ele>
        <time>2016-03-20T14:09:14Z</time>
      </trkpt>
      <trkpt lat="43.69208" lon="6.72014">
        <ele>836</ele>
        <time>2016-03-20T14:09:18Z</time>
      </trkpt>
      <trkpt lat="43.69214" lon="6.72011">
        <ele>834</ele>
        <time>2016-03-20T14:09:27Z</time>
      </trkpt>
      <trkpt lat="43.69212" lon="6.72001">
        <ele>838</ele>
        <time>2016-03-20T14:09:36Z</time>
      </trkpt>
      <trkpt lat="43.6921" lon="6.71993">
        <ele>837</ele>
        <time>2016-03-20T14:09:43Z</time>
      </trkpt>
      <trkpt lat="43.69209" lon="6.71985">
        <ele>836</ele>
        <time>2016-03-20T14:09:50Z</time>
      </trkpt>
      <trkpt lat="43.69208" lon="6.71978">
        <ele>843</ele>
        <time>2016-03-20T14:09:58Z</time>
      </trkpt>
      <trkpt lat="43.69205" lon="6.71968">
        <ele>841</ele>
        <time>2016-03-20T14:10:04Z</time>
      </trkpt>
      <trkpt lat="43.69202" lon="6.7196">
        <ele>843</ele>
        <time>2016-03-20T14:10:11Z</time>
      </trkpt>
      <trkpt lat="43.69201" lon="6.71956">
        <ele>846</ele>
        <time>2016-03-20T14:10:16Z</time>
      </trkpt>
      <trkpt lat="43.692" lon="6.71951">
        <ele>850</ele>
        <time>2016-03-20T14:10:21Z</time>
      </trkpt>
      <trkpt lat="43.692" lon="6.71942">
        <ele>853</ele>
        <time>2016-03-20T14:10:28Z</time>
      </trkpt>
      <trkpt lat="43.69197" lon="6.71934">
        <ele>851</ele>
        <time>2016-03-20T14:10:33Z</time>
      </trkpt>
      <trkpt lat="43.69195" lon="6.71925">
        <ele>847</ele>
        <time>2016-03-20T14:10:39Z</time>
      </trkpt>
      <trkpt lat="43.69193" lon="6.71917">
        <ele>849</ele>
        <time>2016-03-20T14:10:45Z</time>
      </trkpt>
      <trkpt lat="43.6919" lon="6.71909">
        <ele>846</ele>
        <time>2016-03-20T14:10:50Z</time>
      </trkpt>
      <trkpt lat="43.69188" lon="6.71901">
        <ele>849</ele>
        <time>2016-03-20T14:10:56Z</time>
      </trkpt>
      <trkpt lat="43.69185" lon="6.71892">
        <ele>849</ele>
        <time>2016-03-20T14:11:01Z</time>
      </trkpt>
      <trkpt lat="43.69182" lon="6.71883">
        <ele>848</ele>
        <time>2016-03-20T14:11:07Z</time>
      </trkpt>
      <trkpt lat="43.6918" lon="6.71875">
        <ele>852</ele>
        <time>2016-03-20T14:11:14Z</time>
      </trkpt>
      <trkpt lat="43.69179" lon="6.71866">
        <ele>854</ele>
        <time>2016-03-20T14:11:21Z</time>
      </trkpt>
      <trkpt lat="43.69176" lon="6.71853">
        <ele>852</ele>
        <time>2016-03-20T14:11:28Z</time>
      </trkpt>
      <trkpt lat="43.69175" lon="6.71845">
        <ele>853</ele>
        <time>2016-03-20T14:11:33Z</time>
      </trkpt>
      <trkpt lat="43.69174" lon="6.71836">
        <ele>853</ele>
        <time>2016-03-20T14:11:39Z</time>
      </trkpt>
      <trkpt lat="43.69172" lon="6.71827">
        <ele>852</ele>
        <time>2016-03-20T14:11:44Z</time>
      </trkpt>
      <trkpt lat="43.69174" lon="6.71819">
        <ele>854</ele>
        <time>2016-03-20T14:11:50Z</time>
      </trkpt>
      <trkpt lat="43.69173" lon="6.71812">
        <ele>855</ele>
        <time>2016-03-20T14:11:58Z</time>
      </trkpt>
      <trkpt lat="43.6917" lon="6.71794">
        <ele>855</ele>
        <time>2016-03-20T14:12:04Z</time>
      </trkpt>
      <trkpt lat="43.69168" lon="6.71779">
        <ele>857</ele>
        <time>2016-03-20T14:12:10Z</time>
      </trkpt>
      <trkpt lat="43.69166" lon="6.71764">
        <ele>859</ele>
        <time>2016-03-20T14:12:16Z</time>
      </trkpt>
      <trkpt lat="43.69167" lon="6.71749">
        <ele>858</ele>
        <time>2016-03-20T14:12:22Z</time>
      </trkpt>
      <trkpt lat="43.69169" lon="6.71736">
        <ele>854</ele>
        <time>2016-03-20T14:12:28Z</time>
      </trkpt>
      <trkpt lat="43.69176" lon="6.71727">
        <ele>858</ele>
        <time>2016-03-20T14:12:56Z</time>
      </trkpt>
      <trkpt lat="43.69178" lon="6.7172">
        <ele>858</ele>
        <time>2016-03-20T14:13:02Z</time>
      </trkpt>
      <trkpt lat="43.6918" lon="6.71712">
        <ele>859</ele>
        <time>2016-03-20T14:13:09Z</time>
      </trkpt>
      <trkpt lat="43.69181" lon="6.71708">
        <ele>855</ele>
        <time>2016-03-20T14:14:39Z</time>
      </trkpt>
      <trkpt lat="43.69181" lon="6.71704">
        <ele>855</ele>
        <time>2016-03-20T14:14:46Z</time>
      </trkpt>
      <trkpt lat="43.69184" lon="6.71684">
        <ele>852</ele>
        <time>2016-03-20T14:14:51Z</time>
      </trkpt>
      <trkpt lat="43.69194" lon="6.71663">
        <ele>852</ele>
        <time>2016-03-20T14:14:56Z</time>
      </trkpt>
      <trkpt lat="43.69208" lon="6.71637">
        <ele>851</ele>
        <time>2016-03-20T14:15:01Z</time>
      </trkpt>
      <trkpt lat="43.69221" lon="6.7161">
        <ele>849</ele>
        <time>2016-03-20T14:15:06Z</time>
      </trkpt>
      <trkpt lat="43.69231" lon="6.71587">
        <ele>851</ele>
        <time>2016-03-20T14:15:11Z</time>
      </trkpt>
      <trkpt lat="43.69239" lon="6.71565">
        <ele>854</ele>
        <time>2016-03-20T14:15:16Z</time>
      </trkpt>
      <trkpt lat="43.69245" lon="6.71542">
        <ele>850</ele>
        <time>2016-03-20T14:15:21Z</time>
      </trkpt>
      <trkpt lat="43.69245" lon="6.71514">
        <ele>851</ele>
        <time>2016-03-20T14:15:26Z</time>
      </trkpt>
      <trkpt lat="43.69236" lon="6.71494">
        <ele>852</ele>
        <time>2016-03-20T14:15:31Z</time>
      </trkpt>
      <trkpt lat="43.69225" lon="6.71483">
        <ele>853</ele>
        <time>2016-03-20T14:15:37Z</time>
      </trkpt>
      <trkpt lat="43.69213" lon="6.71474">
        <ele>856</ele>
        <time>2016-03-20T14:15:42Z</time>
      </trkpt>
      <trkpt lat="43.69207" lon="6.71475">
        <ele>862</ele>
        <time>2016-03-20T14:15:48Z</time>
      </trkpt>
      <trkpt lat="43.69194" lon="6.71469">
        <ele>861</ele>
        <time>2016-03-20T14:15:53Z</time>
      </trkpt>
      <trkpt lat="43.69189" lon="6.71468">
        <ele>862</ele>
        <time>2016-03-20T14:15:55Z</time>
      </trkpt>
      <trkpt lat="43.6917" lon="6.7146">
        <ele>858</ele>
        <time>2016-03-20T14:16:00Z</time>
      </trkpt>
      <trkpt lat="43.69158" lon="6.71452">
        <ele>857</ele>
        <time>2016-03-20T14:16:04Z</time>
      </trkpt>
      <trkpt lat="43.69145" lon="6.71437">
        <ele>857</ele>
        <time>2016-03-20T14:16:09Z</time>
      </trkpt>
      <trkpt lat="43.69139" lon="6.7142">
        <ele>857</ele>
        <time>2016-03-20T14:16:14Z</time>
      </trkpt>
      <trkpt lat="43.69121" lon="6.71412">
        <ele>858</ele>
        <time>2016-03-20T14:16:20Z</time>
      </trkpt>
      <trkpt lat="43.69118" lon="6.71401">
        <ele>856</ele>
        <time>2016-03-20T14:16:22Z</time>
      </trkpt>
      <trkpt lat="43.69112" lon="6.71396">
        <ele>857</ele>
        <time>2016-03-20T14:16:24Z</time>
      </trkpt>
      <trkpt lat="43.69099" lon="6.71387">
        <ele>857</ele>
        <time>2016-03-20T14:16:29Z</time>
      </trkpt>
      <trkpt lat="43.69086" lon="6.71378">
        <ele>857</ele>
        <time>2016-03-20T14:16:34Z</time>
      </trkpt>
      <trkpt lat="43.6907" lon="6.71378">
        <ele>856</ele>
        <time>2016-03-20T14:16:40Z</time>
      </trkpt>
      <trkpt lat="43.69066" lon="6.71385">
        <ele>863</ele>
        <time>2016-03-20T14:17:25Z</time>
      </trkpt>
      <trkpt lat="43.69066" lon="6.71389">
        <ele>858</ele>
        <time>2016-03-20T14:17:36Z</time>
      </trkpt>
    </trkseg>
  </trk>
</gpx>